<?xml version="1.0" encoding="UTF-8" standalone="no" ?>
<gpx xmlns="http://www.topografix.com/GPX/1/1" xmlns:xsi="http://www.w3.org/2001/XMLSchema-instance" xsi:schemaLocation="http://www.topografix.com/GPX/1/1 http://www.topografix.com/GPX/1/1/gpx.xsd" version="1.1" creator="VisuGPX - https://www.visugpx.com">
  <metadata>
    <name>La jarrezienne 2018</name>
    <desc><![CDATA[sans plaquettes !]]></desc>
  </metadata>
  <trk>
    <name><![CDATA[La jarrezienne (sans plaquettes 😢)]]></name>
    <trkseg>
      <trkpt lat="45.67901" lon="4.70137">
        <ele>349.3</ele>
        <time>2018-10-14T06:20:28Z</time>
      </trkpt>
      <trkpt lat="45.67899" lon="4.70137">
        <ele>349.3</ele>
        <time>2018-10-14T06:20:30Z</time>
      </trkpt>
      <trkpt lat="45.67896" lon="4.70139">
        <ele>349.2</ele>
        <time>2018-10-14T06:20:33Z</time>
      </trkpt>
      <trkpt lat="45.67889" lon="4.70141">
        <ele>349.1</ele>
        <time>2018-10-14T06:20:39Z</time>
      </trkpt>
      <trkpt lat="45.67884" lon="4.7014">
        <ele>349.1</ele>
        <time>2018-10-14T06:20:42Z</time>
      </trkpt>
      <trkpt lat="45.67879" lon="4.70138">
        <ele>349</ele>
        <time>2018-10-14T06:20:45Z</time>
      </trkpt>
      <trkpt lat="45.67871" lon="4.70128">
        <ele>348.9</ele>
        <time>2018-10-14T06:20:50Z</time>
      </trkpt>
      <trkpt lat="45.67871" lon="4.70123">
        <ele>349.1</ele>
        <time>2018-10-14T06:20:51Z</time>
      </trkpt>
      <trkpt lat="45.67869" lon="4.70107">
        <ele>349.7</ele>
        <time>2018-10-14T06:20:55Z</time>
      </trkpt>
      <trkpt lat="45.67868" lon="4.70098">
        <ele>350.1</ele>
        <time>2018-10-14T06:20:57Z</time>
      </trkpt>
      <trkpt lat="45.67865" lon="4.70077">
        <ele>350.8</ele>
        <time>2018-10-14T06:21:02Z</time>
      </trkpt>
      <trkpt lat="45.67864" lon="4.70064">
        <ele>351.3</ele>
        <time>2018-10-14T06:21:05Z</time>
      </trkpt>
      <trkpt lat="45.67863" lon="4.70046">
        <ele>351.9</ele>
        <time>2018-10-14T06:21:09Z</time>
      </trkpt>
      <trkpt lat="45.67861" lon="4.70034">
        <ele>352.3</ele>
        <time>2018-10-14T06:21:12Z</time>
      </trkpt>
      <trkpt lat="45.6786" lon="4.70025">
        <ele>352.6</ele>
        <time>2018-10-14T06:21:14Z</time>
      </trkpt>
      <trkpt lat="45.67859" lon="4.70022">
        <ele>352.7</ele>
        <time>2018-10-14T06:21:15Z</time>
      </trkpt>
      <trkpt lat="45.67857" lon="4.70006">
        <ele>353.5</ele>
        <time>2018-10-14T06:21:19Z</time>
      </trkpt>
      <trkpt lat="45.67855" lon="4.69997">
        <ele>353.8</ele>
        <time>2018-10-14T06:21:21Z</time>
      </trkpt>
      <trkpt lat="45.67851" lon="4.69984">
        <ele>354.4</ele>
        <time>2018-10-14T06:21:24Z</time>
      </trkpt>
      <trkpt lat="45.67846" lon="4.69962">
        <ele>355.1</ele>
        <time>2018-10-14T06:21:29Z</time>
      </trkpt>
      <trkpt lat="45.67845" lon="4.69958">
        <ele>355.2</ele>
        <time>2018-10-14T06:21:30Z</time>
      </trkpt>
      <trkpt lat="45.67841" lon="4.69945">
        <ele>355.6</ele>
        <time>2018-10-14T06:21:33Z</time>
      </trkpt>
      <trkpt lat="45.67837" lon="4.69928">
        <ele>356.1</ele>
        <time>2018-10-14T06:21:37Z</time>
      </trkpt>
      <trkpt lat="45.67836" lon="4.69923">
        <ele>356.2</ele>
        <time>2018-10-14T06:21:38Z</time>
      </trkpt>
      <trkpt lat="45.67832" lon="4.69904">
        <ele>356.8</ele>
        <time>2018-10-14T06:21:43Z</time>
      </trkpt>
      <trkpt lat="45.67831" lon="4.69879">
        <ele>357.5</ele>
        <time>2018-10-14T06:21:48Z</time>
      </trkpt>
      <trkpt lat="45.67831" lon="4.69865">
        <ele>357.9</ele>
        <time>2018-10-14T06:21:51Z</time>
      </trkpt>
      <trkpt lat="45.6783" lon="4.69838">
        <ele>359</ele>
        <time>2018-10-14T06:21:57Z</time>
      </trkpt>
      <trkpt lat="45.67831" lon="4.69833">
        <ele>359.2</ele>
        <time>2018-10-14T06:21:58Z</time>
      </trkpt>
      <trkpt lat="45.6783" lon="4.69806">
        <ele>360.3</ele>
        <time>2018-10-14T06:22:04Z</time>
      </trkpt>
      <trkpt lat="45.6783" lon="4.69802">
        <ele>360.4</ele>
        <time>2018-10-14T06:22:05Z</time>
      </trkpt>
      <trkpt lat="45.67829" lon="4.6979">
        <ele>360.9</ele>
        <time>2018-10-14T06:22:08Z</time>
      </trkpt>
      <trkpt lat="45.67834" lon="4.69775">
        <ele>361.7</ele>
        <time>2018-10-14T06:22:10Z</time>
      </trkpt>
      <trkpt lat="45.67836" lon="4.69767">
        <ele>362.2</ele>
        <time>2018-10-14T06:22:11Z</time>
      </trkpt>
      <trkpt lat="45.67837" lon="4.69761">
        <ele>362.5</ele>
        <time>2018-10-14T06:22:12Z</time>
      </trkpt>
      <trkpt lat="45.67838" lon="4.69751">
        <ele>362.8</ele>
        <time>2018-10-14T06:22:14Z</time>
      </trkpt>
      <trkpt lat="45.67838" lon="4.69709">
        <ele>363.7</ele>
        <time>2018-10-14T06:22:23Z</time>
      </trkpt>
      <trkpt lat="45.67833" lon="4.69673">
        <ele>363.9</ele>
        <time>2018-10-14T06:22:31Z</time>
      </trkpt>
      <trkpt lat="45.67825" lon="4.6964">
        <ele>364</ele>
        <time>2018-10-14T06:22:39Z</time>
      </trkpt>
      <trkpt lat="45.67824" lon="4.69636">
        <ele>364</ele>
        <time>2018-10-14T06:22:40Z</time>
      </trkpt>
      <trkpt lat="45.67817" lon="4.69612">
        <ele>364.4</ele>
        <time>2018-10-14T06:22:46Z</time>
      </trkpt>
      <trkpt lat="45.67813" lon="4.69599">
        <ele>364.7</ele>
        <time>2018-10-14T06:22:49Z</time>
      </trkpt>
      <trkpt lat="45.6781" lon="4.69587">
        <ele>364.9</ele>
        <time>2018-10-14T06:22:52Z</time>
      </trkpt>
      <trkpt lat="45.67803" lon="4.69569">
        <ele>365.2</ele>
        <time>2018-10-14T06:22:56Z</time>
      </trkpt>
      <trkpt lat="45.67801" lon="4.69559">
        <ele>365.3</ele>
        <time>2018-10-14T06:22:58Z</time>
      </trkpt>
      <trkpt lat="45.67793" lon="4.69527">
        <ele>365.9</ele>
        <time>2018-10-14T06:23:04Z</time>
      </trkpt>
      <trkpt lat="45.6779" lon="4.69507">
        <ele>366.4</ele>
        <time>2018-10-14T06:23:08Z</time>
      </trkpt>
      <trkpt lat="45.67787" lon="4.69486">
        <ele>366.8</ele>
        <time>2018-10-14T06:23:12Z</time>
      </trkpt>
      <trkpt lat="45.67786" lon="4.69436">
        <ele>367</ele>
        <time>2018-10-14T06:23:21Z</time>
      </trkpt>
      <trkpt lat="45.67787" lon="4.69396">
        <ele>367.1</ele>
        <time>2018-10-14T06:23:28Z</time>
      </trkpt>
      <trkpt lat="45.67782" lon="4.69367">
        <ele>367.1</ele>
        <time>2018-10-14T06:23:33Z</time>
      </trkpt>
      <trkpt lat="45.67777" lon="4.69357">
        <ele>367</ele>
        <time>2018-10-14T06:23:35Z</time>
      </trkpt>
      <trkpt lat="45.67773" lon="4.69347">
        <ele>366.9</ele>
        <time>2018-10-14T06:23:37Z</time>
      </trkpt>
      <trkpt lat="45.67765" lon="4.69331">
        <ele>366.8</ele>
        <time>2018-10-14T06:23:40Z</time>
      </trkpt>
      <trkpt lat="45.67764" lon="4.69326">
        <ele>366.8</ele>
        <time>2018-10-14T06:23:41Z</time>
      </trkpt>
      <trkpt lat="45.67767" lon="4.69305">
        <ele>366.5</ele>
        <time>2018-10-14T06:23:45Z</time>
      </trkpt>
      <trkpt lat="45.67761" lon="4.69293">
        <ele>366.4</ele>
        <time>2018-10-14T06:23:48Z</time>
      </trkpt>
      <trkpt lat="45.67748" lon="4.69287">
        <ele>366.7</ele>
        <time>2018-10-14T06:23:52Z</time>
      </trkpt>
      <trkpt lat="45.67739" lon="4.69278">
        <ele>366.9</ele>
        <time>2018-10-14T06:23:55Z</time>
      </trkpt>
      <trkpt lat="45.67737" lon="4.69274">
        <ele>367</ele>
        <time>2018-10-14T06:23:56Z</time>
      </trkpt>
      <trkpt lat="45.67735" lon="4.6927">
        <ele>367</ele>
        <time>2018-10-14T06:23:57Z</time>
      </trkpt>
      <trkpt lat="45.67719" lon="4.69243">
        <ele>367.4</ele>
        <time>2018-10-14T06:24:04Z</time>
      </trkpt>
      <trkpt lat="45.67699" lon="4.69214">
        <ele>368.6</ele>
        <time>2018-10-14T06:24:12Z</time>
      </trkpt>
      <trkpt lat="45.67675" lon="4.69189">
        <ele>370.1</ele>
        <time>2018-10-14T06:24:21Z</time>
      </trkpt>
      <trkpt lat="45.6765" lon="4.69175">
        <ele>371.4</ele>
        <time>2018-10-14T06:24:29Z</time>
      </trkpt>
      <trkpt lat="45.67628" lon="4.69163">
        <ele>372.5</ele>
        <time>2018-10-14T06:24:36Z</time>
      </trkpt>
      <trkpt lat="45.67595" lon="4.69144">
        <ele>374.4</ele>
        <time>2018-10-14T06:24:46Z</time>
      </trkpt>
      <trkpt lat="45.67574" lon="4.69128">
        <ele>375.6</ele>
        <time>2018-10-14T06:24:53Z</time>
      </trkpt>
      <trkpt lat="45.67568" lon="4.69123">
        <ele>375.9</ele>
        <time>2018-10-14T06:24:55Z</time>
      </trkpt>
      <trkpt lat="45.67554" lon="4.6911">
        <ele>376.6</ele>
        <time>2018-10-14T06:25:00Z</time>
      </trkpt>
      <trkpt lat="45.67546" lon="4.69103">
        <ele>377</ele>
        <time>2018-10-14T06:25:03Z</time>
      </trkpt>
      <trkpt lat="45.67537" lon="4.69095">
        <ele>377.3</ele>
        <time>2018-10-14T06:25:06Z</time>
      </trkpt>
      <trkpt lat="45.67519" lon="4.69077">
        <ele>377.6</ele>
        <time>2018-10-14T06:25:12Z</time>
      </trkpt>
      <trkpt lat="45.67511" lon="4.6907">
        <ele>377.7</ele>
        <time>2018-10-14T06:25:14Z</time>
      </trkpt>
      <trkpt lat="45.67491" lon="4.6905">
        <ele>377.7</ele>
        <time>2018-10-14T06:25:20Z</time>
      </trkpt>
      <trkpt lat="45.67479" lon="4.69035">
        <ele>377.7</ele>
        <time>2018-10-14T06:25:24Z</time>
      </trkpt>
      <trkpt lat="45.67465" lon="4.69012">
        <ele>377.8</ele>
        <time>2018-10-14T06:25:29Z</time>
      </trkpt>
      <trkpt lat="45.67463" lon="4.69007">
        <ele>377.8</ele>
        <time>2018-10-14T06:25:30Z</time>
      </trkpt>
      <trkpt lat="45.67452" lon="4.68972">
        <ele>378</ele>
        <time>2018-10-14T06:25:36Z</time>
      </trkpt>
      <trkpt lat="45.67447" lon="4.68954">
        <ele>377.8</ele>
        <time>2018-10-14T06:25:39Z</time>
      </trkpt>
      <trkpt lat="45.67439" lon="4.68925">
        <ele>377.3</ele>
        <time>2018-10-14T06:25:44Z</time>
      </trkpt>
      <trkpt lat="45.67431" lon="4.68888">
        <ele>376.2</ele>
        <time>2018-10-14T06:25:51Z</time>
      </trkpt>
      <trkpt lat="45.67428" lon="4.68844">
        <ele>374.1</ele>
        <time>2018-10-14T06:25:58Z</time>
      </trkpt>
      <trkpt lat="45.67423" lon="4.68816">
        <ele>373.2</ele>
        <time>2018-10-14T06:26:02Z</time>
      </trkpt>
      <trkpt lat="45.67419" lon="4.68803">
        <ele>373</ele>
        <time>2018-10-14T06:26:04Z</time>
      </trkpt>
      <trkpt lat="45.674" lon="4.68756">
        <ele>372.2</ele>
        <time>2018-10-14T06:26:11Z</time>
      </trkpt>
      <trkpt lat="45.67394" lon="4.68742">
        <ele>372.1</ele>
        <time>2018-10-14T06:26:13Z</time>
      </trkpt>
      <trkpt lat="45.67382" lon="4.68713">
        <ele>372.2</ele>
        <time>2018-10-14T06:26:17Z</time>
      </trkpt>
      <trkpt lat="45.67373" lon="4.68691">
        <ele>372.4</ele>
        <time>2018-10-14T06:26:20Z</time>
      </trkpt>
      <trkpt lat="45.67365" lon="4.68671">
        <ele>372.5</ele>
        <time>2018-10-14T06:26:23Z</time>
      </trkpt>
      <trkpt lat="45.67349" lon="4.68632">
        <ele>373.3</ele>
        <time>2018-10-14T06:26:29Z</time>
      </trkpt>
      <trkpt lat="45.67337" lon="4.68599">
        <ele>374.4</ele>
        <time>2018-10-14T06:26:34Z</time>
      </trkpt>
      <trkpt lat="45.67322" lon="4.6856">
        <ele>375.7</ele>
        <time>2018-10-14T06:26:40Z</time>
      </trkpt>
      <trkpt lat="45.67309" lon="4.68538">
        <ele>376.2</ele>
        <time>2018-10-14T06:26:44Z</time>
      </trkpt>
      <trkpt lat="45.67306" lon="4.68534">
        <ele>376.3</ele>
        <time>2018-10-14T06:26:45Z</time>
      </trkpt>
      <trkpt lat="45.67289" lon="4.68524">
        <ele>376.5</ele>
        <time>2018-10-14T06:26:49Z</time>
      </trkpt>
      <trkpt lat="45.67285" lon="4.68522">
        <ele>376.6</ele>
        <time>2018-10-14T06:26:50Z</time>
      </trkpt>
      <trkpt lat="45.67249" lon="4.68505">
        <ele>376.8</ele>
        <time>2018-10-14T06:26:59Z</time>
      </trkpt>
      <trkpt lat="45.67234" lon="4.68485">
        <ele>376.9</ele>
        <time>2018-10-14T06:27:04Z</time>
      </trkpt>
      <trkpt lat="45.67231" lon="4.68481">
        <ele>376.9</ele>
        <time>2018-10-14T06:27:05Z</time>
      </trkpt>
      <trkpt lat="45.67214" lon="4.68462">
        <ele>377.8</ele>
        <time>2018-10-14T06:27:10Z</time>
      </trkpt>
      <trkpt lat="45.67206" lon="4.68456">
        <ele>378</ele>
        <time>2018-10-14T06:27:12Z</time>
      </trkpt>
      <trkpt lat="45.67198" lon="4.68446">
        <ele>378.7</ele>
        <time>2018-10-14T06:27:16Z</time>
      </trkpt>
      <trkpt lat="45.67198" lon="4.68443">
        <ele>378.7</ele>
        <time>2018-10-14T06:27:17Z</time>
      </trkpt>
      <trkpt lat="45.67199" lon="4.68423">
        <ele>379.2</ele>
        <time>2018-10-14T06:27:21Z</time>
      </trkpt>
      <trkpt lat="45.672" lon="4.68372">
        <ele>380.6</ele>
        <time>2018-10-14T06:27:29Z</time>
      </trkpt>
      <trkpt lat="45.67198" lon="4.68323">
        <ele>382.1</ele>
        <time>2018-10-14T06:27:37Z</time>
      </trkpt>
      <trkpt lat="45.67197" lon="4.68287">
        <ele>382.9</ele>
        <time>2018-10-14T06:27:43Z</time>
      </trkpt>
      <trkpt lat="45.67195" lon="4.68235">
        <ele>384.2</ele>
        <time>2018-10-14T06:27:52Z</time>
      </trkpt>
      <trkpt lat="45.67195" lon="4.68229">
        <ele>384.3</ele>
        <time>2018-10-14T06:27:53Z</time>
      </trkpt>
      <trkpt lat="45.67197" lon="4.68184">
        <ele>385.6</ele>
        <time>2018-10-14T06:28:01Z</time>
      </trkpt>
      <trkpt lat="45.67208" lon="4.68141">
        <ele>386.1</ele>
        <time>2018-10-14T06:28:09Z</time>
      </trkpt>
      <trkpt lat="45.67222" lon="4.68094">
        <ele>387.8</ele>
        <time>2018-10-14T06:28:18Z</time>
      </trkpt>
      <trkpt lat="45.67219" lon="4.68074">
        <ele>389.1</ele>
        <time>2018-10-14T06:28:22Z</time>
      </trkpt>
      <trkpt lat="45.67213" lon="4.68059">
        <ele>389.8</ele>
        <time>2018-10-14T06:28:25Z</time>
      </trkpt>
      <trkpt lat="45.67208" lon="4.68046">
        <ele>390.3</ele>
        <time>2018-10-14T06:28:28Z</time>
      </trkpt>
      <trkpt lat="45.67205" lon="4.68037">
        <ele>390.8</ele>
        <time>2018-10-14T06:28:30Z</time>
      </trkpt>
      <trkpt lat="45.67197" lon="4.68015">
        <ele>391.9</ele>
        <time>2018-10-14T06:28:35Z</time>
      </trkpt>
      <trkpt lat="45.67192" lon="4.68">
        <ele>392.4</ele>
        <time>2018-10-14T06:28:38Z</time>
      </trkpt>
      <trkpt lat="45.67189" lon="4.67992">
        <ele>392.7</ele>
        <time>2018-10-14T06:28:40Z</time>
      </trkpt>
      <trkpt lat="45.67183" lon="4.67971">
        <ele>393.5</ele>
        <time>2018-10-14T06:28:45Z</time>
      </trkpt>
      <trkpt lat="45.67179" lon="4.67957">
        <ele>394.2</ele>
        <time>2018-10-14T06:28:48Z</time>
      </trkpt>
      <trkpt lat="45.67175" lon="4.67935">
        <ele>394.8</ele>
        <time>2018-10-14T06:28:52Z</time>
      </trkpt>
      <trkpt lat="45.67173" lon="4.67925">
        <ele>395.1</ele>
        <time>2018-10-14T06:28:54Z</time>
      </trkpt>
      <trkpt lat="45.67166" lon="4.679">
        <ele>396.1</ele>
        <time>2018-10-14T06:28:59Z</time>
      </trkpt>
      <trkpt lat="45.67161" lon="4.67879">
        <ele>396.7</ele>
        <time>2018-10-14T06:29:03Z</time>
      </trkpt>
      <trkpt lat="45.67158" lon="4.67864">
        <ele>397.1</ele>
        <time>2018-10-14T06:29:06Z</time>
      </trkpt>
      <trkpt lat="45.67156" lon="4.67854">
        <ele>397.5</ele>
        <time>2018-10-14T06:29:08Z</time>
      </trkpt>
      <trkpt lat="45.67153" lon="4.67835">
        <ele>398.6</ele>
        <time>2018-10-14T06:29:12Z</time>
      </trkpt>
      <trkpt lat="45.67153" lon="4.67825">
        <ele>399</ele>
        <time>2018-10-14T06:29:14Z</time>
      </trkpt>
      <trkpt lat="45.67152" lon="4.67815">
        <ele>399.4</ele>
        <time>2018-10-14T06:29:16Z</time>
      </trkpt>
      <trkpt lat="45.67149" lon="4.67791">
        <ele>400.4</ele>
        <time>2018-10-14T06:29:21Z</time>
      </trkpt>
      <trkpt lat="45.67149" lon="4.67782">
        <ele>400.9</ele>
        <time>2018-10-14T06:29:23Z</time>
      </trkpt>
      <trkpt lat="45.67149" lon="4.67763">
        <ele>401.7</ele>
        <time>2018-10-14T06:29:27Z</time>
      </trkpt>
      <trkpt lat="45.6715" lon="4.6774">
        <ele>402.2</ele>
        <time>2018-10-14T06:29:32Z</time>
      </trkpt>
      <trkpt lat="45.6715" lon="4.67721">
        <ele>402.9</ele>
        <time>2018-10-14T06:29:36Z</time>
      </trkpt>
      <trkpt lat="45.67146" lon="4.67703">
        <ele>403.7</ele>
        <time>2018-10-14T06:29:40Z</time>
      </trkpt>
      <trkpt lat="45.67143" lon="4.67695">
        <ele>404</ele>
        <time>2018-10-14T06:29:42Z</time>
      </trkpt>
      <trkpt lat="45.67139" lon="4.67685">
        <ele>404.6</ele>
        <time>2018-10-14T06:29:45Z</time>
      </trkpt>
      <trkpt lat="45.67134" lon="4.67673">
        <ele>404.9</ele>
        <time>2018-10-14T06:29:48Z</time>
      </trkpt>
      <trkpt lat="45.6713" lon="4.67661">
        <ele>405.1</ele>
        <time>2018-10-14T06:29:51Z</time>
      </trkpt>
      <trkpt lat="45.67124" lon="4.67646">
        <ele>405.4</ele>
        <time>2018-10-14T06:29:55Z</time>
      </trkpt>
      <trkpt lat="45.67122" lon="4.67638">
        <ele>405.4</ele>
        <time>2018-10-14T06:29:57Z</time>
      </trkpt>
      <trkpt lat="45.67122" lon="4.67616">
        <ele>405.4</ele>
        <time>2018-10-14T06:30:02Z</time>
      </trkpt>
      <trkpt lat="45.67126" lon="4.67577">
        <ele>405.2</ele>
        <time>2018-10-14T06:30:11Z</time>
      </trkpt>
      <trkpt lat="45.67124" lon="4.67551">
        <ele>405</ele>
        <time>2018-10-14T06:30:16Z</time>
      </trkpt>
      <trkpt lat="45.67122" lon="4.6754">
        <ele>405</ele>
        <time>2018-10-14T06:30:18Z</time>
      </trkpt>
      <trkpt lat="45.67118" lon="4.67524">
        <ele>405.2</ele>
        <time>2018-10-14T06:30:21Z</time>
      </trkpt>
      <trkpt lat="45.67113" lon="4.67509">
        <ele>405.5</ele>
        <time>2018-10-14T06:30:24Z</time>
      </trkpt>
      <trkpt lat="45.67099" lon="4.67466">
        <ele>406.8</ele>
        <time>2018-10-14T06:30:32Z</time>
      </trkpt>
      <trkpt lat="45.67092" lon="4.67449">
        <ele>407.5</ele>
        <time>2018-10-14T06:30:35Z</time>
      </trkpt>
      <trkpt lat="45.67083" lon="4.67423">
        <ele>408.4</ele>
        <time>2018-10-14T06:30:40Z</time>
      </trkpt>
      <trkpt lat="45.67078" lon="4.67414">
        <ele>408.7</ele>
        <time>2018-10-14T06:30:42Z</time>
      </trkpt>
      <trkpt lat="45.67069" lon="4.67396">
        <ele>409.1</ele>
        <time>2018-10-14T06:30:46Z</time>
      </trkpt>
      <trkpt lat="45.67066" lon="4.67392">
        <ele>409.2</ele>
        <time>2018-10-14T06:30:47Z</time>
      </trkpt>
      <trkpt lat="45.6705" lon="4.67362">
        <ele>410.1</ele>
        <time>2018-10-14T06:30:54Z</time>
      </trkpt>
      <trkpt lat="45.67049" lon="4.67357">
        <ele>410.2</ele>
        <time>2018-10-14T06:30:55Z</time>
      </trkpt>
      <trkpt lat="45.67036" lon="4.67318">
        <ele>410.8</ele>
        <time>2018-10-14T06:31:03Z</time>
      </trkpt>
      <trkpt lat="45.6703" lon="4.67298">
        <ele>411.4</ele>
        <time>2018-10-14T06:31:07Z</time>
      </trkpt>
      <trkpt lat="45.67027" lon="4.67285">
        <ele>411.6</ele>
        <time>2018-10-14T06:31:10Z</time>
      </trkpt>
      <trkpt lat="45.67015" lon="4.67257">
        <ele>411.5</ele>
        <time>2018-10-14T06:31:17Z</time>
      </trkpt>
      <trkpt lat="45.66995" lon="4.67226">
        <ele>410.6</ele>
        <time>2018-10-14T06:31:24Z</time>
      </trkpt>
      <trkpt lat="45.66991" lon="4.67212">
        <ele>410.3</ele>
        <time>2018-10-14T06:31:26Z</time>
      </trkpt>
      <trkpt lat="45.66987" lon="4.67196">
        <ele>410.1</ele>
        <time>2018-10-14T06:31:28Z</time>
      </trkpt>
      <trkpt lat="45.66976" lon="4.67156">
        <ele>409.9</ele>
        <time>2018-10-14T06:31:34Z</time>
      </trkpt>
      <trkpt lat="45.66972" lon="4.67146">
        <ele>409.8</ele>
        <time>2018-10-14T06:31:36Z</time>
      </trkpt>
      <trkpt lat="45.66967" lon="4.6713">
        <ele>409.3</ele>
        <time>2018-10-14T06:31:39Z</time>
      </trkpt>
      <trkpt lat="45.66964" lon="4.67126">
        <ele>409.1</ele>
        <time>2018-10-14T06:31:40Z</time>
      </trkpt>
      <trkpt lat="45.66953" lon="4.67119">
        <ele>409.7</ele>
        <time>2018-10-14T06:31:43Z</time>
      </trkpt>
      <trkpt lat="45.6695" lon="4.67119">
        <ele>409.9</ele>
        <time>2018-10-14T06:31:44Z</time>
      </trkpt>
      <trkpt lat="45.66944" lon="4.67117">
        <ele>410.5</ele>
        <time>2018-10-14T06:31:46Z</time>
      </trkpt>
      <trkpt lat="45.6694" lon="4.67112">
        <ele>411</ele>
        <time>2018-10-14T06:31:48Z</time>
      </trkpt>
      <trkpt lat="45.66935" lon="4.67103">
        <ele>411.5</ele>
        <time>2018-10-14T06:31:51Z</time>
      </trkpt>
      <trkpt lat="45.66931" lon="4.67092">
        <ele>412</ele>
        <time>2018-10-14T06:31:54Z</time>
      </trkpt>
      <trkpt lat="45.66931" lon="4.67088">
        <ele>412.2</ele>
        <time>2018-10-14T06:31:55Z</time>
      </trkpt>
      <trkpt lat="45.66927" lon="4.6707">
        <ele>413.2</ele>
        <time>2018-10-14T06:32:00Z</time>
      </trkpt>
      <trkpt lat="45.66926" lon="4.67067">
        <ele>413.4</ele>
        <time>2018-10-14T06:32:01Z</time>
      </trkpt>
      <trkpt lat="45.66918" lon="4.67056">
        <ele>414.2</ele>
        <time>2018-10-14T06:32:05Z</time>
      </trkpt>
      <trkpt lat="45.66917" lon="4.67052">
        <ele>414.3</ele>
        <time>2018-10-14T06:32:06Z</time>
      </trkpt>
      <trkpt lat="45.66904" lon="4.67023">
        <ele>415.8</ele>
        <time>2018-10-14T06:32:13Z</time>
      </trkpt>
      <trkpt lat="45.66895" lon="4.67002">
        <ele>416.9</ele>
        <time>2018-10-14T06:32:18Z</time>
      </trkpt>
      <trkpt lat="45.66887" lon="4.66987">
        <ele>417.7</ele>
        <time>2018-10-14T06:32:22Z</time>
      </trkpt>
      <trkpt lat="45.6688" lon="4.6697">
        <ele>418.9</ele>
        <time>2018-10-14T06:32:26Z</time>
      </trkpt>
      <trkpt lat="45.66874" lon="4.66957">
        <ele>419.6</ele>
        <time>2018-10-14T06:32:29Z</time>
      </trkpt>
      <trkpt lat="45.66872" lon="4.66954">
        <ele>419.8</ele>
        <time>2018-10-14T06:32:30Z</time>
      </trkpt>
      <trkpt lat="45.66862" lon="4.66937">
        <ele>420.7</ele>
        <time>2018-10-14T06:32:35Z</time>
      </trkpt>
      <trkpt lat="45.66849" lon="4.66915">
        <ele>422.1</ele>
        <time>2018-10-14T06:32:41Z</time>
      </trkpt>
      <trkpt lat="45.66847" lon="4.66912">
        <ele>422.4</ele>
        <time>2018-10-14T06:32:42Z</time>
      </trkpt>
      <trkpt lat="45.66844" lon="4.66904">
        <ele>422.9</ele>
        <time>2018-10-14T06:32:44Z</time>
      </trkpt>
      <trkpt lat="45.66842" lon="4.66896">
        <ele>423.3</ele>
        <time>2018-10-14T06:32:46Z</time>
      </trkpt>
      <trkpt lat="45.66835" lon="4.66879">
        <ele>424.1</ele>
        <time>2018-10-14T06:32:50Z</time>
      </trkpt>
      <trkpt lat="45.6683" lon="4.6687">
        <ele>424.6</ele>
        <time>2018-10-14T06:32:52Z</time>
      </trkpt>
      <trkpt lat="45.66827" lon="4.66866">
        <ele>424.8</ele>
        <time>2018-10-14T06:32:53Z</time>
      </trkpt>
      <trkpt lat="45.66816" lon="4.66851">
        <ele>425.8</ele>
        <time>2018-10-14T06:32:58Z</time>
      </trkpt>
      <trkpt lat="45.66808" lon="4.66844">
        <ele>426.5</ele>
        <time>2018-10-14T06:33:02Z</time>
      </trkpt>
      <trkpt lat="45.66799" lon="4.66831">
        <ele>427.7</ele>
        <time>2018-10-14T06:33:08Z</time>
      </trkpt>
      <trkpt lat="45.66797" lon="4.66829">
        <ele>427.8</ele>
        <time>2018-10-14T06:33:09Z</time>
      </trkpt>
      <trkpt lat="45.66793" lon="4.66824">
        <ele>428</ele>
        <time>2018-10-14T06:33:12Z</time>
      </trkpt>
      <trkpt lat="45.66788" lon="4.66816">
        <ele>428.4</ele>
        <time>2018-10-14T06:33:16Z</time>
      </trkpt>
      <trkpt lat="45.66787" lon="4.66814">
        <ele>428.5</ele>
        <time>2018-10-14T06:33:17Z</time>
      </trkpt>
      <trkpt lat="45.66785" lon="4.66811">
        <ele>428.7</ele>
        <time>2018-10-14T06:33:18Z</time>
      </trkpt>
      <trkpt lat="45.66775" lon="4.66796">
        <ele>429.7</ele>
        <time>2018-10-14T06:33:25Z</time>
      </trkpt>
      <trkpt lat="45.66771" lon="4.66792">
        <ele>430</ele>
        <time>2018-10-14T06:33:27Z</time>
      </trkpt>
      <trkpt lat="45.66763" lon="4.66781">
        <ele>430.9</ele>
        <time>2018-10-14T06:33:33Z</time>
      </trkpt>
      <trkpt lat="45.6676" lon="4.66778">
        <ele>431.1</ele>
        <time>2018-10-14T06:33:35Z</time>
      </trkpt>
      <trkpt lat="45.66757" lon="4.66773">
        <ele>431.4</ele>
        <time>2018-10-14T06:33:39Z</time>
      </trkpt>
      <trkpt lat="45.66756" lon="4.66772">
        <ele>431.5</ele>
        <time>2018-10-14T06:33:40Z</time>
      </trkpt>
      <trkpt lat="45.66751" lon="4.66765">
        <ele>431.9</ele>
        <time>2018-10-14T06:33:44Z</time>
      </trkpt>
      <trkpt lat="45.66747" lon="4.6676">
        <ele>432.3</ele>
        <time>2018-10-14T06:33:50Z</time>
      </trkpt>
      <trkpt lat="45.66746" lon="4.66759">
        <ele>432.4</ele>
        <time>2018-10-14T06:33:52Z</time>
      </trkpt>
      <trkpt lat="45.6674" lon="4.66752">
        <ele>433</ele>
        <time>2018-10-14T06:34:03Z</time>
      </trkpt>
      <trkpt lat="45.66738" lon="4.66748">
        <ele>433.2</ele>
        <time>2018-10-14T06:34:05Z</time>
      </trkpt>
      <trkpt lat="45.66734" lon="4.6675">
        <ele>433.4</ele>
        <time>2018-10-14T06:34:09Z</time>
      </trkpt>
      <trkpt lat="45.66734" lon="4.66753">
        <ele>433.6</ele>
        <time>2018-10-14T06:34:11Z</time>
      </trkpt>
      <trkpt lat="45.66734" lon="4.66759">
        <ele>433.8</ele>
        <time>2018-10-14T06:34:14Z</time>
      </trkpt>
      <trkpt lat="45.66734" lon="4.66765">
        <ele>433.9</ele>
        <time>2018-10-14T06:34:16Z</time>
      </trkpt>
      <trkpt lat="45.66731" lon="4.66783">
        <ele>433.9</ele>
        <time>2018-10-14T06:34:23Z</time>
      </trkpt>
      <trkpt lat="45.66726" lon="4.66804">
        <ele>434</ele>
        <time>2018-10-14T06:34:31Z</time>
      </trkpt>
      <trkpt lat="45.66721" lon="4.66818">
        <ele>433.9</ele>
        <time>2018-10-14T06:34:39Z</time>
      </trkpt>
      <trkpt lat="45.66712" lon="4.66833">
        <ele>433.7</ele>
        <time>2018-10-14T06:34:48Z</time>
      </trkpt>
      <trkpt lat="45.66699" lon="4.66848">
        <ele>433.5</ele>
        <time>2018-10-14T06:34:54Z</time>
      </trkpt>
      <trkpt lat="45.66676" lon="4.66859">
        <ele>433.9</ele>
        <time>2018-10-14T06:35:02Z</time>
      </trkpt>
      <trkpt lat="45.66666" lon="4.66845">
        <ele>434.3</ele>
        <time>2018-10-14T06:35:06Z</time>
      </trkpt>
      <trkpt lat="45.66655" lon="4.66822">
        <ele>435</ele>
        <time>2018-10-14T06:35:12Z</time>
      </trkpt>
      <trkpt lat="45.66649" lon="4.66798">
        <ele>435.6</ele>
        <time>2018-10-14T06:35:18Z</time>
      </trkpt>
      <trkpt lat="45.66647" lon="4.66782">
        <ele>436</ele>
        <time>2018-10-14T06:35:22Z</time>
      </trkpt>
      <trkpt lat="45.66645" lon="4.66762">
        <ele>436.4</ele>
        <time>2018-10-14T06:35:27Z</time>
      </trkpt>
      <trkpt lat="45.6664" lon="4.66745">
        <ele>436.8</ele>
        <time>2018-10-14T06:35:31Z</time>
      </trkpt>
      <trkpt lat="45.66632" lon="4.66723">
        <ele>437.3</ele>
        <time>2018-10-14T06:35:36Z</time>
      </trkpt>
      <trkpt lat="45.66619" lon="4.66689">
        <ele>438.3</ele>
        <time>2018-10-14T06:35:44Z</time>
      </trkpt>
      <trkpt lat="45.66609" lon="4.66673">
        <ele>438.7</ele>
        <time>2018-10-14T06:35:49Z</time>
      </trkpt>
      <trkpt lat="45.66604" lon="4.66667">
        <ele>438.9</ele>
        <time>2018-10-14T06:35:51Z</time>
      </trkpt>
      <trkpt lat="45.66599" lon="4.66662">
        <ele>439.1</ele>
        <time>2018-10-14T06:35:53Z</time>
      </trkpt>
      <trkpt lat="45.66591" lon="4.66655">
        <ele>439.5</ele>
        <time>2018-10-14T06:35:56Z</time>
      </trkpt>
      <trkpt lat="45.66579" lon="4.66646">
        <ele>440</ele>
        <time>2018-10-14T06:36:00Z</time>
      </trkpt>
      <trkpt lat="45.66572" lon="4.66641">
        <ele>440.2</ele>
        <time>2018-10-14T06:36:02Z</time>
      </trkpt>
      <trkpt lat="45.66555" lon="4.66628">
        <ele>440.8</ele>
        <time>2018-10-14T06:36:08Z</time>
      </trkpt>
      <trkpt lat="45.66553" lon="4.66626">
        <ele>440.9</ele>
        <time>2018-10-14T06:36:09Z</time>
      </trkpt>
      <trkpt lat="45.66533" lon="4.66613">
        <ele>441.6</ele>
        <time>2018-10-14T06:36:16Z</time>
      </trkpt>
      <trkpt lat="45.6653" lon="4.66611">
        <ele>441.7</ele>
        <time>2018-10-14T06:36:17Z</time>
      </trkpt>
      <trkpt lat="45.665" lon="4.66585">
        <ele>442.8</ele>
        <time>2018-10-14T06:36:27Z</time>
      </trkpt>
      <trkpt lat="45.66484" lon="4.66574">
        <ele>443.4</ele>
        <time>2018-10-14T06:36:32Z</time>
      </trkpt>
      <trkpt lat="45.66479" lon="4.66573">
        <ele>443.5</ele>
        <time>2018-10-14T06:36:33Z</time>
      </trkpt>
      <trkpt lat="45.66451" lon="4.6658">
        <ele>444.5</ele>
        <time>2018-10-14T06:36:39Z</time>
      </trkpt>
      <trkpt lat="45.66427" lon="4.66587">
        <ele>445.3</ele>
        <time>2018-10-14T06:36:44Z</time>
      </trkpt>
      <trkpt lat="45.66413" lon="4.66591">
        <ele>445.7</ele>
        <time>2018-10-14T06:36:47Z</time>
      </trkpt>
      <trkpt lat="45.66404" lon="4.66593">
        <ele>446</ele>
        <time>2018-10-14T06:36:49Z</time>
      </trkpt>
      <trkpt lat="45.66392" lon="4.66593">
        <ele>446.4</ele>
        <time>2018-10-14T06:36:52Z</time>
      </trkpt>
      <trkpt lat="45.66362" lon="4.66586">
        <ele>447.5</ele>
        <time>2018-10-14T06:36:59Z</time>
      </trkpt>
      <trkpt lat="45.66342" lon="4.66588">
        <ele>448.1</ele>
        <time>2018-10-14T06:37:04Z</time>
      </trkpt>
      <trkpt lat="45.66327" lon="4.6661">
        <ele>448.8</ele>
        <time>2018-10-14T06:37:09Z</time>
      </trkpt>
      <trkpt lat="45.66321" lon="4.66618">
        <ele>449</ele>
        <time>2018-10-14T06:37:11Z</time>
      </trkpt>
      <trkpt lat="45.66312" lon="4.66622">
        <ele>449.2</ele>
        <time>2018-10-14T06:37:13Z</time>
      </trkpt>
      <trkpt lat="45.66296" lon="4.66636">
        <ele>449.5</ele>
        <time>2018-10-14T06:37:18Z</time>
      </trkpt>
      <trkpt lat="45.66291" lon="4.66646">
        <ele>449.7</ele>
        <time>2018-10-14T06:37:20Z</time>
      </trkpt>
      <trkpt lat="45.66279" lon="4.66659">
        <ele>450</ele>
        <time>2018-10-14T06:37:24Z</time>
      </trkpt>
      <trkpt lat="45.66272" lon="4.66661">
        <ele>450.2</ele>
        <time>2018-10-14T06:37:27Z</time>
      </trkpt>
      <trkpt lat="45.6627" lon="4.6666">
        <ele>450.2</ele>
        <time>2018-10-14T06:37:28Z</time>
      </trkpt>
      <trkpt lat="45.66269" lon="4.66658">
        <ele>450.3</ele>
        <time>2018-10-14T06:37:29Z</time>
      </trkpt>
      <trkpt lat="45.66269" lon="4.66651">
        <ele>450.4</ele>
        <time>2018-10-14T06:37:31Z</time>
      </trkpt>
      <trkpt lat="45.66269" lon="4.66647">
        <ele>450.4</ele>
        <time>2018-10-14T06:37:32Z</time>
      </trkpt>
      <trkpt lat="45.6627" lon="4.66643">
        <ele>450.5</ele>
        <time>2018-10-14T06:37:33Z</time>
      </trkpt>
      <trkpt lat="45.66272" lon="4.66621">
        <ele>451.1</ele>
        <time>2018-10-14T06:37:38Z</time>
      </trkpt>
      <trkpt lat="45.66273" lon="4.66617">
        <ele>451.3</ele>
        <time>2018-10-14T06:37:39Z</time>
      </trkpt>
      <trkpt lat="45.66277" lon="4.66588">
        <ele>453</ele>
        <time>2018-10-14T06:37:45Z</time>
      </trkpt>
      <trkpt lat="45.66282" lon="4.66566">
        <ele>454.4</ele>
        <time>2018-10-14T06:37:50Z</time>
      </trkpt>
      <trkpt lat="45.66283" lon="4.66562">
        <ele>454.6</ele>
        <time>2018-10-14T06:37:51Z</time>
      </trkpt>
      <trkpt lat="45.66284" lon="4.66548">
        <ele>455.1</ele>
        <time>2018-10-14T06:37:54Z</time>
      </trkpt>
      <trkpt lat="45.66282" lon="4.66527">
        <ele>456</ele>
        <time>2018-10-14T06:37:58Z</time>
      </trkpt>
      <trkpt lat="45.66281" lon="4.66522">
        <ele>456.3</ele>
        <time>2018-10-14T06:37:59Z</time>
      </trkpt>
      <trkpt lat="45.66283" lon="4.66488">
        <ele>458.2</ele>
        <time>2018-10-14T06:38:06Z</time>
      </trkpt>
      <trkpt lat="45.66284" lon="4.66479">
        <ele>458.7</ele>
        <time>2018-10-14T06:38:08Z</time>
      </trkpt>
      <trkpt lat="45.66288" lon="4.66463">
        <ele>459.7</ele>
        <time>2018-10-14T06:38:12Z</time>
      </trkpt>
      <trkpt lat="45.6629" lon="4.66459">
        <ele>459.9</ele>
        <time>2018-10-14T06:38:13Z</time>
      </trkpt>
      <trkpt lat="45.66294" lon="4.66448">
        <ele>460.8</ele>
        <time>2018-10-14T06:38:16Z</time>
      </trkpt>
      <trkpt lat="45.66298" lon="4.66439">
        <ele>461.6</ele>
        <time>2018-10-14T06:38:19Z</time>
      </trkpt>
      <trkpt lat="45.66303" lon="4.66429">
        <ele>462.4</ele>
        <time>2018-10-14T06:38:22Z</time>
      </trkpt>
      <trkpt lat="45.66304" lon="4.66423">
        <ele>462.9</ele>
        <time>2018-10-14T06:38:24Z</time>
      </trkpt>
      <trkpt lat="45.66303" lon="4.66421">
        <ele>463.1</ele>
        <time>2018-10-14T06:38:25Z</time>
      </trkpt>
      <trkpt lat="45.66301" lon="4.66417">
        <ele>463.5</ele>
        <time>2018-10-14T06:38:27Z</time>
      </trkpt>
      <trkpt lat="45.66299" lon="4.66414">
        <ele>463.7</ele>
        <time>2018-10-14T06:38:28Z</time>
      </trkpt>
      <trkpt lat="45.66295" lon="4.6641">
        <ele>464.3</ele>
        <time>2018-10-14T06:38:30Z</time>
      </trkpt>
      <trkpt lat="45.66285" lon="4.66406">
        <ele>465.3</ele>
        <time>2018-10-14T06:38:34Z</time>
      </trkpt>
      <trkpt lat="45.66278" lon="4.66403">
        <ele>466.1</ele>
        <time>2018-10-14T06:38:37Z</time>
      </trkpt>
      <trkpt lat="45.66276" lon="4.66402">
        <ele>466.4</ele>
        <time>2018-10-14T06:38:38Z</time>
      </trkpt>
      <trkpt lat="45.66261" lon="4.66395">
        <ele>468</ele>
        <time>2018-10-14T06:38:44Z</time>
      </trkpt>
      <trkpt lat="45.66258" lon="4.66393">
        <ele>468.2</ele>
        <time>2018-10-14T06:38:45Z</time>
      </trkpt>
      <trkpt lat="45.66252" lon="4.6639">
        <ele>468.7</ele>
        <time>2018-10-14T06:38:48Z</time>
      </trkpt>
      <trkpt lat="45.66239" lon="4.66382">
        <ele>469.9</ele>
        <time>2018-10-14T06:38:53Z</time>
      </trkpt>
      <trkpt lat="45.66237" lon="4.6638">
        <ele>470.2</ele>
        <time>2018-10-14T06:38:54Z</time>
      </trkpt>
      <trkpt lat="45.66225" lon="4.66365">
        <ele>471.8</ele>
        <time>2018-10-14T06:39:00Z</time>
      </trkpt>
      <trkpt lat="45.66223" lon="4.66363">
        <ele>472.1</ele>
        <time>2018-10-14T06:39:01Z</time>
      </trkpt>
      <trkpt lat="45.66212" lon="4.6635">
        <ele>473.2</ele>
        <time>2018-10-14T06:39:07Z</time>
      </trkpt>
      <trkpt lat="45.66205" lon="4.66342">
        <ele>474.1</ele>
        <time>2018-10-14T06:39:12Z</time>
      </trkpt>
      <trkpt lat="45.66198" lon="4.66335">
        <ele>474.9</ele>
        <time>2018-10-14T06:39:16Z</time>
      </trkpt>
      <trkpt lat="45.66195" lon="4.66332">
        <ele>475.2</ele>
        <time>2018-10-14T06:39:18Z</time>
      </trkpt>
      <trkpt lat="45.66189" lon="4.66325">
        <ele>475.9</ele>
        <time>2018-10-14T06:39:23Z</time>
      </trkpt>
      <trkpt lat="45.66188" lon="4.66323">
        <ele>476.1</ele>
        <time>2018-10-14T06:39:24Z</time>
      </trkpt>
      <trkpt lat="45.66185" lon="4.66321">
        <ele>476.3</ele>
        <time>2018-10-14T06:39:26Z</time>
      </trkpt>
      <trkpt lat="45.66179" lon="4.66318">
        <ele>476.8</ele>
        <time>2018-10-14T06:39:30Z</time>
      </trkpt>
      <trkpt lat="45.66174" lon="4.66315">
        <ele>477.3</ele>
        <time>2018-10-14T06:39:33Z</time>
      </trkpt>
      <trkpt lat="45.66172" lon="4.66314">
        <ele>477.5</ele>
        <time>2018-10-14T06:39:34Z</time>
      </trkpt>
      <trkpt lat="45.66168" lon="4.66311">
        <ele>478</ele>
        <time>2018-10-14T06:39:37Z</time>
      </trkpt>
      <trkpt lat="45.66163" lon="4.66309">
        <ele>478.4</ele>
        <time>2018-10-14T06:39:40Z</time>
      </trkpt>
      <trkpt lat="45.66162" lon="4.66308">
        <ele>478.6</ele>
        <time>2018-10-14T06:39:41Z</time>
      </trkpt>
      <trkpt lat="45.66156" lon="4.66303">
        <ele>479.3</ele>
        <time>2018-10-14T06:39:45Z</time>
      </trkpt>
      <trkpt lat="45.66151" lon="4.663">
        <ele>479.7</ele>
        <time>2018-10-14T06:39:48Z</time>
      </trkpt>
      <trkpt lat="45.66146" lon="4.66297">
        <ele>480.2</ele>
        <time>2018-10-14T06:39:51Z</time>
      </trkpt>
      <trkpt lat="45.6614" lon="4.66292">
        <ele>481</ele>
        <time>2018-10-14T06:39:55Z</time>
      </trkpt>
      <trkpt lat="45.66134" lon="4.66289">
        <ele>481.8</ele>
        <time>2018-10-14T06:39:59Z</time>
      </trkpt>
      <trkpt lat="45.6613" lon="4.66286">
        <ele>482.2</ele>
        <time>2018-10-14T06:40:02Z</time>
      </trkpt>
      <trkpt lat="45.66127" lon="4.66283">
        <ele>482.5</ele>
        <time>2018-10-14T06:40:04Z</time>
      </trkpt>
      <trkpt lat="45.6612" lon="4.66277">
        <ele>483.2</ele>
        <time>2018-10-14T06:40:09Z</time>
      </trkpt>
      <trkpt lat="45.66113" lon="4.66271">
        <ele>483.9</ele>
        <time>2018-10-14T06:40:14Z</time>
      </trkpt>
      <trkpt lat="45.66111" lon="4.6627">
        <ele>484.1</ele>
        <time>2018-10-14T06:40:15Z</time>
      </trkpt>
      <trkpt lat="45.66104" lon="4.66265">
        <ele>484.9</ele>
        <time>2018-10-14T06:40:21Z</time>
      </trkpt>
      <trkpt lat="45.66103" lon="4.66263">
        <ele>485.1</ele>
        <time>2018-10-14T06:40:22Z</time>
      </trkpt>
      <trkpt lat="45.66094" lon="4.66257">
        <ele>485.9</ele>
        <time>2018-10-14T06:40:28Z</time>
      </trkpt>
      <trkpt lat="45.66091" lon="4.66254">
        <ele>486.2</ele>
        <time>2018-10-14T06:40:30Z</time>
      </trkpt>
      <trkpt lat="45.6609" lon="4.66253">
        <ele>486.3</ele>
        <time>2018-10-14T06:40:31Z</time>
      </trkpt>
      <trkpt lat="45.66084" lon="4.6625">
        <ele>486.7</ele>
        <time>2018-10-14T06:40:35Z</time>
      </trkpt>
      <trkpt lat="45.66081" lon="4.66247">
        <ele>487</ele>
        <time>2018-10-14T06:40:37Z</time>
      </trkpt>
      <trkpt lat="45.66077" lon="4.66245">
        <ele>487.3</ele>
        <time>2018-10-14T06:40:40Z</time>
      </trkpt>
      <trkpt lat="45.66072" lon="4.66241">
        <ele>487.8</ele>
        <time>2018-10-14T06:40:44Z</time>
      </trkpt>
      <trkpt lat="45.66072" lon="4.66239">
        <ele>488</ele>
        <time>2018-10-14T06:40:45Z</time>
      </trkpt>
      <trkpt lat="45.66071" lon="4.66235">
        <ele>488.2</ele>
        <time>2018-10-14T06:42:02Z</time>
      </trkpt>
      <trkpt lat="45.66071" lon="4.66232">
        <ele>488.4</ele>
        <time>2018-10-14T06:42:03Z</time>
      </trkpt>
      <trkpt lat="45.66072" lon="4.6623">
        <ele>488.5</ele>
        <time>2018-10-14T06:42:04Z</time>
      </trkpt>
      <trkpt lat="45.66075" lon="4.66222">
        <ele>489.8</ele>
        <time>2018-10-14T06:42:09Z</time>
      </trkpt>
      <trkpt lat="45.66076" lon="4.6622">
        <ele>489.9</ele>
        <time>2018-10-14T06:42:10Z</time>
      </trkpt>
      <trkpt lat="45.66079" lon="4.66215">
        <ele>490.2</ele>
        <time>2018-10-14T06:42:13Z</time>
      </trkpt>
      <trkpt lat="45.66082" lon="4.66208">
        <ele>490.7</ele>
        <time>2018-10-14T06:42:17Z</time>
      </trkpt>
      <trkpt lat="45.66085" lon="4.66204">
        <ele>490.9</ele>
        <time>2018-10-14T06:42:19Z</time>
      </trkpt>
      <trkpt lat="45.66091" lon="4.66193">
        <ele>491.7</ele>
        <time>2018-10-14T06:42:25Z</time>
      </trkpt>
      <trkpt lat="45.66092" lon="4.66192">
        <ele>491.9</ele>
        <time>2018-10-14T06:42:26Z</time>
      </trkpt>
      <trkpt lat="45.66095" lon="4.66183">
        <ele>492.4</ele>
        <time>2018-10-14T06:42:30Z</time>
      </trkpt>
      <trkpt lat="45.66097" lon="4.66177">
        <ele>492.9</ele>
        <time>2018-10-14T06:42:33Z</time>
      </trkpt>
      <trkpt lat="45.66099" lon="4.66169">
        <ele>493.3</ele>
        <time>2018-10-14T06:42:37Z</time>
      </trkpt>
      <trkpt lat="45.661" lon="4.66163">
        <ele>493.6</ele>
        <time>2018-10-14T06:44:07Z</time>
      </trkpt>
      <trkpt lat="45.66099" lon="4.66161">
        <ele>493.8</ele>
        <time>2018-10-14T06:44:08Z</time>
      </trkpt>
      <trkpt lat="45.66097" lon="4.66151">
        <ele>494.3</ele>
        <time>2018-10-14T06:44:12Z</time>
      </trkpt>
      <trkpt lat="45.66096" lon="4.66146">
        <ele>494.6</ele>
        <time>2018-10-14T06:44:14Z</time>
      </trkpt>
      <trkpt lat="45.66094" lon="4.66127">
        <ele>495.7</ele>
        <time>2018-10-14T06:44:21Z</time>
      </trkpt>
      <trkpt lat="45.66094" lon="4.66119">
        <ele>496.1</ele>
        <time>2018-10-14T06:44:24Z</time>
      </trkpt>
      <trkpt lat="45.66093" lon="4.66106">
        <ele>496.8</ele>
        <time>2018-10-14T06:44:29Z</time>
      </trkpt>
      <trkpt lat="45.6609" lon="4.66088">
        <ele>498</ele>
        <time>2018-10-14T06:44:36Z</time>
      </trkpt>
      <trkpt lat="45.66089" lon="4.6608">
        <ele>498.5</ele>
        <time>2018-10-14T06:44:39Z</time>
      </trkpt>
      <trkpt lat="45.66089" lon="4.66067">
        <ele>499.2</ele>
        <time>2018-10-14T06:44:43Z</time>
      </trkpt>
      <trkpt lat="45.66092" lon="4.6605">
        <ele>500.2</ele>
        <time>2018-10-14T06:44:48Z</time>
      </trkpt>
      <trkpt lat="45.66092" lon="4.66041">
        <ele>500.7</ele>
        <time>2018-10-14T06:44:51Z</time>
      </trkpt>
      <trkpt lat="45.66092" lon="4.66031">
        <ele>501.2</ele>
        <time>2018-10-14T06:44:54Z</time>
      </trkpt>
      <trkpt lat="45.66092" lon="4.66015">
        <ele>502.2</ele>
        <time>2018-10-14T06:44:59Z</time>
      </trkpt>
      <trkpt lat="45.66092" lon="4.65995">
        <ele>503.3</ele>
        <time>2018-10-14T06:45:05Z</time>
      </trkpt>
      <trkpt lat="45.66092" lon="4.65988">
        <ele>503.7</ele>
        <time>2018-10-14T06:45:07Z</time>
      </trkpt>
      <trkpt lat="45.66091" lon="4.65981">
        <ele>504.1</ele>
        <time>2018-10-14T06:45:09Z</time>
      </trkpt>
      <trkpt lat="45.66089" lon="4.65963">
        <ele>505.2</ele>
        <time>2018-10-14T06:45:15Z</time>
      </trkpt>
      <trkpt lat="45.66088" lon="4.65959">
        <ele>505.4</ele>
        <time>2018-10-14T06:45:16Z</time>
      </trkpt>
      <trkpt lat="45.66087" lon="4.65942">
        <ele>506.4</ele>
        <time>2018-10-14T06:45:21Z</time>
      </trkpt>
      <trkpt lat="45.66086" lon="4.65935">
        <ele>506.8</ele>
        <time>2018-10-14T06:45:23Z</time>
      </trkpt>
      <trkpt lat="45.6608" lon="4.65916">
        <ele>508.1</ele>
        <time>2018-10-14T06:45:29Z</time>
      </trkpt>
      <trkpt lat="45.66073" lon="4.65897">
        <ele>509.2</ele>
        <time>2018-10-14T06:45:35Z</time>
      </trkpt>
      <trkpt lat="45.66071" lon="4.65891">
        <ele>509.6</ele>
        <time>2018-10-14T06:45:37Z</time>
      </trkpt>
      <trkpt lat="45.66064" lon="4.65876">
        <ele>510.1</ele>
        <time>2018-10-14T06:45:43Z</time>
      </trkpt>
      <trkpt lat="45.66053" lon="4.65849">
        <ele>510.6</ele>
        <time>2018-10-14T06:45:49Z</time>
      </trkpt>
      <trkpt lat="45.66038" lon="4.65811">
        <ele>511.4</ele>
        <time>2018-10-14T06:45:56Z</time>
      </trkpt>
      <trkpt lat="45.66035" lon="4.65806">
        <ele>511.5</ele>
        <time>2018-10-14T06:45:57Z</time>
      </trkpt>
      <trkpt lat="45.66027" lon="4.6579">
        <ele>511.9</ele>
        <time>2018-10-14T06:46:00Z</time>
      </trkpt>
      <trkpt lat="45.6602" lon="4.6578">
        <ele>512.1</ele>
        <time>2018-10-14T06:46:02Z</time>
      </trkpt>
      <trkpt lat="45.66017" lon="4.65775">
        <ele>512.2</ele>
        <time>2018-10-14T06:46:03Z</time>
      </trkpt>
      <trkpt lat="45.65998" lon="4.65753">
        <ele>512.8</ele>
        <time>2018-10-14T06:46:09Z</time>
      </trkpt>
      <trkpt lat="45.65971" lon="4.6573">
        <ele>513.6</ele>
        <time>2018-10-14T06:46:17Z</time>
      </trkpt>
      <trkpt lat="45.65948" lon="4.65709">
        <ele>514.3</ele>
        <time>2018-10-14T06:46:25Z</time>
      </trkpt>
      <trkpt lat="45.65926" lon="4.6568">
        <ele>515</ele>
        <time>2018-10-14T06:46:34Z</time>
      </trkpt>
      <trkpt lat="45.65907" lon="4.6566">
        <ele>515.6</ele>
        <time>2018-10-14T06:46:42Z</time>
      </trkpt>
      <trkpt lat="45.65898" lon="4.65651">
        <ele>515.9</ele>
        <time>2018-10-14T06:46:47Z</time>
      </trkpt>
      <trkpt lat="45.6589" lon="4.65642">
        <ele>516.1</ele>
        <time>2018-10-14T06:46:52Z</time>
      </trkpt>
      <trkpt lat="45.65885" lon="4.65638">
        <ele>516.3</ele>
        <time>2018-10-14T06:46:55Z</time>
      </trkpt>
      <trkpt lat="45.6588" lon="4.65633">
        <ele>516.5</ele>
        <time>2018-10-14T06:46:58Z</time>
      </trkpt>
      <trkpt lat="45.65874" lon="4.65625">
        <ele>516.7</ele>
        <time>2018-10-14T06:47:02Z</time>
      </trkpt>
      <trkpt lat="45.65873" lon="4.65622">
        <ele>516.7</ele>
        <time>2018-10-14T06:47:03Z</time>
      </trkpt>
      <trkpt lat="45.65871" lon="4.65618">
        <ele>516.9</ele>
        <time>2018-10-14T06:47:05Z</time>
      </trkpt>
      <trkpt lat="45.65866" lon="4.65609">
        <ele>517</ele>
        <time>2018-10-14T06:47:09Z</time>
      </trkpt>
      <trkpt lat="45.65862" lon="4.65599">
        <ele>517.2</ele>
        <time>2018-10-14T06:47:13Z</time>
      </trkpt>
      <trkpt lat="45.6586" lon="4.65591">
        <ele>517.4</ele>
        <time>2018-10-14T06:47:17Z</time>
      </trkpt>
      <trkpt lat="45.65859" lon="4.65589">
        <ele>517.4</ele>
        <time>2018-10-14T06:47:18Z</time>
      </trkpt>
      <trkpt lat="45.6586" lon="4.65582">
        <ele>517.5</ele>
        <time>2018-10-14T06:47:21Z</time>
      </trkpt>
      <trkpt lat="45.65859" lon="4.65572">
        <ele>517.7</ele>
        <time>2018-10-14T06:47:25Z</time>
      </trkpt>
      <trkpt lat="45.65858" lon="4.6556">
        <ele>517.9</ele>
        <time>2018-10-14T06:47:30Z</time>
      </trkpt>
      <trkpt lat="45.65857" lon="4.65555">
        <ele>518</ele>
        <time>2018-10-14T06:47:32Z</time>
      </trkpt>
      <trkpt lat="45.65855" lon="4.65545">
        <ele>518.1</ele>
        <time>2018-10-14T06:47:36Z</time>
      </trkpt>
      <trkpt lat="45.65853" lon="4.65541">
        <ele>518.2</ele>
        <time>2018-10-14T06:47:38Z</time>
      </trkpt>
      <trkpt lat="45.65851" lon="4.65534">
        <ele>518.3</ele>
        <time>2018-10-14T06:47:41Z</time>
      </trkpt>
      <trkpt lat="45.65849" lon="4.65528">
        <ele>518.5</ele>
        <time>2018-10-14T06:47:44Z</time>
      </trkpt>
      <trkpt lat="45.65845" lon="4.65519">
        <ele>518.7</ele>
        <time>2018-10-14T06:47:48Z</time>
      </trkpt>
      <trkpt lat="45.65842" lon="4.65514">
        <ele>518.9</ele>
        <time>2018-10-14T06:47:51Z</time>
      </trkpt>
      <trkpt lat="45.65832" lon="4.65502">
        <ele>519.2</ele>
        <time>2018-10-14T06:47:58Z</time>
      </trkpt>
      <trkpt lat="45.65823" lon="4.65492">
        <ele>519.4</ele>
        <time>2018-10-14T06:48:05Z</time>
      </trkpt>
      <trkpt lat="45.65821" lon="4.6549">
        <ele>519.5</ele>
        <time>2018-10-14T06:48:06Z</time>
      </trkpt>
      <trkpt lat="45.65812" lon="4.65479">
        <ele>519.8</ele>
        <time>2018-10-14T06:48:13Z</time>
      </trkpt>
      <trkpt lat="45.65811" lon="4.65477">
        <ele>519.8</ele>
        <time>2018-10-14T06:48:14Z</time>
      </trkpt>
      <trkpt lat="45.65798" lon="4.65461">
        <ele>520.3</ele>
        <time>2018-10-14T06:48:22Z</time>
      </trkpt>
      <trkpt lat="45.6579" lon="4.65451">
        <ele>520.6</ele>
        <time>2018-10-14T06:48:27Z</time>
      </trkpt>
      <trkpt lat="45.65783" lon="4.65441">
        <ele>520.8</ele>
        <time>2018-10-14T06:48:32Z</time>
      </trkpt>
      <trkpt lat="45.6578" lon="4.65438">
        <ele>520.9</ele>
        <time>2018-10-14T06:48:34Z</time>
      </trkpt>
      <trkpt lat="45.65773" lon="4.65427">
        <ele>521.1</ele>
        <time>2018-10-14T06:48:40Z</time>
      </trkpt>
      <trkpt lat="45.65762" lon="4.65409">
        <ele>521.5</ele>
        <time>2018-10-14T06:48:47Z</time>
      </trkpt>
      <trkpt lat="45.65747" lon="4.65388">
        <ele>522</ele>
        <time>2018-10-14T06:48:53Z</time>
      </trkpt>
      <trkpt lat="45.65733" lon="4.6537">
        <ele>522.5</ele>
        <time>2018-10-14T06:48:57Z</time>
      </trkpt>
      <trkpt lat="45.65725" lon="4.6536">
        <ele>522.7</ele>
        <time>2018-10-14T06:48:59Z</time>
      </trkpt>
      <trkpt lat="45.65721" lon="4.65355">
        <ele>522.9</ele>
        <time>2018-10-14T06:49:00Z</time>
      </trkpt>
      <trkpt lat="45.65713" lon="4.65346">
        <ele>522.9</ele>
        <time>2018-10-14T06:49:02Z</time>
      </trkpt>
      <trkpt lat="45.65699" lon="4.65331">
        <ele>522.7</ele>
        <time>2018-10-14T06:49:06Z</time>
      </trkpt>
      <trkpt lat="45.65685" lon="4.65315">
        <ele>522.7</ele>
        <time>2018-10-14T06:49:11Z</time>
      </trkpt>
      <trkpt lat="45.65681" lon="4.65312">
        <ele>522.8</ele>
        <time>2018-10-14T06:49:12Z</time>
      </trkpt>
      <trkpt lat="45.6566" lon="4.65295">
        <ele>523.3</ele>
        <time>2018-10-14T06:49:19Z</time>
      </trkpt>
      <trkpt lat="45.65642" lon="4.65286">
        <ele>524.2</ele>
        <time>2018-10-14T06:49:26Z</time>
      </trkpt>
      <trkpt lat="45.6563" lon="4.65275">
        <ele>526</ele>
        <time>2018-10-14T06:49:32Z</time>
      </trkpt>
      <trkpt lat="45.65611" lon="4.65261">
        <ele>528.4</ele>
        <time>2018-10-14T06:49:41Z</time>
      </trkpt>
      <trkpt lat="45.65607" lon="4.65258">
        <ele>528.9</ele>
        <time>2018-10-14T06:49:43Z</time>
      </trkpt>
      <trkpt lat="45.65595" lon="4.65249">
        <ele>530.6</ele>
        <time>2018-10-14T06:49:49Z</time>
      </trkpt>
      <trkpt lat="45.65591" lon="4.65245">
        <ele>531.1</ele>
        <time>2018-10-14T06:49:51Z</time>
      </trkpt>
      <trkpt lat="45.65578" lon="4.65237">
        <ele>532.6</ele>
        <time>2018-10-14T06:49:57Z</time>
      </trkpt>
      <trkpt lat="45.65576" lon="4.65235">
        <ele>532.8</ele>
        <time>2018-10-14T06:49:58Z</time>
      </trkpt>
      <trkpt lat="45.65564" lon="4.65225">
        <ele>533.6</ele>
        <time>2018-10-14T06:50:04Z</time>
      </trkpt>
      <trkpt lat="45.65561" lon="4.65223">
        <ele>533.7</ele>
        <time>2018-10-14T06:50:06Z</time>
      </trkpt>
      <trkpt lat="45.65559" lon="4.65219">
        <ele>533.8</ele>
        <time>2018-10-14T06:50:09Z</time>
      </trkpt>
      <trkpt lat="45.6556" lon="4.65218">
        <ele>533.8</ele>
        <time>2018-10-14T06:50:10Z</time>
      </trkpt>
      <trkpt lat="45.65561" lon="4.65215">
        <ele>533.3</ele>
        <time>2018-10-14T06:50:59Z</time>
      </trkpt>
      <trkpt lat="45.65566" lon="4.65208">
        <ele>532.5</ele>
        <time>2018-10-14T06:51:01Z</time>
      </trkpt>
      <trkpt lat="45.65573" lon="4.65199">
        <ele>531.3</ele>
        <time>2018-10-14T06:51:03Z</time>
      </trkpt>
      <trkpt lat="45.65584" lon="4.65182">
        <ele>529.4</ele>
        <time>2018-10-14T06:51:06Z</time>
      </trkpt>
      <trkpt lat="45.65588" lon="4.65176">
        <ele>528.5</ele>
        <time>2018-10-14T06:51:07Z</time>
      </trkpt>
      <trkpt lat="45.65601" lon="4.65156">
        <ele>526.3</ele>
        <time>2018-10-14T06:51:10Z</time>
      </trkpt>
      <trkpt lat="45.6561" lon="4.65142">
        <ele>524.7</ele>
        <time>2018-10-14T06:51:12Z</time>
      </trkpt>
      <trkpt lat="45.6562" lon="4.65127">
        <ele>522.9</ele>
        <time>2018-10-14T06:51:14Z</time>
      </trkpt>
      <trkpt lat="45.65637" lon="4.65102">
        <ele>519.8</ele>
        <time>2018-10-14T06:51:17Z</time>
      </trkpt>
      <trkpt lat="45.6565" lon="4.65084">
        <ele>517.7</ele>
        <time>2018-10-14T06:51:19Z</time>
      </trkpt>
      <trkpt lat="45.65663" lon="4.65065">
        <ele>515.3</ele>
        <time>2018-10-14T06:51:21Z</time>
      </trkpt>
      <trkpt lat="45.65669" lon="4.65056">
        <ele>514.2</ele>
        <time>2018-10-14T06:51:22Z</time>
      </trkpt>
      <trkpt lat="45.65675" lon="4.65047">
        <ele>513</ele>
        <time>2018-10-14T06:51:23Z</time>
      </trkpt>
      <trkpt lat="45.65693" lon="4.65022">
        <ele>510.1</ele>
        <time>2018-10-14T06:51:26Z</time>
      </trkpt>
      <trkpt lat="45.657" lon="4.65015">
        <ele>509.1</ele>
        <time>2018-10-14T06:51:27Z</time>
      </trkpt>
      <trkpt lat="45.65715" lon="4.65005">
        <ele>507.1</ele>
        <time>2018-10-14T06:51:29Z</time>
      </trkpt>
      <trkpt lat="45.65723" lon="4.65">
        <ele>506.1</ele>
        <time>2018-10-14T06:51:30Z</time>
      </trkpt>
      <trkpt lat="45.65738" lon="4.64988">
        <ele>503.7</ele>
        <time>2018-10-14T06:51:32Z</time>
      </trkpt>
      <trkpt lat="45.65761" lon="4.6497">
        <ele>500.8</ele>
        <time>2018-10-14T06:51:35Z</time>
      </trkpt>
      <trkpt lat="45.65767" lon="4.64964">
        <ele>499.8</ele>
        <time>2018-10-14T06:51:36Z</time>
      </trkpt>
      <trkpt lat="45.65781" lon="4.6495">
        <ele>497.8</ele>
        <time>2018-10-14T06:51:39Z</time>
      </trkpt>
      <trkpt lat="45.65792" lon="4.64935">
        <ele>496.2</ele>
        <time>2018-10-14T06:51:42Z</time>
      </trkpt>
      <trkpt lat="45.65803" lon="4.64921">
        <ele>494.7</ele>
        <time>2018-10-14T06:51:45Z</time>
      </trkpt>
      <trkpt lat="45.65817" lon="4.64907">
        <ele>492.8</ele>
        <time>2018-10-14T06:51:48Z</time>
      </trkpt>
      <trkpt lat="45.65827" lon="4.64901">
        <ele>491.6</ele>
        <time>2018-10-14T06:51:50Z</time>
      </trkpt>
      <trkpt lat="45.65832" lon="4.64898">
        <ele>490.9</ele>
        <time>2018-10-14T06:51:51Z</time>
      </trkpt>
      <trkpt lat="45.65836" lon="4.64894">
        <ele>490.3</ele>
        <time>2018-10-14T06:51:52Z</time>
      </trkpt>
      <trkpt lat="45.65844" lon="4.64883">
        <ele>488.9</ele>
        <time>2018-10-14T06:51:54Z</time>
      </trkpt>
      <trkpt lat="45.65848" lon="4.64878">
        <ele>488.2</ele>
        <time>2018-10-14T06:51:55Z</time>
      </trkpt>
      <trkpt lat="45.65857" lon="4.64867">
        <ele>486.8</ele>
        <time>2018-10-14T06:51:57Z</time>
      </trkpt>
      <trkpt lat="45.65873" lon="4.64849">
        <ele>484.6</ele>
        <time>2018-10-14T06:52:00Z</time>
      </trkpt>
      <trkpt lat="45.6589" lon="4.64828">
        <ele>482.4</ele>
        <time>2018-10-14T06:52:03Z</time>
      </trkpt>
      <trkpt lat="45.659" lon="4.64813">
        <ele>480.6</ele>
        <time>2018-10-14T06:52:05Z</time>
      </trkpt>
      <trkpt lat="45.65904" lon="4.64805">
        <ele>479.8</ele>
        <time>2018-10-14T06:52:06Z</time>
      </trkpt>
      <trkpt lat="45.65907" lon="4.64797">
        <ele>479</ele>
        <time>2018-10-14T06:52:07Z</time>
      </trkpt>
      <trkpt lat="45.65909" lon="4.64782">
        <ele>477.7</ele>
        <time>2018-10-14T06:52:09Z</time>
      </trkpt>
      <trkpt lat="45.6591" lon="4.64774">
        <ele>477.1</ele>
        <time>2018-10-14T06:52:10Z</time>
      </trkpt>
      <trkpt lat="45.65911" lon="4.64758">
        <ele>475.8</ele>
        <time>2018-10-14T06:52:12Z</time>
      </trkpt>
      <trkpt lat="45.65913" lon="4.6475">
        <ele>475.2</ele>
        <time>2018-10-14T06:52:13Z</time>
      </trkpt>
      <trkpt lat="45.65916" lon="4.64735">
        <ele>474.1</ele>
        <time>2018-10-14T06:52:15Z</time>
      </trkpt>
      <trkpt lat="45.65918" lon="4.64727">
        <ele>473.5</ele>
        <time>2018-10-14T06:52:16Z</time>
      </trkpt>
      <trkpt lat="45.65919" lon="4.64719">
        <ele>472.9</ele>
        <time>2018-10-14T06:52:17Z</time>
      </trkpt>
      <trkpt lat="45.65919" lon="4.64711">
        <ele>472.4</ele>
        <time>2018-10-14T06:52:18Z</time>
      </trkpt>
      <trkpt lat="45.65919" lon="4.64702">
        <ele>471.8</ele>
        <time>2018-10-14T06:52:19Z</time>
      </trkpt>
      <trkpt lat="45.65919" lon="4.64694">
        <ele>471.1</ele>
        <time>2018-10-14T06:52:20Z</time>
      </trkpt>
      <trkpt lat="45.6592" lon="4.64644">
        <ele>466.9</ele>
        <time>2018-10-14T06:52:26Z</time>
      </trkpt>
      <trkpt lat="45.6592" lon="4.64636">
        <ele>466.3</ele>
        <time>2018-10-14T06:52:27Z</time>
      </trkpt>
      <trkpt lat="45.65925" lon="4.64611">
        <ele>464.4</ele>
        <time>2018-10-14T06:52:30Z</time>
      </trkpt>
      <trkpt lat="45.6593" lon="4.64595">
        <ele>463.1</ele>
        <time>2018-10-14T06:52:32Z</time>
      </trkpt>
      <trkpt lat="45.65932" lon="4.64586">
        <ele>462.5</ele>
        <time>2018-10-14T06:52:33Z</time>
      </trkpt>
      <trkpt lat="45.65933" lon="4.64576">
        <ele>461.9</ele>
        <time>2018-10-14T06:52:34Z</time>
      </trkpt>
      <trkpt lat="45.65932" lon="4.64566">
        <ele>461.2</ele>
        <time>2018-10-14T06:52:35Z</time>
      </trkpt>
      <trkpt lat="45.65931" lon="4.64556">
        <ele>460.4</ele>
        <time>2018-10-14T06:52:36Z</time>
      </trkpt>
      <trkpt lat="45.65926" lon="4.6454">
        <ele>459.2</ele>
        <time>2018-10-14T06:52:38Z</time>
      </trkpt>
      <trkpt lat="45.65917" lon="4.64516">
        <ele>457.4</ele>
        <time>2018-10-14T06:52:41Z</time>
      </trkpt>
      <trkpt lat="45.65915" lon="4.64501">
        <ele>456.4</ele>
        <time>2018-10-14T06:52:43Z</time>
      </trkpt>
      <trkpt lat="45.65915" lon="4.64487">
        <ele>455.5</ele>
        <time>2018-10-14T06:52:45Z</time>
      </trkpt>
      <trkpt lat="45.65916" lon="4.64479">
        <ele>455</ele>
        <time>2018-10-14T06:52:46Z</time>
      </trkpt>
      <trkpt lat="45.65918" lon="4.64472">
        <ele>454.6</ele>
        <time>2018-10-14T06:52:47Z</time>
      </trkpt>
      <trkpt lat="45.65927" lon="4.6446">
        <ele>453.5</ele>
        <time>2018-10-14T06:52:49Z</time>
      </trkpt>
      <trkpt lat="45.65932" lon="4.64456">
        <ele>453</ele>
        <time>2018-10-14T06:52:50Z</time>
      </trkpt>
      <trkpt lat="45.65937" lon="4.64453">
        <ele>452.5</ele>
        <time>2018-10-14T06:52:51Z</time>
      </trkpt>
      <trkpt lat="45.65946" lon="4.64446">
        <ele>451.6</ele>
        <time>2018-10-14T06:52:53Z</time>
      </trkpt>
      <trkpt lat="45.65954" lon="4.64435">
        <ele>450.6</ele>
        <time>2018-10-14T06:52:55Z</time>
      </trkpt>
      <trkpt lat="45.6596" lon="4.64421">
        <ele>449.6</ele>
        <time>2018-10-14T06:52:57Z</time>
      </trkpt>
      <trkpt lat="45.65962" lon="4.64414">
        <ele>449.1</ele>
        <time>2018-10-14T06:52:58Z</time>
      </trkpt>
      <trkpt lat="45.65964" lon="4.64407">
        <ele>448.6</ele>
        <time>2018-10-14T06:52:59Z</time>
      </trkpt>
      <trkpt lat="45.65967" lon="4.64401">
        <ele>448.1</ele>
        <time>2018-10-14T06:53:00Z</time>
      </trkpt>
      <trkpt lat="45.65969" lon="4.64394">
        <ele>447.6</ele>
        <time>2018-10-14T06:53:01Z</time>
      </trkpt>
      <trkpt lat="45.65971" lon="4.64387">
        <ele>447</ele>
        <time>2018-10-14T06:53:02Z</time>
      </trkpt>
      <trkpt lat="45.65973" lon="4.64381">
        <ele>446.6</ele>
        <time>2018-10-14T06:53:03Z</time>
      </trkpt>
      <trkpt lat="45.65974" lon="4.64373">
        <ele>446.1</ele>
        <time>2018-10-14T06:53:04Z</time>
      </trkpt>
      <trkpt lat="45.65977" lon="4.6436">
        <ele>445.3</ele>
        <time>2018-10-14T06:53:06Z</time>
      </trkpt>
      <trkpt lat="45.65979" lon="4.64348">
        <ele>444.5</ele>
        <time>2018-10-14T06:53:08Z</time>
      </trkpt>
      <trkpt lat="45.65982" lon="4.64337">
        <ele>443.8</ele>
        <time>2018-10-14T06:53:10Z</time>
      </trkpt>
      <trkpt lat="45.65983" lon="4.6433">
        <ele>443.4</ele>
        <time>2018-10-14T06:53:11Z</time>
      </trkpt>
      <trkpt lat="45.65984" lon="4.64322">
        <ele>442.9</ele>
        <time>2018-10-14T06:53:12Z</time>
      </trkpt>
      <trkpt lat="45.65984" lon="4.64314">
        <ele>442.3</ele>
        <time>2018-10-14T06:53:13Z</time>
      </trkpt>
      <trkpt lat="45.65983" lon="4.64305">
        <ele>441.8</ele>
        <time>2018-10-14T06:53:14Z</time>
      </trkpt>
      <trkpt lat="45.6598" lon="4.64297">
        <ele>441.3</ele>
        <time>2018-10-14T06:53:15Z</time>
      </trkpt>
      <trkpt lat="45.65975" lon="4.6429">
        <ele>440.6</ele>
        <time>2018-10-14T06:53:16Z</time>
      </trkpt>
      <trkpt lat="45.65966" lon="4.64279">
        <ele>439.6</ele>
        <time>2018-10-14T06:53:18Z</time>
      </trkpt>
      <trkpt lat="45.65962" lon="4.64275">
        <ele>439.1</ele>
        <time>2018-10-14T06:53:19Z</time>
      </trkpt>
      <trkpt lat="45.65959" lon="4.6427">
        <ele>438.7</ele>
        <time>2018-10-14T06:53:20Z</time>
      </trkpt>
      <trkpt lat="45.65956" lon="4.64257">
        <ele>437.8</ele>
        <time>2018-10-14T06:53:22Z</time>
      </trkpt>
      <trkpt lat="45.6595" lon="4.64245">
        <ele>436.9</ele>
        <time>2018-10-14T06:53:24Z</time>
      </trkpt>
      <trkpt lat="45.65943" lon="4.64234">
        <ele>436.2</ele>
        <time>2018-10-14T06:53:26Z</time>
      </trkpt>
      <trkpt lat="45.65939" lon="4.64231">
        <ele>435.8</ele>
        <time>2018-10-14T06:53:27Z</time>
      </trkpt>
      <trkpt lat="45.65931" lon="4.64226">
        <ele>435.1</ele>
        <time>2018-10-14T06:53:29Z</time>
      </trkpt>
      <trkpt lat="45.65927" lon="4.64221">
        <ele>434.7</ele>
        <time>2018-10-14T06:53:30Z</time>
      </trkpt>
      <trkpt lat="45.65923" lon="4.64215">
        <ele>434.3</ele>
        <time>2018-10-14T06:53:31Z</time>
      </trkpt>
      <trkpt lat="45.65921" lon="4.64207">
        <ele>433.9</ele>
        <time>2018-10-14T06:53:32Z</time>
      </trkpt>
      <trkpt lat="45.6592" lon="4.64199">
        <ele>433.6</ele>
        <time>2018-10-14T06:53:33Z</time>
      </trkpt>
      <trkpt lat="45.65923" lon="4.64184">
        <ele>432.8</ele>
        <time>2018-10-14T06:53:35Z</time>
      </trkpt>
      <trkpt lat="45.65926" lon="4.64175">
        <ele>432.3</ele>
        <time>2018-10-14T06:53:37Z</time>
      </trkpt>
      <trkpt lat="45.65928" lon="4.64172">
        <ele>432.1</ele>
        <time>2018-10-14T06:53:38Z</time>
      </trkpt>
      <trkpt lat="45.6593" lon="4.64167">
        <ele>431.8</ele>
        <time>2018-10-14T06:53:39Z</time>
      </trkpt>
      <trkpt lat="45.65933" lon="4.64157">
        <ele>431.3</ele>
        <time>2018-10-14T06:53:41Z</time>
      </trkpt>
      <trkpt lat="45.65938" lon="4.64148">
        <ele>430.7</ele>
        <time>2018-10-14T06:53:43Z</time>
      </trkpt>
      <trkpt lat="45.65945" lon="4.6414">
        <ele>430.1</ele>
        <time>2018-10-14T06:53:45Z</time>
      </trkpt>
      <trkpt lat="45.65959" lon="4.64129">
        <ele>429.2</ele>
        <time>2018-10-14T06:53:48Z</time>
      </trkpt>
      <trkpt lat="45.65966" lon="4.64126">
        <ele>428.9</ele>
        <time>2018-10-14T06:53:50Z</time>
      </trkpt>
      <trkpt lat="45.65969" lon="4.64124">
        <ele>428.7</ele>
        <time>2018-10-14T06:53:51Z</time>
      </trkpt>
      <trkpt lat="45.65971" lon="4.64123">
        <ele>428.6</ele>
        <time>2018-10-14T06:53:52Z</time>
      </trkpt>
      <trkpt lat="45.65977" lon="4.6412">
        <ele>428.2</ele>
        <time>2018-10-14T06:53:54Z</time>
      </trkpt>
      <trkpt lat="45.65984" lon="4.64119">
        <ele>427.8</ele>
        <time>2018-10-14T06:53:56Z</time>
      </trkpt>
      <trkpt lat="45.65988" lon="4.6412">
        <ele>427.6</ele>
        <time>2018-10-14T06:53:57Z</time>
      </trkpt>
      <trkpt lat="45.65994" lon="4.6412">
        <ele>427.3</ele>
        <time>2018-10-14T06:53:58Z</time>
      </trkpt>
      <trkpt lat="45.66001" lon="4.6412">
        <ele>427</ele>
        <time>2018-10-14T06:53:59Z</time>
      </trkpt>
      <trkpt lat="45.66007" lon="4.64119">
        <ele>426.6</ele>
        <time>2018-10-14T06:54:00Z</time>
      </trkpt>
      <trkpt lat="45.66019" lon="4.64116">
        <ele>426</ele>
        <time>2018-10-14T06:54:02Z</time>
      </trkpt>
      <trkpt lat="45.66028" lon="4.64112">
        <ele>425.5</ele>
        <time>2018-10-14T06:54:04Z</time>
      </trkpt>
      <trkpt lat="45.66031" lon="4.641">
        <ele>425.2</ele>
        <time>2018-10-14T06:54:06Z</time>
      </trkpt>
      <trkpt lat="45.66026" lon="4.64085">
        <ele>424.8</ele>
        <time>2018-10-14T06:54:08Z</time>
      </trkpt>
      <trkpt lat="45.66023" lon="4.64077">
        <ele>424.4</ele>
        <time>2018-10-14T06:54:09Z</time>
      </trkpt>
      <trkpt lat="45.66021" lon="4.64069">
        <ele>424.1</ele>
        <time>2018-10-14T06:54:10Z</time>
      </trkpt>
      <trkpt lat="45.66016" lon="4.64051">
        <ele>423.4</ele>
        <time>2018-10-14T06:54:12Z</time>
      </trkpt>
      <trkpt lat="45.66011" lon="4.64036">
        <ele>423</ele>
        <time>2018-10-14T06:54:14Z</time>
      </trkpt>
      <trkpt lat="45.66008" lon="4.6403">
        <ele>422.7</ele>
        <time>2018-10-14T06:54:15Z</time>
      </trkpt>
      <trkpt lat="45.66005" lon="4.64023">
        <ele>422.4</ele>
        <time>2018-10-14T06:54:16Z</time>
      </trkpt>
      <trkpt lat="45.66003" lon="4.64017">
        <ele>422.2</ele>
        <time>2018-10-14T06:54:17Z</time>
      </trkpt>
      <trkpt lat="45.66" lon="4.6401">
        <ele>421.9</ele>
        <time>2018-10-14T06:54:18Z</time>
      </trkpt>
      <trkpt lat="45.65996" lon="4.64004">
        <ele>421.6</ele>
        <time>2018-10-14T06:54:19Z</time>
      </trkpt>
      <trkpt lat="45.65993" lon="4.63997">
        <ele>421.4</ele>
        <time>2018-10-14T06:54:20Z</time>
      </trkpt>
      <trkpt lat="45.6599" lon="4.63989">
        <ele>421.1</ele>
        <time>2018-10-14T06:54:21Z</time>
      </trkpt>
      <trkpt lat="45.65989" lon="4.6398">
        <ele>420.7</ele>
        <time>2018-10-14T06:54:22Z</time>
      </trkpt>
      <trkpt lat="45.65989" lon="4.63971">
        <ele>420.4</ele>
        <time>2018-10-14T06:54:23Z</time>
      </trkpt>
      <trkpt lat="45.65988" lon="4.63952">
        <ele>419.6</ele>
        <time>2018-10-14T06:54:25Z</time>
      </trkpt>
      <trkpt lat="45.65987" lon="4.63944">
        <ele>419.2</ele>
        <time>2018-10-14T06:54:26Z</time>
      </trkpt>
      <trkpt lat="45.65984" lon="4.63935">
        <ele>418.9</ele>
        <time>2018-10-14T06:54:27Z</time>
      </trkpt>
      <trkpt lat="45.6598" lon="4.63927">
        <ele>418.4</ele>
        <time>2018-10-14T06:54:28Z</time>
      </trkpt>
      <trkpt lat="45.65976" lon="4.63921">
        <ele>418.1</ele>
        <time>2018-10-14T06:54:29Z</time>
      </trkpt>
      <trkpt lat="45.65973" lon="4.63915">
        <ele>417.9</ele>
        <time>2018-10-14T06:54:30Z</time>
      </trkpt>
      <trkpt lat="45.65972" lon="4.6391">
        <ele>417.7</ele>
        <time>2018-10-14T06:54:31Z</time>
      </trkpt>
      <trkpt lat="45.65974" lon="4.63906">
        <ele>417.6</ele>
        <time>2018-10-14T06:54:33Z</time>
      </trkpt>
      <trkpt lat="45.65974" lon="4.63904">
        <ele>417.5</ele>
        <time>2018-10-14T06:54:34Z</time>
      </trkpt>
      <trkpt lat="45.65975" lon="4.63903">
        <ele>417.4</ele>
        <time>2018-10-14T06:54:35Z</time>
      </trkpt>
      <trkpt lat="45.65977" lon="4.63899">
        <ele>417.1</ele>
        <time>2018-10-14T06:55:51Z</time>
      </trkpt>
      <trkpt lat="45.65979" lon="4.63898">
        <ele>417.2</ele>
        <time>2018-10-14T06:55:52Z</time>
      </trkpt>
      <trkpt lat="45.65982" lon="4.63898">
        <ele>417.4</ele>
        <time>2018-10-14T06:55:54Z</time>
      </trkpt>
      <trkpt lat="45.65988" lon="4.63901">
        <ele>417.7</ele>
        <time>2018-10-14T06:55:57Z</time>
      </trkpt>
      <trkpt lat="45.66008" lon="4.6391">
        <ele>418.8</ele>
        <time>2018-10-14T06:56:05Z</time>
      </trkpt>
      <trkpt lat="45.66017" lon="4.6391">
        <ele>419.3</ele>
        <time>2018-10-14T06:56:08Z</time>
      </trkpt>
      <trkpt lat="45.66026" lon="4.6391">
        <ele>419.8</ele>
        <time>2018-10-14T06:56:11Z</time>
      </trkpt>
      <trkpt lat="45.66045" lon="4.63908">
        <ele>420.6</ele>
        <time>2018-10-14T06:56:17Z</time>
      </trkpt>
      <trkpt lat="45.66048" lon="4.63907">
        <ele>420.7</ele>
        <time>2018-10-14T06:56:18Z</time>
      </trkpt>
      <trkpt lat="45.66065" lon="4.63898">
        <ele>421.7</ele>
        <time>2018-10-14T06:56:24Z</time>
      </trkpt>
      <trkpt lat="45.66072" lon="4.63891">
        <ele>422.1</ele>
        <time>2018-10-14T06:56:27Z</time>
      </trkpt>
      <trkpt lat="45.6608" lon="4.63883">
        <ele>422.5</ele>
        <time>2018-10-14T06:56:31Z</time>
      </trkpt>
      <trkpt lat="45.66085" lon="4.63882">
        <ele>422.7</ele>
        <time>2018-10-14T06:56:33Z</time>
      </trkpt>
      <trkpt lat="45.66093" lon="4.63881">
        <ele>423</ele>
        <time>2018-10-14T06:56:36Z</time>
      </trkpt>
      <trkpt lat="45.661" lon="4.63881">
        <ele>423.3</ele>
        <time>2018-10-14T06:56:38Z</time>
      </trkpt>
      <trkpt lat="45.66114" lon="4.63885">
        <ele>423.6</ele>
        <time>2018-10-14T06:56:42Z</time>
      </trkpt>
      <trkpt lat="45.66121" lon="4.63888">
        <ele>423.8</ele>
        <time>2018-10-14T06:56:44Z</time>
      </trkpt>
      <trkpt lat="45.66147" lon="4.63897">
        <ele>424.5</ele>
        <time>2018-10-14T06:56:51Z</time>
      </trkpt>
      <trkpt lat="45.66173" lon="4.63908">
        <ele>425.6</ele>
        <time>2018-10-14T06:56:59Z</time>
      </trkpt>
      <trkpt lat="45.66181" lon="4.63913">
        <ele>426.1</ele>
        <time>2018-10-14T06:57:02Z</time>
      </trkpt>
      <trkpt lat="45.66194" lon="4.63921">
        <ele>426.8</ele>
        <time>2018-10-14T06:57:07Z</time>
      </trkpt>
      <trkpt lat="45.66198" lon="4.63923">
        <ele>427.1</ele>
        <time>2018-10-14T06:57:09Z</time>
      </trkpt>
      <trkpt lat="45.66205" lon="4.63927">
        <ele>427.5</ele>
        <time>2018-10-14T06:57:12Z</time>
      </trkpt>
      <trkpt lat="45.66215" lon="4.63929">
        <ele>428.1</ele>
        <time>2018-10-14T06:57:18Z</time>
      </trkpt>
      <trkpt lat="45.66225" lon="4.63931">
        <ele>428.6</ele>
        <time>2018-10-14T06:57:23Z</time>
      </trkpt>
      <trkpt lat="45.66234" lon="4.63934">
        <ele>428.8</ele>
        <time>2018-10-14T06:57:27Z</time>
      </trkpt>
      <trkpt lat="45.66239" lon="4.63938">
        <ele>428.9</ele>
        <time>2018-10-14T06:57:29Z</time>
      </trkpt>
      <trkpt lat="45.66254" lon="4.63948">
        <ele>428.9</ele>
        <time>2018-10-14T06:57:35Z</time>
      </trkpt>
      <trkpt lat="45.66274" lon="4.63955">
        <ele>428.5</ele>
        <time>2018-10-14T06:57:42Z</time>
      </trkpt>
      <trkpt lat="45.66294" lon="4.63963">
        <ele>427.7</ele>
        <time>2018-10-14T06:57:49Z</time>
      </trkpt>
      <trkpt lat="45.66307" lon="4.6397">
        <ele>427.1</ele>
        <time>2018-10-14T06:57:55Z</time>
      </trkpt>
      <trkpt lat="45.66326" lon="4.63979">
        <ele>426.3</ele>
        <time>2018-10-14T06:58:02Z</time>
      </trkpt>
      <trkpt lat="45.6635" lon="4.63988">
        <ele>425.1</ele>
        <time>2018-10-14T06:58:08Z</time>
      </trkpt>
      <trkpt lat="45.66352" lon="4.63988">
        <ele>425</ele>
        <time>2018-10-14T06:58:09Z</time>
      </trkpt>
      <trkpt lat="45.66355" lon="4.63986">
        <ele>424.8</ele>
        <time>2018-10-14T06:58:11Z</time>
      </trkpt>
      <trkpt lat="45.66354" lon="4.63983">
        <ele>424.8</ele>
        <time>2018-10-14T06:58:12Z</time>
      </trkpt>
      <trkpt lat="45.66348" lon="4.63972">
        <ele>426.2</ele>
        <time>2018-10-14T06:58:18Z</time>
      </trkpt>
      <trkpt lat="45.66347" lon="4.63962">
        <ele>427.2</ele>
        <time>2018-10-14T06:58:22Z</time>
      </trkpt>
      <trkpt lat="45.66345" lon="4.63957">
        <ele>427.7</ele>
        <time>2018-10-14T06:58:24Z</time>
      </trkpt>
      <trkpt lat="45.66344" lon="4.63955">
        <ele>428</ele>
        <time>2018-10-14T06:58:25Z</time>
      </trkpt>
      <trkpt lat="45.66344" lon="4.63952">
        <ele>428.3</ele>
        <time>2018-10-14T06:58:26Z</time>
      </trkpt>
      <trkpt lat="45.66342" lon="4.63945">
        <ele>429.1</ele>
        <time>2018-10-14T06:58:29Z</time>
      </trkpt>
      <trkpt lat="45.66341" lon="4.6394">
        <ele>429.7</ele>
        <time>2018-10-14T06:58:31Z</time>
      </trkpt>
      <trkpt lat="45.66341" lon="4.63937">
        <ele>430</ele>
        <time>2018-10-14T06:58:32Z</time>
      </trkpt>
      <trkpt lat="45.66339" lon="4.63931">
        <ele>430.7</ele>
        <time>2018-10-14T06:58:35Z</time>
      </trkpt>
      <trkpt lat="45.66337" lon="4.63925">
        <ele>431.4</ele>
        <time>2018-10-14T06:58:38Z</time>
      </trkpt>
      <trkpt lat="45.66337" lon="4.63923">
        <ele>431.5</ele>
        <time>2018-10-14T06:58:39Z</time>
      </trkpt>
      <trkpt lat="45.66337" lon="4.63914">
        <ele>432.3</ele>
        <time>2018-10-14T06:58:43Z</time>
      </trkpt>
      <trkpt lat="45.66335" lon="4.63905">
        <ele>433.2</ele>
        <time>2018-10-14T06:58:47Z</time>
      </trkpt>
      <trkpt lat="45.66333" lon="4.63898">
        <ele>433.9</ele>
        <time>2018-10-14T06:58:50Z</time>
      </trkpt>
      <trkpt lat="45.66332" lon="4.63889">
        <ele>434.7</ele>
        <time>2018-10-14T06:58:54Z</time>
      </trkpt>
      <trkpt lat="45.66331" lon="4.63882">
        <ele>435.3</ele>
        <time>2018-10-14T06:58:57Z</time>
      </trkpt>
      <trkpt lat="45.6633" lon="4.6388">
        <ele>435.5</ele>
        <time>2018-10-14T06:58:58Z</time>
      </trkpt>
      <trkpt lat="45.66328" lon="4.63868">
        <ele>436.6</ele>
        <time>2018-10-14T06:59:03Z</time>
      </trkpt>
      <trkpt lat="45.66327" lon="4.63861">
        <ele>437.3</ele>
        <time>2018-10-14T06:59:06Z</time>
      </trkpt>
      <trkpt lat="45.66325" lon="4.63852">
        <ele>438.2</ele>
        <time>2018-10-14T06:59:10Z</time>
      </trkpt>
      <trkpt lat="45.66323" lon="4.63843">
        <ele>439</ele>
        <time>2018-10-14T06:59:14Z</time>
      </trkpt>
      <trkpt lat="45.6632" lon="4.63834">
        <ele>440</ele>
        <time>2018-10-14T06:59:19Z</time>
      </trkpt>
      <trkpt lat="45.6632" lon="4.63832">
        <ele>440.2</ele>
        <time>2018-10-14T06:59:20Z</time>
      </trkpt>
      <trkpt lat="45.66318" lon="4.63822">
        <ele>441.2</ele>
        <time>2018-10-14T06:59:25Z</time>
      </trkpt>
      <trkpt lat="45.66316" lon="4.63815">
        <ele>441.9</ele>
        <time>2018-10-14T06:59:28Z</time>
      </trkpt>
      <trkpt lat="45.66314" lon="4.63806">
        <ele>442.7</ele>
        <time>2018-10-14T06:59:32Z</time>
      </trkpt>
      <trkpt lat="45.66311" lon="4.63795">
        <ele>443.8</ele>
        <time>2018-10-14T06:59:37Z</time>
      </trkpt>
      <trkpt lat="45.66309" lon="4.63789">
        <ele>444.4</ele>
        <time>2018-10-14T06:59:40Z</time>
      </trkpt>
      <trkpt lat="45.66307" lon="4.63782">
        <ele>445</ele>
        <time>2018-10-14T06:59:43Z</time>
      </trkpt>
      <trkpt lat="45.66304" lon="4.6377">
        <ele>446.3</ele>
        <time>2018-10-14T06:59:48Z</time>
      </trkpt>
      <trkpt lat="45.66302" lon="4.63761">
        <ele>447</ele>
        <time>2018-10-14T06:59:52Z</time>
      </trkpt>
      <trkpt lat="45.663" lon="4.63752">
        <ele>447.8</ele>
        <time>2018-10-14T06:59:56Z</time>
      </trkpt>
      <trkpt lat="45.66299" lon="4.63747">
        <ele>448.2</ele>
        <time>2018-10-14T06:59:58Z</time>
      </trkpt>
      <trkpt lat="45.66297" lon="4.63739">
        <ele>448.9</ele>
        <time>2018-10-14T07:00:02Z</time>
      </trkpt>
      <trkpt lat="45.66295" lon="4.63731">
        <ele>449.6</ele>
        <time>2018-10-14T07:00:06Z</time>
      </trkpt>
      <trkpt lat="45.66294" lon="4.63729">
        <ele>449.9</ele>
        <time>2018-10-14T07:00:07Z</time>
      </trkpt>
      <trkpt lat="45.66294" lon="4.63722">
        <ele>450.5</ele>
        <time>2018-10-14T07:00:10Z</time>
      </trkpt>
      <trkpt lat="45.66295" lon="4.63718">
        <ele>450.9</ele>
        <time>2018-10-14T07:00:12Z</time>
      </trkpt>
      <trkpt lat="45.66296" lon="4.63716">
        <ele>451.2</ele>
        <time>2018-10-14T07:00:13Z</time>
      </trkpt>
      <trkpt lat="45.66298" lon="4.63709">
        <ele>451.8</ele>
        <time>2018-10-14T07:00:17Z</time>
      </trkpt>
      <trkpt lat="45.66298" lon="4.63707">
        <ele>452</ele>
        <time>2018-10-14T07:00:18Z</time>
      </trkpt>
      <trkpt lat="45.663" lon="4.63698">
        <ele>452.8</ele>
        <time>2018-10-14T07:00:22Z</time>
      </trkpt>
      <trkpt lat="45.663" lon="4.63696">
        <ele>453.2</ele>
        <time>2018-10-14T07:00:23Z</time>
      </trkpt>
      <trkpt lat="45.66301" lon="4.63693">
        <ele>453.6</ele>
        <time>2018-10-14T07:00:25Z</time>
      </trkpt>
      <trkpt lat="45.66302" lon="4.63691">
        <ele>452.9</ele>
        <time>2018-10-14T07:00:26Z</time>
      </trkpt>
      <trkpt lat="45.66304" lon="4.63685">
        <ele>452.9</ele>
        <time>2018-10-14T07:03:43Z</time>
      </trkpt>
      <trkpt lat="45.66313" lon="4.63672">
        <ele>453.1</ele>
        <time>2018-10-14T07:03:49Z</time>
      </trkpt>
      <trkpt lat="45.66327" lon="4.6366">
        <ele>453.1</ele>
        <time>2018-10-14T07:03:54Z</time>
      </trkpt>
      <trkpt lat="45.66335" lon="4.63653">
        <ele>453</ele>
        <time>2018-10-14T07:03:56Z</time>
      </trkpt>
      <trkpt lat="45.66352" lon="4.6364">
        <ele>452.1</ele>
        <time>2018-10-14T07:04:00Z</time>
      </trkpt>
      <trkpt lat="45.66358" lon="4.63635">
        <ele>451.7</ele>
        <time>2018-10-14T07:04:01Z</time>
      </trkpt>
      <trkpt lat="45.66365" lon="4.63619">
        <ele>450.6</ele>
        <time>2018-10-14T07:04:03Z</time>
      </trkpt>
      <trkpt lat="45.66369" lon="4.63601">
        <ele>449.7</ele>
        <time>2018-10-14T07:04:05Z</time>
      </trkpt>
      <trkpt lat="45.66369" lon="4.63591">
        <ele>449.3</ele>
        <time>2018-10-14T07:04:06Z</time>
      </trkpt>
      <trkpt lat="45.66366" lon="4.6357">
        <ele>448.4</ele>
        <time>2018-10-14T07:04:08Z</time>
      </trkpt>
      <trkpt lat="45.66363" lon="4.63559">
        <ele>448.1</ele>
        <time>2018-10-14T07:04:09Z</time>
      </trkpt>
      <trkpt lat="45.6636" lon="4.63547">
        <ele>447.8</ele>
        <time>2018-10-14T07:04:10Z</time>
      </trkpt>
      <trkpt lat="45.66353" lon="4.63524">
        <ele>447.2</ele>
        <time>2018-10-14T07:04:12Z</time>
      </trkpt>
      <trkpt lat="45.66348" lon="4.63497">
        <ele>445.9</ele>
        <time>2018-10-14T07:04:14Z</time>
      </trkpt>
      <trkpt lat="45.66344" lon="4.63471">
        <ele>444.8</ele>
        <time>2018-10-14T07:04:16Z</time>
      </trkpt>
      <trkpt lat="45.66338" lon="4.63445">
        <ele>444</ele>
        <time>2018-10-14T07:04:18Z</time>
      </trkpt>
      <trkpt lat="45.66334" lon="4.63419">
        <ele>443.1</ele>
        <time>2018-10-14T07:04:20Z</time>
      </trkpt>
      <trkpt lat="45.66338" lon="4.63384">
        <ele>441.8</ele>
        <time>2018-10-14T07:04:23Z</time>
      </trkpt>
      <trkpt lat="45.6634" lon="4.63373">
        <ele>441.6</ele>
        <time>2018-10-14T07:04:24Z</time>
      </trkpt>
      <trkpt lat="45.66346" lon="4.63335">
        <ele>440.7</ele>
        <time>2018-10-14T07:04:28Z</time>
      </trkpt>
      <trkpt lat="45.66351" lon="4.63304">
        <ele>440.2</ele>
        <time>2018-10-14T07:04:31Z</time>
      </trkpt>
      <trkpt lat="45.66357" lon="4.63262">
        <ele>439.5</ele>
        <time>2018-10-14T07:04:35Z</time>
      </trkpt>
      <trkpt lat="45.66358" lon="4.63251">
        <ele>439.3</ele>
        <time>2018-10-14T07:04:36Z</time>
      </trkpt>
      <trkpt lat="45.66362" lon="4.63214">
        <ele>438.5</ele>
        <time>2018-10-14T07:04:39Z</time>
      </trkpt>
      <trkpt lat="45.66363" lon="4.63202">
        <ele>438</ele>
        <time>2018-10-14T07:04:40Z</time>
      </trkpt>
      <trkpt lat="45.66366" lon="4.63193">
        <ele>437.7</ele>
        <time>2018-10-14T07:04:41Z</time>
      </trkpt>
      <trkpt lat="45.6637" lon="4.63185">
        <ele>437.3</ele>
        <time>2018-10-14T07:04:42Z</time>
      </trkpt>
      <trkpt lat="45.66376" lon="4.63178">
        <ele>437</ele>
        <time>2018-10-14T07:04:43Z</time>
      </trkpt>
      <trkpt lat="45.66387" lon="4.63167">
        <ele>436.7</ele>
        <time>2018-10-14T07:04:45Z</time>
      </trkpt>
      <trkpt lat="45.66392" lon="4.63162">
        <ele>437</ele>
        <time>2018-10-14T07:04:46Z</time>
      </trkpt>
      <trkpt lat="45.66396" lon="4.63158">
        <ele>437.3</ele>
        <time>2018-10-14T07:04:47Z</time>
      </trkpt>
      <trkpt lat="45.66406" lon="4.63153">
        <ele>438.2</ele>
        <time>2018-10-14T07:04:50Z</time>
      </trkpt>
      <trkpt lat="45.66408" lon="4.63154">
        <ele>438.5</ele>
        <time>2018-10-14T07:04:51Z</time>
      </trkpt>
      <trkpt lat="45.66411" lon="4.63158">
        <ele>438.8</ele>
        <time>2018-10-14T07:04:52Z</time>
      </trkpt>
      <trkpt lat="45.66415" lon="4.63166">
        <ele>439.6</ele>
        <time>2018-10-14T07:04:54Z</time>
      </trkpt>
      <trkpt lat="45.66423" lon="4.63174">
        <ele>440.8</ele>
        <time>2018-10-14T07:04:58Z</time>
      </trkpt>
      <trkpt lat="45.66424" lon="4.63173">
        <ele>441.2</ele>
        <time>2018-10-14T07:04:59Z</time>
      </trkpt>
      <trkpt lat="45.6643" lon="4.63167">
        <ele>442.3</ele>
        <time>2018-10-14T07:05:03Z</time>
      </trkpt>
      <trkpt lat="45.66432" lon="4.63164">
        <ele>443</ele>
        <time>2018-10-14T07:05:05Z</time>
      </trkpt>
      <trkpt lat="45.66433" lon="4.63158">
        <ele>443.8</ele>
        <time>2018-10-14T07:05:08Z</time>
      </trkpt>
      <trkpt lat="45.66434" lon="4.63157">
        <ele>443.9</ele>
        <time>2018-10-14T07:05:09Z</time>
      </trkpt>
      <trkpt lat="45.66438" lon="4.63153">
        <ele>444.1</ele>
        <time>2018-10-14T07:05:13Z</time>
      </trkpt>
      <trkpt lat="45.66439" lon="4.63152">
        <ele>444.1</ele>
        <time>2018-10-14T07:05:14Z</time>
      </trkpt>
      <trkpt lat="45.66446" lon="4.63149">
        <ele>444.4</ele>
        <time>2018-10-14T07:05:20Z</time>
      </trkpt>
      <trkpt lat="45.66447" lon="4.63149">
        <ele>444.5</ele>
        <time>2018-10-14T07:05:21Z</time>
      </trkpt>
      <trkpt lat="45.66454" lon="4.63148">
        <ele>444.9</ele>
        <time>2018-10-14T07:05:26Z</time>
      </trkpt>
      <trkpt lat="45.66458" lon="4.63148">
        <ele>445.2</ele>
        <time>2018-10-14T07:05:28Z</time>
      </trkpt>
      <trkpt lat="45.66461" lon="4.63149">
        <ele>445.4</ele>
        <time>2018-10-14T07:05:30Z</time>
      </trkpt>
      <trkpt lat="45.66467" lon="4.63151">
        <ele>445.8</ele>
        <time>2018-10-14T07:05:33Z</time>
      </trkpt>
      <trkpt lat="45.66471" lon="4.6315">
        <ele>446.2</ele>
        <time>2018-10-14T07:05:35Z</time>
      </trkpt>
      <trkpt lat="45.6648" lon="4.6315">
        <ele>446.8</ele>
        <time>2018-10-14T07:05:39Z</time>
      </trkpt>
      <trkpt lat="45.66491" lon="4.63152">
        <ele>447.5</ele>
        <time>2018-10-14T07:05:44Z</time>
      </trkpt>
      <trkpt lat="45.66492" lon="4.63152">
        <ele>447.6</ele>
        <time>2018-10-14T07:05:45Z</time>
      </trkpt>
      <trkpt lat="45.66505" lon="4.63154">
        <ele>448.2</ele>
        <time>2018-10-14T07:05:51Z</time>
      </trkpt>
      <trkpt lat="45.66508" lon="4.63154">
        <ele>448.3</ele>
        <time>2018-10-14T07:05:52Z</time>
      </trkpt>
      <trkpt lat="45.66512" lon="4.63156">
        <ele>448.4</ele>
        <time>2018-10-14T07:05:54Z</time>
      </trkpt>
      <trkpt lat="45.66519" lon="4.63158">
        <ele>448.7</ele>
        <time>2018-10-14T07:05:57Z</time>
      </trkpt>
      <trkpt lat="45.66529" lon="4.63159">
        <ele>449.2</ele>
        <time>2018-10-14T07:06:01Z</time>
      </trkpt>
      <trkpt lat="45.66536" lon="4.63158">
        <ele>449.7</ele>
        <time>2018-10-14T07:06:04Z</time>
      </trkpt>
      <trkpt lat="45.66543" lon="4.63156">
        <ele>450.3</ele>
        <time>2018-10-14T07:06:07Z</time>
      </trkpt>
      <trkpt lat="45.66547" lon="4.63155">
        <ele>450.8</ele>
        <time>2018-10-14T07:06:09Z</time>
      </trkpt>
      <trkpt lat="45.66551" lon="4.63153">
        <ele>451.2</ele>
        <time>2018-10-14T07:06:11Z</time>
      </trkpt>
      <trkpt lat="45.66558" lon="4.63148">
        <ele>452.3</ele>
        <time>2018-10-14T07:06:15Z</time>
      </trkpt>
      <trkpt lat="45.6656" lon="4.63147">
        <ele>452.5</ele>
        <time>2018-10-14T07:06:16Z</time>
      </trkpt>
      <trkpt lat="45.66566" lon="4.63144">
        <ele>453.3</ele>
        <time>2018-10-14T07:06:19Z</time>
      </trkpt>
      <trkpt lat="45.66574" lon="4.63142">
        <ele>454.3</ele>
        <time>2018-10-14T07:06:23Z</time>
      </trkpt>
      <trkpt lat="45.66585" lon="4.63138">
        <ele>455.7</ele>
        <time>2018-10-14T07:06:29Z</time>
      </trkpt>
      <trkpt lat="45.6659" lon="4.63136">
        <ele>456.1</ele>
        <time>2018-10-14T07:06:31Z</time>
      </trkpt>
      <trkpt lat="45.66601" lon="4.63131">
        <ele>457.2</ele>
        <time>2018-10-14T07:06:37Z</time>
      </trkpt>
      <trkpt lat="45.66607" lon="4.63129">
        <ele>457.7</ele>
        <time>2018-10-14T07:06:40Z</time>
      </trkpt>
      <trkpt lat="45.66609" lon="4.63128">
        <ele>457.8</ele>
        <time>2018-10-14T07:06:41Z</time>
      </trkpt>
      <trkpt lat="45.66612" lon="4.63127">
        <ele>458.1</ele>
        <time>2018-10-14T07:06:43Z</time>
      </trkpt>
      <trkpt lat="45.66619" lon="4.63124">
        <ele>458.8</ele>
        <time>2018-10-14T07:06:48Z</time>
      </trkpt>
      <trkpt lat="45.66627" lon="4.6312">
        <ele>459.6</ele>
        <time>2018-10-14T07:06:52Z</time>
      </trkpt>
      <trkpt lat="45.66633" lon="4.63118">
        <ele>460.2</ele>
        <time>2018-10-14T07:06:55Z</time>
      </trkpt>
      <trkpt lat="45.66643" lon="4.63111">
        <ele>461.5</ele>
        <time>2018-10-14T07:07:01Z</time>
      </trkpt>
      <trkpt lat="45.66647" lon="4.63108">
        <ele>462</ele>
        <time>2018-10-14T07:07:03Z</time>
      </trkpt>
      <trkpt lat="45.66658" lon="4.63101">
        <ele>463.3</ele>
        <time>2018-10-14T07:07:09Z</time>
      </trkpt>
      <trkpt lat="45.66666" lon="4.63097">
        <ele>464.1</ele>
        <time>2018-10-14T07:07:13Z</time>
      </trkpt>
      <trkpt lat="45.6667" lon="4.63095">
        <ele>464.6</ele>
        <time>2018-10-14T07:07:16Z</time>
      </trkpt>
      <trkpt lat="45.66675" lon="4.63095">
        <ele>464.9</ele>
        <time>2018-10-14T07:07:19Z</time>
      </trkpt>
      <trkpt lat="45.66685" lon="4.63096">
        <ele>466</ele>
        <time>2018-10-14T07:07:25Z</time>
      </trkpt>
      <trkpt lat="45.66692" lon="4.63096">
        <ele>466.9</ele>
        <time>2018-10-14T07:07:29Z</time>
      </trkpt>
      <trkpt lat="45.66696" lon="4.63096">
        <ele>467.2</ele>
        <time>2018-10-14T07:07:31Z</time>
      </trkpt>
      <trkpt lat="45.667" lon="4.63096">
        <ele>467.6</ele>
        <time>2018-10-14T07:07:33Z</time>
      </trkpt>
      <trkpt lat="45.66704" lon="4.63099">
        <ele>468.1</ele>
        <time>2018-10-14T07:07:36Z</time>
      </trkpt>
      <trkpt lat="45.66714" lon="4.63101">
        <ele>469</ele>
        <time>2018-10-14T07:07:41Z</time>
      </trkpt>
      <trkpt lat="45.66722" lon="4.63098">
        <ele>469.6</ele>
        <time>2018-10-14T07:07:45Z</time>
      </trkpt>
      <trkpt lat="45.66725" lon="4.63095">
        <ele>469.9</ele>
        <time>2018-10-14T07:07:47Z</time>
      </trkpt>
      <trkpt lat="45.66728" lon="4.63093">
        <ele>470.1</ele>
        <time>2018-10-14T07:07:49Z</time>
      </trkpt>
      <trkpt lat="45.66738" lon="4.63083">
        <ele>470.9</ele>
        <time>2018-10-14T07:07:56Z</time>
      </trkpt>
      <trkpt lat="45.66748" lon="4.63076">
        <ele>471.5</ele>
        <time>2018-10-14T07:08:02Z</time>
      </trkpt>
      <trkpt lat="45.66753" lon="4.63071">
        <ele>471.8</ele>
        <time>2018-10-14T07:08:05Z</time>
      </trkpt>
      <trkpt lat="45.66762" lon="4.63066">
        <ele>472</ele>
        <time>2018-10-14T07:08:10Z</time>
      </trkpt>
      <trkpt lat="45.66767" lon="4.63065">
        <ele>472</ele>
        <time>2018-10-14T07:08:12Z</time>
      </trkpt>
      <trkpt lat="45.6678" lon="4.63064">
        <ele>471.8</ele>
        <time>2018-10-14T07:08:17Z</time>
      </trkpt>
      <trkpt lat="45.66802" lon="4.63065">
        <ele>471.2</ele>
        <time>2018-10-14T07:08:23Z</time>
      </trkpt>
      <trkpt lat="45.66836" lon="4.63069">
        <ele>470.6</ele>
        <time>2018-10-14T07:08:31Z</time>
      </trkpt>
      <trkpt lat="45.66845" lon="4.63069">
        <ele>470.5</ele>
        <time>2018-10-14T07:08:33Z</time>
      </trkpt>
      <trkpt lat="45.66878" lon="4.63062">
        <ele>469</ele>
        <time>2018-10-14T07:08:40Z</time>
      </trkpt>
      <trkpt lat="45.66895" lon="4.63051">
        <ele>467.3</ele>
        <time>2018-10-14T07:08:45Z</time>
      </trkpt>
      <trkpt lat="45.66897" lon="4.63047">
        <ele>466.9</ele>
        <time>2018-10-14T07:08:46Z</time>
      </trkpt>
      <trkpt lat="45.66896" lon="4.63042">
        <ele>466.6</ele>
        <time>2018-10-14T07:08:47Z</time>
      </trkpt>
      <trkpt lat="45.66893" lon="4.63037">
        <ele>467.4</ele>
        <time>2018-10-14T07:08:49Z</time>
      </trkpt>
      <trkpt lat="45.66887" lon="4.6302">
        <ele>468.5</ele>
        <time>2018-10-14T07:08:55Z</time>
      </trkpt>
      <trkpt lat="45.66885" lon="4.63017">
        <ele>468.7</ele>
        <time>2018-10-14T07:08:56Z</time>
      </trkpt>
      <trkpt lat="45.66876" lon="4.63001">
        <ele>470.9</ele>
        <time>2018-10-14T07:09:02Z</time>
      </trkpt>
      <trkpt lat="45.66875" lon="4.62999">
        <ele>471.2</ele>
        <time>2018-10-14T07:09:03Z</time>
      </trkpt>
      <trkpt lat="45.66875" lon="4.62996">
        <ele>471.6</ele>
        <time>2018-10-14T07:09:05Z</time>
      </trkpt>
      <trkpt lat="45.66875" lon="4.62992">
        <ele>472.1</ele>
        <time>2018-10-14T07:09:07Z</time>
      </trkpt>
      <trkpt lat="45.66875" lon="4.62988">
        <ele>472.6</ele>
        <time>2018-10-14T07:09:09Z</time>
      </trkpt>
      <trkpt lat="45.66876" lon="4.62986">
        <ele>472.9</ele>
        <time>2018-10-14T07:09:10Z</time>
      </trkpt>
      <trkpt lat="45.66876" lon="4.62979">
        <ele>473.8</ele>
        <time>2018-10-14T07:09:14Z</time>
      </trkpt>
      <trkpt lat="45.66875" lon="4.62977">
        <ele>474</ele>
        <time>2018-10-14T07:09:15Z</time>
      </trkpt>
      <trkpt lat="45.66874" lon="4.62974">
        <ele>474.6</ele>
        <time>2018-10-14T07:09:17Z</time>
      </trkpt>
      <trkpt lat="45.66871" lon="4.62968">
        <ele>475.9</ele>
        <time>2018-10-14T07:09:21Z</time>
      </trkpt>
      <trkpt lat="45.66871" lon="4.62966">
        <ele>476.1</ele>
        <time>2018-10-14T07:09:22Z</time>
      </trkpt>
      <trkpt lat="45.6687" lon="4.62956">
        <ele>477.9</ele>
        <time>2018-10-14T07:09:27Z</time>
      </trkpt>
      <trkpt lat="45.66871" lon="4.62954">
        <ele>478.2</ele>
        <time>2018-10-14T07:09:28Z</time>
      </trkpt>
      <trkpt lat="45.6687" lon="4.62952">
        <ele>478.5</ele>
        <time>2018-10-14T07:09:29Z</time>
      </trkpt>
      <trkpt lat="45.66867" lon="4.62949">
        <ele>479.3</ele>
        <time>2018-10-14T07:09:31Z</time>
      </trkpt>
      <trkpt lat="45.66865" lon="4.62947">
        <ele>479.9</ele>
        <time>2018-10-14T07:09:33Z</time>
      </trkpt>
      <trkpt lat="45.66864" lon="4.62946">
        <ele>480.1</ele>
        <time>2018-10-14T07:09:34Z</time>
      </trkpt>
      <trkpt lat="45.66862" lon="4.62944">
        <ele>480.7</ele>
        <time>2018-10-14T07:09:36Z</time>
      </trkpt>
      <trkpt lat="45.66859" lon="4.62941">
        <ele>481.6</ele>
        <time>2018-10-14T07:09:39Z</time>
      </trkpt>
      <trkpt lat="45.66858" lon="4.6294">
        <ele>481.9</ele>
        <time>2018-10-14T07:09:40Z</time>
      </trkpt>
      <trkpt lat="45.66854" lon="4.62938">
        <ele>482.8</ele>
        <time>2018-10-14T07:09:43Z</time>
      </trkpt>
      <trkpt lat="45.66849" lon="4.62935">
        <ele>483.8</ele>
        <time>2018-10-14T07:09:47Z</time>
      </trkpt>
      <trkpt lat="45.66801" lon="4.62895">
        <ele>495.7</ele>
        <time>2018-10-14T07:11:04Z</time>
      </trkpt>
      <trkpt lat="45.66799" lon="4.62894">
        <ele>496.1</ele>
        <time>2018-10-14T07:11:05Z</time>
      </trkpt>
      <trkpt lat="45.66797" lon="4.62891">
        <ele>496.7</ele>
        <time>2018-10-14T07:11:07Z</time>
      </trkpt>
      <trkpt lat="45.66794" lon="4.62887">
        <ele>497.6</ele>
        <time>2018-10-14T07:11:10Z</time>
      </trkpt>
      <trkpt lat="45.6679" lon="4.62882">
        <ele>498.3</ele>
        <time>2018-10-14T07:11:14Z</time>
      </trkpt>
      <trkpt lat="45.6678" lon="4.62875">
        <ele>499.3</ele>
        <time>2018-10-14T07:11:21Z</time>
      </trkpt>
      <trkpt lat="45.66779" lon="4.62874">
        <ele>499.5</ele>
        <time>2018-10-14T07:11:22Z</time>
      </trkpt>
      <trkpt lat="45.66772" lon="4.62869">
        <ele>500.3</ele>
        <time>2018-10-14T07:11:27Z</time>
      </trkpt>
      <trkpt lat="45.66771" lon="4.62868">
        <ele>500.5</ele>
        <time>2018-10-14T07:11:28Z</time>
      </trkpt>
      <trkpt lat="45.66767" lon="4.62859">
        <ele>501.8</ele>
        <time>2018-10-14T07:11:33Z</time>
      </trkpt>
      <trkpt lat="45.66766" lon="4.62855">
        <ele>502.4</ele>
        <time>2018-10-14T07:11:35Z</time>
      </trkpt>
      <trkpt lat="45.66766" lon="4.62853">
        <ele>502.6</ele>
        <time>2018-10-14T07:11:36Z</time>
      </trkpt>
      <trkpt lat="45.66759" lon="4.62841">
        <ele>503.9</ele>
        <time>2018-10-14T07:11:45Z</time>
      </trkpt>
      <trkpt lat="45.66757" lon="4.62839">
        <ele>504.1</ele>
        <time>2018-10-14T07:11:46Z</time>
      </trkpt>
      <trkpt lat="45.66756" lon="4.62838">
        <ele>504.2</ele>
        <time>2018-10-14T07:11:47Z</time>
      </trkpt>
      <trkpt lat="45.66752" lon="4.628">
        <ele>507.7</ele>
        <time>2018-10-14T07:12:07Z</time>
      </trkpt>
      <trkpt lat="45.66753" lon="4.62796">
        <ele>508.1</ele>
        <time>2018-10-14T07:12:09Z</time>
      </trkpt>
      <trkpt lat="45.66754" lon="4.62793">
        <ele>508.6</ele>
        <time>2018-10-14T07:12:11Z</time>
      </trkpt>
      <trkpt lat="45.66756" lon="4.62784">
        <ele>509.4</ele>
        <time>2018-10-14T07:12:16Z</time>
      </trkpt>
      <trkpt lat="45.66756" lon="4.62781">
        <ele>509.7</ele>
        <time>2018-10-14T07:12:17Z</time>
      </trkpt>
      <trkpt lat="45.6676" lon="4.62766">
        <ele>511.4</ele>
        <time>2018-10-14T07:12:24Z</time>
      </trkpt>
      <trkpt lat="45.66759" lon="4.62759">
        <ele>512.1</ele>
        <time>2018-10-14T07:12:27Z</time>
      </trkpt>
      <trkpt lat="45.66758" lon="4.62751">
        <ele>512.9</ele>
        <time>2018-10-14T07:12:31Z</time>
      </trkpt>
      <trkpt lat="45.66757" lon="4.62749">
        <ele>513.1</ele>
        <time>2018-10-14T07:12:32Z</time>
      </trkpt>
      <trkpt lat="45.66756" lon="4.62741">
        <ele>513.9</ele>
        <time>2018-10-14T07:12:37Z</time>
      </trkpt>
      <trkpt lat="45.66755" lon="4.62729">
        <ele>514.8</ele>
        <time>2018-10-14T07:12:43Z</time>
      </trkpt>
      <trkpt lat="45.66755" lon="4.62726">
        <ele>514.9</ele>
        <time>2018-10-14T07:12:44Z</time>
      </trkpt>
      <trkpt lat="45.66765" lon="4.62665">
        <ele>520</ele>
        <time>2018-10-14T07:13:15Z</time>
      </trkpt>
      <trkpt lat="45.66766" lon="4.62663">
        <ele>520.2</ele>
        <time>2018-10-14T07:13:16Z</time>
      </trkpt>
      <trkpt lat="45.66764" lon="4.62647">
        <ele>521.6</ele>
        <time>2018-10-14T07:13:56Z</time>
      </trkpt>
      <trkpt lat="45.66762" lon="4.62642">
        <ele>522.1</ele>
        <time>2018-10-14T07:13:58Z</time>
      </trkpt>
      <trkpt lat="45.66752" lon="4.62624">
        <ele>524.1</ele>
        <time>2018-10-14T07:14:12Z</time>
      </trkpt>
      <trkpt lat="45.66753" lon="4.62623">
        <ele>524.2</ele>
        <time>2018-10-14T07:14:13Z</time>
      </trkpt>
      <trkpt lat="45.66753" lon="4.62602">
        <ele>525.8</ele>
        <time>2018-10-14T07:14:22Z</time>
      </trkpt>
      <trkpt lat="45.66753" lon="4.62599">
        <ele>525.9</ele>
        <time>2018-10-14T07:14:23Z</time>
      </trkpt>
      <trkpt lat="45.66754" lon="4.62577">
        <ele>526.6</ele>
        <time>2018-10-14T07:14:30Z</time>
      </trkpt>
      <trkpt lat="45.66753" lon="4.62556">
        <ele>527</ele>
        <time>2018-10-14T07:14:37Z</time>
      </trkpt>
      <trkpt lat="45.66748" lon="4.62534">
        <ele>527.4</ele>
        <time>2018-10-14T07:14:45Z</time>
      </trkpt>
      <trkpt lat="45.66747" lon="4.62527">
        <ele>527.5</ele>
        <time>2018-10-14T07:14:49Z</time>
      </trkpt>
      <trkpt lat="45.66744" lon="4.62518">
        <ele>527.6</ele>
        <time>2018-10-14T07:15:18Z</time>
      </trkpt>
      <trkpt lat="45.66738" lon="4.62497">
        <ele>527.9</ele>
        <time>2018-10-14T07:15:24Z</time>
      </trkpt>
      <trkpt lat="45.66737" lon="4.62491">
        <ele>528</ele>
        <time>2018-10-14T07:15:25Z</time>
      </trkpt>
      <trkpt lat="45.66733" lon="4.62468">
        <ele>528.4</ele>
        <time>2018-10-14T07:15:29Z</time>
      </trkpt>
      <trkpt lat="45.66732" lon="4.62463">
        <ele>528.5</ele>
        <time>2018-10-14T07:15:30Z</time>
      </trkpt>
      <trkpt lat="45.66726" lon="4.62439">
        <ele>529.2</ele>
        <time>2018-10-14T07:15:35Z</time>
      </trkpt>
      <trkpt lat="45.66716" lon="4.62405">
        <ele>530</ele>
        <time>2018-10-14T07:15:41Z</time>
      </trkpt>
      <trkpt lat="45.66708" lon="4.62391">
        <ele>530.5</ele>
        <time>2018-10-14T07:15:44Z</time>
      </trkpt>
      <trkpt lat="45.66704" lon="4.62382">
        <ele>531.1</ele>
        <time>2018-10-14T07:15:46Z</time>
      </trkpt>
      <trkpt lat="45.667" lon="4.62375">
        <ele>531.6</ele>
        <time>2018-10-14T07:15:48Z</time>
      </trkpt>
      <trkpt lat="45.66693" lon="4.62366">
        <ele>532.5</ele>
        <time>2018-10-14T07:15:51Z</time>
      </trkpt>
      <trkpt lat="45.66681" lon="4.62357">
        <ele>534.2</ele>
        <time>2018-10-14T07:15:55Z</time>
      </trkpt>
      <trkpt lat="45.66678" lon="4.62354">
        <ele>534.6</ele>
        <time>2018-10-14T07:15:56Z</time>
      </trkpt>
      <trkpt lat="45.66671" lon="4.62349">
        <ele>535.4</ele>
        <time>2018-10-14T07:15:59Z</time>
      </trkpt>
      <trkpt lat="45.66664" lon="4.62343">
        <ele>536.1</ele>
        <time>2018-10-14T07:16:02Z</time>
      </trkpt>
      <trkpt lat="45.66661" lon="4.6234">
        <ele>536.4</ele>
        <time>2018-10-14T07:16:03Z</time>
      </trkpt>
      <trkpt lat="45.66652" lon="4.62333">
        <ele>537.5</ele>
        <time>2018-10-14T07:16:06Z</time>
      </trkpt>
      <trkpt lat="45.66645" lon="4.62327">
        <ele>538</ele>
        <time>2018-10-14T07:16:08Z</time>
      </trkpt>
      <trkpt lat="45.66643" lon="4.62323">
        <ele>538.2</ele>
        <time>2018-10-14T07:16:09Z</time>
      </trkpt>
      <trkpt lat="45.6664" lon="4.6232">
        <ele>538.4</ele>
        <time>2018-10-14T07:16:10Z</time>
      </trkpt>
      <trkpt lat="45.66634" lon="4.62308">
        <ele>539.1</ele>
        <time>2018-10-14T07:16:13Z</time>
      </trkpt>
      <trkpt lat="45.66631" lon="4.62296">
        <ele>539</ele>
        <time>2018-10-14T07:16:16Z</time>
      </trkpt>
      <trkpt lat="45.66628" lon="4.62286">
        <ele>538.9</ele>
        <time>2018-10-14T07:16:19Z</time>
      </trkpt>
      <trkpt lat="45.66624" lon="4.6228">
        <ele>538.8</ele>
        <time>2018-10-14T07:16:21Z</time>
      </trkpt>
      <trkpt lat="45.66617" lon="4.62272">
        <ele>538.8</ele>
        <time>2018-10-14T07:16:25Z</time>
      </trkpt>
      <trkpt lat="45.66614" lon="4.62266">
        <ele>538.8</ele>
        <time>2018-10-14T07:16:27Z</time>
      </trkpt>
      <trkpt lat="45.66602" lon="4.62236">
        <ele>539.4</ele>
        <time>2018-10-14T07:16:36Z</time>
      </trkpt>
      <trkpt lat="45.66594" lon="4.62212">
        <ele>540.4</ele>
        <time>2018-10-14T07:16:43Z</time>
      </trkpt>
      <trkpt lat="45.6659" lon="4.62201">
        <ele>540.7</ele>
        <time>2018-10-14T07:16:46Z</time>
      </trkpt>
      <trkpt lat="45.66583" lon="4.62183">
        <ele>541.3</ele>
        <time>2018-10-14T07:16:51Z</time>
      </trkpt>
      <trkpt lat="45.66575" lon="4.62153">
        <ele>541.7</ele>
        <time>2018-10-14T07:16:58Z</time>
      </trkpt>
      <trkpt lat="45.66573" lon="4.62144">
        <ele>541.8</ele>
        <time>2018-10-14T07:17:00Z</time>
      </trkpt>
      <trkpt lat="45.66565" lon="4.62109">
        <ele>542</ele>
        <time>2018-10-14T07:17:08Z</time>
      </trkpt>
      <trkpt lat="45.66557" lon="4.62073">
        <ele>542.2</ele>
        <time>2018-10-14T07:17:16Z</time>
      </trkpt>
      <trkpt lat="45.66544" lon="4.62032">
        <ele>543.3</ele>
        <time>2018-10-14T07:17:24Z</time>
      </trkpt>
      <trkpt lat="45.66531" lon="4.61986">
        <ele>546</ele>
        <time>2018-10-14T07:17:34Z</time>
      </trkpt>
      <trkpt lat="45.66529" lon="4.61982">
        <ele>546.4</ele>
        <time>2018-10-14T07:17:35Z</time>
      </trkpt>
      <trkpt lat="45.66524" lon="4.61965">
        <ele>547.8</ele>
        <time>2018-10-14T07:17:39Z</time>
      </trkpt>
      <trkpt lat="45.66521" lon="4.61954">
        <ele>548.7</ele>
        <time>2018-10-14T07:17:42Z</time>
      </trkpt>
      <trkpt lat="45.66517" lon="4.61943">
        <ele>549.3</ele>
        <time>2018-10-14T07:17:45Z</time>
      </trkpt>
      <trkpt lat="45.66513" lon="4.61928">
        <ele>550</ele>
        <time>2018-10-14T07:17:49Z</time>
      </trkpt>
      <trkpt lat="45.66512" lon="4.61924">
        <ele>550.2</ele>
        <time>2018-10-14T07:17:50Z</time>
      </trkpt>
      <trkpt lat="45.66509" lon="4.61913">
        <ele>550.5</ele>
        <time>2018-10-14T07:17:53Z</time>
      </trkpt>
      <trkpt lat="45.66505" lon="4.61896">
        <ele>551.2</ele>
        <time>2018-10-14T07:17:59Z</time>
      </trkpt>
      <trkpt lat="45.66502" lon="4.61879">
        <ele>552.3</ele>
        <time>2018-10-14T07:18:05Z</time>
      </trkpt>
      <trkpt lat="45.66501" lon="4.61876">
        <ele>552.5</ele>
        <time>2018-10-14T07:18:06Z</time>
      </trkpt>
      <trkpt lat="45.665" lon="4.61865">
        <ele>553.2</ele>
        <time>2018-10-14T07:18:10Z</time>
      </trkpt>
      <trkpt lat="45.665" lon="4.61862">
        <ele>553.4</ele>
        <time>2018-10-14T07:18:11Z</time>
      </trkpt>
      <trkpt lat="45.665" lon="4.61859">
        <ele>553.6</ele>
        <time>2018-10-14T07:18:12Z</time>
      </trkpt>
      <trkpt lat="45.665" lon="4.61852">
        <ele>554</ele>
        <time>2018-10-14T07:18:14Z</time>
      </trkpt>
      <trkpt lat="45.66499" lon="4.6184">
        <ele>554.7</ele>
        <time>2018-10-14T07:18:18Z</time>
      </trkpt>
      <trkpt lat="45.66494" lon="4.61826">
        <ele>555.5</ele>
        <time>2018-10-14T07:18:24Z</time>
      </trkpt>
      <trkpt lat="45.66494" lon="4.61823">
        <ele>555.5</ele>
        <time>2018-10-14T07:18:25Z</time>
      </trkpt>
      <trkpt lat="45.66494" lon="4.61803">
        <ele>555.8</ele>
        <time>2018-10-14T07:18:32Z</time>
      </trkpt>
      <trkpt lat="45.66494" lon="4.618">
        <ele>555.9</ele>
        <time>2018-10-14T07:18:33Z</time>
      </trkpt>
      <trkpt lat="45.66495" lon="4.61776">
        <ele>556.8</ele>
        <time>2018-10-14T07:18:41Z</time>
      </trkpt>
      <trkpt lat="45.66494" lon="4.61773">
        <ele>556.9</ele>
        <time>2018-10-14T07:18:42Z</time>
      </trkpt>
      <trkpt lat="45.66497" lon="4.61744">
        <ele>558</ele>
        <time>2018-10-14T07:18:51Z</time>
      </trkpt>
      <trkpt lat="45.665" lon="4.61734">
        <ele>558.5</ele>
        <time>2018-10-14T07:18:55Z</time>
      </trkpt>
      <trkpt lat="45.66504" lon="4.61727">
        <ele>558.8</ele>
        <time>2018-10-14T07:18:58Z</time>
      </trkpt>
      <trkpt lat="45.66506" lon="4.61719">
        <ele>559.1</ele>
        <time>2018-10-14T07:19:01Z</time>
      </trkpt>
      <trkpt lat="45.66506" lon="4.61712">
        <ele>559.4</ele>
        <time>2018-10-14T07:19:04Z</time>
      </trkpt>
      <trkpt lat="45.66504" lon="4.61706">
        <ele>559.7</ele>
        <time>2018-10-14T07:19:06Z</time>
      </trkpt>
      <trkpt lat="45.66503" lon="4.617">
        <ele>560</ele>
        <time>2018-10-14T07:19:08Z</time>
      </trkpt>
      <trkpt lat="45.66501" lon="4.6169">
        <ele>560.7</ele>
        <time>2018-10-14T07:19:12Z</time>
      </trkpt>
      <trkpt lat="45.665" lon="4.61686">
        <ele>561.1</ele>
        <time>2018-10-14T07:19:14Z</time>
      </trkpt>
      <trkpt lat="45.66497" lon="4.61677">
        <ele>562.1</ele>
        <time>2018-10-14T07:19:19Z</time>
      </trkpt>
      <trkpt lat="45.66494" lon="4.61668">
        <ele>563.4</ele>
        <time>2018-10-14T07:19:24Z</time>
      </trkpt>
      <trkpt lat="45.66493" lon="4.61666">
        <ele>563.7</ele>
        <time>2018-10-14T07:19:25Z</time>
      </trkpt>
      <trkpt lat="45.6649" lon="4.61659">
        <ele>564.9</ele>
        <time>2018-10-14T07:19:29Z</time>
      </trkpt>
      <trkpt lat="45.66489" lon="4.61652">
        <ele>565.7</ele>
        <time>2018-10-14T07:19:32Z</time>
      </trkpt>
      <trkpt lat="45.66488" lon="4.61651">
        <ele>566</ele>
        <time>2018-10-14T07:19:33Z</time>
      </trkpt>
      <trkpt lat="45.66482" lon="4.61646">
        <ele>567</ele>
        <time>2018-10-14T07:19:37Z</time>
      </trkpt>
      <trkpt lat="45.66477" lon="4.61639">
        <ele>568.1</ele>
        <time>2018-10-14T07:19:42Z</time>
      </trkpt>
      <trkpt lat="45.66476" lon="4.61635">
        <ele>568.4</ele>
        <time>2018-10-14T07:19:44Z</time>
      </trkpt>
      <trkpt lat="45.66475" lon="4.61633">
        <ele>568.6</ele>
        <time>2018-10-14T07:19:45Z</time>
      </trkpt>
      <trkpt lat="45.66474" lon="4.61631">
        <ele>568.8</ele>
        <time>2018-10-14T07:19:46Z</time>
      </trkpt>
      <trkpt lat="45.66473" lon="4.61624">
        <ele>569.4</ele>
        <time>2018-10-14T07:19:50Z</time>
      </trkpt>
      <trkpt lat="45.66472" lon="4.61623">
        <ele>569.5</ele>
        <time>2018-10-14T07:19:51Z</time>
      </trkpt>
      <trkpt lat="45.66472" lon="4.61621">
        <ele>569.6</ele>
        <time>2018-10-14T07:19:52Z</time>
      </trkpt>
      <trkpt lat="45.66473" lon="4.61614">
        <ele>570.2</ele>
        <time>2018-10-14T07:19:56Z</time>
      </trkpt>
      <trkpt lat="45.66472" lon="4.61612">
        <ele>570.4</ele>
        <time>2018-10-14T07:19:57Z</time>
      </trkpt>
      <trkpt lat="45.66471" lon="4.61605">
        <ele>571.1</ele>
        <time>2018-10-14T07:20:01Z</time>
      </trkpt>
      <trkpt lat="45.66468" lon="4.61596">
        <ele>572.1</ele>
        <time>2018-10-14T07:20:06Z</time>
      </trkpt>
      <trkpt lat="45.66464" lon="4.61582">
        <ele>573.6</ele>
        <time>2018-10-14T07:20:13Z</time>
      </trkpt>
      <trkpt lat="45.66463" lon="4.6158">
        <ele>573.8</ele>
        <time>2018-10-14T07:20:14Z</time>
      </trkpt>
      <trkpt lat="45.66463" lon="4.61569">
        <ele>575</ele>
        <time>2018-10-14T07:20:19Z</time>
      </trkpt>
      <trkpt lat="45.66462" lon="4.61567">
        <ele>575.2</ele>
        <time>2018-10-14T07:20:20Z</time>
      </trkpt>
      <trkpt lat="45.66461" lon="4.61561">
        <ele>575.9</ele>
        <time>2018-10-14T07:20:23Z</time>
      </trkpt>
      <trkpt lat="45.66459" lon="4.61552">
        <ele>577</ele>
        <time>2018-10-14T07:20:27Z</time>
      </trkpt>
      <trkpt lat="45.66458" lon="4.61549">
        <ele>577.4</ele>
        <time>2018-10-14T07:20:29Z</time>
      </trkpt>
      <trkpt lat="45.66455" lon="4.61545">
        <ele>578.1</ele>
        <time>2018-10-14T07:20:32Z</time>
      </trkpt>
      <trkpt lat="45.66454" lon="4.61543">
        <ele>578.4</ele>
        <time>2018-10-14T07:20:33Z</time>
      </trkpt>
      <trkpt lat="45.66452" lon="4.61539">
        <ele>578.8</ele>
        <time>2018-10-14T07:20:35Z</time>
      </trkpt>
      <trkpt lat="45.66452" lon="4.61537">
        <ele>579.1</ele>
        <time>2018-10-14T07:20:36Z</time>
      </trkpt>
      <trkpt lat="45.66451" lon="4.61532">
        <ele>579.6</ele>
        <time>2018-10-14T07:20:39Z</time>
      </trkpt>
      <trkpt lat="45.66449" lon="4.61528">
        <ele>580</ele>
        <time>2018-10-14T07:20:42Z</time>
      </trkpt>
      <trkpt lat="45.66448" lon="4.61525">
        <ele>580.4</ele>
        <time>2018-10-14T07:20:45Z</time>
      </trkpt>
      <trkpt lat="45.66447" lon="4.61521">
        <ele>580.7</ele>
        <time>2018-10-14T07:20:47Z</time>
      </trkpt>
      <trkpt lat="45.66445" lon="4.61514">
        <ele>581.5</ele>
        <time>2018-10-14T07:20:53Z</time>
      </trkpt>
      <trkpt lat="45.66444" lon="4.6151">
        <ele>581.8</ele>
        <time>2018-10-14T07:20:55Z</time>
      </trkpt>
      <trkpt lat="45.66444" lon="4.61501">
        <ele>582.7</ele>
        <time>2018-10-14T07:21:00Z</time>
      </trkpt>
      <trkpt lat="45.66444" lon="4.61498">
        <ele>583</ele>
        <time>2018-10-14T07:21:01Z</time>
      </trkpt>
      <trkpt lat="45.66441" lon="4.6149">
        <ele>583.8</ele>
        <time>2018-10-14T07:21:06Z</time>
      </trkpt>
      <trkpt lat="45.6644" lon="4.61488">
        <ele>584</ele>
        <time>2018-10-14T07:21:07Z</time>
      </trkpt>
      <trkpt lat="45.66438" lon="4.61486">
        <ele>584.3</ele>
        <time>2018-10-14T07:21:09Z</time>
      </trkpt>
      <trkpt lat="45.66436" lon="4.61483">
        <ele>584.7</ele>
        <time>2018-10-14T07:21:11Z</time>
      </trkpt>
      <trkpt lat="45.66434" lon="4.61481">
        <ele>584.9</ele>
        <time>2018-10-14T07:21:13Z</time>
      </trkpt>
      <trkpt lat="45.66432" lon="4.61475">
        <ele>585.4</ele>
        <time>2018-10-14T07:21:17Z</time>
      </trkpt>
      <trkpt lat="45.66429" lon="4.61471">
        <ele>585.8</ele>
        <time>2018-10-14T07:21:20Z</time>
      </trkpt>
      <trkpt lat="45.66427" lon="4.61465">
        <ele>586.3</ele>
        <time>2018-10-14T07:21:24Z</time>
      </trkpt>
      <trkpt lat="45.66424" lon="4.61461">
        <ele>586.8</ele>
        <time>2018-10-14T07:21:27Z</time>
      </trkpt>
      <trkpt lat="45.66422" lon="4.61457">
        <ele>587.2</ele>
        <time>2018-10-14T07:21:29Z</time>
      </trkpt>
      <trkpt lat="45.66418" lon="4.61447">
        <ele>588.4</ele>
        <time>2018-10-14T07:21:35Z</time>
      </trkpt>
      <trkpt lat="45.66417" lon="4.61445">
        <ele>588.7</ele>
        <time>2018-10-14T07:21:36Z</time>
      </trkpt>
      <trkpt lat="45.66413" lon="4.61434">
        <ele>590.1</ele>
        <time>2018-10-14T07:21:42Z</time>
      </trkpt>
      <trkpt lat="45.66412" lon="4.61432">
        <ele>590.3</ele>
        <time>2018-10-14T07:21:43Z</time>
      </trkpt>
      <trkpt lat="45.66409" lon="4.61424">
        <ele>591.5</ele>
        <time>2018-10-14T07:21:48Z</time>
      </trkpt>
      <trkpt lat="45.66406" lon="4.61418">
        <ele>592.2</ele>
        <time>2018-10-14T07:21:51Z</time>
      </trkpt>
      <trkpt lat="45.66405" lon="4.61414">
        <ele>592.7</ele>
        <time>2018-10-14T07:21:53Z</time>
      </trkpt>
      <trkpt lat="45.66403" lon="4.61406">
        <ele>593.6</ele>
        <time>2018-10-14T07:21:57Z</time>
      </trkpt>
      <trkpt lat="45.66402" lon="4.61404">
        <ele>593.7</ele>
        <time>2018-10-14T07:21:58Z</time>
      </trkpt>
      <trkpt lat="45.66401" lon="4.61401">
        <ele>594</ele>
        <time>2018-10-14T07:22:00Z</time>
      </trkpt>
      <trkpt lat="45.66398" lon="4.6139">
        <ele>594.8</ele>
        <time>2018-10-14T07:22:05Z</time>
      </trkpt>
      <trkpt lat="45.66398" lon="4.61388">
        <ele>594.9</ele>
        <time>2018-10-14T07:22:06Z</time>
      </trkpt>
      <trkpt lat="45.66393" lon="4.61376">
        <ele>595.9</ele>
        <time>2018-10-14T07:22:13Z</time>
      </trkpt>
      <trkpt lat="45.66392" lon="4.61373">
        <ele>596.2</ele>
        <time>2018-10-14T07:22:15Z</time>
      </trkpt>
      <trkpt lat="45.66387" lon="4.61364">
        <ele>597.2</ele>
        <time>2018-10-14T07:22:21Z</time>
      </trkpt>
      <trkpt lat="45.66384" lon="4.6136">
        <ele>597.7</ele>
        <time>2018-10-14T07:22:24Z</time>
      </trkpt>
      <trkpt lat="45.66379" lon="4.61354">
        <ele>598.6</ele>
        <time>2018-10-14T07:22:29Z</time>
      </trkpt>
      <trkpt lat="45.66376" lon="4.61351">
        <ele>599.2</ele>
        <time>2018-10-14T07:22:32Z</time>
      </trkpt>
      <trkpt lat="45.66373" lon="4.6135">
        <ele>599.6</ele>
        <time>2018-10-14T07:22:34Z</time>
      </trkpt>
      <trkpt lat="45.66367" lon="4.61345">
        <ele>600.4</ele>
        <time>2018-10-14T07:22:38Z</time>
      </trkpt>
      <trkpt lat="45.66366" lon="4.61344">
        <ele>600.6</ele>
        <time>2018-10-14T07:22:39Z</time>
      </trkpt>
      <trkpt lat="45.66361" lon="4.6134">
        <ele>601.2</ele>
        <time>2018-10-14T07:22:43Z</time>
      </trkpt>
      <trkpt lat="45.66358" lon="4.61338">
        <ele>601.5</ele>
        <time>2018-10-14T07:22:45Z</time>
      </trkpt>
      <trkpt lat="45.66356" lon="4.61336">
        <ele>601.9</ele>
        <time>2018-10-14T07:22:48Z</time>
      </trkpt>
      <trkpt lat="45.66354" lon="4.61336">
        <ele>602</ele>
        <time>2018-10-14T07:22:49Z</time>
      </trkpt>
      <trkpt lat="45.66352" lon="4.61334">
        <ele>602.3</ele>
        <time>2018-10-14T07:22:52Z</time>
      </trkpt>
      <trkpt lat="45.66347" lon="4.61331">
        <ele>602.8</ele>
        <time>2018-10-14T07:23:00Z</time>
      </trkpt>
      <trkpt lat="45.66345" lon="4.61331">
        <ele>602.9</ele>
        <time>2018-10-14T07:23:01Z</time>
      </trkpt>
      <trkpt lat="45.6633" lon="4.61326">
        <ele>604.2</ele>
        <time>2018-10-14T07:23:09Z</time>
      </trkpt>
      <trkpt lat="45.66323" lon="4.61325">
        <ele>604.9</ele>
        <time>2018-10-14T07:23:13Z</time>
      </trkpt>
      <trkpt lat="45.66319" lon="4.61323">
        <ele>605.3</ele>
        <time>2018-10-14T07:23:15Z</time>
      </trkpt>
      <trkpt lat="45.66315" lon="4.61322">
        <ele>605.6</ele>
        <time>2018-10-14T07:23:17Z</time>
      </trkpt>
      <trkpt lat="45.66306" lon="4.61319">
        <ele>606.6</ele>
        <time>2018-10-14T07:23:22Z</time>
      </trkpt>
      <trkpt lat="45.66302" lon="4.61318">
        <ele>607</ele>
        <time>2018-10-14T07:23:24Z</time>
      </trkpt>
      <trkpt lat="45.66297" lon="4.61317">
        <ele>607.8</ele>
        <time>2018-10-14T07:23:27Z</time>
      </trkpt>
      <trkpt lat="45.66293" lon="4.61315">
        <ele>608.2</ele>
        <time>2018-10-14T07:23:29Z</time>
      </trkpt>
      <trkpt lat="45.66289" lon="4.61314">
        <ele>608.7</ele>
        <time>2018-10-14T07:23:31Z</time>
      </trkpt>
      <trkpt lat="45.66281" lon="4.6131">
        <ele>609.6</ele>
        <time>2018-10-14T07:23:36Z</time>
      </trkpt>
      <trkpt lat="45.66276" lon="4.61308">
        <ele>610.1</ele>
        <time>2018-10-14T07:23:39Z</time>
      </trkpt>
      <trkpt lat="45.66274" lon="4.61307">
        <ele>610.3</ele>
        <time>2018-10-14T07:23:40Z</time>
      </trkpt>
      <trkpt lat="45.66264" lon="4.61301">
        <ele>611.2</ele>
        <time>2018-10-14T07:23:46Z</time>
      </trkpt>
      <trkpt lat="45.66258" lon="4.61295">
        <ele>611.8</ele>
        <time>2018-10-14T07:23:50Z</time>
      </trkpt>
      <trkpt lat="45.66253" lon="4.61292">
        <ele>612.3</ele>
        <time>2018-10-14T07:23:53Z</time>
      </trkpt>
      <trkpt lat="45.6625" lon="4.61289">
        <ele>612.6</ele>
        <time>2018-10-14T07:23:55Z</time>
      </trkpt>
      <trkpt lat="45.66242" lon="4.6128">
        <ele>613.4</ele>
        <time>2018-10-14T07:24:00Z</time>
      </trkpt>
      <trkpt lat="45.66241" lon="4.61278">
        <ele>613.6</ele>
        <time>2018-10-14T07:24:01Z</time>
      </trkpt>
      <trkpt lat="45.66238" lon="4.61274">
        <ele>613.8</ele>
        <time>2018-10-14T07:24:03Z</time>
      </trkpt>
      <trkpt lat="45.66231" lon="4.6126">
        <ele>614.8</ele>
        <time>2018-10-14T07:24:10Z</time>
      </trkpt>
      <trkpt lat="45.66226" lon="4.6125">
        <ele>615.7</ele>
        <time>2018-10-14T07:24:15Z</time>
      </trkpt>
      <trkpt lat="45.66221" lon="4.61243">
        <ele>616.6</ele>
        <time>2018-10-14T07:24:19Z</time>
      </trkpt>
      <trkpt lat="45.66216" lon="4.61237">
        <ele>617.4</ele>
        <time>2018-10-14T07:24:23Z</time>
      </trkpt>
      <trkpt lat="45.66211" lon="4.61232">
        <ele>618.1</ele>
        <time>2018-10-14T07:24:27Z</time>
      </trkpt>
      <trkpt lat="45.6621" lon="4.61231">
        <ele>618.2</ele>
        <time>2018-10-14T07:24:28Z</time>
      </trkpt>
      <trkpt lat="45.66205" lon="4.61224">
        <ele>618.8</ele>
        <time>2018-10-14T07:24:33Z</time>
      </trkpt>
      <trkpt lat="45.66203" lon="4.61221">
        <ele>619</ele>
        <time>2018-10-14T07:24:35Z</time>
      </trkpt>
      <trkpt lat="45.66198" lon="4.61215">
        <ele>619.4</ele>
        <time>2018-10-14T07:24:39Z</time>
      </trkpt>
      <trkpt lat="45.66195" lon="4.61211">
        <ele>619.6</ele>
        <time>2018-10-14T07:24:42Z</time>
      </trkpt>
      <trkpt lat="45.66187" lon="4.61203">
        <ele>620.2</ele>
        <time>2018-10-14T07:24:48Z</time>
      </trkpt>
      <trkpt lat="45.66185" lon="4.61201">
        <ele>620.3</ele>
        <time>2018-10-14T07:24:49Z</time>
      </trkpt>
      <trkpt lat="45.6618" lon="4.61195">
        <ele>620.7</ele>
        <time>2018-10-14T07:24:53Z</time>
      </trkpt>
      <trkpt lat="45.66177" lon="4.61192">
        <ele>621</ele>
        <time>2018-10-14T07:24:55Z</time>
      </trkpt>
      <trkpt lat="45.66174" lon="4.61188">
        <ele>621.4</ele>
        <time>2018-10-14T07:24:58Z</time>
      </trkpt>
      <trkpt lat="45.66169" lon="4.61182">
        <ele>622.1</ele>
        <time>2018-10-14T07:25:02Z</time>
      </trkpt>
      <trkpt lat="45.66163" lon="4.61177">
        <ele>622.9</ele>
        <time>2018-10-14T07:25:06Z</time>
      </trkpt>
      <trkpt lat="45.6616" lon="4.61173">
        <ele>623.5</ele>
        <time>2018-10-14T07:25:09Z</time>
      </trkpt>
      <trkpt lat="45.66158" lon="4.61169">
        <ele>623.8</ele>
        <time>2018-10-14T07:25:11Z</time>
      </trkpt>
      <trkpt lat="45.66153" lon="4.61161">
        <ele>624.8</ele>
        <time>2018-10-14T07:25:16Z</time>
      </trkpt>
      <trkpt lat="45.66151" lon="4.61158">
        <ele>625.2</ele>
        <time>2018-10-14T07:25:18Z</time>
      </trkpt>
      <trkpt lat="45.66149" lon="4.61158">
        <ele>625.4</ele>
        <time>2018-10-14T07:25:19Z</time>
      </trkpt>
      <trkpt lat="45.66146" lon="4.61156">
        <ele>626.2</ele>
        <time>2018-10-14T07:25:22Z</time>
      </trkpt>
      <trkpt lat="45.66146" lon="4.61152">
        <ele>626.2</ele>
        <time>2018-10-14T07:26:03Z</time>
      </trkpt>
      <trkpt lat="45.66146" lon="4.6115">
        <ele>626.3</ele>
        <time>2018-10-14T07:26:04Z</time>
      </trkpt>
      <trkpt lat="45.66146" lon="4.6114">
        <ele>626.3</ele>
        <time>2018-10-14T07:28:15Z</time>
      </trkpt>
      <trkpt lat="45.66146" lon="4.61137">
        <ele>626.4</ele>
        <time>2018-10-14T07:28:16Z</time>
      </trkpt>
      <trkpt lat="45.66144" lon="4.61119">
        <ele>626.5</ele>
        <time>2018-10-14T07:28:21Z</time>
      </trkpt>
      <trkpt lat="45.6614" lon="4.61087">
        <ele>626.8</ele>
        <time>2018-10-14T07:28:28Z</time>
      </trkpt>
      <trkpt lat="45.66139" lon="4.61082">
        <ele>626.8</ele>
        <time>2018-10-14T07:28:29Z</time>
      </trkpt>
      <trkpt lat="45.6613" lon="4.6104">
        <ele>627.3</ele>
        <time>2018-10-14T07:28:37Z</time>
      </trkpt>
      <trkpt lat="45.6612" lon="4.61001">
        <ele>628.1</ele>
        <time>2018-10-14T07:28:45Z</time>
      </trkpt>
      <trkpt lat="45.66115" lon="4.60987">
        <ele>628.4</ele>
        <time>2018-10-14T07:28:48Z</time>
      </trkpt>
      <trkpt lat="45.66108" lon="4.60967">
        <ele>629.2</ele>
        <time>2018-10-14T07:28:53Z</time>
      </trkpt>
      <trkpt lat="45.66106" lon="4.60964">
        <ele>629.3</ele>
        <time>2018-10-14T07:28:54Z</time>
      </trkpt>
      <trkpt lat="45.66097" lon="4.60948">
        <ele>630.1</ele>
        <time>2018-10-14T07:28:59Z</time>
      </trkpt>
      <trkpt lat="45.6609" lon="4.6094">
        <ele>630.6</ele>
        <time>2018-10-14T07:29:02Z</time>
      </trkpt>
      <trkpt lat="45.66073" lon="4.60917">
        <ele>630.9</ele>
        <time>2018-10-14T07:29:10Z</time>
      </trkpt>
      <trkpt lat="45.6607" lon="4.60914">
        <ele>630.9</ele>
        <time>2018-10-14T07:29:11Z</time>
      </trkpt>
      <trkpt lat="45.66051" lon="4.60888">
        <ele>631.2</ele>
        <time>2018-10-14T07:29:19Z</time>
      </trkpt>
      <trkpt lat="45.66038" lon="4.60861">
        <ele>631.4</ele>
        <time>2018-10-14T07:29:25Z</time>
      </trkpt>
      <trkpt lat="45.66023" lon="4.60828">
        <ele>631.5</ele>
        <time>2018-10-14T07:29:31Z</time>
      </trkpt>
      <trkpt lat="45.66005" lon="4.60802">
        <ele>631.4</ele>
        <time>2018-10-14T07:29:37Z</time>
      </trkpt>
      <trkpt lat="45.65987" lon="4.60767">
        <ele>630.5</ele>
        <time>2018-10-14T07:29:44Z</time>
      </trkpt>
      <trkpt lat="45.65973" lon="4.60725">
        <ele>629.5</ele>
        <time>2018-10-14T07:29:50Z</time>
      </trkpt>
      <trkpt lat="45.65959" lon="4.60669">
        <ele>629</ele>
        <time>2018-10-14T07:29:56Z</time>
      </trkpt>
      <trkpt lat="45.65945" lon="4.60624">
        <ele>628.5</ele>
        <time>2018-10-14T07:30:01Z</time>
      </trkpt>
      <trkpt lat="45.65941" lon="4.60615">
        <ele>628.3</ele>
        <time>2018-10-14T07:30:02Z</time>
      </trkpt>
      <trkpt lat="45.65924" lon="4.6057">
        <ele>628</ele>
        <time>2018-10-14T07:30:07Z</time>
      </trkpt>
      <trkpt lat="45.65918" lon="4.60551">
        <ele>628</ele>
        <time>2018-10-14T07:30:09Z</time>
      </trkpt>
      <trkpt lat="45.65912" lon="4.60532">
        <ele>628.2</ele>
        <time>2018-10-14T07:30:11Z</time>
      </trkpt>
      <trkpt lat="45.65895" lon="4.60484">
        <ele>628.6</ele>
        <time>2018-10-14T07:30:16Z</time>
      </trkpt>
      <trkpt lat="45.65892" lon="4.60475">
        <ele>628.7</ele>
        <time>2018-10-14T07:30:17Z</time>
      </trkpt>
      <trkpt lat="45.65872" lon="4.60424">
        <ele>629.3</ele>
        <time>2018-10-14T07:30:23Z</time>
      </trkpt>
      <trkpt lat="45.65869" lon="4.60415">
        <ele>629.5</ele>
        <time>2018-10-14T07:30:24Z</time>
      </trkpt>
      <trkpt lat="45.65856" lon="4.60368">
        <ele>631.3</ele>
        <time>2018-10-14T07:30:30Z</time>
      </trkpt>
      <trkpt lat="45.65849" lon="4.60323">
        <ele>631.5</ele>
        <time>2018-10-14T07:30:36Z</time>
      </trkpt>
      <trkpt lat="45.65841" lon="4.60272">
        <ele>631.1</ele>
        <time>2018-10-14T07:30:44Z</time>
      </trkpt>
      <trkpt lat="45.6584" lon="4.60256">
        <ele>631.1</ele>
        <time>2018-10-14T07:30:47Z</time>
      </trkpt>
      <trkpt lat="45.65842" lon="4.60251">
        <ele>631.3</ele>
        <time>2018-10-14T07:30:48Z</time>
      </trkpt>
      <trkpt lat="45.65857" lon="4.60239">
        <ele>632.5</ele>
        <time>2018-10-14T07:30:52Z</time>
      </trkpt>
      <trkpt lat="45.65861" lon="4.60236">
        <ele>632.7</ele>
        <time>2018-10-14T07:30:53Z</time>
      </trkpt>
      <trkpt lat="45.65878" lon="4.60221">
        <ele>633.8</ele>
        <time>2018-10-14T07:30:58Z</time>
      </trkpt>
      <trkpt lat="45.65888" lon="4.60213">
        <ele>634.3</ele>
        <time>2018-10-14T07:31:01Z</time>
      </trkpt>
      <trkpt lat="45.65905" lon="4.60198">
        <ele>634.9</ele>
        <time>2018-10-14T07:31:06Z</time>
      </trkpt>
      <trkpt lat="45.65923" lon="4.60182">
        <ele>635.8</ele>
        <time>2018-10-14T07:31:11Z</time>
      </trkpt>
      <trkpt lat="45.6594" lon="4.60164">
        <ele>636.9</ele>
        <time>2018-10-14T07:31:16Z</time>
      </trkpt>
      <trkpt lat="45.65956" lon="4.60145">
        <ele>637.9</ele>
        <time>2018-10-14T07:31:21Z</time>
      </trkpt>
      <trkpt lat="45.6597" lon="4.60124">
        <ele>639.1</ele>
        <time>2018-10-14T07:31:26Z</time>
      </trkpt>
      <trkpt lat="45.65975" lon="4.60116">
        <ele>639.6</ele>
        <time>2018-10-14T07:31:28Z</time>
      </trkpt>
      <trkpt lat="45.65981" lon="4.60107">
        <ele>640.5</ele>
        <time>2018-10-14T07:31:31Z</time>
      </trkpt>
      <trkpt lat="45.6599" lon="4.60096">
        <ele>641.7</ele>
        <time>2018-10-14T07:31:35Z</time>
      </trkpt>
      <trkpt lat="45.65993" lon="4.60094">
        <ele>641.9</ele>
        <time>2018-10-14T07:31:36Z</time>
      </trkpt>
      <trkpt lat="45.66002" lon="4.60085">
        <ele>642.3</ele>
        <time>2018-10-14T07:31:40Z</time>
      </trkpt>
      <trkpt lat="45.66006" lon="4.6008">
        <ele>642.5</ele>
        <time>2018-10-14T07:31:42Z</time>
      </trkpt>
      <trkpt lat="45.66027" lon="4.60059">
        <ele>642.8</ele>
        <time>2018-10-14T07:31:49Z</time>
      </trkpt>
      <trkpt lat="45.6605" lon="4.60033">
        <ele>643.2</ele>
        <time>2018-10-14T07:31:56Z</time>
      </trkpt>
      <trkpt lat="45.66068" lon="4.60017">
        <ele>643.5</ele>
        <time>2018-10-14T07:32:01Z</time>
      </trkpt>
      <trkpt lat="45.66079" lon="4.60009">
        <ele>643.8</ele>
        <time>2018-10-14T07:32:04Z</time>
      </trkpt>
      <trkpt lat="45.66087" lon="4.59997">
        <ele>644</ele>
        <time>2018-10-14T07:32:07Z</time>
      </trkpt>
      <trkpt lat="45.66095" lon="4.59984">
        <ele>644.4</ele>
        <time>2018-10-14T07:32:10Z</time>
      </trkpt>
      <trkpt lat="45.66101" lon="4.59974">
        <ele>644.6</ele>
        <time>2018-10-14T07:32:12Z</time>
      </trkpt>
      <trkpt lat="45.66122" lon="4.59937">
        <ele>645.6</ele>
        <time>2018-10-14T07:32:20Z</time>
      </trkpt>
      <trkpt lat="45.66129" lon="4.59925">
        <ele>646.1</ele>
        <time>2018-10-14T07:32:23Z</time>
      </trkpt>
      <trkpt lat="45.6614" lon="4.59909">
        <ele>647.1</ele>
        <time>2018-10-14T07:32:28Z</time>
      </trkpt>
      <trkpt lat="45.66142" lon="4.59906">
        <ele>647.3</ele>
        <time>2018-10-14T07:32:29Z</time>
      </trkpt>
      <trkpt lat="45.66155" lon="4.59886">
        <ele>648.1</ele>
        <time>2018-10-14T07:32:35Z</time>
      </trkpt>
      <trkpt lat="45.66157" lon="4.59883">
        <ele>648.3</ele>
        <time>2018-10-14T07:32:36Z</time>
      </trkpt>
      <trkpt lat="45.66166" lon="4.59869">
        <ele>648.7</ele>
        <time>2018-10-14T07:32:40Z</time>
      </trkpt>
      <trkpt lat="45.6617" lon="4.59863">
        <ele>648.9</ele>
        <time>2018-10-14T07:32:42Z</time>
      </trkpt>
      <trkpt lat="45.66182" lon="4.59846">
        <ele>649.6</ele>
        <time>2018-10-14T07:32:48Z</time>
      </trkpt>
      <trkpt lat="45.66187" lon="4.59839">
        <ele>649.8</ele>
        <time>2018-10-14T07:32:50Z</time>
      </trkpt>
      <trkpt lat="45.66203" lon="4.5981">
        <ele>650.8</ele>
        <time>2018-10-14T07:32:58Z</time>
      </trkpt>
      <trkpt lat="45.66213" lon="4.59785">
        <ele>651.6</ele>
        <time>2018-10-14T07:33:04Z</time>
      </trkpt>
      <trkpt lat="45.66217" lon="4.59771">
        <ele>652</ele>
        <time>2018-10-14T07:33:07Z</time>
      </trkpt>
      <trkpt lat="45.66223" lon="4.59749">
        <ele>652.6</ele>
        <time>2018-10-14T07:33:12Z</time>
      </trkpt>
      <trkpt lat="45.66224" lon="4.59738">
        <ele>652.8</ele>
        <time>2018-10-14T07:33:15Z</time>
      </trkpt>
      <trkpt lat="45.66225" lon="4.59726">
        <ele>653.5</ele>
        <time>2018-10-14T07:33:18Z</time>
      </trkpt>
      <trkpt lat="45.66226" lon="4.59714">
        <ele>653.8</ele>
        <time>2018-10-14T07:33:21Z</time>
      </trkpt>
      <trkpt lat="45.66226" lon="4.5971">
        <ele>653.9</ele>
        <time>2018-10-14T07:33:22Z</time>
      </trkpt>
      <trkpt lat="45.66226" lon="4.59689">
        <ele>654.4</ele>
        <time>2018-10-14T07:33:27Z</time>
      </trkpt>
      <trkpt lat="45.66223" lon="4.59669">
        <ele>654.6</ele>
        <time>2018-10-14T07:33:32Z</time>
      </trkpt>
      <trkpt lat="45.66221" lon="4.59658">
        <ele>654.7</ele>
        <time>2018-10-14T07:33:35Z</time>
      </trkpt>
      <trkpt lat="45.66221" lon="4.59655">
        <ele>654.8</ele>
        <time>2018-10-14T07:33:36Z</time>
      </trkpt>
      <trkpt lat="45.66218" lon="4.59635">
        <ele>654.9</ele>
        <time>2018-10-14T07:33:41Z</time>
      </trkpt>
      <trkpt lat="45.66218" lon="4.59626">
        <ele>655</ele>
        <time>2018-10-14T07:33:43Z</time>
      </trkpt>
      <trkpt lat="45.66216" lon="4.59619">
        <ele>655.1</ele>
        <time>2018-10-14T07:33:45Z</time>
      </trkpt>
      <trkpt lat="45.66211" lon="4.59597">
        <ele>655.6</ele>
        <time>2018-10-14T07:33:50Z</time>
      </trkpt>
      <trkpt lat="45.66202" lon="4.59556">
        <ele>656</ele>
        <time>2018-10-14T07:33:59Z</time>
      </trkpt>
      <trkpt lat="45.66191" lon="4.59528">
        <ele>655.7</ele>
        <time>2018-10-14T07:34:05Z</time>
      </trkpt>
      <trkpt lat="45.66175" lon="4.59501">
        <ele>655.3</ele>
        <time>2018-10-14T07:34:12Z</time>
      </trkpt>
      <trkpt lat="45.66162" lon="4.59483">
        <ele>655.1</ele>
        <time>2018-10-14T07:34:17Z</time>
      </trkpt>
      <trkpt lat="45.66138" lon="4.59449">
        <ele>654.6</ele>
        <time>2018-10-14T07:34:25Z</time>
      </trkpt>
      <trkpt lat="45.66121" lon="4.59427">
        <ele>654.3</ele>
        <time>2018-10-14T07:34:30Z</time>
      </trkpt>
      <trkpt lat="45.66117" lon="4.59423">
        <ele>654.2</ele>
        <time>2018-10-14T07:34:31Z</time>
      </trkpt>
      <trkpt lat="45.66099" lon="4.59407">
        <ele>653.9</ele>
        <time>2018-10-14T07:34:36Z</time>
      </trkpt>
      <trkpt lat="45.66091" lon="4.59402">
        <ele>653.8</ele>
        <time>2018-10-14T07:34:38Z</time>
      </trkpt>
      <trkpt lat="45.66071" lon="4.59394">
        <ele>653.7</ele>
        <time>2018-10-14T07:34:43Z</time>
      </trkpt>
      <trkpt lat="45.6605" lon="4.59392">
        <ele>653.9</ele>
        <time>2018-10-14T07:34:48Z</time>
      </trkpt>
      <trkpt lat="45.66041" lon="4.59394">
        <ele>653.9</ele>
        <time>2018-10-14T07:34:50Z</time>
      </trkpt>
      <trkpt lat="45.66022" lon="4.59405">
        <ele>653.8</ele>
        <time>2018-10-14T07:34:55Z</time>
      </trkpt>
      <trkpt lat="45.66015" lon="4.59411">
        <ele>653.7</ele>
        <time>2018-10-14T07:34:57Z</time>
      </trkpt>
      <trkpt lat="45.66002" lon="4.59422">
        <ele>653.5</ele>
        <time>2018-10-14T07:35:01Z</time>
      </trkpt>
      <trkpt lat="45.65999" lon="4.59425">
        <ele>653.4</ele>
        <time>2018-10-14T07:35:02Z</time>
      </trkpt>
      <trkpt lat="45.65972" lon="4.59448">
        <ele>653.2</ele>
        <time>2018-10-14T07:35:11Z</time>
      </trkpt>
      <trkpt lat="45.65947" lon="4.5947">
        <ele>653.4</ele>
        <time>2018-10-14T07:35:20Z</time>
      </trkpt>
      <trkpt lat="45.65929" lon="4.59483">
        <ele>653.3</ele>
        <time>2018-10-14T07:35:26Z</time>
      </trkpt>
      <trkpt lat="45.65905" lon="4.59504">
        <ele>653</ele>
        <time>2018-10-14T07:35:34Z</time>
      </trkpt>
      <trkpt lat="45.65881" lon="4.59527">
        <ele>653.5</ele>
        <time>2018-10-14T07:35:43Z</time>
      </trkpt>
      <trkpt lat="45.65866" lon="4.59541">
        <ele>654.1</ele>
        <time>2018-10-14T07:35:48Z</time>
      </trkpt>
      <trkpt lat="45.6586" lon="4.59546">
        <ele>654.4</ele>
        <time>2018-10-14T07:35:50Z</time>
      </trkpt>
      <trkpt lat="45.65844" lon="4.59562">
        <ele>655.2</ele>
        <time>2018-10-14T07:35:56Z</time>
      </trkpt>
      <trkpt lat="45.65827" lon="4.59579">
        <ele>655.8</ele>
        <time>2018-10-14T07:36:02Z</time>
      </trkpt>
      <trkpt lat="45.65825" lon="4.59581">
        <ele>655.9</ele>
        <time>2018-10-14T07:36:03Z</time>
      </trkpt>
      <trkpt lat="45.65812" lon="4.59592">
        <ele>656.3</ele>
        <time>2018-10-14T07:36:09Z</time>
      </trkpt>
      <trkpt lat="45.65805" lon="4.59598">
        <ele>656.7</ele>
        <time>2018-10-14T07:36:27Z</time>
      </trkpt>
      <trkpt lat="45.65803" lon="4.59599">
        <ele>656.7</ele>
        <time>2018-10-14T07:36:28Z</time>
      </trkpt>
      <trkpt lat="45.65795" lon="4.59606">
        <ele>657</ele>
        <time>2018-10-14T07:36:32Z</time>
      </trkpt>
      <trkpt lat="45.6579" lon="4.59611">
        <ele>657.2</ele>
        <time>2018-10-14T07:36:34Z</time>
      </trkpt>
      <trkpt lat="45.65766" lon="4.59624">
        <ele>658.5</ele>
        <time>2018-10-14T07:36:43Z</time>
      </trkpt>
      <trkpt lat="45.65763" lon="4.59625">
        <ele>658.7</ele>
        <time>2018-10-14T07:36:44Z</time>
      </trkpt>
      <trkpt lat="45.65739" lon="4.59626">
        <ele>659.7</ele>
        <time>2018-10-14T07:36:52Z</time>
      </trkpt>
      <trkpt lat="45.6573" lon="4.59625">
        <ele>659.9</ele>
        <time>2018-10-14T07:36:55Z</time>
      </trkpt>
      <trkpt lat="45.65719" lon="4.59621">
        <ele>659.9</ele>
        <time>2018-10-14T07:36:59Z</time>
      </trkpt>
      <trkpt lat="45.65717" lon="4.59619">
        <ele>659.9</ele>
        <time>2018-10-14T07:37:00Z</time>
      </trkpt>
      <trkpt lat="45.65701" lon="4.5961">
        <ele>659.9</ele>
        <time>2018-10-14T07:37:06Z</time>
      </trkpt>
      <trkpt lat="45.65694" lon="4.59606">
        <ele>659.9</ele>
        <time>2018-10-14T07:37:09Z</time>
      </trkpt>
      <trkpt lat="45.65689" lon="4.59603">
        <ele>659.9</ele>
        <time>2018-10-14T07:37:12Z</time>
      </trkpt>
      <trkpt lat="45.65682" lon="4.596">
        <ele>660.2</ele>
        <time>2018-10-14T07:37:28Z</time>
      </trkpt>
      <trkpt lat="45.65679" lon="4.59601">
        <ele>660.4</ele>
        <time>2018-10-14T07:37:30Z</time>
      </trkpt>
      <trkpt lat="45.65674" lon="4.59605">
        <ele>660.9</ele>
        <time>2018-10-14T07:37:33Z</time>
      </trkpt>
      <trkpt lat="45.65671" lon="4.59616">
        <ele>661.5</ele>
        <time>2018-10-14T07:37:51Z</time>
      </trkpt>
      <trkpt lat="45.65679" lon="4.59618">
        <ele>661.3</ele>
        <time>2018-10-14T07:37:54Z</time>
      </trkpt>
      <trkpt lat="45.65682" lon="4.59618">
        <ele>661.3</ele>
        <time>2018-10-14T07:37:55Z</time>
      </trkpt>
      <trkpt lat="45.65685" lon="4.59619">
        <ele>661.2</ele>
        <time>2018-10-14T07:37:57Z</time>
      </trkpt>
      <trkpt lat="45.65686" lon="4.59619">
        <ele>661.2</ele>
        <time>2018-10-14T07:37:58Z</time>
      </trkpt>
      <trkpt lat="45.65688" lon="4.5962">
        <ele>661.1</ele>
        <time>2018-10-14T07:37:59Z</time>
      </trkpt>
      <trkpt lat="45.6567" lon="4.59618">
        <ele>661.5</ele>
        <time>2018-10-14T07:45:10Z</time>
      </trkpt>
      <trkpt lat="45.65665" lon="4.59621">
        <ele>662</ele>
        <time>2018-10-14T07:45:13Z</time>
      </trkpt>
      <trkpt lat="45.65661" lon="4.59622">
        <ele>662.5</ele>
        <time>2018-10-14T07:45:16Z</time>
      </trkpt>
      <trkpt lat="45.65659" lon="4.59623">
        <ele>662.6</ele>
        <time>2018-10-14T07:45:17Z</time>
      </trkpt>
      <trkpt lat="45.65656" lon="4.59625">
        <ele>663</ele>
        <time>2018-10-14T07:45:19Z</time>
      </trkpt>
      <trkpt lat="45.65653" lon="4.59628">
        <ele>663.3</ele>
        <time>2018-10-14T07:45:21Z</time>
      </trkpt>
      <trkpt lat="45.65648" lon="4.59632">
        <ele>664.3</ele>
        <time>2018-10-14T07:45:25Z</time>
      </trkpt>
      <trkpt lat="45.65646" lon="4.59633">
        <ele>664.5</ele>
        <time>2018-10-14T07:45:26Z</time>
      </trkpt>
      <trkpt lat="45.6564" lon="4.59637">
        <ele>665.6</ele>
        <time>2018-10-14T07:45:30Z</time>
      </trkpt>
      <trkpt lat="45.65633" lon="4.5964">
        <ele>666.8</ele>
        <time>2018-10-14T07:45:34Z</time>
      </trkpt>
      <trkpt lat="45.65627" lon="4.59643">
        <ele>667.6</ele>
        <time>2018-10-14T07:45:38Z</time>
      </trkpt>
      <trkpt lat="45.6562" lon="4.59647">
        <ele>668.1</ele>
        <time>2018-10-14T07:45:43Z</time>
      </trkpt>
      <trkpt lat="45.65617" lon="4.59646">
        <ele>668.1</ele>
        <time>2018-10-14T07:45:45Z</time>
      </trkpt>
      <trkpt lat="45.65615" lon="4.59644">
        <ele>668.8</ele>
        <time>2018-10-14T07:45:47Z</time>
      </trkpt>
      <trkpt lat="45.65613" lon="4.59641">
        <ele>669.3</ele>
        <time>2018-10-14T07:45:49Z</time>
      </trkpt>
      <trkpt lat="45.65612" lon="4.59639">
        <ele>669.5</ele>
        <time>2018-10-14T07:45:50Z</time>
      </trkpt>
      <trkpt lat="45.65609" lon="4.5963">
        <ele>670.6</ele>
        <time>2018-10-14T07:45:55Z</time>
      </trkpt>
      <trkpt lat="45.65605" lon="4.59625">
        <ele>671.5</ele>
        <time>2018-10-14T07:46:00Z</time>
      </trkpt>
      <trkpt lat="45.65604" lon="4.59623">
        <ele>671.7</ele>
        <time>2018-10-14T07:46:01Z</time>
      </trkpt>
      <trkpt lat="45.65602" lon="4.59618">
        <ele>672.2</ele>
        <time>2018-10-14T07:46:04Z</time>
      </trkpt>
      <trkpt lat="45.65599" lon="4.59611">
        <ele>673</ele>
        <time>2018-10-14T07:46:08Z</time>
      </trkpt>
      <trkpt lat="45.65599" lon="4.59609">
        <ele>673.2</ele>
        <time>2018-10-14T07:46:09Z</time>
      </trkpt>
      <trkpt lat="45.65598" lon="4.59607">
        <ele>673.4</ele>
        <time>2018-10-14T07:46:10Z</time>
      </trkpt>
      <trkpt lat="45.65593" lon="4.59599">
        <ele>674.3</ele>
        <time>2018-10-14T07:46:15Z</time>
      </trkpt>
      <trkpt lat="45.65591" lon="4.59598">
        <ele>674.6</ele>
        <time>2018-10-14T07:46:16Z</time>
      </trkpt>
      <trkpt lat="45.65583" lon="4.59591">
        <ele>675.6</ele>
        <time>2018-10-14T07:46:23Z</time>
      </trkpt>
      <trkpt lat="45.65572" lon="4.59585">
        <ele>677.1</ele>
        <time>2018-10-14T07:46:32Z</time>
      </trkpt>
      <trkpt lat="45.6557" lon="4.59584">
        <ele>677.2</ele>
        <time>2018-10-14T07:46:33Z</time>
      </trkpt>
      <trkpt lat="45.65565" lon="4.59578">
        <ele>678</ele>
        <time>2018-10-14T07:46:38Z</time>
      </trkpt>
      <trkpt lat="45.65564" lon="4.59578">
        <ele>678.2</ele>
        <time>2018-10-14T07:46:39Z</time>
      </trkpt>
      <trkpt lat="45.65557" lon="4.59576">
        <ele>679</ele>
        <time>2018-10-14T07:46:44Z</time>
      </trkpt>
      <trkpt lat="45.65554" lon="4.59574">
        <ele>679.5</ele>
        <time>2018-10-14T07:46:47Z</time>
      </trkpt>
      <trkpt lat="45.6555" lon="4.59572">
        <ele>679.9</ele>
        <time>2018-10-14T07:46:50Z</time>
      </trkpt>
      <trkpt lat="45.65543" lon="4.59567">
        <ele>680.8</ele>
        <time>2018-10-14T07:46:56Z</time>
      </trkpt>
      <trkpt lat="45.65542" lon="4.59566">
        <ele>680.9</ele>
        <time>2018-10-14T07:46:57Z</time>
      </trkpt>
      <trkpt lat="45.65536" lon="4.59563">
        <ele>681.6</ele>
        <time>2018-10-14T07:47:01Z</time>
      </trkpt>
      <trkpt lat="45.65535" lon="4.59562">
        <ele>681.8</ele>
        <time>2018-10-14T07:47:02Z</time>
      </trkpt>
      <trkpt lat="45.65527" lon="4.59554">
        <ele>682.9</ele>
        <time>2018-10-14T07:47:08Z</time>
      </trkpt>
      <trkpt lat="45.65526" lon="4.59552">
        <ele>683</ele>
        <time>2018-10-14T07:47:09Z</time>
      </trkpt>
      <trkpt lat="45.65524" lon="4.59549">
        <ele>683.3</ele>
        <time>2018-10-14T07:47:11Z</time>
      </trkpt>
      <trkpt lat="45.6552" lon="4.59545">
        <ele>683.9</ele>
        <time>2018-10-14T07:47:15Z</time>
      </trkpt>
      <trkpt lat="45.65517" lon="4.5954">
        <ele>684.4</ele>
        <time>2018-10-14T07:47:19Z</time>
      </trkpt>
      <trkpt lat="45.65515" lon="4.59537">
        <ele>684.6</ele>
        <time>2018-10-14T07:47:21Z</time>
      </trkpt>
      <trkpt lat="45.65512" lon="4.59533">
        <ele>685.1</ele>
        <time>2018-10-14T07:47:24Z</time>
      </trkpt>
      <trkpt lat="45.65509" lon="4.59528">
        <ele>685.7</ele>
        <time>2018-10-14T07:47:28Z</time>
      </trkpt>
      <trkpt lat="45.65507" lon="4.59526">
        <ele>686</ele>
        <time>2018-10-14T07:47:30Z</time>
      </trkpt>
      <trkpt lat="45.65507" lon="4.59525">
        <ele>686.1</ele>
        <time>2018-10-14T07:47:31Z</time>
      </trkpt>
      <trkpt lat="45.65503" lon="4.59522">
        <ele>686.7</ele>
        <time>2018-10-14T07:47:35Z</time>
      </trkpt>
      <trkpt lat="45.65496" lon="4.59515">
        <ele>687.6</ele>
        <time>2018-10-14T07:47:41Z</time>
      </trkpt>
      <trkpt lat="45.65483" lon="4.59481">
        <ele>691.2</ele>
        <time>2018-10-14T07:49:00Z</time>
      </trkpt>
      <trkpt lat="45.65481" lon="4.59477">
        <ele>691.6</ele>
        <time>2018-10-14T07:49:02Z</time>
      </trkpt>
      <trkpt lat="45.65478" lon="4.5947">
        <ele>692.4</ele>
        <time>2018-10-14T07:49:06Z</time>
      </trkpt>
      <trkpt lat="45.65475" lon="4.59467">
        <ele>692.9</ele>
        <time>2018-10-14T07:49:08Z</time>
      </trkpt>
      <trkpt lat="45.65469" lon="4.59454">
        <ele>694.1</ele>
        <time>2018-10-14T07:49:14Z</time>
      </trkpt>
      <trkpt lat="45.65467" lon="4.5945">
        <ele>694.7</ele>
        <time>2018-10-14T07:49:16Z</time>
      </trkpt>
      <trkpt lat="45.65463" lon="4.59437">
        <ele>696.2</ele>
        <time>2018-10-14T07:49:22Z</time>
      </trkpt>
      <trkpt lat="45.65461" lon="4.59432">
        <ele>696.8</ele>
        <time>2018-10-14T07:49:24Z</time>
      </trkpt>
      <trkpt lat="45.65456" lon="4.59421">
        <ele>697.8</ele>
        <time>2018-10-14T07:49:29Z</time>
      </trkpt>
      <trkpt lat="45.65455" lon="4.5942">
        <ele>698.1</ele>
        <time>2018-10-14T07:49:30Z</time>
      </trkpt>
      <trkpt lat="45.65449" lon="4.5941">
        <ele>699.4</ele>
        <time>2018-10-14T07:49:34Z</time>
      </trkpt>
      <trkpt lat="45.65441" lon="4.59397">
        <ele>700.7</ele>
        <time>2018-10-14T07:49:41Z</time>
      </trkpt>
      <trkpt lat="45.65434" lon="4.59381">
        <ele>701.9</ele>
        <time>2018-10-14T07:49:50Z</time>
      </trkpt>
      <trkpt lat="45.65433" lon="4.59379">
        <ele>702.1</ele>
        <time>2018-10-14T07:49:51Z</time>
      </trkpt>
      <trkpt lat="45.6542" lon="4.59358">
        <ele>704.1</ele>
        <time>2018-10-14T07:50:02Z</time>
      </trkpt>
      <trkpt lat="45.6541" lon="4.59347">
        <ele>705.3</ele>
        <time>2018-10-14T07:50:09Z</time>
      </trkpt>
      <trkpt lat="45.65401" lon="4.59337">
        <ele>706.7</ele>
        <time>2018-10-14T07:50:15Z</time>
      </trkpt>
      <trkpt lat="45.65395" lon="4.59331">
        <ele>707.4</ele>
        <time>2018-10-14T07:50:18Z</time>
      </trkpt>
      <trkpt lat="45.6539" lon="4.59327">
        <ele>708.1</ele>
        <time>2018-10-14T07:50:21Z</time>
      </trkpt>
      <trkpt lat="45.65388" lon="4.59324">
        <ele>708.3</ele>
        <time>2018-10-14T07:50:22Z</time>
      </trkpt>
      <trkpt lat="45.65382" lon="4.59316">
        <ele>709.3</ele>
        <time>2018-10-14T07:50:26Z</time>
      </trkpt>
      <trkpt lat="45.65376" lon="4.5931">
        <ele>710.1</ele>
        <time>2018-10-14T07:50:29Z</time>
      </trkpt>
      <trkpt lat="45.65374" lon="4.59308">
        <ele>710.4</ele>
        <time>2018-10-14T07:50:30Z</time>
      </trkpt>
      <trkpt lat="45.65365" lon="4.59301">
        <ele>711.3</ele>
        <time>2018-10-14T07:50:34Z</time>
      </trkpt>
      <trkpt lat="45.65357" lon="4.59289">
        <ele>712.4</ele>
        <time>2018-10-14T07:50:39Z</time>
      </trkpt>
      <trkpt lat="45.65355" lon="4.59287">
        <ele>712.6</ele>
        <time>2018-10-14T07:50:40Z</time>
      </trkpt>
      <trkpt lat="45.65345" lon="4.59279">
        <ele>713.7</ele>
        <time>2018-10-14T07:50:45Z</time>
      </trkpt>
      <trkpt lat="45.65343" lon="4.59277">
        <ele>714.1</ele>
        <time>2018-10-14T07:50:46Z</time>
      </trkpt>
      <trkpt lat="45.65336" lon="4.59272">
        <ele>715.1</ele>
        <time>2018-10-14T07:50:49Z</time>
      </trkpt>
      <trkpt lat="45.6533" lon="4.5927">
        <ele>715.8</ele>
        <time>2018-10-14T07:50:52Z</time>
      </trkpt>
      <trkpt lat="45.65328" lon="4.59268">
        <ele>716</ele>
        <time>2018-10-14T07:50:53Z</time>
      </trkpt>
      <trkpt lat="45.6532" lon="4.59265">
        <ele>716.7</ele>
        <time>2018-10-14T07:50:57Z</time>
      </trkpt>
      <trkpt lat="45.65314" lon="4.59264">
        <ele>717.3</ele>
        <time>2018-10-14T07:51:00Z</time>
      </trkpt>
      <trkpt lat="45.65298" lon="4.5926">
        <ele>718.9</ele>
        <time>2018-10-14T07:51:08Z</time>
      </trkpt>
      <trkpt lat="45.65292" lon="4.59257">
        <ele>719.6</ele>
        <time>2018-10-14T07:51:11Z</time>
      </trkpt>
      <trkpt lat="45.65286" lon="4.59255">
        <ele>720.3</ele>
        <time>2018-10-14T07:51:14Z</time>
      </trkpt>
      <trkpt lat="45.65272" lon="4.59256">
        <ele>721.5</ele>
        <time>2018-10-14T07:51:21Z</time>
      </trkpt>
      <trkpt lat="45.65262" lon="4.59256">
        <ele>722.6</ele>
        <time>2018-10-14T07:51:26Z</time>
      </trkpt>
      <trkpt lat="45.65261" lon="4.59256">
        <ele>722.8</ele>
        <time>2018-10-14T07:51:27Z</time>
      </trkpt>
      <trkpt lat="45.65247" lon="4.59256">
        <ele>724.1</ele>
        <time>2018-10-14T07:51:34Z</time>
      </trkpt>
      <trkpt lat="45.65245" lon="4.59257">
        <ele>724.2</ele>
        <time>2018-10-14T07:51:35Z</time>
      </trkpt>
      <trkpt lat="45.65233" lon="4.59257">
        <ele>725.3</ele>
        <time>2018-10-14T07:51:41Z</time>
      </trkpt>
      <trkpt lat="45.65223" lon="4.59258">
        <ele>726.3</ele>
        <time>2018-10-14T07:51:46Z</time>
      </trkpt>
      <trkpt lat="45.65215" lon="4.59255">
        <ele>727.1</ele>
        <time>2018-10-14T07:51:50Z</time>
      </trkpt>
      <trkpt lat="45.65211" lon="4.59253">
        <ele>728.2</ele>
        <time>2018-10-14T07:51:52Z</time>
      </trkpt>
      <trkpt lat="45.65208" lon="4.59251">
        <ele>728.6</ele>
        <time>2018-10-14T07:51:54Z</time>
      </trkpt>
      <trkpt lat="45.65207" lon="4.59246">
        <ele>729.1</ele>
        <time>2018-10-14T07:51:56Z</time>
      </trkpt>
      <trkpt lat="45.65205" lon="4.5924">
        <ele>729.6</ele>
        <time>2018-10-14T07:51:58Z</time>
      </trkpt>
      <trkpt lat="45.65202" lon="4.5923">
        <ele>730.6</ele>
        <time>2018-10-14T07:52:03Z</time>
      </trkpt>
      <trkpt lat="45.65199" lon="4.59224">
        <ele>731.2</ele>
        <time>2018-10-14T07:52:07Z</time>
      </trkpt>
      <trkpt lat="45.65198" lon="4.59223">
        <ele>731.4</ele>
        <time>2018-10-14T07:52:08Z</time>
      </trkpt>
      <trkpt lat="45.6519" lon="4.59222">
        <ele>731.9</ele>
        <time>2018-10-14T07:52:12Z</time>
      </trkpt>
      <trkpt lat="45.65188" lon="4.59223">
        <ele>732</ele>
        <time>2018-10-14T07:52:13Z</time>
      </trkpt>
      <trkpt lat="45.65174" lon="4.59224">
        <ele>732.8</ele>
        <time>2018-10-14T07:52:19Z</time>
      </trkpt>
      <trkpt lat="45.65158" lon="4.59223">
        <ele>733.5</ele>
        <time>2018-10-14T07:52:26Z</time>
      </trkpt>
      <trkpt lat="45.65149" lon="4.59224">
        <ele>733.9</ele>
        <time>2018-10-14T07:52:29Z</time>
      </trkpt>
      <trkpt lat="45.65142" lon="4.59223">
        <ele>734.1</ele>
        <time>2018-10-14T07:52:31Z</time>
      </trkpt>
      <trkpt lat="45.65119" lon="4.59224">
        <ele>734.7</ele>
        <time>2018-10-14T07:52:36Z</time>
      </trkpt>
      <trkpt lat="45.65111" lon="4.59225">
        <ele>735</ele>
        <time>2018-10-14T07:52:38Z</time>
      </trkpt>
      <trkpt lat="45.65106" lon="4.59227">
        <ele>735.1</ele>
        <time>2018-10-14T07:52:39Z</time>
      </trkpt>
      <trkpt lat="45.65098" lon="4.59231">
        <ele>735.4</ele>
        <time>2018-10-14T07:52:41Z</time>
      </trkpt>
      <trkpt lat="45.65087" lon="4.59243">
        <ele>735.9</ele>
        <time>2018-10-14T07:52:45Z</time>
      </trkpt>
      <trkpt lat="45.6508" lon="4.59247">
        <ele>736.2</ele>
        <time>2018-10-14T07:52:47Z</time>
      </trkpt>
      <trkpt lat="45.6507" lon="4.59253">
        <ele>736.7</ele>
        <time>2018-10-14T07:52:50Z</time>
      </trkpt>
      <trkpt lat="45.65062" lon="4.59256">
        <ele>737</ele>
        <time>2018-10-14T07:52:53Z</time>
      </trkpt>
      <trkpt lat="45.65057" lon="4.59254">
        <ele>737.2</ele>
        <time>2018-10-14T07:52:55Z</time>
      </trkpt>
      <trkpt lat="45.6505" lon="4.59252">
        <ele>737.3</ele>
        <time>2018-10-14T07:52:57Z</time>
      </trkpt>
      <trkpt lat="45.65037" lon="4.59248">
        <ele>737.7</ele>
        <time>2018-10-14T07:53:00Z</time>
      </trkpt>
      <trkpt lat="45.65016" lon="4.59235">
        <ele>738.1</ele>
        <time>2018-10-14T07:53:05Z</time>
      </trkpt>
      <trkpt lat="45.65011" lon="4.59231">
        <ele>738.2</ele>
        <time>2018-10-14T07:53:06Z</time>
      </trkpt>
      <trkpt lat="45.64991" lon="4.5921">
        <ele>738.6</ele>
        <time>2018-10-14T07:53:10Z</time>
      </trkpt>
      <trkpt lat="45.64986" lon="4.59203">
        <ele>738.7</ele>
        <time>2018-10-14T07:53:11Z</time>
      </trkpt>
      <trkpt lat="45.64979" lon="4.5919">
        <ele>739</ele>
        <time>2018-10-14T07:53:13Z</time>
      </trkpt>
      <trkpt lat="45.64972" lon="4.59177">
        <ele>739.2</ele>
        <time>2018-10-14T07:53:15Z</time>
      </trkpt>
      <trkpt lat="45.64964" lon="4.59164">
        <ele>739.5</ele>
        <time>2018-10-14T07:53:17Z</time>
      </trkpt>
      <trkpt lat="45.64957" lon="4.5915">
        <ele>739.8</ele>
        <time>2018-10-14T07:53:19Z</time>
      </trkpt>
      <trkpt lat="45.64954" lon="4.59143">
        <ele>739.9</ele>
        <time>2018-10-14T07:53:20Z</time>
      </trkpt>
      <trkpt lat="45.64946" lon="4.59125">
        <ele>740.4</ele>
        <time>2018-10-14T07:53:23Z</time>
      </trkpt>
      <trkpt lat="45.64943" lon="4.59119">
        <ele>740.6</ele>
        <time>2018-10-14T07:53:24Z</time>
      </trkpt>
      <trkpt lat="45.64925" lon="4.59107">
        <ele>741.3</ele>
        <time>2018-10-14T07:53:28Z</time>
      </trkpt>
      <trkpt lat="45.64915" lon="4.59111">
        <ele>741.7</ele>
        <time>2018-10-14T07:53:31Z</time>
      </trkpt>
      <trkpt lat="45.64912" lon="4.59113">
        <ele>741.8</ele>
        <time>2018-10-14T07:53:32Z</time>
      </trkpt>
      <trkpt lat="45.64894" lon="4.59127">
        <ele>742.4</ele>
        <time>2018-10-14T07:53:37Z</time>
      </trkpt>
      <trkpt lat="45.6489" lon="4.59129">
        <ele>742.5</ele>
        <time>2018-10-14T07:53:38Z</time>
      </trkpt>
      <trkpt lat="45.64864" lon="4.59142">
        <ele>743.1</ele>
        <time>2018-10-14T07:53:46Z</time>
      </trkpt>
      <trkpt lat="45.64862" lon="4.59142">
        <ele>743.2</ele>
        <time>2018-10-14T07:53:47Z</time>
      </trkpt>
      <trkpt lat="45.64854" lon="4.59144">
        <ele>743.4</ele>
        <time>2018-10-14T07:53:50Z</time>
      </trkpt>
      <trkpt lat="45.64849" lon="4.59147">
        <ele>743.5</ele>
        <time>2018-10-14T07:53:52Z</time>
      </trkpt>
      <trkpt lat="45.64844" lon="4.5915">
        <ele>743.7</ele>
        <time>2018-10-14T07:53:54Z</time>
      </trkpt>
      <trkpt lat="45.64836" lon="4.59153">
        <ele>743.9</ele>
        <time>2018-10-14T07:53:57Z</time>
      </trkpt>
      <trkpt lat="45.64831" lon="4.59155">
        <ele>744.1</ele>
        <time>2018-10-14T07:53:59Z</time>
      </trkpt>
      <trkpt lat="45.64829" lon="4.59156">
        <ele>744.1</ele>
        <time>2018-10-14T07:54:00Z</time>
      </trkpt>
      <trkpt lat="45.64823" lon="4.5916">
        <ele>744.5</ele>
        <time>2018-10-14T07:54:03Z</time>
      </trkpt>
      <trkpt lat="45.64818" lon="4.59164">
        <ele>744.7</ele>
        <time>2018-10-14T07:54:06Z</time>
      </trkpt>
      <trkpt lat="45.64816" lon="4.59165">
        <ele>744.8</ele>
        <time>2018-10-14T07:54:07Z</time>
      </trkpt>
      <trkpt lat="45.64813" lon="4.59169">
        <ele>745</ele>
        <time>2018-10-14T07:54:09Z</time>
      </trkpt>
      <trkpt lat="45.64804" lon="4.59178">
        <ele>745.5</ele>
        <time>2018-10-14T07:54:14Z</time>
      </trkpt>
      <trkpt lat="45.64803" lon="4.59181">
        <ele>745.6</ele>
        <time>2018-10-14T07:54:15Z</time>
      </trkpt>
      <trkpt lat="45.648" lon="4.59186">
        <ele>745.7</ele>
        <time>2018-10-14T07:54:17Z</time>
      </trkpt>
      <trkpt lat="45.64798" lon="4.59192">
        <ele>745.9</ele>
        <time>2018-10-14T07:54:19Z</time>
      </trkpt>
      <trkpt lat="45.64795" lon="4.59203">
        <ele>746.1</ele>
        <time>2018-10-14T07:54:23Z</time>
      </trkpt>
      <trkpt lat="45.64791" lon="4.59214">
        <ele>746.3</ele>
        <time>2018-10-14T07:54:27Z</time>
      </trkpt>
      <trkpt lat="45.64785" lon="4.59225">
        <ele>746.5</ele>
        <time>2018-10-14T07:54:33Z</time>
      </trkpt>
      <trkpt lat="45.64784" lon="4.59227">
        <ele>746.6</ele>
        <time>2018-10-14T07:54:34Z</time>
      </trkpt>
      <trkpt lat="45.64783" lon="4.59231">
        <ele>746.6</ele>
        <time>2018-10-14T07:54:37Z</time>
      </trkpt>
      <trkpt lat="45.64782" lon="4.59235">
        <ele>746.7</ele>
        <time>2018-10-14T07:54:39Z</time>
      </trkpt>
      <trkpt lat="45.64782" lon="4.59237">
        <ele>746.7</ele>
        <time>2018-10-14T07:54:40Z</time>
      </trkpt>
      <trkpt lat="45.6478" lon="4.59242">
        <ele>746.8</ele>
        <time>2018-10-14T07:54:43Z</time>
      </trkpt>
      <trkpt lat="45.64778" lon="4.59246">
        <ele>746.9</ele>
        <time>2018-10-14T07:54:46Z</time>
      </trkpt>
      <trkpt lat="45.64777" lon="4.59247">
        <ele>747</ele>
        <time>2018-10-14T07:54:47Z</time>
      </trkpt>
      <trkpt lat="45.64772" lon="4.59252">
        <ele>747.1</ele>
        <time>2018-10-14T07:54:50Z</time>
      </trkpt>
      <trkpt lat="45.64764" lon="4.59258">
        <ele>747.3</ele>
        <time>2018-10-14T07:54:55Z</time>
      </trkpt>
      <trkpt lat="45.64763" lon="4.59258">
        <ele>747.4</ele>
        <time>2018-10-14T07:54:56Z</time>
      </trkpt>
      <trkpt lat="45.64752" lon="4.59257">
        <ele>748.7</ele>
        <time>2018-10-14T07:55:03Z</time>
      </trkpt>
      <trkpt lat="45.64748" lon="4.59255">
        <ele>749.4</ele>
        <time>2018-10-14T07:55:06Z</time>
      </trkpt>
      <trkpt lat="45.64741" lon="4.59248">
        <ele>751.1</ele>
        <time>2018-10-14T07:55:11Z</time>
      </trkpt>
      <trkpt lat="45.6474" lon="4.59247">
        <ele>751.5</ele>
        <time>2018-10-14T07:55:12Z</time>
      </trkpt>
      <trkpt lat="45.64733" lon="4.5924">
        <ele>753.1</ele>
        <time>2018-10-14T07:55:17Z</time>
      </trkpt>
      <trkpt lat="45.6473" lon="4.59238">
        <ele>753.6</ele>
        <time>2018-10-14T07:55:19Z</time>
      </trkpt>
      <trkpt lat="45.64721" lon="4.59228">
        <ele>755.8</ele>
        <time>2018-10-14T07:55:26Z</time>
      </trkpt>
      <trkpt lat="45.64719" lon="4.59228">
        <ele>756.1</ele>
        <time>2018-10-14T07:55:27Z</time>
      </trkpt>
      <trkpt lat="45.64714" lon="4.59223">
        <ele>757.3</ele>
        <time>2018-10-14T07:55:31Z</time>
      </trkpt>
      <trkpt lat="45.6471" lon="4.5922">
        <ele>758.1</ele>
        <time>2018-10-14T07:55:34Z</time>
      </trkpt>
      <trkpt lat="45.64706" lon="4.59217">
        <ele>758.8</ele>
        <time>2018-10-14T07:55:37Z</time>
      </trkpt>
      <trkpt lat="45.64701" lon="4.59211">
        <ele>759.9</ele>
        <time>2018-10-14T07:55:41Z</time>
      </trkpt>
      <trkpt lat="45.64695" lon="4.59203">
        <ele>761.4</ele>
        <time>2018-10-14T07:55:46Z</time>
      </trkpt>
      <trkpt lat="45.64693" lon="4.592">
        <ele>762</ele>
        <time>2018-10-14T07:55:48Z</time>
      </trkpt>
      <trkpt lat="45.64689" lon="4.59191">
        <ele>763.3</ele>
        <time>2018-10-14T07:55:53Z</time>
      </trkpt>
      <trkpt lat="45.64685" lon="4.59184">
        <ele>764.6</ele>
        <time>2018-10-14T07:55:57Z</time>
      </trkpt>
      <trkpt lat="45.6468" lon="4.59175">
        <ele>766</ele>
        <time>2018-10-14T07:56:03Z</time>
      </trkpt>
      <trkpt lat="45.64679" lon="4.59173">
        <ele>766.2</ele>
        <time>2018-10-14T07:56:04Z</time>
      </trkpt>
      <trkpt lat="45.64674" lon="4.59167">
        <ele>767.2</ele>
        <time>2018-10-14T07:56:08Z</time>
      </trkpt>
      <trkpt lat="45.64671" lon="4.59164">
        <ele>768</ele>
        <time>2018-10-14T07:56:11Z</time>
      </trkpt>
      <trkpt lat="45.64667" lon="4.59162">
        <ele>768.8</ele>
        <time>2018-10-14T07:56:14Z</time>
      </trkpt>
      <trkpt lat="45.64663" lon="4.59158">
        <ele>769.9</ele>
        <time>2018-10-14T07:56:18Z</time>
      </trkpt>
      <trkpt lat="45.64659" lon="4.59155">
        <ele>770.9</ele>
        <time>2018-10-14T07:56:22Z</time>
      </trkpt>
      <trkpt lat="45.64659" lon="4.59153">
        <ele>771.2</ele>
        <time>2018-10-14T07:56:23Z</time>
      </trkpt>
      <trkpt lat="45.64659" lon="4.59149">
        <ele>771.9</ele>
        <time>2018-10-14T07:56:25Z</time>
      </trkpt>
      <trkpt lat="45.64659" lon="4.59147">
        <ele>772.3</ele>
        <time>2018-10-14T07:56:26Z</time>
      </trkpt>
      <trkpt lat="45.64657" lon="4.5914">
        <ele>773.9</ele>
        <time>2018-10-14T07:56:30Z</time>
      </trkpt>
      <trkpt lat="45.64657" lon="4.5914">
        <ele>774.2</ele>
        <time>2018-10-14T07:56:31Z</time>
      </trkpt>
      <trkpt lat="45.64648" lon="4.59146">
        <ele>776.1</ele>
        <time>2018-10-14T07:57:26Z</time>
      </trkpt>
      <trkpt lat="45.64645" lon="4.59149">
        <ele>776</ele>
        <time>2018-10-14T07:57:28Z</time>
      </trkpt>
      <trkpt lat="45.64642" lon="4.59156">
        <ele>775.7</ele>
        <time>2018-10-14T07:57:31Z</time>
      </trkpt>
      <trkpt lat="45.64639" lon="4.59164">
        <ele>775.2</ele>
        <time>2018-10-14T07:57:34Z</time>
      </trkpt>
      <trkpt lat="45.64638" lon="4.59167">
        <ele>775</ele>
        <time>2018-10-14T07:57:35Z</time>
      </trkpt>
      <trkpt lat="45.64633" lon="4.5918">
        <ele>773.7</ele>
        <time>2018-10-14T07:57:40Z</time>
      </trkpt>
      <trkpt lat="45.64633" lon="4.59191">
        <ele>772.7</ele>
        <time>2018-10-14T07:57:45Z</time>
      </trkpt>
      <trkpt lat="45.64632" lon="4.59193">
        <ele>772.5</ele>
        <time>2018-10-14T07:57:46Z</time>
      </trkpt>
      <trkpt lat="45.64632" lon="4.59197">
        <ele>772.1</ele>
        <time>2018-10-14T07:59:20Z</time>
      </trkpt>
      <trkpt lat="45.64633" lon="4.59199">
        <ele>772</ele>
        <time>2018-10-14T07:59:21Z</time>
      </trkpt>
      <trkpt lat="45.64634" lon="4.59205">
        <ele>771.4</ele>
        <time>2018-10-14T07:59:24Z</time>
      </trkpt>
      <trkpt lat="45.64635" lon="4.59211">
        <ele>770.8</ele>
        <time>2018-10-14T07:59:27Z</time>
      </trkpt>
      <trkpt lat="45.64635" lon="4.59223">
        <ele>769.3</ele>
        <time>2018-10-14T07:59:33Z</time>
      </trkpt>
      <trkpt lat="45.64635" lon="4.59231">
        <ele>768.3</ele>
        <time>2018-10-14T07:59:37Z</time>
      </trkpt>
      <trkpt lat="45.64633" lon="4.59243">
        <ele>767.3</ele>
        <time>2018-10-14T08:21:22Z</time>
      </trkpt>
      <trkpt lat="45.64633" lon="4.59246">
        <ele>767.5</ele>
        <time>2018-10-14T08:21:23Z</time>
      </trkpt>
      <trkpt lat="45.64632" lon="4.59252">
        <ele>767.9</ele>
        <time>2018-10-14T08:21:25Z</time>
      </trkpt>
      <trkpt lat="45.6463" lon="4.59264">
        <ele>768.9</ele>
        <time>2018-10-14T08:21:29Z</time>
      </trkpt>
      <trkpt lat="45.64624" lon="4.59293">
        <ele>771.6</ele>
        <time>2018-10-14T08:21:38Z</time>
      </trkpt>
      <trkpt lat="45.64622" lon="4.59301">
        <ele>772.5</ele>
        <time>2018-10-14T08:21:41Z</time>
      </trkpt>
      <trkpt lat="45.64619" lon="4.59311">
        <ele>773.8</ele>
        <time>2018-10-14T08:21:45Z</time>
      </trkpt>
      <trkpt lat="45.64617" lon="4.59316">
        <ele>774.4</ele>
        <time>2018-10-14T08:21:47Z</time>
      </trkpt>
      <trkpt lat="45.64615" lon="4.59321">
        <ele>775</ele>
        <time>2018-10-14T08:21:49Z</time>
      </trkpt>
      <trkpt lat="45.64611" lon="4.59328">
        <ele>776.1</ele>
        <time>2018-10-14T08:21:53Z</time>
      </trkpt>
      <trkpt lat="45.64609" lon="4.59333">
        <ele>776.7</ele>
        <time>2018-10-14T08:21:55Z</time>
      </trkpt>
      <trkpt lat="45.64606" lon="4.59337">
        <ele>777.3</ele>
        <time>2018-10-14T08:21:57Z</time>
      </trkpt>
      <trkpt lat="45.64601" lon="4.59342">
        <ele>778.4</ele>
        <time>2018-10-14T08:22:01Z</time>
      </trkpt>
      <trkpt lat="45.646" lon="4.59344">
        <ele>778.6</ele>
        <time>2018-10-14T08:22:02Z</time>
      </trkpt>
      <trkpt lat="45.64597" lon="4.59346">
        <ele>779.2</ele>
        <time>2018-10-14T08:22:04Z</time>
      </trkpt>
      <trkpt lat="45.6459" lon="4.59351">
        <ele>780.4</ele>
        <time>2018-10-14T08:22:09Z</time>
      </trkpt>
      <trkpt lat="45.64581" lon="4.59355">
        <ele>781.8</ele>
        <time>2018-10-14T08:22:14Z</time>
      </trkpt>
      <trkpt lat="45.64576" lon="4.5936">
        <ele>782.7</ele>
        <time>2018-10-14T08:22:17Z</time>
      </trkpt>
      <trkpt lat="45.64574" lon="4.59361">
        <ele>783</ele>
        <time>2018-10-14T08:22:18Z</time>
      </trkpt>
      <trkpt lat="45.64568" lon="4.59365">
        <ele>784.4</ele>
        <time>2018-10-14T08:22:22Z</time>
      </trkpt>
      <trkpt lat="45.64565" lon="4.59367">
        <ele>785</ele>
        <time>2018-10-14T08:22:24Z</time>
      </trkpt>
      <trkpt lat="45.64562" lon="4.59369">
        <ele>785.7</ele>
        <time>2018-10-14T08:22:26Z</time>
      </trkpt>
      <trkpt lat="45.64556" lon="4.59372">
        <ele>786.9</ele>
        <time>2018-10-14T08:22:30Z</time>
      </trkpt>
      <trkpt lat="45.64555" lon="4.59373">
        <ele>787.2</ele>
        <time>2018-10-14T08:22:31Z</time>
      </trkpt>
      <trkpt lat="45.6455" lon="4.59374">
        <ele>788.1</ele>
        <time>2018-10-14T08:22:34Z</time>
      </trkpt>
      <trkpt lat="45.64545" lon="4.59375">
        <ele>788.8</ele>
        <time>2018-10-14T08:22:37Z</time>
      </trkpt>
      <trkpt lat="45.64544" lon="4.59375">
        <ele>789.1</ele>
        <time>2018-10-14T08:22:38Z</time>
      </trkpt>
      <trkpt lat="45.64539" lon="4.59375">
        <ele>790</ele>
        <time>2018-10-14T08:22:41Z</time>
      </trkpt>
      <trkpt lat="45.64533" lon="4.59373">
        <ele>791.2</ele>
        <time>2018-10-14T08:22:45Z</time>
      </trkpt>
      <trkpt lat="45.64532" lon="4.59372">
        <ele>791.5</ele>
        <time>2018-10-14T08:22:46Z</time>
      </trkpt>
      <trkpt lat="45.64528" lon="4.59369">
        <ele>792.3</ele>
        <time>2018-10-14T08:22:49Z</time>
      </trkpt>
      <trkpt lat="45.64526" lon="4.59369">
        <ele>792.5</ele>
        <time>2018-10-14T08:22:50Z</time>
      </trkpt>
      <trkpt lat="45.64518" lon="4.59371">
        <ele>793.5</ele>
        <time>2018-10-14T08:22:55Z</time>
      </trkpt>
      <trkpt lat="45.64515" lon="4.59371">
        <ele>793.8</ele>
        <time>2018-10-14T08:22:57Z</time>
      </trkpt>
      <trkpt lat="45.64511" lon="4.59373">
        <ele>794.1</ele>
        <time>2018-10-14T08:23:00Z</time>
      </trkpt>
      <trkpt lat="45.64507" lon="4.59376">
        <ele>794.5</ele>
        <time>2018-10-14T08:23:03Z</time>
      </trkpt>
      <trkpt lat="45.645" lon="4.59383">
        <ele>795</ele>
        <time>2018-10-14T08:23:08Z</time>
      </trkpt>
      <trkpt lat="45.64497" lon="4.59385">
        <ele>795.2</ele>
        <time>2018-10-14T08:23:10Z</time>
      </trkpt>
      <trkpt lat="45.64488" lon="4.59393">
        <ele>796</ele>
        <time>2018-10-14T08:23:17Z</time>
      </trkpt>
      <trkpt lat="45.64481" lon="4.59401">
        <ele>797.1</ele>
        <time>2018-10-14T08:23:22Z</time>
      </trkpt>
      <trkpt lat="45.6448" lon="4.59402">
        <ele>797.3</ele>
        <time>2018-10-14T08:23:23Z</time>
      </trkpt>
      <trkpt lat="45.64472" lon="4.5941">
        <ele>798.8</ele>
        <time>2018-10-14T08:23:29Z</time>
      </trkpt>
      <trkpt lat="45.6447" lon="4.59414">
        <ele>799.4</ele>
        <time>2018-10-14T08:23:31Z</time>
      </trkpt>
      <trkpt lat="45.64465" lon="4.5942">
        <ele>800.8</ele>
        <time>2018-10-14T08:23:35Z</time>
      </trkpt>
      <trkpt lat="45.64461" lon="4.59424">
        <ele>801.9</ele>
        <time>2018-10-14T08:23:38Z</time>
      </trkpt>
      <trkpt lat="45.64457" lon="4.59429">
        <ele>803.2</ele>
        <time>2018-10-14T08:23:42Z</time>
      </trkpt>
      <trkpt lat="45.64455" lon="4.59431">
        <ele>803.9</ele>
        <time>2018-10-14T08:23:44Z</time>
      </trkpt>
      <trkpt lat="45.64451" lon="4.59436">
        <ele>805.4</ele>
        <time>2018-10-14T08:23:48Z</time>
      </trkpt>
      <trkpt lat="45.64448" lon="4.59439">
        <ele>806.3</ele>
        <time>2018-10-14T08:23:51Z</time>
      </trkpt>
      <trkpt lat="45.64444" lon="4.59447">
        <ele>807.8</ele>
        <time>2018-10-14T08:23:57Z</time>
      </trkpt>
      <trkpt lat="45.64444" lon="4.59448">
        <ele>808</ele>
        <time>2018-10-14T08:23:58Z</time>
      </trkpt>
      <trkpt lat="45.64439" lon="4.59454">
        <ele>809.3</ele>
        <time>2018-10-14T08:24:04Z</time>
      </trkpt>
      <trkpt lat="45.64437" lon="4.59456">
        <ele>809.7</ele>
        <time>2018-10-14T08:24:06Z</time>
      </trkpt>
      <trkpt lat="45.64436" lon="4.59458">
        <ele>810.1</ele>
        <time>2018-10-14T08:24:08Z</time>
      </trkpt>
      <trkpt lat="45.6443" lon="4.59461">
        <ele>811.2</ele>
        <time>2018-10-14T08:24:13Z</time>
      </trkpt>
      <trkpt lat="45.64419" lon="4.59468">
        <ele>813.1</ele>
        <time>2018-10-14T08:24:22Z</time>
      </trkpt>
      <trkpt lat="45.64415" lon="4.59474">
        <ele>813.9</ele>
        <time>2018-10-14T08:24:27Z</time>
      </trkpt>
      <trkpt lat="45.64381" lon="4.59564">
        <ele>825.5</ele>
        <time>2018-10-14T08:25:26Z</time>
      </trkpt>
      <trkpt lat="45.64381" lon="4.59566">
        <ele>825.7</ele>
        <time>2018-10-14T08:25:27Z</time>
      </trkpt>
      <trkpt lat="45.64376" lon="4.59578">
        <ele>827.5</ele>
        <time>2018-10-14T08:25:35Z</time>
      </trkpt>
      <trkpt lat="45.64375" lon="4.59581">
        <ele>827.9</ele>
        <time>2018-10-14T08:25:37Z</time>
      </trkpt>
      <trkpt lat="45.6437" lon="4.59594">
        <ele>829.8</ele>
        <time>2018-10-14T08:25:44Z</time>
      </trkpt>
      <trkpt lat="45.64356" lon="4.5967">
        <ele>838.7</ele>
        <time>2018-10-14T08:26:22Z</time>
      </trkpt>
      <trkpt lat="45.64355" lon="4.59674">
        <ele>839.3</ele>
        <time>2018-10-14T08:26:24Z</time>
      </trkpt>
      <trkpt lat="45.64346" lon="4.59684">
        <ele>841.3</ele>
        <time>2018-10-14T08:26:35Z</time>
      </trkpt>
      <trkpt lat="45.64345" lon="4.59684">
        <ele>841.5</ele>
        <time>2018-10-14T08:26:36Z</time>
      </trkpt>
      <trkpt lat="45.64329" lon="4.59692">
        <ele>843.5</ele>
        <time>2018-10-14T08:26:50Z</time>
      </trkpt>
      <trkpt lat="45.64326" lon="4.59693">
        <ele>843.8</ele>
        <time>2018-10-14T08:26:52Z</time>
      </trkpt>
      <trkpt lat="45.64321" lon="4.59696">
        <ele>844</ele>
        <time>2018-10-14T08:26:55Z</time>
      </trkpt>
      <trkpt lat="45.64311" lon="4.59704">
        <ele>844.5</ele>
        <time>2018-10-14T08:27:03Z</time>
      </trkpt>
      <trkpt lat="45.64305" lon="4.5971">
        <ele>844.7</ele>
        <time>2018-10-14T08:27:08Z</time>
      </trkpt>
      <trkpt lat="45.64302" lon="4.59712">
        <ele>844.8</ele>
        <time>2018-10-14T08:27:10Z</time>
      </trkpt>
      <trkpt lat="45.64295" lon="4.59718">
        <ele>844.9</ele>
        <time>2018-10-14T08:27:17Z</time>
      </trkpt>
      <trkpt lat="45.64291" lon="4.59722">
        <ele>844.9</ele>
        <time>2018-10-14T08:27:19Z</time>
      </trkpt>
      <trkpt lat="45.64276" lon="4.59729">
        <ele>844.6</ele>
        <time>2018-10-14T08:27:24Z</time>
      </trkpt>
      <trkpt lat="45.64248" lon="4.59727">
        <ele>844.4</ele>
        <time>2018-10-14T08:27:28Z</time>
      </trkpt>
      <trkpt lat="45.64242" lon="4.59726">
        <ele>844.5</ele>
        <time>2018-10-14T08:27:29Z</time>
      </trkpt>
      <trkpt lat="45.6422" lon="4.59722">
        <ele>844.6</ele>
        <time>2018-10-14T08:27:33Z</time>
      </trkpt>
      <trkpt lat="45.64216" lon="4.59722">
        <ele>844.5</ele>
        <time>2018-10-14T08:27:34Z</time>
      </trkpt>
      <trkpt lat="45.64189" lon="4.59726">
        <ele>843.5</ele>
        <time>2018-10-14T08:27:41Z</time>
      </trkpt>
      <trkpt lat="45.64164" lon="4.59727">
        <ele>844.2</ele>
        <time>2018-10-14T08:27:46Z</time>
      </trkpt>
      <trkpt lat="45.6415" lon="4.59729">
        <ele>845.1</ele>
        <time>2018-10-14T08:27:50Z</time>
      </trkpt>
      <trkpt lat="45.64147" lon="4.59729">
        <ele>845.5</ele>
        <time>2018-10-14T08:27:52Z</time>
      </trkpt>
      <trkpt lat="45.6414" lon="4.5973">
        <ele>846.4</ele>
        <time>2018-10-14T08:27:56Z</time>
      </trkpt>
      <trkpt lat="45.64132" lon="4.5973">
        <ele>847.4</ele>
        <time>2018-10-14T08:28:00Z</time>
      </trkpt>
      <trkpt lat="45.64127" lon="4.59729">
        <ele>847.9</ele>
        <time>2018-10-14T08:28:02Z</time>
      </trkpt>
      <trkpt lat="45.64114" lon="4.59727">
        <ele>849.2</ele>
        <time>2018-10-14T08:28:09Z</time>
      </trkpt>
      <trkpt lat="45.64109" lon="4.59726">
        <ele>849.7</ele>
        <time>2018-10-14T08:28:13Z</time>
      </trkpt>
      <trkpt lat="45.64102" lon="4.59726">
        <ele>850.4</ele>
        <time>2018-10-14T08:28:18Z</time>
      </trkpt>
      <trkpt lat="45.64099" lon="4.59725">
        <ele>850.8</ele>
        <time>2018-10-14T08:28:20Z</time>
      </trkpt>
      <trkpt lat="45.64089" lon="4.59725">
        <ele>852.1</ele>
        <time>2018-10-14T08:28:29Z</time>
      </trkpt>
      <trkpt lat="45.64086" lon="4.59725">
        <ele>852.5</ele>
        <time>2018-10-14T08:28:31Z</time>
      </trkpt>
      <trkpt lat="45.64075" lon="4.59725">
        <ele>853.7</ele>
        <time>2018-10-14T08:28:37Z</time>
      </trkpt>
      <trkpt lat="45.64066" lon="4.59728">
        <ele>854.7</ele>
        <time>2018-10-14T08:28:40Z</time>
      </trkpt>
      <trkpt lat="45.64051" lon="4.59729">
        <ele>856</ele>
        <time>2018-10-14T08:28:47Z</time>
      </trkpt>
      <trkpt lat="45.64048" lon="4.59729">
        <ele>856.3</ele>
        <time>2018-10-14T08:28:49Z</time>
      </trkpt>
      <trkpt lat="45.6403" lon="4.59727">
        <ele>857.2</ele>
        <time>2018-10-14T08:28:58Z</time>
      </trkpt>
      <trkpt lat="45.64011" lon="4.59723">
        <ele>856.5</ele>
        <time>2018-10-14T08:29:03Z</time>
      </trkpt>
      <trkpt lat="45.64002" lon="4.5972">
        <ele>855.7</ele>
        <time>2018-10-14T08:29:05Z</time>
      </trkpt>
      <trkpt lat="45.63996" lon="4.5972">
        <ele>855.3</ele>
        <time>2018-10-14T08:29:06Z</time>
      </trkpt>
      <trkpt lat="45.63984" lon="4.5972">
        <ele>854.1</ele>
        <time>2018-10-14T08:29:08Z</time>
      </trkpt>
      <trkpt lat="45.63957" lon="4.59719">
        <ele>853.7</ele>
        <time>2018-10-14T08:29:13Z</time>
      </trkpt>
      <trkpt lat="45.63952" lon="4.59719">
        <ele>853.9</ele>
        <time>2018-10-14T08:29:14Z</time>
      </trkpt>
      <trkpt lat="45.63924" lon="4.59716">
        <ele>855</ele>
        <time>2018-10-14T08:29:20Z</time>
      </trkpt>
      <trkpt lat="45.63896" lon="4.59715">
        <ele>854.5</ele>
        <time>2018-10-14T08:29:26Z</time>
      </trkpt>
      <trkpt lat="45.63892" lon="4.59714">
        <ele>854.4</ele>
        <time>2018-10-14T08:29:27Z</time>
      </trkpt>
      <trkpt lat="45.63862" lon="4.59709">
        <ele>853.5</ele>
        <time>2018-10-14T08:29:34Z</time>
      </trkpt>
      <trkpt lat="45.63837" lon="4.59704">
        <ele>853.3</ele>
        <time>2018-10-14T08:29:41Z</time>
      </trkpt>
      <trkpt lat="45.63815" lon="4.59699">
        <ele>853.4</ele>
        <time>2018-10-14T08:29:47Z</time>
      </trkpt>
      <trkpt lat="45.63796" lon="4.59693">
        <ele>853.8</ele>
        <time>2018-10-14T08:29:54Z</time>
      </trkpt>
      <trkpt lat="45.63778" lon="4.59692">
        <ele>854</ele>
        <time>2018-10-14T08:30:03Z</time>
      </trkpt>
      <trkpt lat="45.63765" lon="4.59687">
        <ele>854.5</ele>
        <time>2018-10-14T08:30:11Z</time>
      </trkpt>
      <trkpt lat="45.63756" lon="4.59683">
        <ele>855.2</ele>
        <time>2018-10-14T08:30:17Z</time>
      </trkpt>
      <trkpt lat="45.63755" lon="4.59683">
        <ele>855.3</ele>
        <time>2018-10-14T08:30:18Z</time>
      </trkpt>
      <trkpt lat="45.63743" lon="4.5968">
        <ele>856.4</ele>
        <time>2018-10-14T08:30:24Z</time>
      </trkpt>
      <trkpt lat="45.6374" lon="4.59679">
        <ele>856.7</ele>
        <time>2018-10-14T08:30:26Z</time>
      </trkpt>
      <trkpt lat="45.63727" lon="4.59678">
        <ele>858</ele>
        <time>2018-10-14T08:30:33Z</time>
      </trkpt>
      <trkpt lat="45.63724" lon="4.59679">
        <ele>858.3</ele>
        <time>2018-10-14T08:30:35Z</time>
      </trkpt>
      <trkpt lat="45.63714" lon="4.59676">
        <ele>859</ele>
        <time>2018-10-14T08:30:41Z</time>
      </trkpt>
      <trkpt lat="45.63712" lon="4.59676">
        <ele>859.1</ele>
        <time>2018-10-14T08:30:42Z</time>
      </trkpt>
      <trkpt lat="45.63707" lon="4.59675">
        <ele>859.4</ele>
        <time>2018-10-14T08:30:46Z</time>
      </trkpt>
      <trkpt lat="45.63705" lon="4.59675">
        <ele>859.5</ele>
        <time>2018-10-14T08:30:47Z</time>
      </trkpt>
      <trkpt lat="45.63692" lon="4.59675">
        <ele>860.1</ele>
        <time>2018-10-14T08:30:53Z</time>
      </trkpt>
      <trkpt lat="45.63673" lon="4.59677">
        <ele>860.1</ele>
        <time>2018-10-14T08:31:00Z</time>
      </trkpt>
      <trkpt lat="45.63654" lon="4.59682">
        <ele>859.6</ele>
        <time>2018-10-14T08:31:07Z</time>
      </trkpt>
      <trkpt lat="45.63639" lon="4.5969">
        <ele>859.4</ele>
        <time>2018-10-14T08:31:12Z</time>
      </trkpt>
      <trkpt lat="45.63631" lon="4.59694">
        <ele>859.3</ele>
        <time>2018-10-14T08:31:15Z</time>
      </trkpt>
      <trkpt lat="45.63611" lon="4.59702">
        <ele>859.3</ele>
        <time>2018-10-14T08:31:23Z</time>
      </trkpt>
      <trkpt lat="45.63606" lon="4.59703">
        <ele>859.4</ele>
        <time>2018-10-14T08:31:26Z</time>
      </trkpt>
      <trkpt lat="45.63605" lon="4.59703">
        <ele>859.4</ele>
        <time>2018-10-14T08:31:27Z</time>
      </trkpt>
      <trkpt lat="45.63604" lon="4.59707">
        <ele>859.1</ele>
        <time>2018-10-14T08:31:29Z</time>
      </trkpt>
      <trkpt lat="45.63603" lon="4.5971">
        <ele>859</ele>
        <time>2018-10-14T08:32:18Z</time>
      </trkpt>
      <trkpt lat="45.63605" lon="4.59713">
        <ele>858.8</ele>
        <time>2018-10-14T08:32:19Z</time>
      </trkpt>
      <trkpt lat="45.63611" lon="4.59733">
        <ele>857.7</ele>
        <time>2018-10-14T08:32:23Z</time>
      </trkpt>
      <trkpt lat="45.63616" lon="4.59766">
        <ele>855.7</ele>
        <time>2018-10-14T08:32:28Z</time>
      </trkpt>
      <trkpt lat="45.63617" lon="4.59772">
        <ele>855.3</ele>
        <time>2018-10-14T08:32:29Z</time>
      </trkpt>
      <trkpt lat="45.63623" lon="4.59827">
        <ele>851.9</ele>
        <time>2018-10-14T08:32:36Z</time>
      </trkpt>
      <trkpt lat="45.63635" lon="4.59886">
        <ele>848.3</ele>
        <time>2018-10-14T08:32:43Z</time>
      </trkpt>
      <trkpt lat="45.63638" lon="4.59893">
        <ele>847.5</ele>
        <time>2018-10-14T08:32:44Z</time>
      </trkpt>
      <trkpt lat="45.63643" lon="4.59905">
        <ele>846.2</ele>
        <time>2018-10-14T08:32:46Z</time>
      </trkpt>
      <trkpt lat="45.63645" lon="4.59909">
        <ele>845.7</ele>
        <time>2018-10-14T08:32:47Z</time>
      </trkpt>
      <trkpt lat="45.63651" lon="4.59917">
        <ele>844.7</ele>
        <time>2018-10-14T08:32:49Z</time>
      </trkpt>
      <trkpt lat="45.63656" lon="4.59927">
        <ele>843.7</ele>
        <time>2018-10-14T08:32:51Z</time>
      </trkpt>
      <trkpt lat="45.63659" lon="4.59932">
        <ele>843.1</ele>
        <time>2018-10-14T08:32:52Z</time>
      </trkpt>
      <trkpt lat="45.63669" lon="4.59945">
        <ele>841.7</ele>
        <time>2018-10-14T08:32:55Z</time>
      </trkpt>
      <trkpt lat="45.63673" lon="4.59949">
        <ele>841.3</ele>
        <time>2018-10-14T08:32:56Z</time>
      </trkpt>
      <trkpt lat="45.63679" lon="4.5996">
        <ele>840.4</ele>
        <time>2018-10-14T08:32:58Z</time>
      </trkpt>
      <trkpt lat="45.63687" lon="4.59973">
        <ele>839.5</ele>
        <time>2018-10-14T08:33:00Z</time>
      </trkpt>
      <trkpt lat="45.63691" lon="4.5998">
        <ele>839.1</ele>
        <time>2018-10-14T08:33:01Z</time>
      </trkpt>
      <trkpt lat="45.637" lon="4.59994">
        <ele>838.4</ele>
        <time>2018-10-14T08:33:03Z</time>
      </trkpt>
      <trkpt lat="45.63713" lon="4.60017">
        <ele>837.5</ele>
        <time>2018-10-14T08:33:07Z</time>
      </trkpt>
      <trkpt lat="45.63724" lon="4.6003">
        <ele>836.3</ele>
        <time>2018-10-14T08:33:11Z</time>
      </trkpt>
      <trkpt lat="45.63736" lon="4.60043">
        <ele>834</ele>
        <time>2018-10-14T08:33:15Z</time>
      </trkpt>
      <trkpt lat="45.6374" lon="4.60047">
        <ele>833.2</ele>
        <time>2018-10-14T08:33:16Z</time>
      </trkpt>
      <trkpt lat="45.63743" lon="4.60051">
        <ele>832.4</ele>
        <time>2018-10-14T08:33:17Z</time>
      </trkpt>
      <trkpt lat="45.63753" lon="4.60066">
        <ele>829.9</ele>
        <time>2018-10-14T08:33:20Z</time>
      </trkpt>
      <trkpt lat="45.63759" lon="4.60078">
        <ele>828.6</ele>
        <time>2018-10-14T08:33:22Z</time>
      </trkpt>
      <trkpt lat="45.63762" lon="4.60086">
        <ele>827.6</ele>
        <time>2018-10-14T08:33:24Z</time>
      </trkpt>
      <trkpt lat="45.63766" lon="4.60094">
        <ele>826.3</ele>
        <time>2018-10-14T08:33:26Z</time>
      </trkpt>
      <trkpt lat="45.6377" lon="4.60101">
        <ele>824.9</ele>
        <time>2018-10-14T08:33:28Z</time>
      </trkpt>
      <trkpt lat="45.63776" lon="4.60113">
        <ele>822.5</ele>
        <time>2018-10-14T08:33:31Z</time>
      </trkpt>
      <trkpt lat="45.63779" lon="4.60117">
        <ele>821.5</ele>
        <time>2018-10-14T08:33:32Z</time>
      </trkpt>
      <trkpt lat="45.63781" lon="4.60122">
        <ele>820.7</ele>
        <time>2018-10-14T08:33:33Z</time>
      </trkpt>
      <trkpt lat="45.63786" lon="4.60132">
        <ele>818.7</ele>
        <time>2018-10-14T08:33:36Z</time>
      </trkpt>
      <trkpt lat="45.63789" lon="4.60139">
        <ele>817.4</ele>
        <time>2018-10-14T08:33:38Z</time>
      </trkpt>
      <trkpt lat="45.63792" lon="4.60144">
        <ele>816.2</ele>
        <time>2018-10-14T08:33:40Z</time>
      </trkpt>
      <trkpt lat="45.63792" lon="4.60152">
        <ele>815.5</ele>
        <time>2018-10-14T08:33:43Z</time>
      </trkpt>
      <trkpt lat="45.6379" lon="4.60156">
        <ele>815.7</ele>
        <time>2018-10-14T08:33:45Z</time>
      </trkpt>
      <trkpt lat="45.63787" lon="4.60157">
        <ele>815.8</ele>
        <time>2018-10-14T08:33:47Z</time>
      </trkpt>
      <trkpt lat="45.63786" lon="4.60159">
        <ele>815.9</ele>
        <time>2018-10-14T08:33:48Z</time>
      </trkpt>
      <trkpt lat="45.63781" lon="4.60171">
        <ele>816.2</ele>
        <time>2018-10-14T08:33:52Z</time>
      </trkpt>
      <trkpt lat="45.6378" lon="4.60174">
        <ele>816.3</ele>
        <time>2018-10-14T08:33:53Z</time>
      </trkpt>
      <trkpt lat="45.63778" lon="4.60176">
        <ele>816.4</ele>
        <time>2018-10-14T08:33:54Z</time>
      </trkpt>
      <trkpt lat="45.63773" lon="4.6018">
        <ele>816.5</ele>
        <time>2018-10-14T08:33:57Z</time>
      </trkpt>
      <trkpt lat="45.6376" lon="4.60188">
        <ele>816.6</ele>
        <time>2018-10-14T08:34:03Z</time>
      </trkpt>
      <trkpt lat="45.63754" lon="4.60194">
        <ele>816.5</ele>
        <time>2018-10-14T08:34:05Z</time>
      </trkpt>
      <trkpt lat="45.63739" lon="4.60207">
        <ele>816.2</ele>
        <time>2018-10-14T08:34:09Z</time>
      </trkpt>
      <trkpt lat="45.6371" lon="4.60236">
        <ele>815.6</ele>
        <time>2018-10-14T08:34:16Z</time>
      </trkpt>
      <trkpt lat="45.63695" lon="4.60254">
        <ele>815.8</ele>
        <time>2018-10-14T08:34:21Z</time>
      </trkpt>
      <trkpt lat="45.63679" lon="4.60272">
        <ele>816.2</ele>
        <time>2018-10-14T08:34:27Z</time>
      </trkpt>
      <trkpt lat="45.63667" lon="4.60282">
        <ele>816.6</ele>
        <time>2018-10-14T08:34:31Z</time>
      </trkpt>
      <trkpt lat="45.63664" lon="4.60284">
        <ele>816.7</ele>
        <time>2018-10-14T08:34:32Z</time>
      </trkpt>
      <trkpt lat="45.63652" lon="4.60293">
        <ele>817</ele>
        <time>2018-10-14T08:34:36Z</time>
      </trkpt>
      <trkpt lat="45.63624" lon="4.60309">
        <ele>818</ele>
        <time>2018-10-14T08:34:43Z</time>
      </trkpt>
      <trkpt lat="45.63615" lon="4.60313">
        <ele>818.3</ele>
        <time>2018-10-14T08:34:45Z</time>
      </trkpt>
      <trkpt lat="45.63598" lon="4.60328">
        <ele>819</ele>
        <time>2018-10-14T08:34:49Z</time>
      </trkpt>
      <trkpt lat="45.63593" lon="4.60332">
        <ele>819.2</ele>
        <time>2018-10-14T08:34:50Z</time>
      </trkpt>
      <trkpt lat="45.63588" lon="4.60336">
        <ele>819.4</ele>
        <time>2018-10-14T08:34:51Z</time>
      </trkpt>
      <trkpt lat="45.63584" lon="4.60339">
        <ele>819.6</ele>
        <time>2018-10-14T08:34:52Z</time>
      </trkpt>
      <trkpt lat="45.63574" lon="4.60347">
        <ele>820</ele>
        <time>2018-10-14T08:34:54Z</time>
      </trkpt>
      <trkpt lat="45.6357" lon="4.6035">
        <ele>820.2</ele>
        <time>2018-10-14T08:34:55Z</time>
      </trkpt>
      <trkpt lat="45.63545" lon="4.60374">
        <ele>821.4</ele>
        <time>2018-10-14T08:35:01Z</time>
      </trkpt>
      <trkpt lat="45.63522" lon="4.60392">
        <ele>823.5</ele>
        <time>2018-10-14T08:35:06Z</time>
      </trkpt>
      <trkpt lat="45.63516" lon="4.60394">
        <ele>824.3</ele>
        <time>2018-10-14T08:35:07Z</time>
      </trkpt>
      <trkpt lat="45.63501" lon="4.60404">
        <ele>827.3</ele>
        <time>2018-10-14T08:35:11Z</time>
      </trkpt>
      <trkpt lat="45.63496" lon="4.60409">
        <ele>828.2</ele>
        <time>2018-10-14T08:35:13Z</time>
      </trkpt>
      <trkpt lat="45.63493" lon="4.6041">
        <ele>828.9</ele>
        <time>2018-10-14T08:35:15Z</time>
      </trkpt>
      <trkpt lat="45.63471" lon="4.60417">
        <ele>833.1</ele>
        <time>2018-10-14T08:35:30Z</time>
      </trkpt>
      <trkpt lat="45.63466" lon="4.60418">
        <ele>833.7</ele>
        <time>2018-10-14T08:35:34Z</time>
      </trkpt>
      <trkpt lat="45.63464" lon="4.60419">
        <ele>834</ele>
        <time>2018-10-14T08:35:36Z</time>
      </trkpt>
      <trkpt lat="45.63461" lon="4.60421">
        <ele>834.3</ele>
        <time>2018-10-14T08:35:38Z</time>
      </trkpt>
      <trkpt lat="45.63456" lon="4.60424">
        <ele>835.2</ele>
        <time>2018-10-14T08:35:42Z</time>
      </trkpt>
      <trkpt lat="45.63447" lon="4.60426">
        <ele>836.3</ele>
        <time>2018-10-14T08:35:50Z</time>
      </trkpt>
      <trkpt lat="45.63446" lon="4.60427">
        <ele>836.5</ele>
        <time>2018-10-14T08:35:51Z</time>
      </trkpt>
      <trkpt lat="45.63442" lon="4.6043">
        <ele>837.1</ele>
        <time>2018-10-14T08:35:54Z</time>
      </trkpt>
      <trkpt lat="45.63437" lon="4.60433">
        <ele>837.8</ele>
        <time>2018-10-14T08:35:57Z</time>
      </trkpt>
      <trkpt lat="45.63436" lon="4.60434">
        <ele>838.2</ele>
        <time>2018-10-14T08:35:58Z</time>
      </trkpt>
      <trkpt lat="45.63423" lon="4.60449">
        <ele>841.6</ele>
        <time>2018-10-14T08:36:06Z</time>
      </trkpt>
      <trkpt lat="45.63417" lon="4.60455">
        <ele>842.9</ele>
        <time>2018-10-14T08:36:08Z</time>
      </trkpt>
      <trkpt lat="45.63415" lon="4.60459">
        <ele>843.4</ele>
        <time>2018-10-14T08:36:09Z</time>
      </trkpt>
      <trkpt lat="45.63412" lon="4.60464">
        <ele>844.1</ele>
        <time>2018-10-14T08:36:11Z</time>
      </trkpt>
      <trkpt lat="45.63409" lon="4.60469">
        <ele>844.8</ele>
        <time>2018-10-14T08:36:13Z</time>
      </trkpt>
      <trkpt lat="45.63403" lon="4.60477">
        <ele>845.9</ele>
        <time>2018-10-14T08:36:18Z</time>
      </trkpt>
      <trkpt lat="45.63397" lon="4.60487">
        <ele>847.2</ele>
        <time>2018-10-14T08:36:24Z</time>
      </trkpt>
      <trkpt lat="45.63388" lon="4.60498">
        <ele>848.8</ele>
        <time>2018-10-14T08:36:31Z</time>
      </trkpt>
      <trkpt lat="45.63377" lon="4.60505">
        <ele>850</ele>
        <time>2018-10-14T08:36:38Z</time>
      </trkpt>
      <trkpt lat="45.63365" lon="4.60507">
        <ele>850.8</ele>
        <time>2018-10-14T08:36:45Z</time>
      </trkpt>
      <trkpt lat="45.63363" lon="4.60507">
        <ele>851</ele>
        <time>2018-10-14T08:36:46Z</time>
      </trkpt>
      <trkpt lat="45.63359" lon="4.60507">
        <ele>851.2</ele>
        <time>2018-10-14T08:36:48Z</time>
      </trkpt>
      <trkpt lat="45.63345" lon="4.60505">
        <ele>851.9</ele>
        <time>2018-10-14T08:36:54Z</time>
      </trkpt>
      <trkpt lat="45.63327" lon="4.60491">
        <ele>852.5</ele>
        <time>2018-10-14T08:37:01Z</time>
      </trkpt>
      <trkpt lat="45.63311" lon="4.60478">
        <ele>852.6</ele>
        <time>2018-10-14T08:37:07Z</time>
      </trkpt>
      <trkpt lat="45.63309" lon="4.60476">
        <ele>852.5</ele>
        <time>2018-10-14T08:37:09Z</time>
      </trkpt>
      <trkpt lat="45.63308" lon="4.60472">
        <ele>852.5</ele>
        <time>2018-10-14T08:45:29Z</time>
      </trkpt>
      <trkpt lat="45.63297" lon="4.60462">
        <ele>852.3</ele>
        <time>2018-10-14T08:45:34Z</time>
      </trkpt>
      <trkpt lat="45.63294" lon="4.6046">
        <ele>852.2</ele>
        <time>2018-10-14T08:45:35Z</time>
      </trkpt>
      <trkpt lat="45.63289" lon="4.60457">
        <ele>851.9</ele>
        <time>2018-10-14T08:45:37Z</time>
      </trkpt>
      <trkpt lat="45.63276" lon="4.60447">
        <ele>851.5</ele>
        <time>2018-10-14T08:45:41Z</time>
      </trkpt>
      <trkpt lat="45.63265" lon="4.60436">
        <ele>851.2</ele>
        <time>2018-10-14T08:45:44Z</time>
      </trkpt>
      <trkpt lat="45.63254" lon="4.60425">
        <ele>850.9</ele>
        <time>2018-10-14T08:45:47Z</time>
      </trkpt>
      <trkpt lat="45.63241" lon="4.60412">
        <ele>850.8</ele>
        <time>2018-10-14T08:45:50Z</time>
      </trkpt>
      <trkpt lat="45.63225" lon="4.60396">
        <ele>850.8</ele>
        <time>2018-10-14T08:45:54Z</time>
      </trkpt>
      <trkpt lat="45.63221" lon="4.60391">
        <ele>850.9</ele>
        <time>2018-10-14T08:45:55Z</time>
      </trkpt>
      <trkpt lat="45.63189" lon="4.60363">
        <ele>850.8</ele>
        <time>2018-10-14T08:46:01Z</time>
      </trkpt>
      <trkpt lat="45.63178" lon="4.60349">
        <ele>850.5</ele>
        <time>2018-10-14T08:46:04Z</time>
      </trkpt>
      <trkpt lat="45.63152" lon="4.60322">
        <ele>850</ele>
        <time>2018-10-14T08:46:10Z</time>
      </trkpt>
      <trkpt lat="45.63145" lon="4.60312">
        <ele>849.8</ele>
        <time>2018-10-14T08:46:12Z</time>
      </trkpt>
      <trkpt lat="45.63138" lon="4.603">
        <ele>849.7</ele>
        <time>2018-10-14T08:46:14Z</time>
      </trkpt>
      <trkpt lat="45.63136" lon="4.60294">
        <ele>849.7</ele>
        <time>2018-10-14T08:46:15Z</time>
      </trkpt>
      <trkpt lat="45.63128" lon="4.60277">
        <ele>849.7</ele>
        <time>2018-10-14T08:46:18Z</time>
      </trkpt>
      <trkpt lat="45.63122" lon="4.60266">
        <ele>849.9</ele>
        <time>2018-10-14T08:46:20Z</time>
      </trkpt>
      <trkpt lat="45.63117" lon="4.60256">
        <ele>849.9</ele>
        <time>2018-10-14T08:46:22Z</time>
      </trkpt>
      <trkpt lat="45.63115" lon="4.60252">
        <ele>849.7</ele>
        <time>2018-10-14T08:46:23Z</time>
      </trkpt>
      <trkpt lat="45.63109" lon="4.60241">
        <ele>849.2</ele>
        <time>2018-10-14T08:46:26Z</time>
      </trkpt>
      <trkpt lat="45.63107" lon="4.60236">
        <ele>848.9</ele>
        <time>2018-10-14T08:46:27Z</time>
      </trkpt>
      <trkpt lat="45.63094" lon="4.60209">
        <ele>847.4</ele>
        <time>2018-10-14T08:46:31Z</time>
      </trkpt>
      <trkpt lat="45.63072" lon="4.60166">
        <ele>845.6</ele>
        <time>2018-10-14T08:46:36Z</time>
      </trkpt>
      <trkpt lat="45.63068" lon="4.60158">
        <ele>845.3</ele>
        <time>2018-10-14T08:46:37Z</time>
      </trkpt>
      <trkpt lat="45.63064" lon="4.60151">
        <ele>845</ele>
        <time>2018-10-14T08:46:38Z</time>
      </trkpt>
      <trkpt lat="45.63052" lon="4.6014">
        <ele>844.7</ele>
        <time>2018-10-14T08:46:40Z</time>
      </trkpt>
      <trkpt lat="45.6304" lon="4.60135">
        <ele>845</ele>
        <time>2018-10-14T08:46:42Z</time>
      </trkpt>
      <trkpt lat="45.63035" lon="4.60135">
        <ele>845.3</ele>
        <time>2018-10-14T08:46:43Z</time>
      </trkpt>
      <trkpt lat="45.6302" lon="4.60144">
        <ele>842.9</ele>
        <time>2018-10-14T08:46:46Z</time>
      </trkpt>
      <trkpt lat="45.63004" lon="4.6015">
        <ele>840.1</ele>
        <time>2018-10-14T08:46:49Z</time>
      </trkpt>
      <trkpt lat="45.63001" lon="4.60152">
        <ele>839.5</ele>
        <time>2018-10-14T08:46:50Z</time>
      </trkpt>
      <trkpt lat="45.62995" lon="4.60156">
        <ele>838.6</ele>
        <time>2018-10-14T08:46:52Z</time>
      </trkpt>
      <trkpt lat="45.62988" lon="4.60164">
        <ele>837.1</ele>
        <time>2018-10-14T08:46:54Z</time>
      </trkpt>
      <trkpt lat="45.62984" lon="4.6017">
        <ele>835.9</ele>
        <time>2018-10-14T08:46:55Z</time>
      </trkpt>
      <trkpt lat="45.62976" lon="4.60182">
        <ele>834.1</ele>
        <time>2018-10-14T08:46:57Z</time>
      </trkpt>
      <trkpt lat="45.62968" lon="4.60194">
        <ele>833.1</ele>
        <time>2018-10-14T08:46:59Z</time>
      </trkpt>
      <trkpt lat="45.6296" lon="4.60205">
        <ele>832.4</ele>
        <time>2018-10-14T08:47:01Z</time>
      </trkpt>
      <trkpt lat="45.6295" lon="4.60221">
        <ele>831.8</ele>
        <time>2018-10-14T08:47:04Z</time>
      </trkpt>
      <trkpt lat="45.62947" lon="4.60227">
        <ele>831.6</ele>
        <time>2018-10-14T08:47:05Z</time>
      </trkpt>
      <trkpt lat="45.62937" lon="4.6025">
        <ele>830.8</ele>
        <time>2018-10-14T08:47:10Z</time>
      </trkpt>
      <trkpt lat="45.62932" lon="4.6026">
        <ele>830.2</ele>
        <time>2018-10-14T08:47:12Z</time>
      </trkpt>
      <trkpt lat="45.62927" lon="4.60273">
        <ele>829.4</ele>
        <time>2018-10-14T08:47:15Z</time>
      </trkpt>
      <trkpt lat="45.62916" lon="4.603">
        <ele>827.8</ele>
        <time>2018-10-14T08:47:21Z</time>
      </trkpt>
      <trkpt lat="45.62903" lon="4.60336">
        <ele>825.2</ele>
        <time>2018-10-14T08:47:27Z</time>
      </trkpt>
      <trkpt lat="45.62897" lon="4.60349">
        <ele>823.9</ele>
        <time>2018-10-14T08:47:30Z</time>
      </trkpt>
      <trkpt lat="45.62893" lon="4.60375">
        <ele>822.4</ele>
        <time>2018-10-14T08:47:34Z</time>
      </trkpt>
      <trkpt lat="45.62891" lon="4.60384">
        <ele>821.8</ele>
        <time>2018-10-14T08:47:35Z</time>
      </trkpt>
      <trkpt lat="45.62885" lon="4.60403">
        <ele>820.5</ele>
        <time>2018-10-14T08:47:37Z</time>
      </trkpt>
      <trkpt lat="45.62881" lon="4.60413">
        <ele>819.9</ele>
        <time>2018-10-14T08:47:38Z</time>
      </trkpt>
      <trkpt lat="45.62876" lon="4.60432">
        <ele>819</ele>
        <time>2018-10-14T08:47:40Z</time>
      </trkpt>
      <trkpt lat="45.62869" lon="4.60456">
        <ele>817.6</ele>
        <time>2018-10-14T08:47:43Z</time>
      </trkpt>
      <trkpt lat="45.62862" lon="4.6048">
        <ele>816.3</ele>
        <time>2018-10-14T08:47:46Z</time>
      </trkpt>
      <trkpt lat="45.62857" lon="4.60494">
        <ele>815.5</ele>
        <time>2018-10-14T08:47:48Z</time>
      </trkpt>
      <trkpt lat="45.62849" lon="4.60507">
        <ele>814.7</ele>
        <time>2018-10-14T08:47:50Z</time>
      </trkpt>
      <trkpt lat="45.62837" lon="4.60518">
        <ele>813.6</ele>
        <time>2018-10-14T08:47:52Z</time>
      </trkpt>
      <trkpt lat="45.62832" lon="4.60521">
        <ele>813.2</ele>
        <time>2018-10-14T08:47:53Z</time>
      </trkpt>
      <trkpt lat="45.62818" lon="4.60523">
        <ele>812.4</ele>
        <time>2018-10-14T08:47:56Z</time>
      </trkpt>
      <trkpt lat="45.62813" lon="4.60523">
        <ele>812</ele>
        <time>2018-10-14T08:47:57Z</time>
      </trkpt>
      <trkpt lat="45.62808" lon="4.60524">
        <ele>811.6</ele>
        <time>2018-10-14T08:47:58Z</time>
      </trkpt>
      <trkpt lat="45.62804" lon="4.60525">
        <ele>811.3</ele>
        <time>2018-10-14T08:47:59Z</time>
      </trkpt>
      <trkpt lat="45.62798" lon="4.60531">
        <ele>810.4</ele>
        <time>2018-10-14T08:48:01Z</time>
      </trkpt>
      <trkpt lat="45.62793" lon="4.60534">
        <ele>809.4</ele>
        <time>2018-10-14T08:48:03Z</time>
      </trkpt>
      <trkpt lat="45.62788" lon="4.60537">
        <ele>808.8</ele>
        <time>2018-10-14T08:48:05Z</time>
      </trkpt>
      <trkpt lat="45.6278" lon="4.6054">
        <ele>807.9</ele>
        <time>2018-10-14T08:48:08Z</time>
      </trkpt>
      <trkpt lat="45.62776" lon="4.6054">
        <ele>807.1</ele>
        <time>2018-10-14T08:48:10Z</time>
      </trkpt>
      <trkpt lat="45.6277" lon="4.60545">
        <ele>806.1</ele>
        <time>2018-10-14T08:48:13Z</time>
      </trkpt>
      <trkpt lat="45.62765" lon="4.60547">
        <ele>805.6</ele>
        <time>2018-10-14T08:48:15Z</time>
      </trkpt>
      <trkpt lat="45.62762" lon="4.6055">
        <ele>805.2</ele>
        <time>2018-10-14T08:48:17Z</time>
      </trkpt>
      <trkpt lat="45.62759" lon="4.60552">
        <ele>805.1</ele>
        <time>2018-10-14T08:48:18Z</time>
      </trkpt>
      <trkpt lat="45.62756" lon="4.60558">
        <ele>804.7</ele>
        <time>2018-10-14T08:48:20Z</time>
      </trkpt>
      <trkpt lat="45.6275" lon="4.60566">
        <ele>804.2</ele>
        <time>2018-10-14T08:48:23Z</time>
      </trkpt>
      <trkpt lat="45.62745" lon="4.60573">
        <ele>804</ele>
        <time>2018-10-14T08:48:41Z</time>
      </trkpt>
      <trkpt lat="45.62739" lon="4.60583">
        <ele>803.8</ele>
        <time>2018-10-14T08:48:45Z</time>
      </trkpt>
      <trkpt lat="45.62735" lon="4.60589">
        <ele>803.6</ele>
        <time>2018-10-14T08:48:47Z</time>
      </trkpt>
      <trkpt lat="45.6273" lon="4.60599">
        <ele>803.4</ele>
        <time>2018-10-14T08:48:51Z</time>
      </trkpt>
      <trkpt lat="45.62724" lon="4.60611">
        <ele>803.1</ele>
        <time>2018-10-14T08:48:57Z</time>
      </trkpt>
      <trkpt lat="45.62718" lon="4.60629">
        <ele>802.4</ele>
        <time>2018-10-14T08:49:03Z</time>
      </trkpt>
      <trkpt lat="45.62717" lon="4.60633">
        <ele>802.1</ele>
        <time>2018-10-14T08:49:04Z</time>
      </trkpt>
      <trkpt lat="45.6271" lon="4.60649">
        <ele>800.8</ele>
        <time>2018-10-14T08:49:09Z</time>
      </trkpt>
      <trkpt lat="45.62707" lon="4.60667">
        <ele>799.1</ele>
        <time>2018-10-14T08:49:13Z</time>
      </trkpt>
      <trkpt lat="45.62706" lon="4.60699">
        <ele>797.3</ele>
        <time>2018-10-14T08:49:19Z</time>
      </trkpt>
      <trkpt lat="45.62706" lon="4.60708">
        <ele>797.1</ele>
        <time>2018-10-14T08:49:20Z</time>
      </trkpt>
      <trkpt lat="45.62701" lon="4.60733">
        <ele>796.3</ele>
        <time>2018-10-14T08:49:23Z</time>
      </trkpt>
      <trkpt lat="45.62699" lon="4.60736">
        <ele>796.2</ele>
        <time>2018-10-14T08:49:24Z</time>
      </trkpt>
      <trkpt lat="45.62697" lon="4.60773">
        <ele>796.1</ele>
        <time>2018-10-14T08:49:56Z</time>
      </trkpt>
      <trkpt lat="45.62701" lon="4.60792">
        <ele>793.8</ele>
        <time>2018-10-14T08:50:00Z</time>
      </trkpt>
      <trkpt lat="45.62708" lon="4.60822">
        <ele>789.9</ele>
        <time>2018-10-14T08:50:04Z</time>
      </trkpt>
      <trkpt lat="45.62711" lon="4.60828">
        <ele>789.3</ele>
        <time>2018-10-14T08:50:05Z</time>
      </trkpt>
      <trkpt lat="45.62714" lon="4.60836">
        <ele>788.6</ele>
        <time>2018-10-14T08:50:07Z</time>
      </trkpt>
      <trkpt lat="45.62716" lon="4.60842">
        <ele>788.1</ele>
        <time>2018-10-14T08:50:08Z</time>
      </trkpt>
      <trkpt lat="45.62717" lon="4.60848">
        <ele>787.6</ele>
        <time>2018-10-14T08:50:09Z</time>
      </trkpt>
      <trkpt lat="45.62722" lon="4.60871">
        <ele>785.9</ele>
        <time>2018-10-14T08:50:12Z</time>
      </trkpt>
      <trkpt lat="45.62726" lon="4.60892">
        <ele>784.3</ele>
        <time>2018-10-14T08:50:15Z</time>
      </trkpt>
      <trkpt lat="45.62727" lon="4.60893">
        <ele>784.2</ele>
        <time>2018-10-14T08:50:16Z</time>
      </trkpt>
      <trkpt lat="45.62729" lon="4.60892">
        <ele>781.2</ele>
        <time>2018-10-14T08:50:17Z</time>
      </trkpt>
      <trkpt lat="45.6273" lon="4.60883">
        <ele>780.3</ele>
        <time>2018-10-14T08:50:19Z</time>
      </trkpt>
      <trkpt lat="45.62731" lon="4.6088">
        <ele>779.9</ele>
        <time>2018-10-14T08:50:21Z</time>
      </trkpt>
      <trkpt lat="45.62734" lon="4.60882">
        <ele>779.4</ele>
        <time>2018-10-14T08:50:22Z</time>
      </trkpt>
      <trkpt lat="45.62736" lon="4.60886">
        <ele>778.8</ele>
        <time>2018-10-14T08:50:23Z</time>
      </trkpt>
      <trkpt lat="45.62739" lon="4.60896">
        <ele>777.5</ele>
        <time>2018-10-14T08:50:25Z</time>
      </trkpt>
      <trkpt lat="45.62742" lon="4.60908">
        <ele>776</ele>
        <time>2018-10-14T08:50:27Z</time>
      </trkpt>
      <trkpt lat="45.62745" lon="4.6092">
        <ele>774.8</ele>
        <time>2018-10-14T08:50:29Z</time>
      </trkpt>
      <trkpt lat="45.62745" lon="4.60926">
        <ele>774.2</ele>
        <time>2018-10-14T08:50:30Z</time>
      </trkpt>
      <trkpt lat="45.62745" lon="4.60932">
        <ele>773.6</ele>
        <time>2018-10-14T08:50:31Z</time>
      </trkpt>
      <trkpt lat="45.62742" lon="4.60949">
        <ele>772</ele>
        <time>2018-10-14T08:50:34Z</time>
      </trkpt>
      <trkpt lat="45.6274" lon="4.60954">
        <ele>771.5</ele>
        <time>2018-10-14T08:50:35Z</time>
      </trkpt>
      <trkpt lat="45.62737" lon="4.60966">
        <ele>770.2</ele>
        <time>2018-10-14T08:50:37Z</time>
      </trkpt>
      <trkpt lat="45.62732" lon="4.60986">
        <ele>768.4</ele>
        <time>2018-10-14T08:50:40Z</time>
      </trkpt>
      <trkpt lat="45.6273" lon="4.60993">
        <ele>767.6</ele>
        <time>2018-10-14T08:50:41Z</time>
      </trkpt>
      <trkpt lat="45.62728" lon="4.60999">
        <ele>767</ele>
        <time>2018-10-14T08:50:42Z</time>
      </trkpt>
      <trkpt lat="45.62723" lon="4.61009">
        <ele>766</ele>
        <time>2018-10-14T08:50:44Z</time>
      </trkpt>
      <trkpt lat="45.6272" lon="4.61015">
        <ele>765.5</ele>
        <time>2018-10-14T08:50:45Z</time>
      </trkpt>
      <trkpt lat="45.62718" lon="4.6102">
        <ele>764.9</ele>
        <time>2018-10-14T08:50:46Z</time>
      </trkpt>
      <trkpt lat="45.62712" lon="4.6103">
        <ele>763.3</ele>
        <time>2018-10-14T08:50:48Z</time>
      </trkpt>
      <trkpt lat="45.62707" lon="4.61039">
        <ele>762</ele>
        <time>2018-10-14T08:50:50Z</time>
      </trkpt>
      <trkpt lat="45.62702" lon="4.61046">
        <ele>761</ele>
        <time>2018-10-14T08:50:52Z</time>
      </trkpt>
      <trkpt lat="45.62697" lon="4.61052">
        <ele>759.8</ele>
        <time>2018-10-14T08:50:54Z</time>
      </trkpt>
      <trkpt lat="45.62692" lon="4.61059">
        <ele>758.7</ele>
        <time>2018-10-14T08:50:56Z</time>
      </trkpt>
      <trkpt lat="45.62686" lon="4.61069">
        <ele>757.2</ele>
        <time>2018-10-14T08:50:59Z</time>
      </trkpt>
      <trkpt lat="45.62682" lon="4.61074">
        <ele>756.5</ele>
        <time>2018-10-14T08:51:01Z</time>
      </trkpt>
      <trkpt lat="45.6268" lon="4.61078">
        <ele>756</ele>
        <time>2018-10-14T08:51:02Z</time>
      </trkpt>
      <trkpt lat="45.62678" lon="4.61082">
        <ele>755.4</ele>
        <time>2018-10-14T08:51:03Z</time>
      </trkpt>
      <trkpt lat="45.62673" lon="4.61089">
        <ele>754.3</ele>
        <time>2018-10-14T08:51:05Z</time>
      </trkpt>
      <trkpt lat="45.62672" lon="4.61092">
        <ele>753.8</ele>
        <time>2018-10-14T08:51:06Z</time>
      </trkpt>
      <trkpt lat="45.6267" lon="4.61095">
        <ele>753.2</ele>
        <time>2018-10-14T08:51:07Z</time>
      </trkpt>
      <trkpt lat="45.62665" lon="4.611">
        <ele>752.1</ele>
        <time>2018-10-14T08:51:09Z</time>
      </trkpt>
      <trkpt lat="45.62663" lon="4.61103">
        <ele>751.3</ele>
        <time>2018-10-14T08:51:11Z</time>
      </trkpt>
      <trkpt lat="45.62661" lon="4.61107">
        <ele>750.7</ele>
        <time>2018-10-14T08:51:15Z</time>
      </trkpt>
      <trkpt lat="45.6266" lon="4.61109">
        <ele>750.2</ele>
        <time>2018-10-14T08:51:16Z</time>
      </trkpt>
      <trkpt lat="45.62659" lon="4.61111">
        <ele>749.8</ele>
        <time>2018-10-14T08:51:17Z</time>
      </trkpt>
      <trkpt lat="45.62655" lon="4.61115">
        <ele>748.7</ele>
        <time>2018-10-14T08:51:20Z</time>
      </trkpt>
      <trkpt lat="45.62651" lon="4.61118">
        <ele>747.9</ele>
        <time>2018-10-14T08:51:22Z</time>
      </trkpt>
      <trkpt lat="45.6265" lon="4.61121">
        <ele>747.4</ele>
        <time>2018-10-14T08:51:23Z</time>
      </trkpt>
      <trkpt lat="45.62645" lon="4.61127">
        <ele>746.2</ele>
        <time>2018-10-14T08:51:25Z</time>
      </trkpt>
      <trkpt lat="45.62643" lon="4.61129">
        <ele>745.7</ele>
        <time>2018-10-14T08:51:26Z</time>
      </trkpt>
      <trkpt lat="45.62641" lon="4.6113">
        <ele>745.3</ele>
        <time>2018-10-14T08:51:27Z</time>
      </trkpt>
      <trkpt lat="45.62639" lon="4.61132">
        <ele>744.9</ele>
        <time>2018-10-14T08:51:28Z</time>
      </trkpt>
      <trkpt lat="45.62637" lon="4.61135">
        <ele>744.6</ele>
        <time>2018-10-14T08:51:29Z</time>
      </trkpt>
      <trkpt lat="45.62635" lon="4.61138">
        <ele>744.1</ele>
        <time>2018-10-14T08:51:30Z</time>
      </trkpt>
      <trkpt lat="45.62632" lon="4.61142">
        <ele>743.5</ele>
        <time>2018-10-14T08:51:32Z</time>
      </trkpt>
      <trkpt lat="45.62627" lon="4.61145">
        <ele>742.9</ele>
        <time>2018-10-14T08:51:34Z</time>
      </trkpt>
      <trkpt lat="45.62626" lon="4.61146">
        <ele>742.6</ele>
        <time>2018-10-14T08:51:35Z</time>
      </trkpt>
      <trkpt lat="45.62622" lon="4.6115">
        <ele>742</ele>
        <time>2018-10-14T08:51:37Z</time>
      </trkpt>
      <trkpt lat="45.62614" lon="4.61151">
        <ele>741</ele>
        <time>2018-10-14T08:51:40Z</time>
      </trkpt>
      <trkpt lat="45.6261" lon="4.61155">
        <ele>740.4</ele>
        <time>2018-10-14T08:51:42Z</time>
      </trkpt>
      <trkpt lat="45.62608" lon="4.61157">
        <ele>739.9</ele>
        <time>2018-10-14T08:51:43Z</time>
      </trkpt>
      <trkpt lat="45.62605" lon="4.61162">
        <ele>739.3</ele>
        <time>2018-10-14T08:51:44Z</time>
      </trkpt>
      <trkpt lat="45.62601" lon="4.61165">
        <ele>738.6</ele>
        <time>2018-10-14T08:51:45Z</time>
      </trkpt>
      <trkpt lat="45.62594" lon="4.61173">
        <ele>737.6</ele>
        <time>2018-10-14T08:51:47Z</time>
      </trkpt>
      <trkpt lat="45.62592" lon="4.61177">
        <ele>737.1</ele>
        <time>2018-10-14T08:51:48Z</time>
      </trkpt>
      <trkpt lat="45.62589" lon="4.6118">
        <ele>736.7</ele>
        <time>2018-10-14T08:51:49Z</time>
      </trkpt>
      <trkpt lat="45.62586" lon="4.61184">
        <ele>736.2</ele>
        <time>2018-10-14T08:51:50Z</time>
      </trkpt>
      <trkpt lat="45.62583" lon="4.61187">
        <ele>735.7</ele>
        <time>2018-10-14T08:51:51Z</time>
      </trkpt>
      <trkpt lat="45.62575" lon="4.61192">
        <ele>734.8</ele>
        <time>2018-10-14T08:51:53Z</time>
      </trkpt>
      <trkpt lat="45.62572" lon="4.61195">
        <ele>734.4</ele>
        <time>2018-10-14T08:51:54Z</time>
      </trkpt>
      <trkpt lat="45.62565" lon="4.61198">
        <ele>733.6</ele>
        <time>2018-10-14T08:51:56Z</time>
      </trkpt>
      <trkpt lat="45.62558" lon="4.61202">
        <ele>732.9</ele>
        <time>2018-10-14T08:51:58Z</time>
      </trkpt>
      <trkpt lat="45.62553" lon="4.61203">
        <ele>732.3</ele>
        <time>2018-10-14T08:52:00Z</time>
      </trkpt>
      <trkpt lat="45.62544" lon="4.61205">
        <ele>731.5</ele>
        <time>2018-10-14T08:52:08Z</time>
      </trkpt>
      <trkpt lat="45.62541" lon="4.61205">
        <ele>731.2</ele>
        <time>2018-10-14T08:52:09Z</time>
      </trkpt>
      <trkpt lat="45.62529" lon="4.61208">
        <ele>729.9</ele>
        <time>2018-10-14T08:52:14Z</time>
      </trkpt>
      <trkpt lat="45.62526" lon="4.61209">
        <ele>729.6</ele>
        <time>2018-10-14T08:52:15Z</time>
      </trkpt>
      <trkpt lat="45.62517" lon="4.61212">
        <ele>728.3</ele>
        <time>2018-10-14T08:52:18Z</time>
      </trkpt>
      <trkpt lat="45.62508" lon="4.61216">
        <ele>727</ele>
        <time>2018-10-14T08:52:21Z</time>
      </trkpt>
      <trkpt lat="45.62502" lon="4.61218">
        <ele>726.1</ele>
        <time>2018-10-14T08:52:24Z</time>
      </trkpt>
      <trkpt lat="45.62492" lon="4.61224">
        <ele>724.7</ele>
        <time>2018-10-14T08:52:27Z</time>
      </trkpt>
      <trkpt lat="45.62486" lon="4.61226">
        <ele>723.8</ele>
        <time>2018-10-14T08:52:29Z</time>
      </trkpt>
      <trkpt lat="45.62478" lon="4.61228">
        <ele>722.5</ele>
        <time>2018-10-14T08:52:31Z</time>
      </trkpt>
      <trkpt lat="45.62472" lon="4.6123">
        <ele>721.5</ele>
        <time>2018-10-14T08:52:33Z</time>
      </trkpt>
      <trkpt lat="45.62469" lon="4.61232">
        <ele>721</ele>
        <time>2018-10-14T08:52:34Z</time>
      </trkpt>
      <trkpt lat="45.62463" lon="4.61234">
        <ele>720.2</ele>
        <time>2018-10-14T08:52:36Z</time>
      </trkpt>
      <trkpt lat="45.62457" lon="4.61237">
        <ele>719.4</ele>
        <time>2018-10-14T08:52:38Z</time>
      </trkpt>
      <trkpt lat="45.62454" lon="4.6124">
        <ele>718.9</ele>
        <time>2018-10-14T08:52:39Z</time>
      </trkpt>
      <trkpt lat="45.62451" lon="4.61243">
        <ele>718.3</ele>
        <time>2018-10-14T08:52:40Z</time>
      </trkpt>
      <trkpt lat="45.62448" lon="4.61247">
        <ele>717.9</ele>
        <time>2018-10-14T08:52:41Z</time>
      </trkpt>
      <trkpt lat="45.62446" lon="4.6125">
        <ele>717.4</ele>
        <time>2018-10-14T08:52:42Z</time>
      </trkpt>
      <trkpt lat="45.62443" lon="4.61251">
        <ele>717.1</ele>
        <time>2018-10-14T08:52:43Z</time>
      </trkpt>
      <trkpt lat="45.62439" lon="4.61253">
        <ele>716.4</ele>
        <time>2018-10-14T08:53:25Z</time>
      </trkpt>
      <trkpt lat="45.62431" lon="4.61251">
        <ele>715.2</ele>
        <time>2018-10-14T08:53:27Z</time>
      </trkpt>
      <trkpt lat="45.62425" lon="4.61249">
        <ele>714.5</ele>
        <time>2018-10-14T08:53:28Z</time>
      </trkpt>
      <trkpt lat="45.62419" lon="4.61248">
        <ele>713.7</ele>
        <time>2018-10-14T08:53:29Z</time>
      </trkpt>
      <trkpt lat="45.62413" lon="4.61248">
        <ele>712.9</ele>
        <time>2018-10-14T08:53:30Z</time>
      </trkpt>
      <trkpt lat="45.62405" lon="4.6125">
        <ele>711.6</ele>
        <time>2018-10-14T08:53:31Z</time>
      </trkpt>
      <trkpt lat="45.62399" lon="4.6125">
        <ele>710.5</ele>
        <time>2018-10-14T08:53:32Z</time>
      </trkpt>
      <trkpt lat="45.62393" lon="4.6125">
        <ele>709.2</ele>
        <time>2018-10-14T08:53:33Z</time>
      </trkpt>
      <trkpt lat="45.62381" lon="4.61251">
        <ele>706.6</ele>
        <time>2018-10-14T08:53:35Z</time>
      </trkpt>
      <trkpt lat="45.6237" lon="4.61252">
        <ele>703.4</ele>
        <time>2018-10-14T08:53:37Z</time>
      </trkpt>
      <trkpt lat="45.62365" lon="4.61252">
        <ele>701.9</ele>
        <time>2018-10-14T08:53:38Z</time>
      </trkpt>
      <trkpt lat="45.6236" lon="4.61252">
        <ele>700.7</ele>
        <time>2018-10-14T08:53:39Z</time>
      </trkpt>
      <trkpt lat="45.62351" lon="4.61253">
        <ele>698.6</ele>
        <time>2018-10-14T08:53:41Z</time>
      </trkpt>
      <trkpt lat="45.62345" lon="4.61258">
        <ele>697</ele>
        <time>2018-10-14T08:53:43Z</time>
      </trkpt>
      <trkpt lat="45.62338" lon="4.61263">
        <ele>695.5</ele>
        <time>2018-10-14T08:53:45Z</time>
      </trkpt>
      <trkpt lat="45.62335" lon="4.61268">
        <ele>694.6</ele>
        <time>2018-10-14T08:53:46Z</time>
      </trkpt>
      <trkpt lat="45.62329" lon="4.61275">
        <ele>693.2</ele>
        <time>2018-10-14T08:53:48Z</time>
      </trkpt>
      <trkpt lat="45.62326" lon="4.61278">
        <ele>692.3</ele>
        <time>2018-10-14T08:53:49Z</time>
      </trkpt>
      <trkpt lat="45.62318" lon="4.61285">
        <ele>690.4</ele>
        <time>2018-10-14T08:53:51Z</time>
      </trkpt>
      <trkpt lat="45.62315" lon="4.61288">
        <ele>689.6</ele>
        <time>2018-10-14T08:53:52Z</time>
      </trkpt>
      <trkpt lat="45.62307" lon="4.61293">
        <ele>687.5</ele>
        <time>2018-10-14T08:53:54Z</time>
      </trkpt>
      <trkpt lat="45.62302" lon="4.61295">
        <ele>686.4</ele>
        <time>2018-10-14T08:53:55Z</time>
      </trkpt>
      <trkpt lat="45.62298" lon="4.61297">
        <ele>685.3</ele>
        <time>2018-10-14T08:53:56Z</time>
      </trkpt>
      <trkpt lat="45.62293" lon="4.613">
        <ele>684.3</ele>
        <time>2018-10-14T08:53:57Z</time>
      </trkpt>
      <trkpt lat="45.62288" lon="4.61303">
        <ele>683.2</ele>
        <time>2018-10-14T08:53:58Z</time>
      </trkpt>
      <trkpt lat="45.62278" lon="4.61308">
        <ele>680.8</ele>
        <time>2018-10-14T08:54:00Z</time>
      </trkpt>
      <trkpt lat="45.62271" lon="4.61312">
        <ele>679.4</ele>
        <time>2018-10-14T08:54:01Z</time>
      </trkpt>
      <trkpt lat="45.62265" lon="4.61316">
        <ele>678</ele>
        <time>2018-10-14T08:54:02Z</time>
      </trkpt>
      <trkpt lat="45.62253" lon="4.61326">
        <ele>674.8</ele>
        <time>2018-10-14T08:54:04Z</time>
      </trkpt>
      <trkpt lat="45.62242" lon="4.61335">
        <ele>672</ele>
        <time>2018-10-14T08:54:06Z</time>
      </trkpt>
      <trkpt lat="45.62232" lon="4.61343">
        <ele>669.5</ele>
        <time>2018-10-14T08:54:08Z</time>
      </trkpt>
      <trkpt lat="45.62221" lon="4.61347">
        <ele>667</ele>
        <time>2018-10-14T08:54:10Z</time>
      </trkpt>
      <trkpt lat="45.62215" lon="4.6135">
        <ele>665.8</ele>
        <time>2018-10-14T08:54:11Z</time>
      </trkpt>
      <trkpt lat="45.62209" lon="4.61352">
        <ele>664.6</ele>
        <time>2018-10-14T08:54:12Z</time>
      </trkpt>
      <trkpt lat="45.62204" lon="4.61353">
        <ele>663.4</ele>
        <time>2018-10-14T08:54:13Z</time>
      </trkpt>
      <trkpt lat="45.62199" lon="4.61353">
        <ele>662.5</ele>
        <time>2018-10-14T08:54:14Z</time>
      </trkpt>
      <trkpt lat="45.62189" lon="4.61352">
        <ele>660.8</ele>
        <time>2018-10-14T08:54:16Z</time>
      </trkpt>
      <trkpt lat="45.62182" lon="4.61353">
        <ele>659.6</ele>
        <time>2018-10-14T08:54:18Z</time>
      </trkpt>
      <trkpt lat="45.62184" lon="4.61367">
        <ele>657.1</ele>
        <time>2018-10-14T08:54:53Z</time>
      </trkpt>
      <trkpt lat="45.62185" lon="4.6137">
        <ele>656.7</ele>
        <time>2018-10-14T08:54:54Z</time>
      </trkpt>
      <trkpt lat="45.62187" lon="4.61376">
        <ele>656</ele>
        <time>2018-10-14T08:54:55Z</time>
      </trkpt>
      <trkpt lat="45.6219" lon="4.61382">
        <ele>655.2</ele>
        <time>2018-10-14T08:54:56Z</time>
      </trkpt>
      <trkpt lat="45.62195" lon="4.6139">
        <ele>654.3</ele>
        <time>2018-10-14T08:54:57Z</time>
      </trkpt>
      <trkpt lat="45.622" lon="4.61396">
        <ele>653.6</ele>
        <time>2018-10-14T08:54:58Z</time>
      </trkpt>
      <trkpt lat="45.62205" lon="4.61401">
        <ele>652.9</ele>
        <time>2018-10-14T08:54:59Z</time>
      </trkpt>
      <trkpt lat="45.6221" lon="4.61406">
        <ele>652.3</ele>
        <time>2018-10-14T08:55:00Z</time>
      </trkpt>
      <trkpt lat="45.62217" lon="4.6141">
        <ele>651.6</ele>
        <time>2018-10-14T08:55:01Z</time>
      </trkpt>
      <trkpt lat="45.62231" lon="4.61417">
        <ele>649.8</ele>
        <time>2018-10-14T08:55:03Z</time>
      </trkpt>
      <trkpt lat="45.62242" lon="4.61423">
        <ele>648.3</ele>
        <time>2018-10-14T08:55:05Z</time>
      </trkpt>
      <trkpt lat="45.62247" lon="4.61428">
        <ele>647.5</ele>
        <time>2018-10-14T08:55:06Z</time>
      </trkpt>
      <trkpt lat="45.62252" lon="4.61432">
        <ele>646.7</ele>
        <time>2018-10-14T08:55:07Z</time>
      </trkpt>
      <trkpt lat="45.62262" lon="4.61442">
        <ele>644.5</ele>
        <time>2018-10-14T08:55:09Z</time>
      </trkpt>
      <trkpt lat="45.62272" lon="4.61452">
        <ele>642.4</ele>
        <time>2018-10-14T08:55:11Z</time>
      </trkpt>
      <trkpt lat="45.62275" lon="4.61459">
        <ele>641.6</ele>
        <time>2018-10-14T08:55:12Z</time>
      </trkpt>
      <trkpt lat="45.62282" lon="4.61471">
        <ele>640.1</ele>
        <time>2018-10-14T08:55:14Z</time>
      </trkpt>
      <trkpt lat="45.62287" lon="4.61484">
        <ele>637.6</ele>
        <time>2018-10-14T08:55:16Z</time>
      </trkpt>
      <trkpt lat="45.62288" lon="4.61488">
        <ele>637</ele>
        <time>2018-10-14T08:55:17Z</time>
      </trkpt>
      <trkpt lat="45.62291" lon="4.61495">
        <ele>635.9</ele>
        <time>2018-10-14T08:55:18Z</time>
      </trkpt>
      <trkpt lat="45.62296" lon="4.61501">
        <ele>634.6</ele>
        <time>2018-10-14T08:55:19Z</time>
      </trkpt>
      <trkpt lat="45.623" lon="4.61508">
        <ele>633.1</ele>
        <time>2018-10-14T08:55:20Z</time>
      </trkpt>
      <trkpt lat="45.62304" lon="4.61514">
        <ele>632</ele>
        <time>2018-10-14T08:55:21Z</time>
      </trkpt>
      <trkpt lat="45.62307" lon="4.61518">
        <ele>631.1</ele>
        <time>2018-10-14T08:55:22Z</time>
      </trkpt>
      <trkpt lat="45.62312" lon="4.61528">
        <ele>629.3</ele>
        <time>2018-10-14T08:55:24Z</time>
      </trkpt>
      <trkpt lat="45.62314" lon="4.61534">
        <ele>628.3</ele>
        <time>2018-10-14T08:55:25Z</time>
      </trkpt>
      <trkpt lat="45.6232" lon="4.61549">
        <ele>625.8</ele>
        <time>2018-10-14T08:55:27Z</time>
      </trkpt>
      <trkpt lat="45.62322" lon="4.61556">
        <ele>625</ele>
        <time>2018-10-14T08:55:28Z</time>
      </trkpt>
      <trkpt lat="45.62325" lon="4.61563">
        <ele>624.5</ele>
        <time>2018-10-14T08:55:29Z</time>
      </trkpt>
      <trkpt lat="45.62336" lon="4.61573">
        <ele>623.3</ele>
        <time>2018-10-14T08:55:31Z</time>
      </trkpt>
      <trkpt lat="45.6234" lon="4.61575">
        <ele>622.9</ele>
        <time>2018-10-14T08:55:32Z</time>
      </trkpt>
      <trkpt lat="45.62345" lon="4.61577">
        <ele>622.5</ele>
        <time>2018-10-14T08:55:33Z</time>
      </trkpt>
      <trkpt lat="45.62349" lon="4.61581">
        <ele>622.2</ele>
        <time>2018-10-14T08:55:34Z</time>
      </trkpt>
      <trkpt lat="45.62354" lon="4.61583">
        <ele>622</ele>
        <time>2018-10-14T08:55:35Z</time>
      </trkpt>
      <trkpt lat="45.6236" lon="4.61587">
        <ele>621.7</ele>
        <time>2018-10-14T08:55:36Z</time>
      </trkpt>
      <trkpt lat="45.62374" lon="4.61592">
        <ele>621.2</ele>
        <time>2018-10-14T08:55:38Z</time>
      </trkpt>
      <trkpt lat="45.62381" lon="4.61594">
        <ele>621</ele>
        <time>2018-10-14T08:55:39Z</time>
      </trkpt>
      <trkpt lat="45.62388" lon="4.61596">
        <ele>620.8</ele>
        <time>2018-10-14T08:55:40Z</time>
      </trkpt>
      <trkpt lat="45.62396" lon="4.61597">
        <ele>620.5</ele>
        <time>2018-10-14T08:55:41Z</time>
      </trkpt>
      <trkpt lat="45.62418" lon="4.616">
        <ele>619.9</ele>
        <time>2018-10-14T08:55:44Z</time>
      </trkpt>
      <trkpt lat="45.62426" lon="4.61599">
        <ele>619.9</ele>
        <time>2018-10-14T08:55:45Z</time>
      </trkpt>
      <trkpt lat="45.62442" lon="4.6159">
        <ele>620.1</ele>
        <time>2018-10-14T08:55:47Z</time>
      </trkpt>
      <trkpt lat="45.62473" lon="4.61571">
        <ele>621</ele>
        <time>2018-10-14T08:55:51Z</time>
      </trkpt>
      <trkpt lat="45.62487" lon="4.61564">
        <ele>621.4</ele>
        <time>2018-10-14T08:55:53Z</time>
      </trkpt>
      <trkpt lat="45.62495" lon="4.6156">
        <ele>621.6</ele>
        <time>2018-10-14T08:55:54Z</time>
      </trkpt>
      <trkpt lat="45.62536" lon="4.61536">
        <ele>622.3</ele>
        <time>2018-10-14T08:56:00Z</time>
      </trkpt>
      <trkpt lat="45.6255" lon="4.61531">
        <ele>622.4</ele>
        <time>2018-10-14T08:56:02Z</time>
      </trkpt>
      <trkpt lat="45.62566" lon="4.6153">
        <ele>622.6</ele>
        <time>2018-10-14T08:56:04Z</time>
      </trkpt>
      <trkpt lat="45.62574" lon="4.61531">
        <ele>622.7</ele>
        <time>2018-10-14T08:56:05Z</time>
      </trkpt>
      <trkpt lat="45.62589" lon="4.61535">
        <ele>623</ele>
        <time>2018-10-14T08:56:07Z</time>
      </trkpt>
      <trkpt lat="45.62604" lon="4.61546">
        <ele>623.3</ele>
        <time>2018-10-14T08:56:09Z</time>
      </trkpt>
      <trkpt lat="45.62614" lon="4.61562">
        <ele>623.5</ele>
        <time>2018-10-14T08:56:11Z</time>
      </trkpt>
      <trkpt lat="45.62619" lon="4.6157">
        <ele>623.6</ele>
        <time>2018-10-14T08:56:12Z</time>
      </trkpt>
      <trkpt lat="45.62624" lon="4.61576">
        <ele>623.7</ele>
        <time>2018-10-14T08:56:13Z</time>
      </trkpt>
      <trkpt lat="45.62635" lon="4.61588">
        <ele>622.2</ele>
        <time>2018-10-14T08:56:15Z</time>
      </trkpt>
      <trkpt lat="45.62646" lon="4.61622">
        <ele>617.2</ele>
        <time>2018-10-14T08:56:19Z</time>
      </trkpt>
      <trkpt lat="45.62641" lon="4.61647">
        <ele>613.4</ele>
        <time>2018-10-14T08:56:21Z</time>
      </trkpt>
      <trkpt lat="45.62643" lon="4.61668">
        <ele>612.2</ele>
        <time>2018-10-14T08:56:23Z</time>
      </trkpt>
      <trkpt lat="45.62649" lon="4.61682">
        <ele>611.9</ele>
        <time>2018-10-14T08:56:25Z</time>
      </trkpt>
      <trkpt lat="45.62669" lon="4.61722">
        <ele>610.9</ele>
        <time>2018-10-14T08:56:31Z</time>
      </trkpt>
      <trkpt lat="45.6268" lon="4.6175">
        <ele>609.6</ele>
        <time>2018-10-14T08:56:35Z</time>
      </trkpt>
      <trkpt lat="45.62684" lon="4.61765">
        <ele>608.8</ele>
        <time>2018-10-14T08:56:37Z</time>
      </trkpt>
      <trkpt lat="45.62689" lon="4.61783">
        <ele>607.4</ele>
        <time>2018-10-14T08:56:41Z</time>
      </trkpt>
      <trkpt lat="45.62696" lon="4.6181">
        <ele>605.4</ele>
        <time>2018-10-14T08:56:46Z</time>
      </trkpt>
      <trkpt lat="45.62702" lon="4.6183">
        <ele>603.8</ele>
        <time>2018-10-14T08:56:49Z</time>
      </trkpt>
      <trkpt lat="45.62709" lon="4.61853">
        <ele>601.6</ele>
        <time>2018-10-14T08:56:52Z</time>
      </trkpt>
      <trkpt lat="45.62712" lon="4.61861">
        <ele>600.6</ele>
        <time>2018-10-14T08:56:53Z</time>
      </trkpt>
      <trkpt lat="45.62718" lon="4.61878">
        <ele>598.5</ele>
        <time>2018-10-14T08:56:55Z</time>
      </trkpt>
      <trkpt lat="45.62721" lon="4.61887">
        <ele>597.5</ele>
        <time>2018-10-14T08:56:56Z</time>
      </trkpt>
      <trkpt lat="45.62732" lon="4.61904">
        <ele>595.9</ele>
        <time>2018-10-14T08:56:58Z</time>
      </trkpt>
      <trkpt lat="45.62747" lon="4.61919">
        <ele>594.2</ele>
        <time>2018-10-14T08:57:00Z</time>
      </trkpt>
      <trkpt lat="45.62761" lon="4.61934">
        <ele>592.4</ele>
        <time>2018-10-14T08:57:02Z</time>
      </trkpt>
      <trkpt lat="45.62776" lon="4.61949">
        <ele>590.1</ele>
        <time>2018-10-14T08:57:04Z</time>
      </trkpt>
      <trkpt lat="45.6279" lon="4.61961">
        <ele>587.3</ele>
        <time>2018-10-14T08:57:06Z</time>
      </trkpt>
      <trkpt lat="45.62797" lon="4.61967">
        <ele>585.9</ele>
        <time>2018-10-14T08:57:07Z</time>
      </trkpt>
      <trkpt lat="45.6281" lon="4.61976">
        <ele>583.4</ele>
        <time>2018-10-14T08:57:09Z</time>
      </trkpt>
      <trkpt lat="45.62817" lon="4.6198">
        <ele>582.2</ele>
        <time>2018-10-14T08:57:10Z</time>
      </trkpt>
      <trkpt lat="45.62831" lon="4.61982">
        <ele>579.8</ele>
        <time>2018-10-14T08:57:12Z</time>
      </trkpt>
      <trkpt lat="45.62849" lon="4.61976">
        <ele>576.3</ele>
        <time>2018-10-14T08:57:14Z</time>
      </trkpt>
      <trkpt lat="45.62858" lon="4.6197">
        <ele>574.6</ele>
        <time>2018-10-14T08:57:15Z</time>
      </trkpt>
      <trkpt lat="45.62868" lon="4.61963">
        <ele>573.1</ele>
        <time>2018-10-14T08:57:16Z</time>
      </trkpt>
      <trkpt lat="45.62877" lon="4.61956">
        <ele>571.9</ele>
        <time>2018-10-14T08:57:17Z</time>
      </trkpt>
      <trkpt lat="45.62884" lon="4.61949">
        <ele>571</ele>
        <time>2018-10-14T08:57:18Z</time>
      </trkpt>
      <trkpt lat="45.6289" lon="4.61942">
        <ele>570.4</ele>
        <time>2018-10-14T08:57:19Z</time>
      </trkpt>
      <trkpt lat="45.62895" lon="4.61933">
        <ele>569.8</ele>
        <time>2018-10-14T08:57:20Z</time>
      </trkpt>
      <trkpt lat="45.629" lon="4.61924">
        <ele>569.3</ele>
        <time>2018-10-14T08:57:21Z</time>
      </trkpt>
      <trkpt lat="45.62904" lon="4.61915">
        <ele>568.7</ele>
        <time>2018-10-14T08:57:22Z</time>
      </trkpt>
      <trkpt lat="45.62908" lon="4.61906">
        <ele>568.2</ele>
        <time>2018-10-14T08:57:23Z</time>
      </trkpt>
      <trkpt lat="45.62913" lon="4.61899">
        <ele>567.7</ele>
        <time>2018-10-14T08:57:24Z</time>
      </trkpt>
      <trkpt lat="45.62922" lon="4.61884">
        <ele>567</ele>
        <time>2018-10-14T08:57:26Z</time>
      </trkpt>
      <trkpt lat="45.62927" lon="4.61876">
        <ele>566.7</ele>
        <time>2018-10-14T08:57:27Z</time>
      </trkpt>
      <trkpt lat="45.62932" lon="4.61867">
        <ele>566.4</ele>
        <time>2018-10-14T08:57:28Z</time>
      </trkpt>
      <trkpt lat="45.62941" lon="4.61849">
        <ele>565.8</ele>
        <time>2018-10-14T08:57:30Z</time>
      </trkpt>
      <trkpt lat="45.6295" lon="4.61829">
        <ele>564.9</ele>
        <time>2018-10-14T08:57:32Z</time>
      </trkpt>
      <trkpt lat="45.62961" lon="4.61798">
        <ele>563.3</ele>
        <time>2018-10-14T08:57:35Z</time>
      </trkpt>
      <trkpt lat="45.62967" lon="4.61776">
        <ele>562.4</ele>
        <time>2018-10-14T08:57:37Z</time>
      </trkpt>
      <trkpt lat="45.62969" lon="4.61765">
        <ele>562.1</ele>
        <time>2018-10-14T08:57:38Z</time>
      </trkpt>
      <trkpt lat="45.62973" lon="4.61754">
        <ele>561.9</ele>
        <time>2018-10-14T08:57:39Z</time>
      </trkpt>
      <trkpt lat="45.62985" lon="4.61726">
        <ele>561.8</ele>
        <time>2018-10-14T08:57:42Z</time>
      </trkpt>
      <trkpt lat="45.6299" lon="4.61709">
        <ele>561.4</ele>
        <time>2018-10-14T08:57:44Z</time>
      </trkpt>
      <trkpt lat="45.62995" lon="4.61693">
        <ele>560.6</ele>
        <time>2018-10-14T08:57:46Z</time>
      </trkpt>
      <trkpt lat="45.62999" lon="4.61685">
        <ele>560.1</ele>
        <time>2018-10-14T08:57:47Z</time>
      </trkpt>
      <trkpt lat="45.63007" lon="4.6167">
        <ele>559.2</ele>
        <time>2018-10-14T08:57:49Z</time>
      </trkpt>
      <trkpt lat="45.63019" lon="4.6166">
        <ele>558.6</ele>
        <time>2018-10-14T08:57:51Z</time>
      </trkpt>
      <trkpt lat="45.63045" lon="4.61654">
        <ele>558.4</ele>
        <time>2018-10-14T08:57:55Z</time>
      </trkpt>
      <trkpt lat="45.63058" lon="4.61658">
        <ele>558.9</ele>
        <time>2018-10-14T08:57:57Z</time>
      </trkpt>
      <trkpt lat="45.63074" lon="4.61664">
        <ele>560</ele>
        <time>2018-10-14T08:58:00Z</time>
      </trkpt>
      <trkpt lat="45.63079" lon="4.61667">
        <ele>560.4</ele>
        <time>2018-10-14T08:58:01Z</time>
      </trkpt>
      <trkpt lat="45.63091" lon="4.61681">
        <ele>561.3</ele>
        <time>2018-10-14T08:58:04Z</time>
      </trkpt>
      <trkpt lat="45.63094" lon="4.61687">
        <ele>561.6</ele>
        <time>2018-10-14T08:58:05Z</time>
      </trkpt>
      <trkpt lat="45.63104" lon="4.61706">
        <ele>562.5</ele>
        <time>2018-10-14T08:58:08Z</time>
      </trkpt>
      <trkpt lat="45.63107" lon="4.61711">
        <ele>562.8</ele>
        <time>2018-10-14T08:58:09Z</time>
      </trkpt>
      <trkpt lat="45.63115" lon="4.6172">
        <ele>563.5</ele>
        <time>2018-10-14T08:58:11Z</time>
      </trkpt>
      <trkpt lat="45.63118" lon="4.61724">
        <ele>563.8</ele>
        <time>2018-10-14T08:58:12Z</time>
      </trkpt>
      <trkpt lat="45.63127" lon="4.61734">
        <ele>564.7</ele>
        <time>2018-10-14T08:58:15Z</time>
      </trkpt>
      <trkpt lat="45.63129" lon="4.61738">
        <ele>564.9</ele>
        <time>2018-10-14T08:58:16Z</time>
      </trkpt>
      <trkpt lat="45.63132" lon="4.61747">
        <ele>565.3</ele>
        <time>2018-10-14T08:58:18Z</time>
      </trkpt>
      <trkpt lat="45.63136" lon="4.61762">
        <ele>565.6</ele>
        <time>2018-10-14T08:58:21Z</time>
      </trkpt>
      <trkpt lat="45.6315" lon="4.61779">
        <ele>565.2</ele>
        <time>2018-10-14T08:58:25Z</time>
      </trkpt>
      <trkpt lat="45.63159" lon="4.61779">
        <ele>565</ele>
        <time>2018-10-14T08:58:28Z</time>
      </trkpt>
      <trkpt lat="45.63158" lon="4.61775">
        <ele>565.4</ele>
        <time>2018-10-14T08:58:30Z</time>
      </trkpt>
      <trkpt lat="45.63157" lon="4.6177">
        <ele>565.8</ele>
        <time>2018-10-14T08:58:32Z</time>
      </trkpt>
      <trkpt lat="45.63153" lon="4.61758">
        <ele>567.1</ele>
        <time>2018-10-14T08:58:37Z</time>
      </trkpt>
      <trkpt lat="45.63152" lon="4.61754">
        <ele>567.6</ele>
        <time>2018-10-14T08:58:39Z</time>
      </trkpt>
      <trkpt lat="45.63151" lon="4.61751">
        <ele>567.8</ele>
        <time>2018-10-14T08:58:40Z</time>
      </trkpt>
      <trkpt lat="45.6315" lon="4.61739">
        <ele>569.2</ele>
        <time>2018-10-14T08:58:45Z</time>
      </trkpt>
      <trkpt lat="45.63149" lon="4.61731">
        <ele>570</ele>
        <time>2018-10-14T08:58:48Z</time>
      </trkpt>
      <trkpt lat="45.63149" lon="4.61729">
        <ele>570.2</ele>
        <time>2018-10-14T08:58:49Z</time>
      </trkpt>
      <trkpt lat="45.63149" lon="4.61716">
        <ele>571.1</ele>
        <time>2018-10-14T08:58:54Z</time>
      </trkpt>
      <trkpt lat="45.63151" lon="4.61707">
        <ele>572</ele>
        <time>2018-10-14T08:58:58Z</time>
      </trkpt>
      <trkpt lat="45.63152" lon="4.61704">
        <ele>572.2</ele>
        <time>2018-10-14T08:58:59Z</time>
      </trkpt>
      <trkpt lat="45.63153" lon="4.61693">
        <ele>573.1</ele>
        <time>2018-10-14T08:59:04Z</time>
      </trkpt>
      <trkpt lat="45.63154" lon="4.61686">
        <ele>573.6</ele>
        <time>2018-10-14T08:59:07Z</time>
      </trkpt>
      <trkpt lat="45.63155" lon="4.61681">
        <ele>574</ele>
        <time>2018-10-14T08:59:09Z</time>
      </trkpt>
      <trkpt lat="45.63155" lon="4.61671">
        <ele>574.7</ele>
        <time>2018-10-14T08:59:13Z</time>
      </trkpt>
      <trkpt lat="45.63156" lon="4.61663">
        <ele>575.5</ele>
        <time>2018-10-14T08:59:17Z</time>
      </trkpt>
      <trkpt lat="45.63158" lon="4.61663">
        <ele>575.7</ele>
        <time>2018-10-14T08:59:19Z</time>
      </trkpt>
      <trkpt lat="45.63161" lon="4.61664">
        <ele>576</ele>
        <time>2018-10-14T08:59:21Z</time>
      </trkpt>
      <trkpt lat="45.63162" lon="4.61665">
        <ele>576.1</ele>
        <time>2018-10-14T08:59:22Z</time>
      </trkpt>
      <trkpt lat="45.63164" lon="4.61665">
        <ele>576.2</ele>
        <time>2018-10-14T08:59:23Z</time>
      </trkpt>
      <trkpt lat="45.6317" lon="4.61665">
        <ele>576.6</ele>
        <time>2018-10-14T08:59:27Z</time>
      </trkpt>
      <trkpt lat="45.63175" lon="4.61664">
        <ele>576.9</ele>
        <time>2018-10-14T08:59:30Z</time>
      </trkpt>
      <trkpt lat="45.63177" lon="4.61664">
        <ele>577</ele>
        <time>2018-10-14T08:59:31Z</time>
      </trkpt>
      <trkpt lat="45.63185" lon="4.61663">
        <ele>577.6</ele>
        <time>2018-10-14T08:59:36Z</time>
      </trkpt>
      <trkpt lat="45.6319" lon="4.61659">
        <ele>578.1</ele>
        <time>2018-10-14T08:59:40Z</time>
      </trkpt>
      <trkpt lat="45.63193" lon="4.61655">
        <ele>578.8</ele>
        <time>2018-10-14T08:59:44Z</time>
      </trkpt>
      <trkpt lat="45.63197" lon="4.6165">
        <ele>579.4</ele>
        <time>2018-10-14T08:59:48Z</time>
      </trkpt>
      <trkpt lat="45.63208" lon="4.61637">
        <ele>581</ele>
        <time>2018-10-14T08:59:57Z</time>
      </trkpt>
      <trkpt lat="45.63216" lon="4.61622">
        <ele>582.5</ele>
        <time>2018-10-14T09:00:05Z</time>
      </trkpt>
      <trkpt lat="45.63221" lon="4.61613">
        <ele>583.4</ele>
        <time>2018-10-14T09:00:10Z</time>
      </trkpt>
      <trkpt lat="45.63225" lon="4.61606">
        <ele>584.4</ele>
        <time>2018-10-14T09:00:14Z</time>
      </trkpt>
      <trkpt lat="45.63226" lon="4.61604">
        <ele>584.7</ele>
        <time>2018-10-14T09:00:15Z</time>
      </trkpt>
      <trkpt lat="45.63231" lon="4.61595">
        <ele>585.9</ele>
        <time>2018-10-14T09:00:20Z</time>
      </trkpt>
      <trkpt lat="45.63234" lon="4.61591">
        <ele>586.7</ele>
        <time>2018-10-14T09:00:23Z</time>
      </trkpt>
      <trkpt lat="45.63239" lon="4.61578">
        <ele>588.5</ele>
        <time>2018-10-14T09:00:30Z</time>
      </trkpt>
      <trkpt lat="45.63243" lon="4.61574">
        <ele>589.1</ele>
        <time>2018-10-14T09:00:33Z</time>
      </trkpt>
      <trkpt lat="45.63246" lon="4.61569">
        <ele>589.7</ele>
        <time>2018-10-14T09:00:36Z</time>
      </trkpt>
      <trkpt lat="45.63251" lon="4.6156">
        <ele>590.6</ele>
        <time>2018-10-14T09:00:41Z</time>
      </trkpt>
      <trkpt lat="45.63256" lon="4.61554">
        <ele>591.5</ele>
        <time>2018-10-14T09:00:45Z</time>
      </trkpt>
      <trkpt lat="45.63259" lon="4.61551">
        <ele>592.1</ele>
        <time>2018-10-14T09:00:47Z</time>
      </trkpt>
      <trkpt lat="45.63263" lon="4.61545">
        <ele>593</ele>
        <time>2018-10-14T09:00:50Z</time>
      </trkpt>
      <trkpt lat="45.63266" lon="4.61542">
        <ele>593.6</ele>
        <time>2018-10-14T09:00:52Z</time>
      </trkpt>
      <trkpt lat="45.63268" lon="4.61538">
        <ele>594.1</ele>
        <time>2018-10-14T09:00:54Z</time>
      </trkpt>
      <trkpt lat="45.63273" lon="4.61532">
        <ele>595</ele>
        <time>2018-10-14T09:00:58Z</time>
      </trkpt>
      <trkpt lat="45.63273" lon="4.6153">
        <ele>595.2</ele>
        <time>2018-10-14T09:00:59Z</time>
      </trkpt>
      <trkpt lat="45.63275" lon="4.61526">
        <ele>595.5</ele>
        <time>2018-10-14T09:01:01Z</time>
      </trkpt>
      <trkpt lat="45.63279" lon="4.61522">
        <ele>596.1</ele>
        <time>2018-10-14T09:01:04Z</time>
      </trkpt>
      <trkpt lat="45.63281" lon="4.6152">
        <ele>596.3</ele>
        <time>2018-10-14T09:01:05Z</time>
      </trkpt>
      <trkpt lat="45.63283" lon="4.61517">
        <ele>596.8</ele>
        <time>2018-10-14T09:01:07Z</time>
      </trkpt>
      <trkpt lat="45.63287" lon="4.61511">
        <ele>597.5</ele>
        <time>2018-10-14T09:01:10Z</time>
      </trkpt>
      <trkpt lat="45.63294" lon="4.61506">
        <ele>598.3</ele>
        <time>2018-10-14T09:01:14Z</time>
      </trkpt>
      <trkpt lat="45.63308" lon="4.61503">
        <ele>599.3</ele>
        <time>2018-10-14T09:01:23Z</time>
      </trkpt>
      <trkpt lat="45.63324" lon="4.61509">
        <ele>600.9</ele>
        <time>2018-10-14T09:01:32Z</time>
      </trkpt>
      <trkpt lat="45.6333" lon="4.61514">
        <ele>602.1</ele>
        <time>2018-10-14T09:01:36Z</time>
      </trkpt>
      <trkpt lat="45.63339" lon="4.61522">
        <ele>603.7</ele>
        <time>2018-10-14T09:01:41Z</time>
      </trkpt>
      <trkpt lat="45.63354" lon="4.61537">
        <ele>605.7</ele>
        <time>2018-10-14T09:01:51Z</time>
      </trkpt>
      <trkpt lat="45.63355" lon="4.61539">
        <ele>605.8</ele>
        <time>2018-10-14T09:01:52Z</time>
      </trkpt>
      <trkpt lat="45.63361" lon="4.61545">
        <ele>606.4</ele>
        <time>2018-10-14T09:01:56Z</time>
      </trkpt>
      <trkpt lat="45.63368" lon="4.61552">
        <ele>606.8</ele>
        <time>2018-10-14T09:02:01Z</time>
      </trkpt>
      <trkpt lat="45.63371" lon="4.61555">
        <ele>606.8</ele>
        <time>2018-10-14T09:02:03Z</time>
      </trkpt>
      <trkpt lat="45.6338" lon="4.6156">
        <ele>606.7</ele>
        <time>2018-10-14T09:02:09Z</time>
      </trkpt>
      <trkpt lat="45.63382" lon="4.61561">
        <ele>606.7</ele>
        <time>2018-10-14T09:02:10Z</time>
      </trkpt>
      <trkpt lat="45.63386" lon="4.61564">
        <ele>606.5</ele>
        <time>2018-10-14T09:02:51Z</time>
      </trkpt>
      <trkpt lat="45.63392" lon="4.61571">
        <ele>606</ele>
        <time>2018-10-14T09:02:54Z</time>
      </trkpt>
      <trkpt lat="45.63396" lon="4.61574">
        <ele>605.8</ele>
        <time>2018-10-14T09:02:55Z</time>
      </trkpt>
      <trkpt lat="45.634" lon="4.61578">
        <ele>605.5</ele>
        <time>2018-10-14T09:02:56Z</time>
      </trkpt>
      <trkpt lat="45.63404" lon="4.61581">
        <ele>605.1</ele>
        <time>2018-10-14T09:02:57Z</time>
      </trkpt>
      <trkpt lat="45.6341" lon="4.61585">
        <ele>604.6</ele>
        <time>2018-10-14T09:02:58Z</time>
      </trkpt>
      <trkpt lat="45.63416" lon="4.61588">
        <ele>604</ele>
        <time>2018-10-14T09:02:59Z</time>
      </trkpt>
      <trkpt lat="45.63423" lon="4.6159">
        <ele>603.3</ele>
        <time>2018-10-14T09:03:00Z</time>
      </trkpt>
      <trkpt lat="45.63429" lon="4.61592">
        <ele>602.7</ele>
        <time>2018-10-14T09:03:01Z</time>
      </trkpt>
      <trkpt lat="45.63436" lon="4.61593">
        <ele>602.2</ele>
        <time>2018-10-14T09:03:02Z</time>
      </trkpt>
      <trkpt lat="45.63442" lon="4.61594">
        <ele>601.6</ele>
        <time>2018-10-14T09:03:03Z</time>
      </trkpt>
      <trkpt lat="45.63449" lon="4.61594">
        <ele>601.2</ele>
        <time>2018-10-14T09:03:04Z</time>
      </trkpt>
      <trkpt lat="45.63455" lon="4.61594">
        <ele>600.8</ele>
        <time>2018-10-14T09:03:05Z</time>
      </trkpt>
      <trkpt lat="45.63461" lon="4.61591">
        <ele>600.4</ele>
        <time>2018-10-14T09:03:06Z</time>
      </trkpt>
      <trkpt lat="45.63467" lon="4.61588">
        <ele>600</ele>
        <time>2018-10-14T09:03:07Z</time>
      </trkpt>
      <trkpt lat="45.63474" lon="4.61583">
        <ele>599.6</ele>
        <time>2018-10-14T09:03:08Z</time>
      </trkpt>
      <trkpt lat="45.6348" lon="4.61578">
        <ele>599.2</ele>
        <time>2018-10-14T09:03:09Z</time>
      </trkpt>
      <trkpt lat="45.63486" lon="4.61572">
        <ele>598.8</ele>
        <time>2018-10-14T09:03:10Z</time>
      </trkpt>
      <trkpt lat="45.63492" lon="4.61565">
        <ele>598.3</ele>
        <time>2018-10-14T09:03:11Z</time>
      </trkpt>
      <trkpt lat="45.63498" lon="4.61557">
        <ele>597.5</ele>
        <time>2018-10-14T09:03:12Z</time>
      </trkpt>
      <trkpt lat="45.63508" lon="4.61541">
        <ele>596.3</ele>
        <time>2018-10-14T09:03:14Z</time>
      </trkpt>
      <trkpt lat="45.63517" lon="4.61522">
        <ele>594.9</ele>
        <time>2018-10-14T09:03:16Z</time>
      </trkpt>
      <trkpt lat="45.63526" lon="4.615">
        <ele>593.8</ele>
        <time>2018-10-14T09:03:18Z</time>
      </trkpt>
      <trkpt lat="45.6353" lon="4.61489">
        <ele>593.4</ele>
        <time>2018-10-14T09:03:19Z</time>
      </trkpt>
      <trkpt lat="45.63533" lon="4.61479">
        <ele>593.4</ele>
        <time>2018-10-14T09:03:20Z</time>
      </trkpt>
      <trkpt lat="45.63539" lon="4.61463">
        <ele>593.7</ele>
        <time>2018-10-14T09:03:22Z</time>
      </trkpt>
      <trkpt lat="45.63542" lon="4.61459">
        <ele>593.9</ele>
        <time>2018-10-14T09:03:23Z</time>
      </trkpt>
      <trkpt lat="45.63558" lon="4.6145">
        <ele>595.1</ele>
        <time>2018-10-14T09:03:26Z</time>
      </trkpt>
      <trkpt lat="45.63566" lon="4.6145">
        <ele>595.7</ele>
        <time>2018-10-14T09:03:27Z</time>
      </trkpt>
      <trkpt lat="45.6358" lon="4.61452">
        <ele>597</ele>
        <time>2018-10-14T09:03:29Z</time>
      </trkpt>
      <trkpt lat="45.63598" lon="4.61458">
        <ele>599</ele>
        <time>2018-10-14T09:03:32Z</time>
      </trkpt>
      <trkpt lat="45.63603" lon="4.6146">
        <ele>599.3</ele>
        <time>2018-10-14T09:03:33Z</time>
      </trkpt>
      <trkpt lat="45.63616" lon="4.61472">
        <ele>600.2</ele>
        <time>2018-10-14T09:03:37Z</time>
      </trkpt>
      <trkpt lat="45.63619" lon="4.61475">
        <ele>600.3</ele>
        <time>2018-10-14T09:03:38Z</time>
      </trkpt>
      <trkpt lat="45.63624" lon="4.61486">
        <ele>600.6</ele>
        <time>2018-10-14T09:03:41Z</time>
      </trkpt>
      <trkpt lat="45.63626" lon="4.61489">
        <ele>600.7</ele>
        <time>2018-10-14T09:03:42Z</time>
      </trkpt>
      <trkpt lat="45.63633" lon="4.61501">
        <ele>601.1</ele>
        <time>2018-10-14T09:03:45Z</time>
      </trkpt>
      <trkpt lat="45.6364" lon="4.61507">
        <ele>601.4</ele>
        <time>2018-10-14T09:03:47Z</time>
      </trkpt>
      <trkpt lat="45.63652" lon="4.61504">
        <ele>602.1</ele>
        <time>2018-10-14T09:03:50Z</time>
      </trkpt>
      <trkpt lat="45.63656" lon="4.61501">
        <ele>602.4</ele>
        <time>2018-10-14T09:03:51Z</time>
      </trkpt>
      <trkpt lat="45.63674" lon="4.61492">
        <ele>603.7</ele>
        <time>2018-10-14T09:03:55Z</time>
      </trkpt>
      <trkpt lat="45.63682" lon="4.61488">
        <ele>604.4</ele>
        <time>2018-10-14T09:03:57Z</time>
      </trkpt>
      <trkpt lat="45.63698" lon="4.6148">
        <ele>606.4</ele>
        <time>2018-10-14T09:04:01Z</time>
      </trkpt>
      <trkpt lat="45.63714" lon="4.61474">
        <ele>608.3</ele>
        <time>2018-10-14T09:04:05Z</time>
      </trkpt>
      <trkpt lat="45.63717" lon="4.61472">
        <ele>608.3</ele>
        <time>2018-10-14T09:04:06Z</time>
      </trkpt>
      <trkpt lat="45.63731" lon="4.6147">
        <ele>608.1</ele>
        <time>2018-10-14T09:04:10Z</time>
      </trkpt>
      <trkpt lat="45.63742" lon="4.61472">
        <ele>608.1</ele>
        <time>2018-10-14T09:04:13Z</time>
      </trkpt>
      <trkpt lat="45.63746" lon="4.61475">
        <ele>608.2</ele>
        <time>2018-10-14T09:04:14Z</time>
      </trkpt>
      <trkpt lat="45.63749" lon="4.61478">
        <ele>608.3</ele>
        <time>2018-10-14T09:04:15Z</time>
      </trkpt>
      <trkpt lat="45.63752" lon="4.61481">
        <ele>608.4</ele>
        <time>2018-10-14T09:04:16Z</time>
      </trkpt>
      <trkpt lat="45.63757" lon="4.6149">
        <ele>608.6</ele>
        <time>2018-10-14T09:04:18Z</time>
      </trkpt>
      <trkpt lat="45.63759" lon="4.61494">
        <ele>608.7</ele>
        <time>2018-10-14T09:04:19Z</time>
      </trkpt>
      <trkpt lat="45.63761" lon="4.61498">
        <ele>608.8</ele>
        <time>2018-10-14T09:04:20Z</time>
      </trkpt>
      <trkpt lat="45.63764" lon="4.61504">
        <ele>609</ele>
        <time>2018-10-14T09:04:22Z</time>
      </trkpt>
      <trkpt lat="45.63769" lon="4.61514">
        <ele>609.3</ele>
        <time>2018-10-14T09:04:26Z</time>
      </trkpt>
      <trkpt lat="45.63769" lon="4.61516">
        <ele>609.4</ele>
        <time>2018-10-14T09:04:27Z</time>
      </trkpt>
      <trkpt lat="45.63771" lon="4.61529">
        <ele>609.8</ele>
        <time>2018-10-14T09:04:33Z</time>
      </trkpt>
      <trkpt lat="45.63772" lon="4.61533">
        <ele>609.9</ele>
        <time>2018-10-14T09:04:35Z</time>
      </trkpt>
      <trkpt lat="45.63775" lon="4.61546">
        <ele>610.5</ele>
        <time>2018-10-14T09:04:41Z</time>
      </trkpt>
      <trkpt lat="45.63776" lon="4.61553">
        <ele>610.8</ele>
        <time>2018-10-14T09:04:44Z</time>
      </trkpt>
      <trkpt lat="45.63781" lon="4.6157">
        <ele>611.7</ele>
        <time>2018-10-14T09:04:52Z</time>
      </trkpt>
      <trkpt lat="45.63782" lon="4.61572">
        <ele>611.8</ele>
        <time>2018-10-14T09:04:53Z</time>
      </trkpt>
      <trkpt lat="45.63783" lon="4.61574">
        <ele>611.9</ele>
        <time>2018-10-14T09:04:54Z</time>
      </trkpt>
      <trkpt lat="45.63786" lon="4.61578">
        <ele>612.2</ele>
        <time>2018-10-14T09:04:57Z</time>
      </trkpt>
      <trkpt lat="45.63789" lon="4.61586">
        <ele>612.6</ele>
        <time>2018-10-14T09:05:01Z</time>
      </trkpt>
      <trkpt lat="45.6379" lon="4.61588">
        <ele>612.7</ele>
        <time>2018-10-14T09:05:02Z</time>
      </trkpt>
      <trkpt lat="45.63792" lon="4.61592">
        <ele>613.5</ele>
        <time>2018-10-14T09:05:04Z</time>
      </trkpt>
      <trkpt lat="45.63794" lon="4.61597">
        <ele>613.7</ele>
        <time>2018-10-14T09:05:07Z</time>
      </trkpt>
      <trkpt lat="45.63796" lon="4.616">
        <ele>613.7</ele>
        <time>2018-10-14T09:05:09Z</time>
      </trkpt>
      <trkpt lat="45.63798" lon="4.61598">
        <ele>613.8</ele>
        <time>2018-10-14T09:05:12Z</time>
      </trkpt>
      <trkpt lat="45.638" lon="4.61595">
        <ele>613.8</ele>
        <time>2018-10-14T09:05:15Z</time>
      </trkpt>
      <trkpt lat="45.63801" lon="4.61592">
        <ele>613.9</ele>
        <time>2018-10-14T09:05:18Z</time>
      </trkpt>
      <trkpt lat="45.63805" lon="4.61585">
        <ele>615.2</ele>
        <time>2018-10-14T09:05:24Z</time>
      </trkpt>
      <trkpt lat="45.63809" lon="4.61578">
        <ele>616.1</ele>
        <time>2018-10-14T09:05:28Z</time>
      </trkpt>
      <trkpt lat="45.63812" lon="4.61573">
        <ele>616.7</ele>
        <time>2018-10-14T09:05:31Z</time>
      </trkpt>
      <trkpt lat="45.63813" lon="4.61572">
        <ele>616.9</ele>
        <time>2018-10-14T09:05:32Z</time>
      </trkpt>
      <trkpt lat="45.63818" lon="4.61567">
        <ele>617.6</ele>
        <time>2018-10-14T09:05:35Z</time>
      </trkpt>
      <trkpt lat="45.6382" lon="4.61563">
        <ele>618</ele>
        <time>2018-10-14T09:05:37Z</time>
      </trkpt>
      <trkpt lat="45.63822" lon="4.6156">
        <ele>618.5</ele>
        <time>2018-10-14T09:05:39Z</time>
      </trkpt>
      <trkpt lat="45.63823" lon="4.61558">
        <ele>618.8</ele>
        <time>2018-10-14T09:05:40Z</time>
      </trkpt>
      <trkpt lat="45.63829" lon="4.61553">
        <ele>619.8</ele>
        <time>2018-10-14T09:05:44Z</time>
      </trkpt>
      <trkpt lat="45.63833" lon="4.61549">
        <ele>620.5</ele>
        <time>2018-10-14T09:05:47Z</time>
      </trkpt>
      <trkpt lat="45.63835" lon="4.61545">
        <ele>621</ele>
        <time>2018-10-14T09:05:49Z</time>
      </trkpt>
      <trkpt lat="45.63837" lon="4.61543">
        <ele>621.3</ele>
        <time>2018-10-14T09:05:50Z</time>
      </trkpt>
      <trkpt lat="45.63841" lon="4.61536">
        <ele>622.3</ele>
        <time>2018-10-14T09:05:54Z</time>
      </trkpt>
      <trkpt lat="45.63845" lon="4.61531">
        <ele>622.9</ele>
        <time>2018-10-14T09:05:57Z</time>
      </trkpt>
      <trkpt lat="45.63846" lon="4.6153">
        <ele>623.1</ele>
        <time>2018-10-14T09:05:58Z</time>
      </trkpt>
      <trkpt lat="45.63851" lon="4.61525">
        <ele>624</ele>
        <time>2018-10-14T09:06:28Z</time>
      </trkpt>
      <trkpt lat="45.63855" lon="4.61522">
        <ele>624.2</ele>
        <time>2018-10-14T09:06:30Z</time>
      </trkpt>
      <trkpt lat="45.63862" lon="4.61513">
        <ele>624.5</ele>
        <time>2018-10-14T09:06:34Z</time>
      </trkpt>
      <trkpt lat="45.63867" lon="4.61506">
        <ele>624.8</ele>
        <time>2018-10-14T09:06:37Z</time>
      </trkpt>
      <trkpt lat="45.63875" lon="4.61499">
        <ele>625.2</ele>
        <time>2018-10-14T09:06:41Z</time>
      </trkpt>
      <trkpt lat="45.63879" lon="4.61495">
        <ele>625.4</ele>
        <time>2018-10-14T09:06:44Z</time>
      </trkpt>
      <trkpt lat="45.63882" lon="4.61494">
        <ele>625.5</ele>
        <time>2018-10-14T09:06:46Z</time>
      </trkpt>
      <trkpt lat="45.63886" lon="4.61491">
        <ele>625.5</ele>
        <time>2018-10-14T09:06:51Z</time>
      </trkpt>
      <trkpt lat="45.63897" lon="4.61488">
        <ele>625.5</ele>
        <time>2018-10-14T09:06:57Z</time>
      </trkpt>
      <trkpt lat="45.63911" lon="4.61483">
        <ele>625.5</ele>
        <time>2018-10-14T09:07:02Z</time>
      </trkpt>
      <trkpt lat="45.63935" lon="4.61474">
        <ele>625</ele>
        <time>2018-10-14T09:07:09Z</time>
      </trkpt>
      <trkpt lat="45.63937" lon="4.61474">
        <ele>625</ele>
        <time>2018-10-14T09:07:10Z</time>
      </trkpt>
      <trkpt lat="45.63943" lon="4.61471">
        <ele>624.7</ele>
        <time>2018-10-14T09:07:14Z</time>
      </trkpt>
      <trkpt lat="45.6395" lon="4.6146">
        <ele>624</ele>
        <time>2018-10-14T09:07:17Z</time>
      </trkpt>
      <trkpt lat="45.63952" lon="4.61453">
        <ele>623.6</ele>
        <time>2018-10-14T09:07:18Z</time>
      </trkpt>
      <trkpt lat="45.63961" lon="4.61433">
        <ele>621.9</ele>
        <time>2018-10-14T09:07:21Z</time>
      </trkpt>
      <trkpt lat="45.63964" lon="4.61427">
        <ele>621.2</ele>
        <time>2018-10-14T09:07:22Z</time>
      </trkpt>
      <trkpt lat="45.6397" lon="4.61413">
        <ele>619.8</ele>
        <time>2018-10-14T09:07:24Z</time>
      </trkpt>
      <trkpt lat="45.63973" lon="4.61407">
        <ele>619</ele>
        <time>2018-10-14T09:07:25Z</time>
      </trkpt>
      <trkpt lat="45.63977" lon="4.61402">
        <ele>618.3</ele>
        <time>2018-10-14T09:07:26Z</time>
      </trkpt>
      <trkpt lat="45.63981" lon="4.61398">
        <ele>617.5</ele>
        <time>2018-10-14T09:07:27Z</time>
      </trkpt>
      <trkpt lat="45.63986" lon="4.61393">
        <ele>616.7</ele>
        <time>2018-10-14T09:07:28Z</time>
      </trkpt>
      <trkpt lat="45.6399" lon="4.6139">
        <ele>615.8</ele>
        <time>2018-10-14T09:07:29Z</time>
      </trkpt>
      <trkpt lat="45.63994" lon="4.61387">
        <ele>615.1</ele>
        <time>2018-10-14T09:07:30Z</time>
      </trkpt>
      <trkpt lat="45.64003" lon="4.61382">
        <ele>613.6</ele>
        <time>2018-10-14T09:07:32Z</time>
      </trkpt>
      <trkpt lat="45.64008" lon="4.61379">
        <ele>612.9</ele>
        <time>2018-10-14T09:07:33Z</time>
      </trkpt>
      <trkpt lat="45.64013" lon="4.61377">
        <ele>611.9</ele>
        <time>2018-10-14T09:07:34Z</time>
      </trkpt>
      <trkpt lat="45.64018" lon="4.61373">
        <ele>611</ele>
        <time>2018-10-14T09:07:35Z</time>
      </trkpt>
      <trkpt lat="45.64022" lon="4.61371">
        <ele>610.2</ele>
        <time>2018-10-14T09:07:36Z</time>
      </trkpt>
      <trkpt lat="45.64025" lon="4.61369">
        <ele>609.5</ele>
        <time>2018-10-14T09:07:37Z</time>
      </trkpt>
      <trkpt lat="45.64029" lon="4.61367">
        <ele>608.6</ele>
        <time>2018-10-14T09:07:38Z</time>
      </trkpt>
      <trkpt lat="45.64034" lon="4.61364">
        <ele>607.8</ele>
        <time>2018-10-14T09:07:39Z</time>
      </trkpt>
      <trkpt lat="45.64039" lon="4.61361">
        <ele>607</ele>
        <time>2018-10-14T09:07:40Z</time>
      </trkpt>
      <trkpt lat="45.64043" lon="4.61359">
        <ele>606.3</ele>
        <time>2018-10-14T09:07:41Z</time>
      </trkpt>
      <trkpt lat="45.64047" lon="4.61357">
        <ele>605.5</ele>
        <time>2018-10-14T09:07:42Z</time>
      </trkpt>
      <trkpt lat="45.64057" lon="4.61352">
        <ele>603.3</ele>
        <time>2018-10-14T09:07:44Z</time>
      </trkpt>
      <trkpt lat="45.64063" lon="4.61351">
        <ele>602.3</ele>
        <time>2018-10-14T09:07:45Z</time>
      </trkpt>
      <trkpt lat="45.64069" lon="4.61351">
        <ele>601.3</ele>
        <time>2018-10-14T09:07:46Z</time>
      </trkpt>
      <trkpt lat="45.64079" lon="4.61352">
        <ele>599.8</ele>
        <time>2018-10-14T09:07:48Z</time>
      </trkpt>
      <trkpt lat="45.64083" lon="4.61352">
        <ele>599.1</ele>
        <time>2018-10-14T09:07:49Z</time>
      </trkpt>
      <trkpt lat="45.64088" lon="4.61353">
        <ele>598.3</ele>
        <time>2018-10-14T09:07:50Z</time>
      </trkpt>
      <trkpt lat="45.64101" lon="4.61354">
        <ele>596.6</ele>
        <time>2018-10-14T09:07:52Z</time>
      </trkpt>
      <trkpt lat="45.64108" lon="4.61355">
        <ele>595.7</ele>
        <time>2018-10-14T09:07:53Z</time>
      </trkpt>
      <trkpt lat="45.64114" lon="4.61356">
        <ele>594.9</ele>
        <time>2018-10-14T09:07:54Z</time>
      </trkpt>
      <trkpt lat="45.64124" lon="4.61357">
        <ele>593.8</ele>
        <time>2018-10-14T09:07:56Z</time>
      </trkpt>
      <trkpt lat="45.64129" lon="4.61357">
        <ele>593.3</ele>
        <time>2018-10-14T09:07:57Z</time>
      </trkpt>
      <trkpt lat="45.64134" lon="4.61357">
        <ele>592.8</ele>
        <time>2018-10-14T09:07:58Z</time>
      </trkpt>
      <trkpt lat="45.64146" lon="4.61356">
        <ele>591.7</ele>
        <time>2018-10-14T09:08:00Z</time>
      </trkpt>
      <trkpt lat="45.64151" lon="4.61355">
        <ele>591.1</ele>
        <time>2018-10-14T09:08:01Z</time>
      </trkpt>
      <trkpt lat="45.64156" lon="4.61354">
        <ele>590.7</ele>
        <time>2018-10-14T09:08:02Z</time>
      </trkpt>
      <trkpt lat="45.6416" lon="4.61353">
        <ele>590.3</ele>
        <time>2018-10-14T09:08:03Z</time>
      </trkpt>
      <trkpt lat="45.64164" lon="4.61353">
        <ele>589.9</ele>
        <time>2018-10-14T09:08:04Z</time>
      </trkpt>
      <trkpt lat="45.64176" lon="4.61355">
        <ele>588.9</ele>
        <time>2018-10-14T09:08:06Z</time>
      </trkpt>
      <trkpt lat="45.64183" lon="4.61357">
        <ele>588.3</ele>
        <time>2018-10-14T09:08:07Z</time>
      </trkpt>
      <trkpt lat="45.6419" lon="4.61358">
        <ele>587.6</ele>
        <time>2018-10-14T09:08:08Z</time>
      </trkpt>
      <trkpt lat="45.64203" lon="4.61359">
        <ele>586.3</ele>
        <time>2018-10-14T09:08:10Z</time>
      </trkpt>
      <trkpt lat="45.64209" lon="4.6136">
        <ele>585.6</ele>
        <time>2018-10-14T09:08:11Z</time>
      </trkpt>
      <trkpt lat="45.64215" lon="4.6136">
        <ele>584.8</ele>
        <time>2018-10-14T09:08:12Z</time>
      </trkpt>
      <trkpt lat="45.64226" lon="4.6136">
        <ele>583.5</ele>
        <time>2018-10-14T09:08:14Z</time>
      </trkpt>
      <trkpt lat="45.64232" lon="4.61361">
        <ele>582.9</ele>
        <time>2018-10-14T09:08:15Z</time>
      </trkpt>
      <trkpt lat="45.64238" lon="4.61361">
        <ele>582.3</ele>
        <time>2018-10-14T09:08:16Z</time>
      </trkpt>
      <trkpt lat="45.64245" lon="4.61361">
        <ele>581.9</ele>
        <time>2018-10-14T09:08:18Z</time>
      </trkpt>
      <trkpt lat="45.64248" lon="4.61362">
        <ele>582.2</ele>
        <time>2018-10-14T09:08:19Z</time>
      </trkpt>
      <trkpt lat="45.6425" lon="4.61362">
        <ele>582.5</ele>
        <time>2018-10-14T09:08:20Z</time>
      </trkpt>
      <trkpt lat="45.64251" lon="4.61363">
        <ele>582.7</ele>
        <time>2018-10-14T09:08:21Z</time>
      </trkpt>
      <trkpt lat="45.64253" lon="4.61365">
        <ele>583</ele>
        <time>2018-10-14T09:08:23Z</time>
      </trkpt>
      <trkpt lat="45.64254" lon="4.61376">
        <ele>584.3</ele>
        <time>2018-10-14T09:08:44Z</time>
      </trkpt>
      <trkpt lat="45.64254" lon="4.6138">
        <ele>584.8</ele>
        <time>2018-10-14T09:08:46Z</time>
      </trkpt>
      <trkpt lat="45.64255" lon="4.61385">
        <ele>585.4</ele>
        <time>2018-10-14T09:08:49Z</time>
      </trkpt>
      <trkpt lat="45.64258" lon="4.61391">
        <ele>586.2</ele>
        <time>2018-10-14T09:08:52Z</time>
      </trkpt>
      <trkpt lat="45.64259" lon="4.61394">
        <ele>586.5</ele>
        <time>2018-10-14T09:08:53Z</time>
      </trkpt>
      <trkpt lat="45.64262" lon="4.614">
        <ele>587.4</ele>
        <time>2018-10-14T09:08:56Z</time>
      </trkpt>
      <trkpt lat="45.64263" lon="4.61402">
        <ele>587.6</ele>
        <time>2018-10-14T09:08:57Z</time>
      </trkpt>
      <trkpt lat="45.64264" lon="4.61405">
        <ele>588.1</ele>
        <time>2018-10-14T09:08:59Z</time>
      </trkpt>
      <trkpt lat="45.64268" lon="4.61414">
        <ele>589.4</ele>
        <time>2018-10-14T09:09:04Z</time>
      </trkpt>
      <trkpt lat="45.64269" lon="4.61415">
        <ele>589.6</ele>
        <time>2018-10-14T09:09:05Z</time>
      </trkpt>
      <trkpt lat="45.64271" lon="4.61421">
        <ele>590.3</ele>
        <time>2018-10-14T09:09:08Z</time>
      </trkpt>
      <trkpt lat="45.64364" lon="4.61613">
        <ele>623.9</ele>
        <time>2018-10-14T09:11:37Z</time>
      </trkpt>
      <trkpt lat="45.64367" lon="4.61617">
        <ele>624.4</ele>
        <time>2018-10-14T09:11:39Z</time>
      </trkpt>
      <trkpt lat="45.6437" lon="4.61621">
        <ele>624.9</ele>
        <time>2018-10-14T09:11:41Z</time>
      </trkpt>
      <trkpt lat="45.64372" lon="4.61622">
        <ele>625.2</ele>
        <time>2018-10-14T09:11:42Z</time>
      </trkpt>
      <trkpt lat="45.64375" lon="4.61629">
        <ele>626</ele>
        <time>2018-10-14T09:11:47Z</time>
      </trkpt>
      <trkpt lat="45.64376" lon="4.6163">
        <ele>626.1</ele>
        <time>2018-10-14T09:11:48Z</time>
      </trkpt>
      <trkpt lat="45.64377" lon="4.61632">
        <ele>626.3</ele>
        <time>2018-10-14T09:11:49Z</time>
      </trkpt>
      <trkpt lat="45.64394" lon="4.61657">
        <ele>628.6</ele>
        <time>2018-10-14T09:12:05Z</time>
      </trkpt>
      <trkpt lat="45.64398" lon="4.61662">
        <ele>629.1</ele>
        <time>2018-10-14T09:12:08Z</time>
      </trkpt>
      <trkpt lat="45.64403" lon="4.61675">
        <ele>629.6</ele>
        <time>2018-10-14T09:12:14Z</time>
      </trkpt>
      <trkpt lat="45.64406" lon="4.61682">
        <ele>629.8</ele>
        <time>2018-10-14T09:12:17Z</time>
      </trkpt>
      <trkpt lat="45.64408" lon="4.61685">
        <ele>629.9</ele>
        <time>2018-10-14T09:12:19Z</time>
      </trkpt>
      <trkpt lat="45.64418" lon="4.61697">
        <ele>630.5</ele>
        <time>2018-10-14T09:14:57Z</time>
      </trkpt>
      <trkpt lat="45.64431" lon="4.61709">
        <ele>631.4</ele>
        <time>2018-10-14T09:15:04Z</time>
      </trkpt>
      <trkpt lat="45.64435" lon="4.61713">
        <ele>631.7</ele>
        <time>2018-10-14T09:15:06Z</time>
      </trkpt>
      <trkpt lat="45.64441" lon="4.61717">
        <ele>632.2</ele>
        <time>2018-10-14T09:15:09Z</time>
      </trkpt>
      <trkpt lat="45.64443" lon="4.61718">
        <ele>632.3</ele>
        <time>2018-10-14T09:15:10Z</time>
      </trkpt>
      <trkpt lat="45.64448" lon="4.6172">
        <ele>632.7</ele>
        <time>2018-10-14T09:15:12Z</time>
      </trkpt>
      <trkpt lat="45.64458" lon="4.61724">
        <ele>633.8</ele>
        <time>2018-10-14T09:15:16Z</time>
      </trkpt>
      <trkpt lat="45.6446" lon="4.61725">
        <ele>634</ele>
        <time>2018-10-14T09:15:17Z</time>
      </trkpt>
      <trkpt lat="45.64474" lon="4.61735">
        <ele>635.5</ele>
        <time>2018-10-14T09:15:23Z</time>
      </trkpt>
      <trkpt lat="45.64476" lon="4.61737">
        <ele>635.6</ele>
        <time>2018-10-14T09:15:24Z</time>
      </trkpt>
      <trkpt lat="45.64481" lon="4.61743">
        <ele>636</ele>
        <time>2018-10-14T09:15:26Z</time>
      </trkpt>
      <trkpt lat="45.6449" lon="4.61752">
        <ele>636.7</ele>
        <time>2018-10-14T09:15:30Z</time>
      </trkpt>
      <trkpt lat="45.64491" lon="4.61755">
        <ele>636.9</ele>
        <time>2018-10-14T09:15:31Z</time>
      </trkpt>
      <trkpt lat="45.64504" lon="4.6177">
        <ele>637.9</ele>
        <time>2018-10-14T09:15:38Z</time>
      </trkpt>
      <trkpt lat="45.64512" lon="4.61788">
        <ele>639</ele>
        <time>2018-10-14T09:15:45Z</time>
      </trkpt>
      <trkpt lat="45.64513" lon="4.61796">
        <ele>639.5</ele>
        <time>2018-10-14T09:15:48Z</time>
      </trkpt>
      <trkpt lat="45.64511" lon="4.61803">
        <ele>639.9</ele>
        <time>2018-10-14T09:15:51Z</time>
      </trkpt>
      <trkpt lat="45.6451" lon="4.61805">
        <ele>640</ele>
        <time>2018-10-14T09:15:52Z</time>
      </trkpt>
      <trkpt lat="45.64506" lon="4.6181">
        <ele>640.5</ele>
        <time>2018-10-14T09:15:55Z</time>
      </trkpt>
      <trkpt lat="45.64504" lon="4.61814">
        <ele>640.8</ele>
        <time>2018-10-14T09:15:57Z</time>
      </trkpt>
      <trkpt lat="45.64496" lon="4.61825">
        <ele>641.9</ele>
        <time>2018-10-14T09:16:04Z</time>
      </trkpt>
      <trkpt lat="45.64481" lon="4.61828">
        <ele>642.8</ele>
        <time>2018-10-14T09:16:12Z</time>
      </trkpt>
      <trkpt lat="45.64467" lon="4.61827">
        <ele>643.3</ele>
        <time>2018-10-14T09:16:20Z</time>
      </trkpt>
      <trkpt lat="45.64465" lon="4.61827">
        <ele>643.3</ele>
        <time>2018-10-14T09:16:21Z</time>
      </trkpt>
      <trkpt lat="45.64453" lon="4.61831">
        <ele>643.5</ele>
        <time>2018-10-14T09:16:27Z</time>
      </trkpt>
      <trkpt lat="45.64441" lon="4.61846">
        <ele>643.8</ele>
        <time>2018-10-14T09:16:33Z</time>
      </trkpt>
      <trkpt lat="45.64426" lon="4.61872">
        <ele>644.3</ele>
        <time>2018-10-14T09:16:39Z</time>
      </trkpt>
      <trkpt lat="45.64416" lon="4.61902">
        <ele>644.9</ele>
        <time>2018-10-14T09:16:45Z</time>
      </trkpt>
      <trkpt lat="45.64416" lon="4.61935">
        <ele>646</ele>
        <time>2018-10-14T09:16:51Z</time>
      </trkpt>
      <trkpt lat="45.64419" lon="4.6195">
        <ele>646.7</ele>
        <time>2018-10-14T09:16:54Z</time>
      </trkpt>
      <trkpt lat="45.64422" lon="4.61964">
        <ele>647.4</ele>
        <time>2018-10-14T09:16:57Z</time>
      </trkpt>
      <trkpt lat="45.64423" lon="4.61968">
        <ele>647.7</ele>
        <time>2018-10-14T09:16:58Z</time>
      </trkpt>
      <trkpt lat="45.64431" lon="4.61992">
        <ele>649.6</ele>
        <time>2018-10-14T09:17:04Z</time>
      </trkpt>
      <trkpt lat="45.64433" lon="4.62">
        <ele>650.1</ele>
        <time>2018-10-14T09:17:06Z</time>
      </trkpt>
      <trkpt lat="45.64434" lon="4.62004">
        <ele>650.3</ele>
        <time>2018-10-14T09:17:07Z</time>
      </trkpt>
      <trkpt lat="45.64441" lon="4.62028">
        <ele>651.6</ele>
        <time>2018-10-14T09:17:13Z</time>
      </trkpt>
      <trkpt lat="45.64444" lon="4.62036">
        <ele>651.9</ele>
        <time>2018-10-14T09:17:15Z</time>
      </trkpt>
      <trkpt lat="45.64447" lon="4.62048">
        <ele>652.6</ele>
        <time>2018-10-14T09:17:18Z</time>
      </trkpt>
      <trkpt lat="45.64454" lon="4.62073">
        <ele>653.9</ele>
        <time>2018-10-14T09:17:24Z</time>
      </trkpt>
      <trkpt lat="45.64458" lon="4.62094">
        <ele>654.7</ele>
        <time>2018-10-14T09:17:29Z</time>
      </trkpt>
      <trkpt lat="45.6446" lon="4.62107">
        <ele>655.1</ele>
        <time>2018-10-14T09:17:32Z</time>
      </trkpt>
      <trkpt lat="45.64461" lon="4.62116">
        <ele>655.4</ele>
        <time>2018-10-14T09:17:34Z</time>
      </trkpt>
      <trkpt lat="45.64462" lon="4.62132">
        <ele>655.9</ele>
        <time>2018-10-14T09:17:38Z</time>
      </trkpt>
      <trkpt lat="45.64462" lon="4.62136">
        <ele>656</ele>
        <time>2018-10-14T09:17:39Z</time>
      </trkpt>
      <trkpt lat="45.64464" lon="4.62167">
        <ele>656.9</ele>
        <time>2018-10-14T09:17:46Z</time>
      </trkpt>
      <trkpt lat="45.64466" lon="4.62188">
        <ele>657.3</ele>
        <time>2018-10-14T09:17:51Z</time>
      </trkpt>
      <trkpt lat="45.64468" lon="4.62204">
        <ele>657.4</ele>
        <time>2018-10-14T09:17:55Z</time>
      </trkpt>
      <trkpt lat="45.64469" lon="4.62211">
        <ele>657.5</ele>
        <time>2018-10-14T09:17:58Z</time>
      </trkpt>
      <trkpt lat="45.64469" lon="4.62214">
        <ele>657.5</ele>
        <time>2018-10-14T09:18:00Z</time>
      </trkpt>
      <trkpt lat="45.64469" lon="4.62217">
        <ele>657.5</ele>
        <time>2018-10-14T09:18:33Z</time>
      </trkpt>
      <trkpt lat="45.64468" lon="4.6222">
        <ele>657.5</ele>
        <time>2018-10-14T09:18:34Z</time>
      </trkpt>
      <trkpt lat="45.64466" lon="4.62246">
        <ele>657.2</ele>
        <time>2018-10-14T09:18:39Z</time>
      </trkpt>
      <trkpt lat="45.64465" lon="4.62257">
        <ele>656.9</ele>
        <time>2018-10-14T09:18:41Z</time>
      </trkpt>
      <trkpt lat="45.64463" lon="4.62269">
        <ele>656.7</ele>
        <time>2018-10-14T09:18:43Z</time>
      </trkpt>
      <trkpt lat="45.64463" lon="4.62274">
        <ele>656.5</ele>
        <time>2018-10-14T09:18:44Z</time>
      </trkpt>
      <trkpt lat="45.64462" lon="4.6228">
        <ele>656.3</ele>
        <time>2018-10-14T09:18:45Z</time>
      </trkpt>
      <trkpt lat="45.64461" lon="4.62285">
        <ele>656</ele>
        <time>2018-10-14T09:18:46Z</time>
      </trkpt>
      <trkpt lat="45.6446" lon="4.62289">
        <ele>655.8</ele>
        <time>2018-10-14T09:18:47Z</time>
      </trkpt>
      <trkpt lat="45.64459" lon="4.62297">
        <ele>655.4</ele>
        <time>2018-10-14T09:18:49Z</time>
      </trkpt>
      <trkpt lat="45.64457" lon="4.62309">
        <ele>654.8</ele>
        <time>2018-10-14T09:18:51Z</time>
      </trkpt>
      <trkpt lat="45.64455" lon="4.62325">
        <ele>653.6</ele>
        <time>2018-10-14T09:18:53Z</time>
      </trkpt>
      <trkpt lat="45.64454" lon="4.62343">
        <ele>651.9</ele>
        <time>2018-10-14T09:18:55Z</time>
      </trkpt>
      <trkpt lat="45.64454" lon="4.62362">
        <ele>650.2</ele>
        <time>2018-10-14T09:18:57Z</time>
      </trkpt>
      <trkpt lat="45.64455" lon="4.6238">
        <ele>648.4</ele>
        <time>2018-10-14T09:18:59Z</time>
      </trkpt>
      <trkpt lat="45.64457" lon="4.62398">
        <ele>646.4</ele>
        <time>2018-10-14T09:19:01Z</time>
      </trkpt>
      <trkpt lat="45.64458" lon="4.62409">
        <ele>645.5</ele>
        <time>2018-10-14T09:19:02Z</time>
      </trkpt>
      <trkpt lat="45.64459" lon="4.6242">
        <ele>644.7</ele>
        <time>2018-10-14T09:19:03Z</time>
      </trkpt>
      <trkpt lat="45.6446" lon="4.62431">
        <ele>644.1</ele>
        <time>2018-10-14T09:19:04Z</time>
      </trkpt>
      <trkpt lat="45.64463" lon="4.6244">
        <ele>643.6</ele>
        <time>2018-10-14T09:19:05Z</time>
      </trkpt>
      <trkpt lat="45.64465" lon="4.62448">
        <ele>643.1</ele>
        <time>2018-10-14T09:19:06Z</time>
      </trkpt>
      <trkpt lat="45.64468" lon="4.62454">
        <ele>642.8</ele>
        <time>2018-10-14T09:19:07Z</time>
      </trkpt>
      <trkpt lat="45.6447" lon="4.62465">
        <ele>642.1</ele>
        <time>2018-10-14T09:19:09Z</time>
      </trkpt>
      <trkpt lat="45.64466" lon="4.62476">
        <ele>639.7</ele>
        <time>2018-10-14T09:19:11Z</time>
      </trkpt>
      <trkpt lat="45.64461" lon="4.62481">
        <ele>638.8</ele>
        <time>2018-10-14T09:19:12Z</time>
      </trkpt>
      <trkpt lat="45.64455" lon="4.62486">
        <ele>637.9</ele>
        <time>2018-10-14T09:19:13Z</time>
      </trkpt>
      <trkpt lat="45.64443" lon="4.6249">
        <ele>636.3</ele>
        <time>2018-10-14T09:19:15Z</time>
      </trkpt>
      <trkpt lat="45.64436" lon="4.62491">
        <ele>635.5</ele>
        <time>2018-10-14T09:19:16Z</time>
      </trkpt>
      <trkpt lat="45.64429" lon="4.62491">
        <ele>634.6</ele>
        <time>2018-10-14T09:19:17Z</time>
      </trkpt>
      <trkpt lat="45.64414" lon="4.62494">
        <ele>632.7</ele>
        <time>2018-10-14T09:19:19Z</time>
      </trkpt>
      <trkpt lat="45.64403" lon="4.62506">
        <ele>630.8</ele>
        <time>2018-10-14T09:19:21Z</time>
      </trkpt>
      <trkpt lat="45.64399" lon="4.62531">
        <ele>628.4</ele>
        <time>2018-10-14T09:19:23Z</time>
      </trkpt>
      <trkpt lat="45.64399" lon="4.62558">
        <ele>626</ele>
        <time>2018-10-14T09:19:25Z</time>
      </trkpt>
      <trkpt lat="45.64399" lon="4.62571">
        <ele>625.1</ele>
        <time>2018-10-14T09:19:26Z</time>
      </trkpt>
      <trkpt lat="45.64398" lon="4.62585">
        <ele>624.3</ele>
        <time>2018-10-14T09:19:27Z</time>
      </trkpt>
      <trkpt lat="45.64389" lon="4.62611">
        <ele>622.9</ele>
        <time>2018-10-14T09:19:29Z</time>
      </trkpt>
      <trkpt lat="45.64383" lon="4.62624">
        <ele>622.3</ele>
        <time>2018-10-14T09:19:30Z</time>
      </trkpt>
      <trkpt lat="45.64377" lon="4.62635">
        <ele>621.7</ele>
        <time>2018-10-14T09:19:31Z</time>
      </trkpt>
      <trkpt lat="45.64364" lon="4.62652">
        <ele>620.9</ele>
        <time>2018-10-14T09:19:33Z</time>
      </trkpt>
      <trkpt lat="45.64359" lon="4.62659">
        <ele>620.4</ele>
        <time>2018-10-14T09:19:34Z</time>
      </trkpt>
      <trkpt lat="45.64353" lon="4.62666">
        <ele>619.7</ele>
        <time>2018-10-14T09:19:35Z</time>
      </trkpt>
      <trkpt lat="45.64346" lon="4.62682">
        <ele>618.1</ele>
        <time>2018-10-14T09:19:37Z</time>
      </trkpt>
      <trkpt lat="45.6434" lon="4.62699">
        <ele>616.3</ele>
        <time>2018-10-14T09:19:39Z</time>
      </trkpt>
      <trkpt lat="45.64336" lon="4.62714">
        <ele>614.8</ele>
        <time>2018-10-14T09:19:41Z</time>
      </trkpt>
      <trkpt lat="45.64335" lon="4.62719">
        <ele>614.4</ele>
        <time>2018-10-14T09:19:42Z</time>
      </trkpt>
      <trkpt lat="45.64334" lon="4.62723">
        <ele>614.1</ele>
        <time>2018-10-14T09:19:43Z</time>
      </trkpt>
      <trkpt lat="45.64334" lon="4.62728">
        <ele>613.9</ele>
        <time>2018-10-14T09:19:45Z</time>
      </trkpt>
      <trkpt lat="45.64335" lon="4.62736">
        <ele>613.6</ele>
        <time>2018-10-14T09:19:48Z</time>
      </trkpt>
      <trkpt lat="45.64337" lon="4.62741">
        <ele>613.5</ele>
        <time>2018-10-14T09:20:43Z</time>
      </trkpt>
      <trkpt lat="45.64338" lon="4.62751">
        <ele>613.6</ele>
        <time>2018-10-14T09:20:47Z</time>
      </trkpt>
      <trkpt lat="45.64338" lon="4.62777">
        <ele>614</ele>
        <time>2018-10-14T09:20:54Z</time>
      </trkpt>
      <trkpt lat="45.64337" lon="4.62781">
        <ele>614.1</ele>
        <time>2018-10-14T09:20:55Z</time>
      </trkpt>
      <trkpt lat="45.64333" lon="4.62793">
        <ele>614.3</ele>
        <time>2018-10-14T09:20:58Z</time>
      </trkpt>
      <trkpt lat="45.64326" lon="4.62805">
        <ele>614.6</ele>
        <time>2018-10-14T09:21:01Z</time>
      </trkpt>
      <trkpt lat="45.64319" lon="4.62813">
        <ele>614.9</ele>
        <time>2018-10-14T09:21:04Z</time>
      </trkpt>
      <trkpt lat="45.64312" lon="4.62822">
        <ele>615.1</ele>
        <time>2018-10-14T09:21:07Z</time>
      </trkpt>
      <trkpt lat="45.64306" lon="4.62829">
        <ele>615.4</ele>
        <time>2018-10-14T09:21:09Z</time>
      </trkpt>
      <trkpt lat="45.64298" lon="4.6284">
        <ele>615.6</ele>
        <time>2018-10-14T09:21:12Z</time>
      </trkpt>
      <trkpt lat="45.64294" lon="4.62849">
        <ele>615.8</ele>
        <time>2018-10-14T09:21:14Z</time>
      </trkpt>
      <trkpt lat="45.6429" lon="4.62864">
        <ele>616</ele>
        <time>2018-10-14T09:21:17Z</time>
      </trkpt>
      <trkpt lat="45.64289" lon="4.62875">
        <ele>616.1</ele>
        <time>2018-10-14T09:21:19Z</time>
      </trkpt>
      <trkpt lat="45.64288" lon="4.62881">
        <ele>616.2</ele>
        <time>2018-10-14T09:21:20Z</time>
      </trkpt>
      <trkpt lat="45.64288" lon="4.62888">
        <ele>616.3</ele>
        <time>2018-10-14T09:21:21Z</time>
      </trkpt>
      <trkpt lat="45.64289" lon="4.62895">
        <ele>615.6</ele>
        <time>2018-10-14T09:21:22Z</time>
      </trkpt>
      <trkpt lat="45.64298" lon="4.62922">
        <ele>613.6</ele>
        <time>2018-10-14T09:21:26Z</time>
      </trkpt>
      <trkpt lat="45.643" lon="4.62928">
        <ele>613.5</ele>
        <time>2018-10-14T09:21:27Z</time>
      </trkpt>
      <trkpt lat="45.64317" lon="4.62979">
        <ele>612.8</ele>
        <time>2018-10-14T09:21:35Z</time>
      </trkpt>
      <trkpt lat="45.64323" lon="4.63007">
        <ele>611.9</ele>
        <time>2018-10-14T09:21:39Z</time>
      </trkpt>
      <trkpt lat="45.64324" lon="4.63022">
        <ele>611.6</ele>
        <time>2018-10-14T09:21:41Z</time>
      </trkpt>
      <trkpt lat="45.64329" lon="4.63057">
        <ele>611.4</ele>
        <time>2018-10-14T09:21:46Z</time>
      </trkpt>
      <trkpt lat="45.64332" lon="4.63068">
        <ele>611.4</ele>
        <time>2018-10-14T09:21:48Z</time>
      </trkpt>
      <trkpt lat="45.64337" lon="4.63079">
        <ele>611.4</ele>
        <time>2018-10-14T09:21:51Z</time>
      </trkpt>
      <trkpt lat="45.64339" lon="4.63085">
        <ele>611.4</ele>
        <time>2018-10-14T09:21:53Z</time>
      </trkpt>
      <trkpt lat="45.64339" lon="4.63089">
        <ele>611.5</ele>
        <time>2018-10-14T09:21:54Z</time>
      </trkpt>
      <trkpt lat="45.64336" lon="4.63104">
        <ele>607.8</ele>
        <time>2018-10-14T09:21:57Z</time>
      </trkpt>
      <trkpt lat="45.64332" lon="4.63119">
        <ele>604.8</ele>
        <time>2018-10-14T09:21:59Z</time>
      </trkpt>
      <trkpt lat="45.6433" lon="4.63134">
        <ele>601.9</ele>
        <time>2018-10-14T09:22:01Z</time>
      </trkpt>
      <trkpt lat="45.64328" lon="4.63146">
        <ele>599.8</ele>
        <time>2018-10-14T09:22:03Z</time>
      </trkpt>
      <trkpt lat="45.64328" lon="4.63155">
        <ele>598.6</ele>
        <time>2018-10-14T09:22:04Z</time>
      </trkpt>
      <trkpt lat="45.64328" lon="4.63164">
        <ele>597.3</ele>
        <time>2018-10-14T09:22:05Z</time>
      </trkpt>
      <trkpt lat="45.64327" lon="4.63184">
        <ele>594.8</ele>
        <time>2018-10-14T09:22:07Z</time>
      </trkpt>
      <trkpt lat="45.64328" lon="4.63194">
        <ele>593.6</ele>
        <time>2018-10-14T09:22:08Z</time>
      </trkpt>
      <trkpt lat="45.64329" lon="4.63206">
        <ele>592.2</ele>
        <time>2018-10-14T09:22:09Z</time>
      </trkpt>
      <trkpt lat="45.64331" lon="4.63217">
        <ele>590.8</ele>
        <time>2018-10-14T09:22:10Z</time>
      </trkpt>
      <trkpt lat="45.64333" lon="4.63227">
        <ele>589.6</ele>
        <time>2018-10-14T09:22:11Z</time>
      </trkpt>
      <trkpt lat="45.64334" lon="4.63244">
        <ele>587.6</ele>
        <time>2018-10-14T09:22:13Z</time>
      </trkpt>
      <trkpt lat="45.64331" lon="4.6326">
        <ele>585.8</ele>
        <time>2018-10-14T09:22:15Z</time>
      </trkpt>
      <trkpt lat="45.64329" lon="4.63273">
        <ele>583.9</ele>
        <time>2018-10-14T09:22:17Z</time>
      </trkpt>
      <trkpt lat="45.64328" lon="4.63278">
        <ele>583.2</ele>
        <time>2018-10-14T09:22:18Z</time>
      </trkpt>
      <trkpt lat="45.64323" lon="4.63285">
        <ele>582.1</ele>
        <time>2018-10-14T09:22:20Z</time>
      </trkpt>
      <trkpt lat="45.64322" lon="4.63287">
        <ele>581.9</ele>
        <time>2018-10-14T09:22:21Z</time>
      </trkpt>
      <trkpt lat="45.64322" lon="4.6329">
        <ele>581.5</ele>
        <time>2018-10-14T09:22:31Z</time>
      </trkpt>
      <trkpt lat="45.64322" lon="4.63293">
        <ele>581.1</ele>
        <time>2018-10-14T09:22:32Z</time>
      </trkpt>
      <trkpt lat="45.64322" lon="4.63304">
        <ele>580</ele>
        <time>2018-10-14T09:22:34Z</time>
      </trkpt>
      <trkpt lat="45.64322" lon="4.63311">
        <ele>579.1</ele>
        <time>2018-10-14T09:22:35Z</time>
      </trkpt>
      <trkpt lat="45.64321" lon="4.63319">
        <ele>578.1</ele>
        <time>2018-10-14T09:22:36Z</time>
      </trkpt>
      <trkpt lat="45.64321" lon="4.63336">
        <ele>576.1</ele>
        <time>2018-10-14T09:22:38Z</time>
      </trkpt>
      <trkpt lat="45.64322" lon="4.6335">
        <ele>574.4</ele>
        <time>2018-10-14T09:22:40Z</time>
      </trkpt>
      <trkpt lat="45.64324" lon="4.63362">
        <ele>573</ele>
        <time>2018-10-14T09:22:42Z</time>
      </trkpt>
      <trkpt lat="45.64322" lon="4.63374">
        <ele>571.4</ele>
        <time>2018-10-14T09:22:44Z</time>
      </trkpt>
      <trkpt lat="45.64315" lon="4.63382">
        <ele>570.1</ele>
        <time>2018-10-14T09:22:46Z</time>
      </trkpt>
      <trkpt lat="45.64311" lon="4.63383">
        <ele>569.5</ele>
        <time>2018-10-14T09:22:47Z</time>
      </trkpt>
      <trkpt lat="45.64306" lon="4.63385">
        <ele>568.7</ele>
        <time>2018-10-14T09:22:48Z</time>
      </trkpt>
      <trkpt lat="45.64302" lon="4.63387">
        <ele>567.9</ele>
        <time>2018-10-14T09:22:49Z</time>
      </trkpt>
      <trkpt lat="45.64297" lon="4.63389">
        <ele>567</ele>
        <time>2018-10-14T09:22:50Z</time>
      </trkpt>
      <trkpt lat="45.64292" lon="4.63391">
        <ele>566</ele>
        <time>2018-10-14T09:22:51Z</time>
      </trkpt>
      <trkpt lat="45.64288" lon="4.63393">
        <ele>565.1</ele>
        <time>2018-10-14T09:22:52Z</time>
      </trkpt>
      <trkpt lat="45.64284" lon="4.63397">
        <ele>564.3</ele>
        <time>2018-10-14T09:22:53Z</time>
      </trkpt>
      <trkpt lat="45.64282" lon="4.63401">
        <ele>563.7</ele>
        <time>2018-10-14T09:22:54Z</time>
      </trkpt>
      <trkpt lat="45.64281" lon="4.63413">
        <ele>562.2</ele>
        <time>2018-10-14T09:22:56Z</time>
      </trkpt>
      <trkpt lat="45.64277" lon="4.63428">
        <ele>560.3</ele>
        <time>2018-10-14T09:22:58Z</time>
      </trkpt>
      <trkpt lat="45.64276" lon="4.63436">
        <ele>559.3</ele>
        <time>2018-10-14T09:22:59Z</time>
      </trkpt>
      <trkpt lat="45.64275" lon="4.63443">
        <ele>558.4</ele>
        <time>2018-10-14T09:23:00Z</time>
      </trkpt>
      <trkpt lat="45.64273" lon="4.63451">
        <ele>557.4</ele>
        <time>2018-10-14T09:23:01Z</time>
      </trkpt>
      <trkpt lat="45.64271" lon="4.63458">
        <ele>556.7</ele>
        <time>2018-10-14T09:23:02Z</time>
      </trkpt>
      <trkpt lat="45.64269" lon="4.63464">
        <ele>555.9</ele>
        <time>2018-10-14T09:23:03Z</time>
      </trkpt>
      <trkpt lat="45.64266" lon="4.63469">
        <ele>555.2</ele>
        <time>2018-10-14T09:23:04Z</time>
      </trkpt>
      <trkpt lat="45.64263" lon="4.63473">
        <ele>554.5</ele>
        <time>2018-10-14T09:23:05Z</time>
      </trkpt>
      <trkpt lat="45.64259" lon="4.63477">
        <ele>553.7</ele>
        <time>2018-10-14T09:23:06Z</time>
      </trkpt>
      <trkpt lat="45.64256" lon="4.63479">
        <ele>553</ele>
        <time>2018-10-14T09:23:07Z</time>
      </trkpt>
      <trkpt lat="45.64253" lon="4.63482">
        <ele>552.4</ele>
        <time>2018-10-14T09:23:08Z</time>
      </trkpt>
      <trkpt lat="45.64252" lon="4.63486">
        <ele>551.8</ele>
        <time>2018-10-14T09:23:09Z</time>
      </trkpt>
      <trkpt lat="45.6425" lon="4.63491">
        <ele>551.2</ele>
        <time>2018-10-14T09:23:10Z</time>
      </trkpt>
      <trkpt lat="45.64249" lon="4.63496">
        <ele>550.5</ele>
        <time>2018-10-14T09:23:11Z</time>
      </trkpt>
      <trkpt lat="45.64247" lon="4.63502">
        <ele>549.7</ele>
        <time>2018-10-14T09:23:12Z</time>
      </trkpt>
      <trkpt lat="45.64245" lon="4.63508">
        <ele>548.9</ele>
        <time>2018-10-14T09:23:13Z</time>
      </trkpt>
      <trkpt lat="45.64241" lon="4.63514">
        <ele>547.9</ele>
        <time>2018-10-14T09:23:14Z</time>
      </trkpt>
      <trkpt lat="45.64238" lon="4.6352">
        <ele>547</ele>
        <time>2018-10-14T09:23:15Z</time>
      </trkpt>
      <trkpt lat="45.64233" lon="4.63526">
        <ele>546</ele>
        <time>2018-10-14T09:23:16Z</time>
      </trkpt>
      <trkpt lat="45.64229" lon="4.63533">
        <ele>545</ele>
        <time>2018-10-14T09:23:17Z</time>
      </trkpt>
      <trkpt lat="45.64226" lon="4.63539">
        <ele>544.1</ele>
        <time>2018-10-14T09:23:18Z</time>
      </trkpt>
      <trkpt lat="45.64222" lon="4.63545">
        <ele>543.2</ele>
        <time>2018-10-14T09:23:19Z</time>
      </trkpt>
      <trkpt lat="45.64219" lon="4.6355">
        <ele>542.4</ele>
        <time>2018-10-14T09:23:20Z</time>
      </trkpt>
      <trkpt lat="45.64217" lon="4.63554">
        <ele>541.9</ele>
        <time>2018-10-14T09:23:21Z</time>
      </trkpt>
      <trkpt lat="45.64215" lon="4.63558">
        <ele>541.3</ele>
        <time>2018-10-14T09:23:22Z</time>
      </trkpt>
      <trkpt lat="45.64212" lon="4.63561">
        <ele>540.7</ele>
        <time>2018-10-14T09:23:23Z</time>
      </trkpt>
      <trkpt lat="45.64209" lon="4.63563">
        <ele>540.1</ele>
        <time>2018-10-14T09:23:24Z</time>
      </trkpt>
      <trkpt lat="45.64206" lon="4.63567">
        <ele>539.5</ele>
        <time>2018-10-14T09:23:25Z</time>
      </trkpt>
      <trkpt lat="45.64204" lon="4.6357">
        <ele>538.8</ele>
        <time>2018-10-14T09:23:26Z</time>
      </trkpt>
      <trkpt lat="45.642" lon="4.63574">
        <ele>538</ele>
        <time>2018-10-14T09:23:27Z</time>
      </trkpt>
      <trkpt lat="45.64197" lon="4.63578">
        <ele>537.3</ele>
        <time>2018-10-14T09:23:28Z</time>
      </trkpt>
      <trkpt lat="45.64194" lon="4.63582">
        <ele>536.6</ele>
        <time>2018-10-14T09:23:29Z</time>
      </trkpt>
      <trkpt lat="45.64191" lon="4.63586">
        <ele>536</ele>
        <time>2018-10-14T09:23:30Z</time>
      </trkpt>
      <trkpt lat="45.64189" lon="4.6359">
        <ele>535.3</ele>
        <time>2018-10-14T09:23:31Z</time>
      </trkpt>
      <trkpt lat="45.64185" lon="4.63595">
        <ele>534.5</ele>
        <time>2018-10-14T09:23:32Z</time>
      </trkpt>
      <trkpt lat="45.64183" lon="4.63599">
        <ele>533.8</ele>
        <time>2018-10-14T09:23:33Z</time>
      </trkpt>
      <trkpt lat="45.6418" lon="4.63605">
        <ele>532.9</ele>
        <time>2018-10-14T09:23:34Z</time>
      </trkpt>
      <trkpt lat="45.64178" lon="4.63611">
        <ele>532.2</ele>
        <time>2018-10-14T09:23:35Z</time>
      </trkpt>
      <trkpt lat="45.64176" lon="4.63618">
        <ele>531.4</ele>
        <time>2018-10-14T09:23:36Z</time>
      </trkpt>
      <trkpt lat="45.64175" lon="4.63624">
        <ele>530.6</ele>
        <time>2018-10-14T09:23:37Z</time>
      </trkpt>
      <trkpt lat="45.64173" lon="4.63631">
        <ele>529.7</ele>
        <time>2018-10-14T09:23:38Z</time>
      </trkpt>
      <trkpt lat="45.64171" lon="4.63635">
        <ele>529.1</ele>
        <time>2018-10-14T09:23:39Z</time>
      </trkpt>
      <trkpt lat="45.64166" lon="4.63643">
        <ele>527.8</ele>
        <time>2018-10-14T09:23:41Z</time>
      </trkpt>
      <trkpt lat="45.64163" lon="4.63646">
        <ele>527.3</ele>
        <time>2018-10-14T09:23:42Z</time>
      </trkpt>
      <trkpt lat="45.64156" lon="4.63653">
        <ele>525.8</ele>
        <time>2018-10-14T09:23:44Z</time>
      </trkpt>
      <trkpt lat="45.64149" lon="4.6366">
        <ele>524.1</ele>
        <time>2018-10-14T09:23:46Z</time>
      </trkpt>
      <trkpt lat="45.64142" lon="4.63663">
        <ele>522.9</ele>
        <time>2018-10-14T09:23:48Z</time>
      </trkpt>
      <trkpt lat="45.64138" lon="4.63663">
        <ele>522.4</ele>
        <time>2018-10-14T09:23:49Z</time>
      </trkpt>
      <trkpt lat="45.64134" lon="4.63662">
        <ele>521.8</ele>
        <time>2018-10-14T09:23:50Z</time>
      </trkpt>
      <trkpt lat="45.6413" lon="4.6366">
        <ele>521.2</ele>
        <time>2018-10-14T09:23:51Z</time>
      </trkpt>
      <trkpt lat="45.64128" lon="4.63658">
        <ele>520.8</ele>
        <time>2018-10-14T09:23:52Z</time>
      </trkpt>
      <trkpt lat="45.64126" lon="4.63655">
        <ele>520.3</ele>
        <time>2018-10-14T09:23:53Z</time>
      </trkpt>
      <trkpt lat="45.64123" lon="4.63651">
        <ele>519.8</ele>
        <time>2018-10-14T09:23:54Z</time>
      </trkpt>
      <trkpt lat="45.64121" lon="4.63648">
        <ele>519.3</ele>
        <time>2018-10-14T09:23:55Z</time>
      </trkpt>
      <trkpt lat="45.64119" lon="4.63645">
        <ele>519</ele>
        <time>2018-10-14T09:23:56Z</time>
      </trkpt>
      <trkpt lat="45.64116" lon="4.63643">
        <ele>518.6</ele>
        <time>2018-10-14T09:23:58Z</time>
      </trkpt>
      <trkpt lat="45.64115" lon="4.63644">
        <ele>518.4</ele>
        <time>2018-10-14T09:23:59Z</time>
      </trkpt>
      <trkpt lat="45.64114" lon="4.63645">
        <ele>518.3</ele>
        <time>2018-10-14T09:24:00Z</time>
      </trkpt>
      <trkpt lat="45.64114" lon="4.63649">
        <ele>518</ele>
        <time>2018-10-14T09:24:05Z</time>
      </trkpt>
      <trkpt lat="45.64113" lon="4.63652">
        <ele>516.1</ele>
        <time>2018-10-14T09:24:06Z</time>
      </trkpt>
      <trkpt lat="45.64114" lon="4.63661">
        <ele>515.4</ele>
        <time>2018-10-14T09:24:09Z</time>
      </trkpt>
      <trkpt lat="45.64115" lon="4.63663">
        <ele>515.3</ele>
        <time>2018-10-14T09:24:10Z</time>
      </trkpt>
      <trkpt lat="45.64117" lon="4.63673">
        <ele>514.8</ele>
        <time>2018-10-14T09:24:50Z</time>
      </trkpt>
      <trkpt lat="45.64118" lon="4.63678">
        <ele>514.6</ele>
        <time>2018-10-14T09:24:52Z</time>
      </trkpt>
      <trkpt lat="45.64122" lon="4.63687">
        <ele>514.3</ele>
        <time>2018-10-14T09:24:55Z</time>
      </trkpt>
      <trkpt lat="45.64126" lon="4.63691">
        <ele>513.9</ele>
        <time>2018-10-14T09:24:57Z</time>
      </trkpt>
      <trkpt lat="45.64128" lon="4.63693">
        <ele>513.7</ele>
        <time>2018-10-14T09:24:58Z</time>
      </trkpt>
      <trkpt lat="45.64141" lon="4.637">
        <ele>512.6</ele>
        <time>2018-10-14T09:25:02Z</time>
      </trkpt>
      <trkpt lat="45.64148" lon="4.63705">
        <ele>512.2</ele>
        <time>2018-10-14T09:25:04Z</time>
      </trkpt>
      <trkpt lat="45.64146" lon="4.63717">
        <ele>512</ele>
        <time>2018-10-14T09:25:06Z</time>
      </trkpt>
      <trkpt lat="45.64135" lon="4.63737">
        <ele>512.1</ele>
        <time>2018-10-14T09:25:10Z</time>
      </trkpt>
      <trkpt lat="45.6413" lon="4.63747">
        <ele>512.3</ele>
        <time>2018-10-14T09:25:13Z</time>
      </trkpt>
      <trkpt lat="45.64129" lon="4.6375">
        <ele>512.4</ele>
        <time>2018-10-14T09:25:14Z</time>
      </trkpt>
      <trkpt lat="45.64128" lon="4.63753">
        <ele>512.5</ele>
        <time>2018-10-14T09:25:15Z</time>
      </trkpt>
      <trkpt lat="45.64127" lon="4.63759">
        <ele>512.7</ele>
        <time>2018-10-14T09:25:17Z</time>
      </trkpt>
      <trkpt lat="45.64124" lon="4.63766">
        <ele>513.1</ele>
        <time>2018-10-14T09:25:20Z</time>
      </trkpt>
      <trkpt lat="45.64123" lon="4.63773">
        <ele>513.6</ele>
        <time>2018-10-14T09:25:23Z</time>
      </trkpt>
      <trkpt lat="45.64122" lon="4.63781">
        <ele>514.3</ele>
        <time>2018-10-14T09:25:26Z</time>
      </trkpt>
      <trkpt lat="45.6412" lon="4.63787">
        <ele>514.8</ele>
        <time>2018-10-14T09:25:28Z</time>
      </trkpt>
      <trkpt lat="45.64119" lon="4.6379">
        <ele>515.2</ele>
        <time>2018-10-14T09:25:29Z</time>
      </trkpt>
      <trkpt lat="45.64118" lon="4.63796">
        <ele>515.7</ele>
        <time>2018-10-14T09:25:31Z</time>
      </trkpt>
      <trkpt lat="45.64117" lon="4.63805">
        <ele>516.6</ele>
        <time>2018-10-14T09:25:34Z</time>
      </trkpt>
      <trkpt lat="45.64116" lon="4.63814">
        <ele>517.3</ele>
        <time>2018-10-14T09:25:37Z</time>
      </trkpt>
      <trkpt lat="45.64116" lon="4.63822">
        <ele>517.9</ele>
        <time>2018-10-14T09:25:40Z</time>
      </trkpt>
      <trkpt lat="45.64116" lon="4.63825">
        <ele>518.2</ele>
        <time>2018-10-14T09:25:41Z</time>
      </trkpt>
      <trkpt lat="45.64116" lon="4.63828">
        <ele>518.5</ele>
        <time>2018-10-14T09:25:42Z</time>
      </trkpt>
      <trkpt lat="45.64117" lon="4.63839">
        <ele>519.6</ele>
        <time>2018-10-14T09:25:46Z</time>
      </trkpt>
      <trkpt lat="45.64118" lon="4.63847">
        <ele>520.3</ele>
        <time>2018-10-14T09:25:49Z</time>
      </trkpt>
      <trkpt lat="45.64118" lon="4.6385">
        <ele>520.6</ele>
        <time>2018-10-14T09:25:50Z</time>
      </trkpt>
      <trkpt lat="45.64119" lon="4.63855">
        <ele>521.1</ele>
        <time>2018-10-14T09:25:52Z</time>
      </trkpt>
      <trkpt lat="45.64119" lon="4.63859">
        <ele>521.5</ele>
        <time>2018-10-14T09:25:54Z</time>
      </trkpt>
      <trkpt lat="45.64121" lon="4.63868">
        <ele>522.3</ele>
        <time>2018-10-14T09:25:58Z</time>
      </trkpt>
      <trkpt lat="45.64121" lon="4.6387">
        <ele>522.5</ele>
        <time>2018-10-14T09:25:59Z</time>
      </trkpt>
      <trkpt lat="45.64123" lon="4.63879">
        <ele>523.2</ele>
        <time>2018-10-14T09:26:03Z</time>
      </trkpt>
      <trkpt lat="45.64123" lon="4.63882">
        <ele>523.4</ele>
        <time>2018-10-14T09:26:04Z</time>
      </trkpt>
      <trkpt lat="45.64126" lon="4.63896">
        <ele>524.4</ele>
        <time>2018-10-14T09:26:10Z</time>
      </trkpt>
      <trkpt lat="45.64127" lon="4.639">
        <ele>524.7</ele>
        <time>2018-10-14T09:26:12Z</time>
      </trkpt>
      <trkpt lat="45.64127" lon="4.63905">
        <ele>525.1</ele>
        <time>2018-10-14T09:26:15Z</time>
      </trkpt>
      <trkpt lat="45.64129" lon="4.63914">
        <ele>525.7</ele>
        <time>2018-10-14T09:26:19Z</time>
      </trkpt>
      <trkpt lat="45.64131" lon="4.63922">
        <ele>526.4</ele>
        <time>2018-10-14T09:26:23Z</time>
      </trkpt>
      <trkpt lat="45.64133" lon="4.63924">
        <ele>526.6</ele>
        <time>2018-10-14T09:26:26Z</time>
      </trkpt>
      <trkpt lat="45.64137" lon="4.63912">
        <ele>527.6</ele>
        <time>2018-10-14T09:26:42Z</time>
      </trkpt>
      <trkpt lat="45.64139" lon="4.63907">
        <ele>528</ele>
        <time>2018-10-14T09:26:45Z</time>
      </trkpt>
      <trkpt lat="45.6414" lon="4.63906">
        <ele>528.1</ele>
        <time>2018-10-14T09:26:46Z</time>
      </trkpt>
      <trkpt lat="45.6414" lon="4.63904">
        <ele>528.2</ele>
        <time>2018-10-14T09:26:47Z</time>
      </trkpt>
      <trkpt lat="45.64142" lon="4.63898">
        <ele>528.7</ele>
        <time>2018-10-14T09:26:51Z</time>
      </trkpt>
      <trkpt lat="45.64145" lon="4.6389">
        <ele>529.3</ele>
        <time>2018-10-14T09:27:00Z</time>
      </trkpt>
      <trkpt lat="45.64148" lon="4.63882">
        <ele>529.8</ele>
        <time>2018-10-14T09:27:04Z</time>
      </trkpt>
      <trkpt lat="45.64151" lon="4.63876">
        <ele>530.1</ele>
        <time>2018-10-14T09:27:07Z</time>
      </trkpt>
      <trkpt lat="45.64157" lon="4.63866">
        <ele>531.1</ele>
        <time>2018-10-14T09:27:12Z</time>
      </trkpt>
      <trkpt lat="45.64164" lon="4.63851">
        <ele>532.1</ele>
        <time>2018-10-14T09:27:20Z</time>
      </trkpt>
      <trkpt lat="45.64172" lon="4.63838">
        <ele>533.3</ele>
        <time>2018-10-14T09:27:27Z</time>
      </trkpt>
      <trkpt lat="45.64176" lon="4.63834">
        <ele>533.8</ele>
        <time>2018-10-14T09:27:31Z</time>
      </trkpt>
      <trkpt lat="45.6418" lon="4.63835">
        <ele>534.2</ele>
        <time>2018-10-14T09:27:33Z</time>
      </trkpt>
      <trkpt lat="45.64181" lon="4.63836">
        <ele>534.3</ele>
        <time>2018-10-14T09:27:34Z</time>
      </trkpt>
      <trkpt lat="45.64181" lon="4.63843">
        <ele>534.9</ele>
        <time>2018-10-14T09:27:49Z</time>
      </trkpt>
      <trkpt lat="45.64181" lon="4.63848">
        <ele>535.5</ele>
        <time>2018-10-14T09:27:51Z</time>
      </trkpt>
      <trkpt lat="45.64182" lon="4.63851">
        <ele>535.8</ele>
        <time>2018-10-14T09:27:52Z</time>
      </trkpt>
      <trkpt lat="45.64182" lon="4.63859">
        <ele>536.6</ele>
        <time>2018-10-14T09:27:55Z</time>
      </trkpt>
      <trkpt lat="45.64182" lon="4.6387">
        <ele>537.6</ele>
        <time>2018-10-14T09:27:59Z</time>
      </trkpt>
      <trkpt lat="45.64183" lon="4.63873">
        <ele>537.8</ele>
        <time>2018-10-14T09:28:00Z</time>
      </trkpt>
      <trkpt lat="45.64184" lon="4.63885">
        <ele>538.7</ele>
        <time>2018-10-14T09:28:05Z</time>
      </trkpt>
      <trkpt lat="45.64184" lon="4.6389">
        <ele>539</ele>
        <time>2018-10-14T09:28:07Z</time>
      </trkpt>
      <trkpt lat="45.64184" lon="4.63895">
        <ele>539.3</ele>
        <time>2018-10-14T09:28:09Z</time>
      </trkpt>
      <trkpt lat="45.64186" lon="4.6391">
        <ele>540.5</ele>
        <time>2018-10-14T09:28:15Z</time>
      </trkpt>
      <trkpt lat="45.64188" lon="4.63919">
        <ele>541.2</ele>
        <time>2018-10-14T09:28:19Z</time>
      </trkpt>
      <trkpt lat="45.64189" lon="4.63922">
        <ele>541.4</ele>
        <time>2018-10-14T09:28:21Z</time>
      </trkpt>
      <trkpt lat="45.64191" lon="4.63929">
        <ele>542</ele>
        <time>2018-10-14T09:28:25Z</time>
      </trkpt>
      <trkpt lat="45.64193" lon="4.63931">
        <ele>542.3</ele>
        <time>2018-10-14T09:28:27Z</time>
      </trkpt>
      <trkpt lat="45.64196" lon="4.63938">
        <ele>543.1</ele>
        <time>2018-10-14T09:28:32Z</time>
      </trkpt>
      <trkpt lat="45.64198" lon="4.63938">
        <ele>543.3</ele>
        <time>2018-10-14T09:28:33Z</time>
      </trkpt>
      <trkpt lat="45.64205" lon="4.63945">
        <ele>544.5</ele>
        <time>2018-10-14T09:28:37Z</time>
      </trkpt>
      <trkpt lat="45.64209" lon="4.63949">
        <ele>545</ele>
        <time>2018-10-14T09:28:39Z</time>
      </trkpt>
      <trkpt lat="45.6421" lon="4.63951">
        <ele>545.3</ele>
        <time>2018-10-14T09:28:40Z</time>
      </trkpt>
      <trkpt lat="45.64216" lon="4.63955">
        <ele>545.8</ele>
        <time>2018-10-14T09:28:43Z</time>
      </trkpt>
      <trkpt lat="45.64223" lon="4.63961">
        <ele>546.4</ele>
        <time>2018-10-14T09:28:46Z</time>
      </trkpt>
      <trkpt lat="45.64227" lon="4.63965">
        <ele>546.7</ele>
        <time>2018-10-14T09:28:48Z</time>
      </trkpt>
      <trkpt lat="45.6424" lon="4.6397">
        <ele>547.1</ele>
        <time>2018-10-14T09:28:54Z</time>
      </trkpt>
      <trkpt lat="45.64257" lon="4.63975">
        <ele>547.7</ele>
        <time>2018-10-14T09:29:01Z</time>
      </trkpt>
      <trkpt lat="45.64267" lon="4.63978">
        <ele>548</ele>
        <time>2018-10-14T09:29:05Z</time>
      </trkpt>
      <trkpt lat="45.64275" lon="4.6398">
        <ele>548.2</ele>
        <time>2018-10-14T09:29:08Z</time>
      </trkpt>
      <trkpt lat="45.64294" lon="4.63983">
        <ele>548.5</ele>
        <time>2018-10-14T09:29:15Z</time>
      </trkpt>
      <trkpt lat="45.64322" lon="4.63987">
        <ele>549.8</ele>
        <time>2018-10-14T09:29:24Z</time>
      </trkpt>
      <trkpt lat="45.64335" lon="4.63989">
        <ele>550.5</ele>
        <time>2018-10-14T09:29:28Z</time>
      </trkpt>
      <trkpt lat="45.64346" lon="4.63991">
        <ele>550.9</ele>
        <time>2018-10-14T09:29:33Z</time>
      </trkpt>
      <trkpt lat="45.64354" lon="4.6399">
        <ele>550.9</ele>
        <time>2018-10-14T09:29:53Z</time>
      </trkpt>
      <trkpt lat="45.64362" lon="4.63991">
        <ele>550.8</ele>
        <time>2018-10-14T09:29:56Z</time>
      </trkpt>
      <trkpt lat="45.64385" lon="4.63994">
        <ele>549.7</ele>
        <time>2018-10-14T09:30:03Z</time>
      </trkpt>
      <trkpt lat="45.6439" lon="4.63994">
        <ele>549.5</ele>
        <time>2018-10-14T09:30:04Z</time>
      </trkpt>
      <trkpt lat="45.64404" lon="4.63994">
        <ele>549.1</ele>
        <time>2018-10-14T09:30:07Z</time>
      </trkpt>
      <trkpt lat="45.6442" lon="4.63995">
        <ele>548.6</ele>
        <time>2018-10-14T09:30:10Z</time>
      </trkpt>
      <trkpt lat="45.64426" lon="4.63996">
        <ele>548.3</ele>
        <time>2018-10-14T09:30:11Z</time>
      </trkpt>
      <trkpt lat="45.64436" lon="4.63999">
        <ele>547.6</ele>
        <time>2018-10-14T09:30:13Z</time>
      </trkpt>
      <trkpt lat="45.64452" lon="4.64005">
        <ele>546.5</ele>
        <time>2018-10-14T09:30:16Z</time>
      </trkpt>
      <trkpt lat="45.64484" lon="4.64021">
        <ele>546.1</ele>
        <time>2018-10-14T09:30:23Z</time>
      </trkpt>
      <trkpt lat="45.64495" lon="4.64047">
        <ele>545.6</ele>
        <time>2018-10-14T09:30:27Z</time>
      </trkpt>
      <trkpt lat="45.64496" lon="4.64055">
        <ele>545.3</ele>
        <time>2018-10-14T09:30:28Z</time>
      </trkpt>
      <trkpt lat="45.64497" lon="4.64064">
        <ele>544.8</ele>
        <time>2018-10-14T09:30:29Z</time>
      </trkpt>
      <trkpt lat="45.64499" lon="4.64074">
        <ele>544.3</ele>
        <time>2018-10-14T09:30:30Z</time>
      </trkpt>
      <trkpt lat="45.645" lon="4.64092">
        <ele>543.4</ele>
        <time>2018-10-14T09:30:32Z</time>
      </trkpt>
      <trkpt lat="45.64496" lon="4.64153">
        <ele>542</ele>
        <time>2018-10-14T09:30:39Z</time>
      </trkpt>
      <trkpt lat="45.6449" lon="4.64203">
        <ele>541.5</ele>
        <time>2018-10-14T09:30:46Z</time>
      </trkpt>
      <trkpt lat="45.64489" lon="4.64222">
        <ele>541.3</ele>
        <time>2018-10-14T09:30:49Z</time>
      </trkpt>
      <trkpt lat="45.64489" lon="4.64235">
        <ele>541.1</ele>
        <time>2018-10-14T09:30:51Z</time>
      </trkpt>
      <trkpt lat="45.64488" lon="4.64248">
        <ele>541.2</ele>
        <time>2018-10-14T09:30:53Z</time>
      </trkpt>
      <trkpt lat="45.64496" lon="4.64256">
        <ele>541.8</ele>
        <time>2018-10-14T09:30:56Z</time>
      </trkpt>
      <trkpt lat="45.64508" lon="4.6425">
        <ele>542.6</ele>
        <time>2018-10-14T09:31:00Z</time>
      </trkpt>
      <trkpt lat="45.64515" lon="4.64248">
        <ele>543.1</ele>
        <time>2018-10-14T09:31:02Z</time>
      </trkpt>
      <trkpt lat="45.64533" lon="4.64242">
        <ele>544.2</ele>
        <time>2018-10-14T09:31:07Z</time>
      </trkpt>
      <trkpt lat="45.64539" lon="4.64239">
        <ele>544.5</ele>
        <time>2018-10-14T09:31:09Z</time>
      </trkpt>
      <trkpt lat="45.64557" lon="4.64228">
        <ele>544.1</ele>
        <time>2018-10-14T09:31:13Z</time>
      </trkpt>
      <trkpt lat="45.64562" lon="4.64224">
        <ele>543.7</ele>
        <time>2018-10-14T09:31:14Z</time>
      </trkpt>
      <trkpt lat="45.64577" lon="4.64202">
        <ele>541.6</ele>
        <time>2018-10-14T09:31:17Z</time>
      </trkpt>
      <trkpt lat="45.64585" lon="4.64185">
        <ele>540</ele>
        <time>2018-10-14T09:31:19Z</time>
      </trkpt>
      <trkpt lat="45.64589" lon="4.64177">
        <ele>539.1</ele>
        <time>2018-10-14T09:31:20Z</time>
      </trkpt>
      <trkpt lat="45.64594" lon="4.64168">
        <ele>538.1</ele>
        <time>2018-10-14T09:31:21Z</time>
      </trkpt>
      <trkpt lat="45.64598" lon="4.64159">
        <ele>537</ele>
        <time>2018-10-14T09:31:22Z</time>
      </trkpt>
      <trkpt lat="45.64605" lon="4.6414">
        <ele>534.7</ele>
        <time>2018-10-14T09:31:24Z</time>
      </trkpt>
      <trkpt lat="45.64612" lon="4.64124">
        <ele>532.8</ele>
        <time>2018-10-14T09:31:26Z</time>
      </trkpt>
      <trkpt lat="45.64629" lon="4.64121">
        <ele>530.5</ele>
        <time>2018-10-14T09:31:29Z</time>
      </trkpt>
      <trkpt lat="45.64644" lon="4.64132">
        <ele>529.6</ele>
        <time>2018-10-14T09:31:32Z</time>
      </trkpt>
      <trkpt lat="45.64652" lon="4.64141">
        <ele>530.1</ele>
        <time>2018-10-14T09:31:34Z</time>
      </trkpt>
      <trkpt lat="45.64656" lon="4.64145">
        <ele>530.6</ele>
        <time>2018-10-14T09:31:35Z</time>
      </trkpt>
      <trkpt lat="45.64666" lon="4.64152">
        <ele>531.9</ele>
        <time>2018-10-14T09:31:37Z</time>
      </trkpt>
      <trkpt lat="45.64671" lon="4.64153">
        <ele>532.7</ele>
        <time>2018-10-14T09:31:38Z</time>
      </trkpt>
      <trkpt lat="45.64686" lon="4.64154">
        <ele>534.5</ele>
        <time>2018-10-14T09:31:41Z</time>
      </trkpt>
      <trkpt lat="45.64696" lon="4.64154">
        <ele>535.2</ele>
        <time>2018-10-14T09:31:43Z</time>
      </trkpt>
      <trkpt lat="45.6471" lon="4.64149">
        <ele>536</ele>
        <time>2018-10-14T09:31:47Z</time>
      </trkpt>
      <trkpt lat="45.64713" lon="4.64147">
        <ele>536.2</ele>
        <time>2018-10-14T09:31:48Z</time>
      </trkpt>
      <trkpt lat="45.64726" lon="4.64141">
        <ele>536.8</ele>
        <time>2018-10-14T09:31:52Z</time>
      </trkpt>
      <trkpt lat="45.64739" lon="4.64136">
        <ele>537.1</ele>
        <time>2018-10-14T09:31:56Z</time>
      </trkpt>
      <trkpt lat="45.64747" lon="4.64133">
        <ele>537.3</ele>
        <time>2018-10-14T09:31:58Z</time>
      </trkpt>
      <trkpt lat="45.64762" lon="4.64126">
        <ele>537.9</ele>
        <time>2018-10-14T09:32:02Z</time>
      </trkpt>
      <trkpt lat="45.6477" lon="4.64122">
        <ele>538.5</ele>
        <time>2018-10-14T09:32:04Z</time>
      </trkpt>
      <trkpt lat="45.64774" lon="4.64121">
        <ele>538.9</ele>
        <time>2018-10-14T09:32:05Z</time>
      </trkpt>
      <trkpt lat="45.64783" lon="4.64121">
        <ele>539.6</ele>
        <time>2018-10-14T09:32:07Z</time>
      </trkpt>
      <trkpt lat="45.64786" lon="4.64122">
        <ele>540</ele>
        <time>2018-10-14T09:32:08Z</time>
      </trkpt>
      <trkpt lat="45.64794" lon="4.64125">
        <ele>540.6</ele>
        <time>2018-10-14T09:32:10Z</time>
      </trkpt>
      <trkpt lat="45.64801" lon="4.6413">
        <ele>541</ele>
        <time>2018-10-14T09:32:12Z</time>
      </trkpt>
      <trkpt lat="45.64804" lon="4.64132">
        <ele>541.2</ele>
        <time>2018-10-14T09:32:13Z</time>
      </trkpt>
      <trkpt lat="45.64828" lon="4.64144">
        <ele>542</ele>
        <time>2018-10-14T09:32:19Z</time>
      </trkpt>
      <trkpt lat="45.64844" lon="4.64151">
        <ele>542.3</ele>
        <time>2018-10-14T09:32:23Z</time>
      </trkpt>
      <trkpt lat="45.64857" lon="4.64164">
        <ele>542.4</ele>
        <time>2018-10-14T09:32:27Z</time>
      </trkpt>
      <trkpt lat="45.64867" lon="4.64186">
        <ele>543.1</ele>
        <time>2018-10-14T09:32:32Z</time>
      </trkpt>
      <trkpt lat="45.64875" lon="4.64203">
        <ele>544.4</ele>
        <time>2018-10-14T09:32:37Z</time>
      </trkpt>
      <trkpt lat="45.64878" lon="4.6421">
        <ele>544.8</ele>
        <time>2018-10-14T09:32:39Z</time>
      </trkpt>
      <trkpt lat="45.6488" lon="4.64218">
        <ele>545.3</ele>
        <time>2018-10-14T09:32:42Z</time>
      </trkpt>
      <trkpt lat="45.64882" lon="4.64224">
        <ele>545.6</ele>
        <time>2018-10-14T09:32:44Z</time>
      </trkpt>
      <trkpt lat="45.64884" lon="4.64232">
        <ele>546</ele>
        <time>2018-10-14T09:32:47Z</time>
      </trkpt>
      <trkpt lat="45.64886" lon="4.64243">
        <ele>547</ele>
        <time>2018-10-14T09:32:51Z</time>
      </trkpt>
      <trkpt lat="45.64888" lon="4.64245">
        <ele>547.3</ele>
        <time>2018-10-14T09:32:52Z</time>
      </trkpt>
      <trkpt lat="45.6489" lon="4.64246">
        <ele>547.8</ele>
        <time>2018-10-14T09:32:53Z</time>
      </trkpt>
      <trkpt lat="45.64894" lon="4.64247">
        <ele>548.7</ele>
        <time>2018-10-14T09:32:55Z</time>
      </trkpt>
      <trkpt lat="45.64904" lon="4.64247">
        <ele>551.5</ele>
        <time>2018-10-14T09:33:00Z</time>
      </trkpt>
      <trkpt lat="45.64921" lon="4.64244">
        <ele>554.1</ele>
        <time>2018-10-14T09:33:08Z</time>
      </trkpt>
      <trkpt lat="45.64927" lon="4.64242">
        <ele>554.4</ele>
        <time>2018-10-14T09:33:11Z</time>
      </trkpt>
      <trkpt lat="45.64933" lon="4.64239">
        <ele>554.6</ele>
        <time>2018-10-14T09:33:14Z</time>
      </trkpt>
      <trkpt lat="45.64935" lon="4.64239">
        <ele>554.6</ele>
        <time>2018-10-14T09:33:15Z</time>
      </trkpt>
      <trkpt lat="45.64941" lon="4.6424">
        <ele>554.5</ele>
        <time>2018-10-14T09:33:19Z</time>
      </trkpt>
      <trkpt lat="45.64942" lon="4.64243">
        <ele>554.3</ele>
        <time>2018-10-14T09:33:20Z</time>
      </trkpt>
      <trkpt lat="45.6495" lon="4.64259">
        <ele>553.1</ele>
        <time>2018-10-14T09:33:24Z</time>
      </trkpt>
      <trkpt lat="45.64967" lon="4.64293">
        <ele>550.4</ele>
        <time>2018-10-14T09:33:29Z</time>
      </trkpt>
      <trkpt lat="45.64975" lon="4.64312">
        <ele>548.9</ele>
        <time>2018-10-14T09:33:31Z</time>
      </trkpt>
      <trkpt lat="45.64984" lon="4.64333">
        <ele>547.5</ele>
        <time>2018-10-14T09:33:33Z</time>
      </trkpt>
      <trkpt lat="45.64989" lon="4.64345">
        <ele>546.7</ele>
        <time>2018-10-14T09:33:34Z</time>
      </trkpt>
      <trkpt lat="45.65007" lon="4.64378">
        <ele>544.8</ele>
        <time>2018-10-14T09:33:37Z</time>
      </trkpt>
      <trkpt lat="45.65022" lon="4.64401">
        <ele>543.9</ele>
        <time>2018-10-14T09:33:39Z</time>
      </trkpt>
      <trkpt lat="45.65036" lon="4.64424">
        <ele>543.4</ele>
        <time>2018-10-14T09:33:41Z</time>
      </trkpt>
      <trkpt lat="45.65043" lon="4.64434">
        <ele>543.2</ele>
        <time>2018-10-14T09:33:42Z</time>
      </trkpt>
      <trkpt lat="45.65049" lon="4.64445">
        <ele>543.1</ele>
        <time>2018-10-14T09:33:43Z</time>
      </trkpt>
      <trkpt lat="45.65064" lon="4.64476">
        <ele>542.8</ele>
        <time>2018-10-14T09:33:46Z</time>
      </trkpt>
      <trkpt lat="45.65086" lon="4.64522">
        <ele>542.7</ele>
        <time>2018-10-14T09:33:51Z</time>
      </trkpt>
      <trkpt lat="45.65119" lon="4.64585">
        <ele>542.2</ele>
        <time>2018-10-14T09:33:58Z</time>
      </trkpt>
      <trkpt lat="45.65124" lon="4.64595">
        <ele>542.2</ele>
        <time>2018-10-14T09:33:59Z</time>
      </trkpt>
      <trkpt lat="45.65141" lon="4.64633">
        <ele>542.4</ele>
        <time>2018-10-14T09:34:03Z</time>
      </trkpt>
      <trkpt lat="45.65156" lon="4.64668">
        <ele>542.5</ele>
        <time>2018-10-14T09:34:07Z</time>
      </trkpt>
      <trkpt lat="45.65173" lon="4.64719">
        <ele>542.8</ele>
        <time>2018-10-14T09:34:13Z</time>
      </trkpt>
      <trkpt lat="45.6518" lon="4.6476">
        <ele>543</ele>
        <time>2018-10-14T09:34:18Z</time>
      </trkpt>
      <trkpt lat="45.65183" lon="4.64767">
        <ele>543.1</ele>
        <time>2018-10-14T09:34:19Z</time>
      </trkpt>
      <trkpt lat="45.65186" lon="4.64773">
        <ele>543.1</ele>
        <time>2018-10-14T09:34:20Z</time>
      </trkpt>
      <trkpt lat="45.65199" lon="4.64793">
        <ele>543.3</ele>
        <time>2018-10-14T09:34:23Z</time>
      </trkpt>
      <trkpt lat="45.6523" lon="4.64825">
        <ele>543.8</ele>
        <time>2018-10-14T09:34:29Z</time>
      </trkpt>
      <trkpt lat="45.65235" lon="4.6483">
        <ele>543.8</ele>
        <time>2018-10-14T09:34:30Z</time>
      </trkpt>
      <trkpt lat="45.65262" lon="4.6486">
        <ele>544</ele>
        <time>2018-10-14T09:34:36Z</time>
      </trkpt>
      <trkpt lat="45.65272" lon="4.64871">
        <ele>544.2</ele>
        <time>2018-10-14T09:34:38Z</time>
      </trkpt>
      <trkpt lat="45.65299" lon="4.64902">
        <ele>544.3</ele>
        <time>2018-10-14T09:34:43Z</time>
      </trkpt>
      <trkpt lat="45.65304" lon="4.64908">
        <ele>544.3</ele>
        <time>2018-10-14T09:34:44Z</time>
      </trkpt>
      <trkpt lat="45.65318" lon="4.64924">
        <ele>544.4</ele>
        <time>2018-10-14T09:34:47Z</time>
      </trkpt>
      <trkpt lat="45.65335" lon="4.64943">
        <ele>544.8</ele>
        <time>2018-10-14T09:34:51Z</time>
      </trkpt>
      <trkpt lat="45.65339" lon="4.64948">
        <ele>544.9</ele>
        <time>2018-10-14T09:34:52Z</time>
      </trkpt>
      <trkpt lat="45.65358" lon="4.64971">
        <ele>545.3</ele>
        <time>2018-10-14T09:34:57Z</time>
      </trkpt>
      <trkpt lat="45.65365" lon="4.64979">
        <ele>545.4</ele>
        <time>2018-10-14T09:34:59Z</time>
      </trkpt>
      <trkpt lat="45.65372" lon="4.64986">
        <ele>545.5</ele>
        <time>2018-10-14T09:35:01Z</time>
      </trkpt>
      <trkpt lat="45.65387" lon="4.65005">
        <ele>545.5</ele>
        <time>2018-10-14T09:35:05Z</time>
      </trkpt>
      <trkpt lat="45.65422" lon="4.65056">
        <ele>544.9</ele>
        <time>2018-10-14T09:35:13Z</time>
      </trkpt>
      <trkpt lat="45.65427" lon="4.65065">
        <ele>544.8</ele>
        <time>2018-10-14T09:35:14Z</time>
      </trkpt>
      <trkpt lat="45.65444" lon="4.65091">
        <ele>544.2</ele>
        <time>2018-10-14T09:35:17Z</time>
      </trkpt>
      <trkpt lat="45.65451" lon="4.651">
        <ele>543.9</ele>
        <time>2018-10-14T09:35:18Z</time>
      </trkpt>
      <trkpt lat="45.65465" lon="4.65119">
        <ele>543.1</ele>
        <time>2018-10-14T09:35:20Z</time>
      </trkpt>
      <trkpt lat="45.6548" lon="4.65138">
        <ele>541.9</ele>
        <time>2018-10-14T09:35:22Z</time>
      </trkpt>
      <trkpt lat="45.65489" lon="4.65148">
        <ele>541.1</ele>
        <time>2018-10-14T09:35:23Z</time>
      </trkpt>
      <trkpt lat="45.65498" lon="4.65158">
        <ele>540.2</ele>
        <time>2018-10-14T09:35:24Z</time>
      </trkpt>
      <trkpt lat="45.65515" lon="4.65179">
        <ele>538.3</ele>
        <time>2018-10-14T09:35:26Z</time>
      </trkpt>
      <trkpt lat="45.6553" lon="4.65196">
        <ele>536.6</ele>
        <time>2018-10-14T09:35:28Z</time>
      </trkpt>
      <trkpt lat="45.65543" lon="4.6521">
        <ele>535.2</ele>
        <time>2018-10-14T09:35:30Z</time>
      </trkpt>
      <trkpt lat="45.65552" lon="4.65219">
        <ele>534.3</ele>
        <time>2018-10-14T09:35:32Z</time>
      </trkpt>
      <trkpt lat="45.65555" lon="4.65225">
        <ele>534.2</ele>
        <time>2018-10-14T09:35:34Z</time>
      </trkpt>
      <trkpt lat="45.65556" lon="4.65227">
        <ele>534.3</ele>
        <time>2018-10-14T09:35:35Z</time>
      </trkpt>
      <trkpt lat="45.65555" lon="4.65231">
        <ele>534.5</ele>
        <time>2018-10-14T09:35:36Z</time>
      </trkpt>
      <trkpt lat="45.65554" lon="4.65235">
        <ele>534.7</ele>
        <time>2018-10-14T09:35:38Z</time>
      </trkpt>
      <trkpt lat="45.65552" lon="4.65237">
        <ele>534.7</ele>
        <time>2018-10-14T09:35:39Z</time>
      </trkpt>
      <trkpt lat="45.65541" lon="4.65256">
        <ele>535.5</ele>
        <time>2018-10-14T09:35:45Z</time>
      </trkpt>
      <trkpt lat="45.65527" lon="4.65274">
        <ele>536.4</ele>
        <time>2018-10-14T09:35:51Z</time>
      </trkpt>
      <trkpt lat="45.6551" lon="4.65291">
        <ele>536.8</ele>
        <time>2018-10-14T09:35:58Z</time>
      </trkpt>
      <trkpt lat="45.65507" lon="4.65294">
        <ele>536.8</ele>
        <time>2018-10-14T09:35:59Z</time>
      </trkpt>
      <trkpt lat="45.65489" lon="4.65315">
        <ele>536.7</ele>
        <time>2018-10-14T09:36:05Z</time>
      </trkpt>
      <trkpt lat="45.65469" lon="4.65348">
        <ele>536</ele>
        <time>2018-10-14T09:36:11Z</time>
      </trkpt>
      <trkpt lat="45.65467" lon="4.65355">
        <ele>535.9</ele>
        <time>2018-10-14T09:36:12Z</time>
      </trkpt>
      <trkpt lat="45.65463" lon="4.65368">
        <ele>535.7</ele>
        <time>2018-10-14T09:36:15Z</time>
      </trkpt>
      <trkpt lat="45.65459" lon="4.65378">
        <ele>535.5</ele>
        <time>2018-10-14T09:36:19Z</time>
      </trkpt>
      <trkpt lat="45.65449" lon="4.65393">
        <ele>534.3</ele>
        <time>2018-10-14T09:36:23Z</time>
      </trkpt>
      <trkpt lat="45.65445" lon="4.65395">
        <ele>533.8</ele>
        <time>2018-10-14T09:36:24Z</time>
      </trkpt>
      <trkpt lat="45.65431" lon="4.65391">
        <ele>532.3</ele>
        <time>2018-10-14T09:36:27Z</time>
      </trkpt>
      <trkpt lat="45.65426" lon="4.6539">
        <ele>531.9</ele>
        <time>2018-10-14T09:36:28Z</time>
      </trkpt>
      <trkpt lat="45.65415" lon="4.65383">
        <ele>531.1</ele>
        <time>2018-10-14T09:36:31Z</time>
      </trkpt>
      <trkpt lat="45.65411" lon="4.6538">
        <ele>530.8</ele>
        <time>2018-10-14T09:36:32Z</time>
      </trkpt>
      <trkpt lat="45.65397" lon="4.65368">
        <ele>529.9</ele>
        <time>2018-10-14T09:36:35Z</time>
      </trkpt>
      <trkpt lat="45.65386" lon="4.6536">
        <ele>529.5</ele>
        <time>2018-10-14T09:36:37Z</time>
      </trkpt>
      <trkpt lat="45.65371" lon="4.65353">
        <ele>529</ele>
        <time>2018-10-14T09:36:40Z</time>
      </trkpt>
      <trkpt lat="45.65367" lon="4.65353">
        <ele>528.9</ele>
        <time>2018-10-14T09:36:41Z</time>
      </trkpt>
      <trkpt lat="45.6536" lon="4.65361">
        <ele>528.6</ele>
        <time>2018-10-14T09:36:43Z</time>
      </trkpt>
      <trkpt lat="45.6536" lon="4.65367">
        <ele>528.5</ele>
        <time>2018-10-14T09:36:44Z</time>
      </trkpt>
      <trkpt lat="45.65359" lon="4.65383">
        <ele>528</ele>
        <time>2018-10-14T09:36:46Z</time>
      </trkpt>
      <trkpt lat="45.65358" lon="4.65391">
        <ele>527.7</ele>
        <time>2018-10-14T09:36:47Z</time>
      </trkpt>
      <trkpt lat="45.65354" lon="4.65429">
        <ele>525.7</ele>
        <time>2018-10-14T09:36:51Z</time>
      </trkpt>
      <trkpt lat="45.65338" lon="4.65497">
        <ele>522.5</ele>
        <time>2018-10-14T09:36:58Z</time>
      </trkpt>
      <trkpt lat="45.65319" lon="4.65524">
        <ele>521.9</ele>
        <time>2018-10-14T09:37:02Z</time>
      </trkpt>
      <trkpt lat="45.65298" lon="4.65546">
        <ele>521.7</ele>
        <time>2018-10-14T09:37:06Z</time>
      </trkpt>
      <trkpt lat="45.65292" lon="4.65549">
        <ele>521.4</ele>
        <time>2018-10-14T09:37:07Z</time>
      </trkpt>
      <trkpt lat="45.65266" lon="4.65549">
        <ele>519.1</ele>
        <time>2018-10-14T09:37:11Z</time>
      </trkpt>
      <trkpt lat="45.65259" lon="4.65548">
        <ele>518.5</ele>
        <time>2018-10-14T09:37:12Z</time>
      </trkpt>
      <trkpt lat="45.65227" lon="4.65546">
        <ele>515</ele>
        <time>2018-10-14T09:37:16Z</time>
      </trkpt>
      <trkpt lat="45.65202" lon="4.6554">
        <ele>514</ele>
        <time>2018-10-14T09:37:19Z</time>
      </trkpt>
      <trkpt lat="45.65187" lon="4.65535">
        <ele>513.9</ele>
        <time>2018-10-14T09:37:21Z</time>
      </trkpt>
      <trkpt lat="45.6518" lon="4.65535">
        <ele>514</ele>
        <time>2018-10-14T09:37:22Z</time>
      </trkpt>
      <trkpt lat="45.65167" lon="4.65544">
        <ele>514.3</ele>
        <time>2018-10-14T09:37:24Z</time>
      </trkpt>
      <trkpt lat="45.65159" lon="4.65562">
        <ele>514.8</ele>
        <time>2018-10-14T09:37:27Z</time>
      </trkpt>
      <trkpt lat="45.6516" lon="4.65587">
        <ele>516</ele>
        <time>2018-10-14T09:37:31Z</time>
      </trkpt>
      <trkpt lat="45.65165" lon="4.65604">
        <ele>517.3</ele>
        <time>2018-10-14T09:37:34Z</time>
      </trkpt>
      <trkpt lat="45.65167" lon="4.65611">
        <ele>517.8</ele>
        <time>2018-10-14T09:37:35Z</time>
      </trkpt>
      <trkpt lat="45.65168" lon="4.65618">
        <ele>518.3</ele>
        <time>2018-10-14T09:37:36Z</time>
      </trkpt>
      <trkpt lat="45.65168" lon="4.65642">
        <ele>519.5</ele>
        <time>2018-10-14T09:37:40Z</time>
      </trkpt>
      <trkpt lat="45.65168" lon="4.65646">
        <ele>519.7</ele>
        <time>2018-10-14T09:37:41Z</time>
      </trkpt>
      <trkpt lat="45.65162" lon="4.65664">
        <ele>520.5</ele>
        <time>2018-10-14T09:37:45Z</time>
      </trkpt>
      <trkpt lat="45.65157" lon="4.65673">
        <ele>520.8</ele>
        <time>2018-10-14T09:37:47Z</time>
      </trkpt>
      <trkpt lat="45.65149" lon="4.65693">
        <ele>521.2</ele>
        <time>2018-10-14T09:37:51Z</time>
      </trkpt>
      <trkpt lat="45.65145" lon="4.65701">
        <ele>521.4</ele>
        <time>2018-10-14T09:37:53Z</time>
      </trkpt>
      <trkpt lat="45.65143" lon="4.65721">
        <ele>521.9</ele>
        <time>2018-10-14T09:37:58Z</time>
      </trkpt>
      <trkpt lat="45.65145" lon="4.65733">
        <ele>522.4</ele>
        <time>2018-10-14T09:38:02Z</time>
      </trkpt>
      <trkpt lat="45.65146" lon="4.65736">
        <ele>522.5</ele>
        <time>2018-10-14T09:38:03Z</time>
      </trkpt>
      <trkpt lat="45.65151" lon="4.65754">
        <ele>523.7</ele>
        <time>2018-10-14T09:38:09Z</time>
      </trkpt>
      <trkpt lat="45.65153" lon="4.65761">
        <ele>524.3</ele>
        <time>2018-10-14T09:38:11Z</time>
      </trkpt>
      <trkpt lat="45.65155" lon="4.65777">
        <ele>526.1</ele>
        <time>2018-10-14T09:38:16Z</time>
      </trkpt>
      <trkpt lat="45.65157" lon="4.65797">
        <ele>528.4</ele>
        <time>2018-10-14T09:38:22Z</time>
      </trkpt>
      <trkpt lat="45.65151" lon="4.65816">
        <ele>530.2</ele>
        <time>2018-10-14T09:38:29Z</time>
      </trkpt>
      <trkpt lat="45.65149" lon="4.65821">
        <ele>530.5</ele>
        <time>2018-10-14T09:38:31Z</time>
      </trkpt>
      <trkpt lat="45.65144" lon="4.65828">
        <ele>530.8</ele>
        <time>2018-10-14T09:38:34Z</time>
      </trkpt>
      <trkpt lat="45.65139" lon="4.65834">
        <ele>531.1</ele>
        <time>2018-10-14T09:38:37Z</time>
      </trkpt>
      <trkpt lat="45.65123" lon="4.65853">
        <ele>531.7</ele>
        <time>2018-10-14T09:38:45Z</time>
      </trkpt>
      <trkpt lat="45.65105" lon="4.65877">
        <ele>531.9</ele>
        <time>2018-10-14T09:38:53Z</time>
      </trkpt>
      <trkpt lat="45.65085" lon="4.65905">
        <ele>532.3</ele>
        <time>2018-10-14T09:39:01Z</time>
      </trkpt>
      <trkpt lat="45.6507" lon="4.65926">
        <ele>532.8</ele>
        <time>2018-10-14T09:39:07Z</time>
      </trkpt>
      <trkpt lat="45.65058" lon="4.65944">
        <ele>532.9</ele>
        <time>2018-10-14T09:39:12Z</time>
      </trkpt>
      <trkpt lat="45.65034" lon="4.65976">
        <ele>532.9</ele>
        <time>2018-10-14T09:39:21Z</time>
      </trkpt>
      <trkpt lat="45.65011" lon="4.66003">
        <ele>532.9</ele>
        <time>2018-10-14T09:39:30Z</time>
      </trkpt>
      <trkpt lat="45.65009" lon="4.66008">
        <ele>532.9</ele>
        <time>2018-10-14T09:40:09Z</time>
      </trkpt>
      <trkpt lat="45.65002" lon="4.66027">
        <ele>533.8</ele>
        <time>2018-10-14T09:40:15Z</time>
      </trkpt>
      <trkpt lat="45.64992" lon="4.66046">
        <ele>534.5</ele>
        <time>2018-10-14T09:40:20Z</time>
      </trkpt>
      <trkpt lat="45.64986" lon="4.66054">
        <ele>534.6</ele>
        <time>2018-10-14T09:40:22Z</time>
      </trkpt>
      <trkpt lat="45.64978" lon="4.66067">
        <ele>534.9</ele>
        <time>2018-10-14T09:40:25Z</time>
      </trkpt>
      <trkpt lat="45.64969" lon="4.66082">
        <ele>535.2</ele>
        <time>2018-10-14T09:40:29Z</time>
      </trkpt>
      <trkpt lat="45.64949" lon="4.66108">
        <ele>535.6</ele>
        <time>2018-10-14T09:40:35Z</time>
      </trkpt>
      <trkpt lat="45.64922" lon="4.66144">
        <ele>535.5</ele>
        <time>2018-10-14T09:40:42Z</time>
      </trkpt>
      <trkpt lat="45.64907" lon="4.6617">
        <ele>534.9</ele>
        <time>2018-10-14T09:40:48Z</time>
      </trkpt>
      <trkpt lat="45.649" lon="4.66189">
        <ele>534.2</ele>
        <time>2018-10-14T09:40:52Z</time>
      </trkpt>
      <trkpt lat="45.64903" lon="4.66196">
        <ele>533.9</ele>
        <time>2018-10-14T09:40:53Z</time>
      </trkpt>
      <trkpt lat="45.6491" lon="4.66206">
        <ele>532.8</ele>
        <time>2018-10-14T09:40:55Z</time>
      </trkpt>
      <trkpt lat="45.64914" lon="4.6621">
        <ele>532.6</ele>
        <time>2018-10-14T09:40:56Z</time>
      </trkpt>
      <trkpt lat="45.64919" lon="4.66215">
        <ele>532.4</ele>
        <time>2018-10-14T09:40:57Z</time>
      </trkpt>
      <trkpt lat="45.64941" lon="4.66233">
        <ele>531.5</ele>
        <time>2018-10-14T09:41:01Z</time>
      </trkpt>
      <trkpt lat="45.64947" lon="4.66237">
        <ele>531.2</ele>
        <time>2018-10-14T09:41:02Z</time>
      </trkpt>
      <trkpt lat="45.64953" lon="4.6624">
        <ele>530.8</ele>
        <time>2018-10-14T09:41:03Z</time>
      </trkpt>
      <trkpt lat="45.64981" lon="4.66256">
        <ele>529.1</ele>
        <time>2018-10-14T09:41:08Z</time>
      </trkpt>
      <trkpt lat="45.64987" lon="4.66259">
        <ele>528.7</ele>
        <time>2018-10-14T09:41:09Z</time>
      </trkpt>
      <trkpt lat="45.65005" lon="4.66269">
        <ele>526.9</ele>
        <time>2018-10-14T09:41:12Z</time>
      </trkpt>
      <trkpt lat="45.65017" lon="4.66275">
        <ele>525.9</ele>
        <time>2018-10-14T09:41:14Z</time>
      </trkpt>
      <trkpt lat="45.65022" lon="4.66277">
        <ele>525.5</ele>
        <time>2018-10-14T09:41:15Z</time>
      </trkpt>
      <trkpt lat="45.65026" lon="4.66277">
        <ele>525.3</ele>
        <time>2018-10-14T09:41:16Z</time>
      </trkpt>
      <trkpt lat="45.65028" lon="4.66276">
        <ele>525.2</ele>
        <time>2018-10-14T09:41:17Z</time>
      </trkpt>
      <trkpt lat="45.65032" lon="4.6627">
        <ele>524.9</ele>
        <time>2018-10-14T09:41:19Z</time>
      </trkpt>
      <trkpt lat="45.65034" lon="4.66267">
        <ele>524.8</ele>
        <time>2018-10-14T09:41:20Z</time>
      </trkpt>
      <trkpt lat="45.65037" lon="4.66263">
        <ele>524.6</ele>
        <time>2018-10-14T09:41:21Z</time>
      </trkpt>
      <trkpt lat="45.65045" lon="4.66251">
        <ele>524.2</ele>
        <time>2018-10-14T09:41:23Z</time>
      </trkpt>
      <trkpt lat="45.65054" lon="4.66239">
        <ele>523.8</ele>
        <time>2018-10-14T09:41:25Z</time>
      </trkpt>
      <trkpt lat="45.65063" lon="4.66227">
        <ele>523.4</ele>
        <time>2018-10-14T09:41:27Z</time>
      </trkpt>
      <trkpt lat="45.65081" lon="4.6621">
        <ele>522.8</ele>
        <time>2018-10-14T09:41:30Z</time>
      </trkpt>
      <trkpt lat="45.651" lon="4.66195">
        <ele>522.3</ele>
        <time>2018-10-14T09:41:33Z</time>
      </trkpt>
      <trkpt lat="45.65111" lon="4.66187">
        <ele>521.9</ele>
        <time>2018-10-14T09:41:35Z</time>
      </trkpt>
      <trkpt lat="45.65116" lon="4.66182">
        <ele>521.8</ele>
        <time>2018-10-14T09:41:36Z</time>
      </trkpt>
      <trkpt lat="45.65126" lon="4.66177">
        <ele>521.7</ele>
        <time>2018-10-14T09:41:38Z</time>
      </trkpt>
      <trkpt lat="45.65138" lon="4.66176">
        <ele>521.5</ele>
        <time>2018-10-14T09:41:40Z</time>
      </trkpt>
      <trkpt lat="45.65145" lon="4.66176">
        <ele>521.2</ele>
        <time>2018-10-14T09:41:41Z</time>
      </trkpt>
      <trkpt lat="45.65159" lon="4.66175">
        <ele>520.1</ele>
        <time>2018-10-14T09:41:43Z</time>
      </trkpt>
      <trkpt lat="45.65166" lon="4.66175">
        <ele>519.2</ele>
        <time>2018-10-14T09:41:44Z</time>
      </trkpt>
      <trkpt lat="45.65191" lon="4.66179">
        <ele>515.6</ele>
        <time>2018-10-14T09:41:48Z</time>
      </trkpt>
      <trkpt lat="45.65197" lon="4.66184">
        <ele>514.8</ele>
        <time>2018-10-14T09:41:49Z</time>
      </trkpt>
      <trkpt lat="45.65211" lon="4.66189">
        <ele>513.4</ele>
        <time>2018-10-14T09:41:51Z</time>
      </trkpt>
      <trkpt lat="45.65225" lon="4.66192">
        <ele>511.7</ele>
        <time>2018-10-14T09:41:53Z</time>
      </trkpt>
      <trkpt lat="45.65231" lon="4.66191">
        <ele>510.9</ele>
        <time>2018-10-14T09:41:54Z</time>
      </trkpt>
      <trkpt lat="45.65237" lon="4.66191">
        <ele>510</ele>
        <time>2018-10-14T09:41:55Z</time>
      </trkpt>
      <trkpt lat="45.6525" lon="4.66189">
        <ele>508.3</ele>
        <time>2018-10-14T09:41:57Z</time>
      </trkpt>
      <trkpt lat="45.65263" lon="4.66187">
        <ele>506.7</ele>
        <time>2018-10-14T09:41:59Z</time>
      </trkpt>
      <trkpt lat="45.6528" lon="4.66176">
        <ele>504.2</ele>
        <time>2018-10-14T09:42:02Z</time>
      </trkpt>
      <trkpt lat="45.65285" lon="4.66174">
        <ele>503.5</ele>
        <time>2018-10-14T09:42:03Z</time>
      </trkpt>
      <trkpt lat="45.6529" lon="4.66171">
        <ele>502.8</ele>
        <time>2018-10-14T09:42:04Z</time>
      </trkpt>
      <trkpt lat="45.65305" lon="4.66163">
        <ele>500.6</ele>
        <time>2018-10-14T09:42:07Z</time>
      </trkpt>
      <trkpt lat="45.65319" lon="4.66159">
        <ele>498.2</ele>
        <time>2018-10-14T09:42:10Z</time>
      </trkpt>
      <trkpt lat="45.65329" lon="4.66159">
        <ele>496.6</ele>
        <time>2018-10-14T09:42:12Z</time>
      </trkpt>
      <trkpt lat="45.65333" lon="4.6616">
        <ele>495.8</ele>
        <time>2018-10-14T09:42:13Z</time>
      </trkpt>
      <trkpt lat="45.65341" lon="4.66162">
        <ele>494.2</ele>
        <time>2018-10-14T09:42:15Z</time>
      </trkpt>
      <trkpt lat="45.65346" lon="4.66164">
        <ele>493.3</ele>
        <time>2018-10-14T09:42:16Z</time>
      </trkpt>
      <trkpt lat="45.65354" lon="4.66172">
        <ele>491.5</ele>
        <time>2018-10-14T09:42:18Z</time>
      </trkpt>
      <trkpt lat="45.65363" lon="4.66184">
        <ele>489.6</ele>
        <time>2018-10-14T09:42:20Z</time>
      </trkpt>
      <trkpt lat="45.65371" lon="4.66195">
        <ele>487.8</ele>
        <time>2018-10-14T09:42:22Z</time>
      </trkpt>
      <trkpt lat="45.65375" lon="4.662">
        <ele>486.9</ele>
        <time>2018-10-14T09:42:23Z</time>
      </trkpt>
      <trkpt lat="45.65386" lon="4.6621">
        <ele>485.4</ele>
        <time>2018-10-14T09:42:25Z</time>
      </trkpt>
      <trkpt lat="45.65391" lon="4.66213">
        <ele>484.8</ele>
        <time>2018-10-14T09:42:26Z</time>
      </trkpt>
      <trkpt lat="45.65395" lon="4.66216">
        <ele>484.4</ele>
        <time>2018-10-14T09:42:27Z</time>
      </trkpt>
      <trkpt lat="45.65399" lon="4.66229">
        <ele>483.5</ele>
        <time>2018-10-14T09:42:29Z</time>
      </trkpt>
      <trkpt lat="45.65401" lon="4.66244">
        <ele>482.5</ele>
        <time>2018-10-14T09:42:31Z</time>
      </trkpt>
      <trkpt lat="45.65401" lon="4.66261">
        <ele>481.2</ele>
        <time>2018-10-14T09:42:33Z</time>
      </trkpt>
      <trkpt lat="45.65404" lon="4.6627">
        <ele>480.5</ele>
        <time>2018-10-14T09:42:34Z</time>
      </trkpt>
      <trkpt lat="45.65408" lon="4.66277">
        <ele>479.8</ele>
        <time>2018-10-14T09:42:35Z</time>
      </trkpt>
      <trkpt lat="45.65412" lon="4.66284">
        <ele>478.9</ele>
        <time>2018-10-14T09:42:36Z</time>
      </trkpt>
      <trkpt lat="45.65416" lon="4.66292">
        <ele>478.1</ele>
        <time>2018-10-14T09:42:37Z</time>
      </trkpt>
      <trkpt lat="45.65423" lon="4.66305">
        <ele>476.1</ele>
        <time>2018-10-14T09:42:39Z</time>
      </trkpt>
      <trkpt lat="45.65432" lon="4.66318">
        <ele>473.9</ele>
        <time>2018-10-14T09:42:41Z</time>
      </trkpt>
      <trkpt lat="45.65436" lon="4.66326">
        <ele>472.8</ele>
        <time>2018-10-14T09:42:42Z</time>
      </trkpt>
      <trkpt lat="45.65439" lon="4.66333">
        <ele>471.8</ele>
        <time>2018-10-14T09:42:43Z</time>
      </trkpt>
      <trkpt lat="45.65447" lon="4.66349">
        <ele>469.7</ele>
        <time>2018-10-14T09:42:45Z</time>
      </trkpt>
      <trkpt lat="45.65451" lon="4.6636">
        <ele>468.5</ele>
        <time>2018-10-14T09:42:46Z</time>
      </trkpt>
      <trkpt lat="45.65455" lon="4.66369">
        <ele>467.3</ele>
        <time>2018-10-14T09:42:47Z</time>
      </trkpt>
      <trkpt lat="45.65459" lon="4.66377">
        <ele>466.2</ele>
        <time>2018-10-14T09:42:48Z</time>
      </trkpt>
      <trkpt lat="45.65464" lon="4.66382">
        <ele>465.4</ele>
        <time>2018-10-14T09:42:49Z</time>
      </trkpt>
      <trkpt lat="45.65468" lon="4.6639">
        <ele>464.5</ele>
        <time>2018-10-14T09:42:50Z</time>
      </trkpt>
      <trkpt lat="45.65473" lon="4.66396">
        <ele>463.8</ele>
        <time>2018-10-14T09:42:51Z</time>
      </trkpt>
      <trkpt lat="45.65478" lon="4.66401">
        <ele>463</ele>
        <time>2018-10-14T09:42:52Z</time>
      </trkpt>
      <trkpt lat="45.65484" lon="4.66406">
        <ele>462.5</ele>
        <time>2018-10-14T09:42:53Z</time>
      </trkpt>
      <trkpt lat="45.65494" lon="4.66418">
        <ele>461.3</ele>
        <time>2018-10-14T09:42:55Z</time>
      </trkpt>
      <trkpt lat="45.65494" lon="4.66425">
        <ele>460.9</ele>
        <time>2018-10-14T09:42:56Z</time>
      </trkpt>
      <trkpt lat="45.65493" lon="4.66429">
        <ele>460.9</ele>
        <time>2018-10-14T09:42:57Z</time>
      </trkpt>
      <trkpt lat="45.65491" lon="4.66432">
        <ele>460.6</ele>
        <time>2018-10-14T09:42:58Z</time>
      </trkpt>
      <trkpt lat="45.65487" lon="4.66431">
        <ele>460.2</ele>
        <time>2018-10-14T09:42:59Z</time>
      </trkpt>
      <trkpt lat="45.65481" lon="4.66428">
        <ele>459.6</ele>
        <time>2018-10-14T09:43:01Z</time>
      </trkpt>
      <trkpt lat="45.65474" lon="4.66427">
        <ele>459</ele>
        <time>2018-10-14T09:43:03Z</time>
      </trkpt>
      <trkpt lat="45.6547" lon="4.66425">
        <ele>458.6</ele>
        <time>2018-10-14T09:43:04Z</time>
      </trkpt>
      <trkpt lat="45.65466" lon="4.66423">
        <ele>458.3</ele>
        <time>2018-10-14T09:43:05Z</time>
      </trkpt>
      <trkpt lat="45.65456" lon="4.66422">
        <ele>457.4</ele>
        <time>2018-10-14T09:43:07Z</time>
      </trkpt>
      <trkpt lat="45.65451" lon="4.66423">
        <ele>457</ele>
        <time>2018-10-14T09:43:08Z</time>
      </trkpt>
      <trkpt lat="45.65445" lon="4.66425">
        <ele>456.5</ele>
        <time>2018-10-14T09:43:09Z</time>
      </trkpt>
      <trkpt lat="45.65439" lon="4.66427">
        <ele>456</ele>
        <time>2018-10-14T09:43:10Z</time>
      </trkpt>
      <trkpt lat="45.65434" lon="4.66428">
        <ele>455.5</ele>
        <time>2018-10-14T09:43:11Z</time>
      </trkpt>
      <trkpt lat="45.6543" lon="4.66429">
        <ele>455.2</ele>
        <time>2018-10-14T09:43:12Z</time>
      </trkpt>
      <trkpt lat="45.65425" lon="4.66434">
        <ele>454.8</ele>
        <time>2018-10-14T09:43:13Z</time>
      </trkpt>
      <trkpt lat="45.65421" lon="4.6644">
        <ele>454.3</ele>
        <time>2018-10-14T09:43:14Z</time>
      </trkpt>
      <trkpt lat="45.65417" lon="4.66446">
        <ele>453.9</ele>
        <time>2018-10-14T09:43:15Z</time>
      </trkpt>
      <trkpt lat="45.65415" lon="4.66451">
        <ele>453.6</ele>
        <time>2018-10-14T09:43:16Z</time>
      </trkpt>
      <trkpt lat="45.6541" lon="4.66459">
        <ele>453.1</ele>
        <time>2018-10-14T09:43:18Z</time>
      </trkpt>
      <trkpt lat="45.65407" lon="4.66463">
        <ele>452.8</ele>
        <time>2018-10-14T09:43:19Z</time>
      </trkpt>
      <trkpt lat="45.65405" lon="4.66467">
        <ele>452.5</ele>
        <time>2018-10-14T09:43:20Z</time>
      </trkpt>
      <trkpt lat="45.654" lon="4.66476">
        <ele>452</ele>
        <time>2018-10-14T09:43:22Z</time>
      </trkpt>
      <trkpt lat="45.65395" lon="4.66485">
        <ele>451.5</ele>
        <time>2018-10-14T09:43:24Z</time>
      </trkpt>
      <trkpt lat="45.65389" lon="4.66496">
        <ele>451</ele>
        <time>2018-10-14T09:43:26Z</time>
      </trkpt>
      <trkpt lat="45.65386" lon="4.665">
        <ele>450.7</ele>
        <time>2018-10-14T09:43:27Z</time>
      </trkpt>
      <trkpt lat="45.6538" lon="4.66505">
        <ele>450.4</ele>
        <time>2018-10-14T09:43:30Z</time>
      </trkpt>
      <trkpt lat="45.65378" lon="4.66508">
        <ele>450.3</ele>
        <time>2018-10-14T09:43:31Z</time>
      </trkpt>
      <trkpt lat="45.65375" lon="4.66521">
        <ele>449.8</ele>
        <time>2018-10-14T09:43:35Z</time>
      </trkpt>
      <trkpt lat="45.65373" lon="4.66524">
        <ele>449.7</ele>
        <time>2018-10-14T09:43:36Z</time>
      </trkpt>
      <trkpt lat="45.65371" lon="4.66532">
        <ele>449.3</ele>
        <time>2018-10-14T09:43:38Z</time>
      </trkpt>
      <trkpt lat="45.65364" lon="4.66548">
        <ele>448.7</ele>
        <time>2018-10-14T09:43:42Z</time>
      </trkpt>
      <trkpt lat="45.65353" lon="4.66564">
        <ele>448.3</ele>
        <time>2018-10-14T09:43:45Z</time>
      </trkpt>
      <trkpt lat="45.65344" lon="4.66576">
        <ele>448</ele>
        <time>2018-10-14T09:43:47Z</time>
      </trkpt>
      <trkpt lat="45.65323" lon="4.66597">
        <ele>447.7</ele>
        <time>2018-10-14T09:43:51Z</time>
      </trkpt>
      <trkpt lat="45.65309" lon="4.66612">
        <ele>447.5</ele>
        <time>2018-10-14T09:43:54Z</time>
      </trkpt>
      <trkpt lat="45.65305" lon="4.66619">
        <ele>447.5</ele>
        <time>2018-10-14T09:43:55Z</time>
      </trkpt>
      <trkpt lat="45.65298" lon="4.66634">
        <ele>447.4</ele>
        <time>2018-10-14T09:43:57Z</time>
      </trkpt>
      <trkpt lat="45.65293" lon="4.66641">
        <ele>447.3</ele>
        <time>2018-10-14T09:43:58Z</time>
      </trkpt>
      <trkpt lat="45.65289" lon="4.66647">
        <ele>447.3</ele>
        <time>2018-10-14T09:43:59Z</time>
      </trkpt>
      <trkpt lat="45.65277" lon="4.66665">
        <ele>447.2</ele>
        <time>2018-10-14T09:44:02Z</time>
      </trkpt>
      <trkpt lat="45.65272" lon="4.6667">
        <ele>447.2</ele>
        <time>2018-10-14T09:44:03Z</time>
      </trkpt>
      <trkpt lat="45.65262" lon="4.66679">
        <ele>447.1</ele>
        <time>2018-10-14T09:44:05Z</time>
      </trkpt>
      <trkpt lat="45.65249" lon="4.66682">
        <ele>447.1</ele>
        <time>2018-10-14T09:44:08Z</time>
      </trkpt>
      <trkpt lat="45.65245" lon="4.66684">
        <ele>447.1</ele>
        <time>2018-10-14T09:44:09Z</time>
      </trkpt>
      <trkpt lat="45.65229" lon="4.66696">
        <ele>447</ele>
        <time>2018-10-14T09:44:12Z</time>
      </trkpt>
      <trkpt lat="45.65222" lon="4.667">
        <ele>446.9</ele>
        <time>2018-10-14T09:44:13Z</time>
      </trkpt>
      <trkpt lat="45.65207" lon="4.66707">
        <ele>446.8</ele>
        <time>2018-10-14T09:44:16Z</time>
      </trkpt>
      <trkpt lat="45.65202" lon="4.66708">
        <ele>446.8</ele>
        <time>2018-10-14T09:44:17Z</time>
      </trkpt>
      <trkpt lat="45.65186" lon="4.66705">
        <ele>446.6</ele>
        <time>2018-10-14T09:44:20Z</time>
      </trkpt>
      <trkpt lat="45.6518" lon="4.66703">
        <ele>446.5</ele>
        <time>2018-10-14T09:44:21Z</time>
      </trkpt>
      <trkpt lat="45.65175" lon="4.66699">
        <ele>446.5</ele>
        <time>2018-10-14T09:44:22Z</time>
      </trkpt>
      <trkpt lat="45.65168" lon="4.66701">
        <ele>446.4</ele>
        <time>2018-10-14T09:44:24Z</time>
      </trkpt>
      <trkpt lat="45.65164" lon="4.66713">
        <ele>446.3</ele>
        <time>2018-10-14T09:44:26Z</time>
      </trkpt>
      <trkpt lat="45.65164" lon="4.66718">
        <ele>446.3</ele>
        <time>2018-10-14T09:44:27Z</time>
      </trkpt>
      <trkpt lat="45.65163" lon="4.66744">
        <ele>446.1</ele>
        <time>2018-10-14T09:44:33Z</time>
      </trkpt>
      <trkpt lat="45.65168" lon="4.66764">
        <ele>446</ele>
        <time>2018-10-14T09:44:39Z</time>
      </trkpt>
      <trkpt lat="45.65174" lon="4.66778">
        <ele>445.9</ele>
        <time>2018-10-14T09:44:45Z</time>
      </trkpt>
      <trkpt lat="45.65176" lon="4.66782">
        <ele>446</ele>
        <time>2018-10-14T09:44:47Z</time>
      </trkpt>
      <trkpt lat="45.65179" lon="4.66785">
        <ele>446</ele>
        <time>2018-10-14T09:44:49Z</time>
      </trkpt>
      <trkpt lat="45.65187" lon="4.66799">
        <ele>446.3</ele>
        <time>2018-10-14T09:44:59Z</time>
      </trkpt>
      <trkpt lat="45.65187" lon="4.66802">
        <ele>446.3</ele>
        <time>2018-10-14T09:45:00Z</time>
      </trkpt>
      <trkpt lat="45.65193" lon="4.66838">
        <ele>447.4</ele>
        <time>2018-10-14T09:45:18Z</time>
      </trkpt>
      <trkpt lat="45.65194" lon="4.66843">
        <ele>447.7</ele>
        <time>2018-10-14T09:45:20Z</time>
      </trkpt>
      <trkpt lat="45.65189" lon="4.66876">
        <ele>449.1</ele>
        <time>2018-10-14T09:45:39Z</time>
      </trkpt>
      <trkpt lat="45.65188" lon="4.6688">
        <ele>449.4</ele>
        <time>2018-10-14T09:45:41Z</time>
      </trkpt>
      <trkpt lat="45.65184" lon="4.6689">
        <ele>449.9</ele>
        <time>2018-10-14T09:45:46Z</time>
      </trkpt>
      <trkpt lat="45.65184" lon="4.66893">
        <ele>450.1</ele>
        <time>2018-10-14T09:45:48Z</time>
      </trkpt>
      <trkpt lat="45.65182" lon="4.66899">
        <ele>450.4</ele>
        <time>2018-10-14T09:45:51Z</time>
      </trkpt>
      <trkpt lat="45.65179" lon="4.66911">
        <ele>451.2</ele>
        <time>2018-10-14T09:45:56Z</time>
      </trkpt>
      <trkpt lat="45.65176" lon="4.66921">
        <ele>451.9</ele>
        <time>2018-10-14T09:46:00Z</time>
      </trkpt>
      <trkpt lat="45.65171" lon="4.66929">
        <ele>452.5</ele>
        <time>2018-10-14T09:46:04Z</time>
      </trkpt>
      <trkpt lat="45.65167" lon="4.6694">
        <ele>453.2</ele>
        <time>2018-10-14T09:46:29Z</time>
      </trkpt>
      <trkpt lat="45.65166" lon="4.66944">
        <ele>453.5</ele>
        <time>2018-10-14T09:46:30Z</time>
      </trkpt>
      <trkpt lat="45.65158" lon="4.66954">
        <ele>454.1</ele>
        <time>2018-10-14T09:46:34Z</time>
      </trkpt>
      <trkpt lat="45.65154" lon="4.66959">
        <ele>454.4</ele>
        <time>2018-10-14T09:46:36Z</time>
      </trkpt>
      <trkpt lat="45.6514" lon="4.66977">
        <ele>455.7</ele>
        <time>2018-10-14T09:46:42Z</time>
      </trkpt>
      <trkpt lat="45.65116" lon="4.66995">
        <ele>457.7</ele>
        <time>2018-10-14T09:46:49Z</time>
      </trkpt>
      <trkpt lat="45.65107" lon="4.66998">
        <ele>458.2</ele>
        <time>2018-10-14T09:46:51Z</time>
      </trkpt>
      <trkpt lat="45.65093" lon="4.67001">
        <ele>458.9</ele>
        <time>2018-10-14T09:46:54Z</time>
      </trkpt>
      <trkpt lat="45.65088" lon="4.67003">
        <ele>459.2</ele>
        <time>2018-10-14T09:46:55Z</time>
      </trkpt>
      <trkpt lat="45.65076" lon="4.67012">
        <ele>460</ele>
        <time>2018-10-14T09:46:58Z</time>
      </trkpt>
      <trkpt lat="45.65067" lon="4.6702">
        <ele>460.7</ele>
        <time>2018-10-14T09:47:00Z</time>
      </trkpt>
      <trkpt lat="45.6505" lon="4.67044">
        <ele>462.2</ele>
        <time>2018-10-14T09:47:05Z</time>
      </trkpt>
      <trkpt lat="45.65035" lon="4.67065">
        <ele>463.4</ele>
        <time>2018-10-14T09:47:10Z</time>
      </trkpt>
      <trkpt lat="45.65029" lon="4.67072">
        <ele>463.9</ele>
        <time>2018-10-14T09:47:12Z</time>
      </trkpt>
      <trkpt lat="45.65025" lon="4.67076">
        <ele>464.2</ele>
        <time>2018-10-14T09:47:13Z</time>
      </trkpt>
      <trkpt lat="45.65012" lon="4.67089">
        <ele>465.2</ele>
        <time>2018-10-14T09:47:16Z</time>
      </trkpt>
      <trkpt lat="45.6498" lon="4.67117">
        <ele>466.5</ele>
        <time>2018-10-14T09:47:22Z</time>
      </trkpt>
      <trkpt lat="45.64952" lon="4.67134">
        <ele>467.6</ele>
        <time>2018-10-14T09:47:27Z</time>
      </trkpt>
      <trkpt lat="45.64911" lon="4.67151">
        <ele>469.1</ele>
        <time>2018-10-14T09:47:34Z</time>
      </trkpt>
      <trkpt lat="45.64888" lon="4.67164">
        <ele>469.9</ele>
        <time>2018-10-14T09:47:38Z</time>
      </trkpt>
      <trkpt lat="45.64883" lon="4.67167">
        <ele>470.2</ele>
        <time>2018-10-14T09:47:39Z</time>
      </trkpt>
      <trkpt lat="45.64879" lon="4.67171">
        <ele>470.5</ele>
        <time>2018-10-14T09:47:40Z</time>
      </trkpt>
      <trkpt lat="45.64872" lon="4.6719">
        <ele>471</ele>
        <time>2018-10-14T09:47:43Z</time>
      </trkpt>
      <trkpt lat="45.64869" lon="4.67203">
        <ele>471.4</ele>
        <time>2018-10-14T09:47:45Z</time>
      </trkpt>
      <trkpt lat="45.64863" lon="4.67219">
        <ele>471.9</ele>
        <time>2018-10-14T09:47:48Z</time>
      </trkpt>
      <trkpt lat="45.64859" lon="4.67234">
        <ele>472.4</ele>
        <time>2018-10-14T09:47:51Z</time>
      </trkpt>
      <trkpt lat="45.64855" lon="4.67248">
        <ele>473</ele>
        <time>2018-10-14T09:47:54Z</time>
      </trkpt>
      <trkpt lat="45.6485" lon="4.67262">
        <ele>473.5</ele>
        <time>2018-10-14T09:47:57Z</time>
      </trkpt>
      <trkpt lat="45.64839" lon="4.67288">
        <ele>474.6</ele>
        <time>2018-10-14T09:48:03Z</time>
      </trkpt>
      <trkpt lat="45.64829" lon="4.67314">
        <ele>475.7</ele>
        <time>2018-10-14T09:48:10Z</time>
      </trkpt>
      <trkpt lat="45.64826" lon="4.67327">
        <ele>475.8</ele>
        <time>2018-10-14T09:48:16Z</time>
      </trkpt>
      <trkpt lat="45.64825" lon="4.67346">
        <ele>475.1</ele>
        <time>2018-10-14T09:48:23Z</time>
      </trkpt>
      <trkpt lat="45.64829" lon="4.67361">
        <ele>474.5</ele>
        <time>2018-10-14T09:48:26Z</time>
      </trkpt>
      <trkpt lat="45.6483" lon="4.67367">
        <ele>474.3</ele>
        <time>2018-10-14T09:48:27Z</time>
      </trkpt>
      <trkpt lat="45.64832" lon="4.67373">
        <ele>474</ele>
        <time>2018-10-14T09:48:28Z</time>
      </trkpt>
      <trkpt lat="45.64838" lon="4.67395">
        <ele>473</ele>
        <time>2018-10-14T09:48:31Z</time>
      </trkpt>
      <trkpt lat="45.64841" lon="4.67402">
        <ele>472.7</ele>
        <time>2018-10-14T09:48:32Z</time>
      </trkpt>
      <trkpt lat="45.64849" lon="4.67422">
        <ele>471.8</ele>
        <time>2018-10-14T09:48:35Z</time>
      </trkpt>
      <trkpt lat="45.64852" lon="4.67426">
        <ele>471.5</ele>
        <time>2018-10-14T09:48:36Z</time>
      </trkpt>
      <trkpt lat="45.64861" lon="4.67429">
        <ele>471</ele>
        <time>2018-10-14T09:48:38Z</time>
      </trkpt>
      <trkpt lat="45.64866" lon="4.6743">
        <ele>470.7</ele>
        <time>2018-10-14T09:48:39Z</time>
      </trkpt>
      <trkpt lat="45.64878" lon="4.67433">
        <ele>470.1</ele>
        <time>2018-10-14T09:48:41Z</time>
      </trkpt>
      <trkpt lat="45.64898" lon="4.67438">
        <ele>468.9</ele>
        <time>2018-10-14T09:48:44Z</time>
      </trkpt>
      <trkpt lat="45.64919" lon="4.67443">
        <ele>467.6</ele>
        <time>2018-10-14T09:48:47Z</time>
      </trkpt>
      <trkpt lat="45.64933" lon="4.67451">
        <ele>466.7</ele>
        <time>2018-10-14T09:48:49Z</time>
      </trkpt>
      <trkpt lat="45.6494" lon="4.67456">
        <ele>466.1</ele>
        <time>2018-10-14T09:48:50Z</time>
      </trkpt>
      <trkpt lat="45.64946" lon="4.67462">
        <ele>465.5</ele>
        <time>2018-10-14T09:48:51Z</time>
      </trkpt>
      <trkpt lat="45.64959" lon="4.67474">
        <ele>463.9</ele>
        <time>2018-10-14T09:48:53Z</time>
      </trkpt>
      <trkpt lat="45.64966" lon="4.67481">
        <ele>463.1</ele>
        <time>2018-10-14T09:48:54Z</time>
      </trkpt>
      <trkpt lat="45.64976" lon="4.67495">
        <ele>461.6</ele>
        <time>2018-10-14T09:48:56Z</time>
      </trkpt>
      <trkpt lat="45.64987" lon="4.67509">
        <ele>460.4</ele>
        <time>2018-10-14T09:48:58Z</time>
      </trkpt>
      <trkpt lat="45.64992" lon="4.67517">
        <ele>459.7</ele>
        <time>2018-10-14T09:48:59Z</time>
      </trkpt>
      <trkpt lat="45.64998" lon="4.67525">
        <ele>459.1</ele>
        <time>2018-10-14T09:49:00Z</time>
      </trkpt>
      <trkpt lat="45.6501" lon="4.67543">
        <ele>457.3</ele>
        <time>2018-10-14T09:49:02Z</time>
      </trkpt>
      <trkpt lat="45.65018" lon="4.67552">
        <ele>456.3</ele>
        <time>2018-10-14T09:49:03Z</time>
      </trkpt>
      <trkpt lat="45.65025" lon="4.67562">
        <ele>455.2</ele>
        <time>2018-10-14T09:49:04Z</time>
      </trkpt>
      <trkpt lat="45.65042" lon="4.67582">
        <ele>452.8</ele>
        <time>2018-10-14T09:49:06Z</time>
      </trkpt>
      <trkpt lat="45.6505" lon="4.6759">
        <ele>451.7</ele>
        <time>2018-10-14T09:49:07Z</time>
      </trkpt>
      <trkpt lat="45.65059" lon="4.67598">
        <ele>450.6</ele>
        <time>2018-10-14T09:49:08Z</time>
      </trkpt>
      <trkpt lat="45.65069" lon="4.67605">
        <ele>449.4</ele>
        <time>2018-10-14T09:49:09Z</time>
      </trkpt>
      <trkpt lat="45.65079" lon="4.67612">
        <ele>448.2</ele>
        <time>2018-10-14T09:49:10Z</time>
      </trkpt>
      <trkpt lat="45.65089" lon="4.67619">
        <ele>447.1</ele>
        <time>2018-10-14T09:49:11Z</time>
      </trkpt>
      <trkpt lat="45.651" lon="4.67626">
        <ele>445.5</ele>
        <time>2018-10-14T09:49:12Z</time>
      </trkpt>
      <trkpt lat="45.65111" lon="4.67633">
        <ele>444.2</ele>
        <time>2018-10-14T09:49:13Z</time>
      </trkpt>
      <trkpt lat="45.65121" lon="4.6764">
        <ele>442.8</ele>
        <time>2018-10-14T09:49:14Z</time>
      </trkpt>
      <trkpt lat="45.65132" lon="4.67648">
        <ele>441.3</ele>
        <time>2018-10-14T09:49:15Z</time>
      </trkpt>
      <trkpt lat="45.65144" lon="4.67656">
        <ele>439.7</ele>
        <time>2018-10-14T09:49:16Z</time>
      </trkpt>
      <trkpt lat="45.65155" lon="4.67664">
        <ele>438.1</ele>
        <time>2018-10-14T09:49:17Z</time>
      </trkpt>
      <trkpt lat="45.65166" lon="4.67671">
        <ele>436.6</ele>
        <time>2018-10-14T09:49:18Z</time>
      </trkpt>
      <trkpt lat="45.65177" lon="4.67678">
        <ele>435.1</ele>
        <time>2018-10-14T09:49:19Z</time>
      </trkpt>
      <trkpt lat="45.65188" lon="4.67685">
        <ele>433.7</ele>
        <time>2018-10-14T09:49:20Z</time>
      </trkpt>
      <trkpt lat="45.65198" lon="4.6769">
        <ele>432.3</ele>
        <time>2018-10-14T09:49:21Z</time>
      </trkpt>
      <trkpt lat="45.65208" lon="4.67695">
        <ele>431</ele>
        <time>2018-10-14T09:49:22Z</time>
      </trkpt>
      <trkpt lat="45.65218" lon="4.677">
        <ele>430.2</ele>
        <time>2018-10-14T09:49:23Z</time>
      </trkpt>
      <trkpt lat="45.65228" lon="4.67703">
        <ele>429.6</ele>
        <time>2018-10-14T09:49:24Z</time>
      </trkpt>
      <trkpt lat="45.65238" lon="4.67706">
        <ele>429.1</ele>
        <time>2018-10-14T09:49:25Z</time>
      </trkpt>
      <trkpt lat="45.65248" lon="4.6771">
        <ele>428.6</ele>
        <time>2018-10-14T09:49:26Z</time>
      </trkpt>
      <trkpt lat="45.65264" lon="4.67717">
        <ele>427.6</ele>
        <time>2018-10-14T09:49:28Z</time>
      </trkpt>
      <trkpt lat="45.65271" lon="4.67722">
        <ele>427.1</ele>
        <time>2018-10-14T09:49:29Z</time>
      </trkpt>
      <trkpt lat="45.65279" lon="4.67727">
        <ele>426.5</ele>
        <time>2018-10-14T09:49:30Z</time>
      </trkpt>
      <trkpt lat="45.65285" lon="4.67734">
        <ele>425.9</ele>
        <time>2018-10-14T09:49:31Z</time>
      </trkpt>
      <trkpt lat="45.65292" lon="4.67741">
        <ele>425.4</ele>
        <time>2018-10-14T09:49:32Z</time>
      </trkpt>
      <trkpt lat="45.65298" lon="4.67747">
        <ele>424.8</ele>
        <time>2018-10-14T09:49:33Z</time>
      </trkpt>
      <trkpt lat="45.6531" lon="4.6776">
        <ele>424</ele>
        <time>2018-10-14T09:49:35Z</time>
      </trkpt>
      <trkpt lat="45.6532" lon="4.67773">
        <ele>423.6</ele>
        <time>2018-10-14T09:49:37Z</time>
      </trkpt>
      <trkpt lat="45.65325" lon="4.67779">
        <ele>423.4</ele>
        <time>2018-10-14T09:49:38Z</time>
      </trkpt>
      <trkpt lat="45.6533" lon="4.67786">
        <ele>423.3</ele>
        <time>2018-10-14T09:49:39Z</time>
      </trkpt>
      <trkpt lat="45.65338" lon="4.67795">
        <ele>422.7</ele>
        <time>2018-10-14T09:49:41Z</time>
      </trkpt>
      <trkpt lat="45.65341" lon="4.67796">
        <ele>422.4</ele>
        <time>2018-10-14T09:49:42Z</time>
      </trkpt>
      <trkpt lat="45.65349" lon="4.67787">
        <ele>421.4</ele>
        <time>2018-10-14T09:49:45Z</time>
      </trkpt>
      <trkpt lat="45.65351" lon="4.67783">
        <ele>421.1</ele>
        <time>2018-10-14T09:49:46Z</time>
      </trkpt>
      <trkpt lat="45.65354" lon="4.67779">
        <ele>420.9</ele>
        <time>2018-10-14T09:49:47Z</time>
      </trkpt>
      <trkpt lat="45.65363" lon="4.67767">
        <ele>420.3</ele>
        <time>2018-10-14T09:49:51Z</time>
      </trkpt>
      <trkpt lat="45.65374" lon="4.67753">
        <ele>419.5</ele>
        <time>2018-10-14T09:49:56Z</time>
      </trkpt>
      <trkpt lat="45.65377" lon="4.67749">
        <ele>419.3</ele>
        <time>2018-10-14T09:49:57Z</time>
      </trkpt>
      <trkpt lat="45.65384" lon="4.67741">
        <ele>418.8</ele>
        <time>2018-10-14T09:49:59Z</time>
      </trkpt>
      <trkpt lat="45.65389" lon="4.67737">
        <ele>418.6</ele>
        <time>2018-10-14T09:50:00Z</time>
      </trkpt>
      <trkpt lat="45.65394" lon="4.67732">
        <ele>418.2</ele>
        <time>2018-10-14T09:50:01Z</time>
      </trkpt>
      <trkpt lat="45.65401" lon="4.67729">
        <ele>417.8</ele>
        <time>2018-10-14T09:50:02Z</time>
      </trkpt>
      <trkpt lat="45.65413" lon="4.67722">
        <ele>417.2</ele>
        <time>2018-10-14T09:50:04Z</time>
      </trkpt>
      <trkpt lat="45.65425" lon="4.67717">
        <ele>416.5</ele>
        <time>2018-10-14T09:50:06Z</time>
      </trkpt>
      <trkpt lat="45.65445" lon="4.67708">
        <ele>415.3</ele>
        <time>2018-10-14T09:50:09Z</time>
      </trkpt>
      <trkpt lat="45.65465" lon="4.677">
        <ele>414.1</ele>
        <time>2018-10-14T09:50:12Z</time>
      </trkpt>
      <trkpt lat="45.65474" lon="4.67692">
        <ele>413.4</ele>
        <time>2018-10-14T09:50:14Z</time>
      </trkpt>
      <trkpt lat="45.65479" lon="4.6769">
        <ele>413.2</ele>
        <time>2018-10-14T09:50:15Z</time>
      </trkpt>
      <trkpt lat="45.65493" lon="4.67684">
        <ele>412.5</ele>
        <time>2018-10-14T09:50:18Z</time>
      </trkpt>
      <trkpt lat="45.65509" lon="4.67679">
        <ele>411.6</ele>
        <time>2018-10-14T09:50:21Z</time>
      </trkpt>
      <trkpt lat="45.65522" lon="4.67675">
        <ele>410.9</ele>
        <time>2018-10-14T09:50:23Z</time>
      </trkpt>
      <trkpt lat="45.65528" lon="4.67673">
        <ele>410.5</ele>
        <time>2018-10-14T09:50:24Z</time>
      </trkpt>
      <trkpt lat="45.65541" lon="4.67669">
        <ele>409.7</ele>
        <time>2018-10-14T09:50:26Z</time>
      </trkpt>
      <trkpt lat="45.65548" lon="4.67668">
        <ele>409.4</ele>
        <time>2018-10-14T09:50:27Z</time>
      </trkpt>
      <trkpt lat="45.65555" lon="4.67667">
        <ele>409.1</ele>
        <time>2018-10-14T09:50:28Z</time>
      </trkpt>
      <trkpt lat="45.65568" lon="4.67663">
        <ele>408.5</ele>
        <time>2018-10-14T09:50:30Z</time>
      </trkpt>
      <trkpt lat="45.65588" lon="4.67657">
        <ele>407.8</ele>
        <time>2018-10-14T09:50:33Z</time>
      </trkpt>
      <trkpt lat="45.65601" lon="4.67652">
        <ele>407.4</ele>
        <time>2018-10-14T09:50:35Z</time>
      </trkpt>
      <trkpt lat="45.65608" lon="4.6765">
        <ele>407.2</ele>
        <time>2018-10-14T09:50:36Z</time>
      </trkpt>
      <trkpt lat="45.65621" lon="4.67648">
        <ele>406.8</ele>
        <time>2018-10-14T09:50:38Z</time>
      </trkpt>
      <trkpt lat="45.65627" lon="4.67647">
        <ele>406.6</ele>
        <time>2018-10-14T09:50:39Z</time>
      </trkpt>
      <trkpt lat="45.65634" lon="4.67645">
        <ele>406.5</ele>
        <time>2018-10-14T09:50:40Z</time>
      </trkpt>
      <trkpt lat="45.65647" lon="4.67641">
        <ele>406.4</ele>
        <time>2018-10-14T09:50:42Z</time>
      </trkpt>
      <trkpt lat="45.65659" lon="4.67637">
        <ele>406.4</ele>
        <time>2018-10-14T09:50:44Z</time>
      </trkpt>
      <trkpt lat="45.65673" lon="4.6763">
        <ele>406.3</ele>
        <time>2018-10-14T09:50:46Z</time>
      </trkpt>
      <trkpt lat="45.65679" lon="4.67627">
        <ele>406.2</ele>
        <time>2018-10-14T09:50:47Z</time>
      </trkpt>
      <trkpt lat="45.65685" lon="4.67626">
        <ele>406.1</ele>
        <time>2018-10-14T09:50:48Z</time>
      </trkpt>
      <trkpt lat="45.65695" lon="4.67626">
        <ele>405.9</ele>
        <time>2018-10-14T09:50:50Z</time>
      </trkpt>
      <trkpt lat="45.657" lon="4.67626">
        <ele>405.8</ele>
        <time>2018-10-14T09:50:51Z</time>
      </trkpt>
      <trkpt lat="45.65705" lon="4.67626">
        <ele>405.7</ele>
        <time>2018-10-14T09:50:52Z</time>
      </trkpt>
      <trkpt lat="45.6571" lon="4.67624">
        <ele>405.5</ele>
        <time>2018-10-14T09:50:53Z</time>
      </trkpt>
      <trkpt lat="45.65716" lon="4.67622">
        <ele>405.4</ele>
        <time>2018-10-14T09:50:54Z</time>
      </trkpt>
      <trkpt lat="45.65721" lon="4.67622">
        <ele>405.4</ele>
        <time>2018-10-14T09:50:55Z</time>
      </trkpt>
      <trkpt lat="45.6573" lon="4.67623">
        <ele>405.1</ele>
        <time>2018-10-14T09:50:57Z</time>
      </trkpt>
      <trkpt lat="45.65738" lon="4.67622">
        <ele>404.8</ele>
        <time>2018-10-14T09:50:59Z</time>
      </trkpt>
      <trkpt lat="45.65744" lon="4.67618">
        <ele>404.5</ele>
        <time>2018-10-14T09:51:01Z</time>
      </trkpt>
      <trkpt lat="45.6575" lon="4.67615">
        <ele>404.1</ele>
        <time>2018-10-14T09:51:03Z</time>
      </trkpt>
      <trkpt lat="45.65755" lon="4.6762">
        <ele>403.7</ele>
        <time>2018-10-14T09:51:05Z</time>
      </trkpt>
      <trkpt lat="45.65761" lon="4.67643">
        <ele>402.6</ele>
        <time>2018-10-14T09:51:09Z</time>
      </trkpt>
      <trkpt lat="45.65767" lon="4.67661">
        <ele>402</ele>
        <time>2018-10-14T09:51:13Z</time>
      </trkpt>
      <trkpt lat="45.65779" lon="4.67679">
        <ele>401.4</ele>
        <time>2018-10-14T09:51:19Z</time>
      </trkpt>
      <trkpt lat="45.65785" lon="4.67693">
        <ele>401.2</ele>
        <time>2018-10-14T09:51:22Z</time>
      </trkpt>
      <trkpt lat="45.65789" lon="4.67708">
        <ele>400.9</ele>
        <time>2018-10-14T09:51:25Z</time>
      </trkpt>
      <trkpt lat="45.65793" lon="4.67718">
        <ele>400.7</ele>
        <time>2018-10-14T09:51:27Z</time>
      </trkpt>
      <trkpt lat="45.65798" lon="4.67735">
        <ele>400.6</ele>
        <time>2018-10-14T09:51:30Z</time>
      </trkpt>
      <trkpt lat="45.65808" lon="4.67772">
        <ele>400.3</ele>
        <time>2018-10-14T09:51:36Z</time>
      </trkpt>
      <trkpt lat="45.65809" lon="4.67777">
        <ele>400.2</ele>
        <time>2018-10-14T09:51:37Z</time>
      </trkpt>
      <trkpt lat="45.65817" lon="4.67796">
        <ele>399.5</ele>
        <time>2018-10-14T09:51:41Z</time>
      </trkpt>
      <trkpt lat="45.6582" lon="4.67801">
        <ele>399.3</ele>
        <time>2018-10-14T09:51:42Z</time>
      </trkpt>
      <trkpt lat="45.65828" lon="4.67818">
        <ele>398.7</ele>
        <time>2018-10-14T09:51:45Z</time>
      </trkpt>
      <trkpt lat="45.65837" lon="4.67836">
        <ele>398.2</ele>
        <time>2018-10-14T09:51:48Z</time>
      </trkpt>
      <trkpt lat="45.65849" lon="4.6786">
        <ele>397.6</ele>
        <time>2018-10-14T09:51:52Z</time>
      </trkpt>
      <trkpt lat="45.65855" lon="4.67872">
        <ele>397.3</ele>
        <time>2018-10-14T09:51:54Z</time>
      </trkpt>
      <trkpt lat="45.65861" lon="4.67883">
        <ele>397</ele>
        <time>2018-10-14T09:51:56Z</time>
      </trkpt>
      <trkpt lat="45.65872" lon="4.67896">
        <ele>396.6</ele>
        <time>2018-10-14T09:51:59Z</time>
      </trkpt>
      <trkpt lat="45.65891" lon="4.67915">
        <ele>396.2</ele>
        <time>2018-10-14T09:52:05Z</time>
      </trkpt>
      <trkpt lat="45.65903" lon="4.67928">
        <ele>396</ele>
        <time>2018-10-14T09:52:10Z</time>
      </trkpt>
      <trkpt lat="45.65905" lon="4.67931">
        <ele>396</ele>
        <time>2018-10-14T09:52:11Z</time>
      </trkpt>
      <trkpt lat="45.65915" lon="4.6794">
        <ele>395.9</ele>
        <time>2018-10-14T09:52:16Z</time>
      </trkpt>
      <trkpt lat="45.65916" lon="4.67942">
        <ele>395.9</ele>
        <time>2018-10-14T09:52:17Z</time>
      </trkpt>
      <trkpt lat="45.65927" lon="4.67952">
        <ele>395.9</ele>
        <time>2018-10-14T09:52:24Z</time>
      </trkpt>
      <trkpt lat="45.65937" lon="4.67962">
        <ele>396</ele>
        <time>2018-10-14T09:52:31Z</time>
      </trkpt>
      <trkpt lat="45.65947" lon="4.6797">
        <ele>396.1</ele>
        <time>2018-10-14T09:52:37Z</time>
      </trkpt>
      <trkpt lat="45.65956" lon="4.67979">
        <ele>396.4</ele>
        <time>2018-10-14T09:52:44Z</time>
      </trkpt>
      <trkpt lat="45.65958" lon="4.6798">
        <ele>396.4</ele>
        <time>2018-10-14T09:52:45Z</time>
      </trkpt>
      <trkpt lat="45.6596" lon="4.67982">
        <ele>396.5</ele>
        <time>2018-10-14T09:52:47Z</time>
      </trkpt>
      <trkpt lat="45.65965" lon="4.67988">
        <ele>396.6</ele>
        <time>2018-10-14T09:52:51Z</time>
      </trkpt>
      <trkpt lat="45.65967" lon="4.67989">
        <ele>396.7</ele>
        <time>2018-10-14T09:52:52Z</time>
      </trkpt>
      <trkpt lat="45.6597" lon="4.67991">
        <ele>396.8</ele>
        <time>2018-10-14T09:52:54Z</time>
      </trkpt>
      <trkpt lat="45.65981" lon="4.67997">
        <ele>397</ele>
        <time>2018-10-14T09:53:00Z</time>
      </trkpt>
      <trkpt lat="45.65987" lon="4.68">
        <ele>397.1</ele>
        <time>2018-10-14T09:53:03Z</time>
      </trkpt>
      <trkpt lat="45.65993" lon="4.68005">
        <ele>397.3</ele>
        <time>2018-10-14T09:53:06Z</time>
      </trkpt>
      <trkpt lat="45.66007" lon="4.68014">
        <ele>397.8</ele>
        <time>2018-10-14T09:53:13Z</time>
      </trkpt>
      <trkpt lat="45.66013" lon="4.68017">
        <ele>398</ele>
        <time>2018-10-14T09:53:16Z</time>
      </trkpt>
      <trkpt lat="45.66018" lon="4.68023">
        <ele>398.2</ele>
        <time>2018-10-14T09:53:20Z</time>
      </trkpt>
      <trkpt lat="45.6602" lon="4.68025">
        <ele>398.4</ele>
        <time>2018-10-14T09:53:22Z</time>
      </trkpt>
      <trkpt lat="45.66027" lon="4.6803">
        <ele>398.7</ele>
        <time>2018-10-14T09:53:26Z</time>
      </trkpt>
      <trkpt lat="45.66029" lon="4.68031">
        <ele>398.7</ele>
        <time>2018-10-14T09:53:27Z</time>
      </trkpt>
      <trkpt lat="45.66037" lon="4.68038">
        <ele>399</ele>
        <time>2018-10-14T09:53:31Z</time>
      </trkpt>
      <trkpt lat="45.66042" lon="4.68042">
        <ele>399.2</ele>
        <time>2018-10-14T09:53:33Z</time>
      </trkpt>
      <trkpt lat="45.66046" lon="4.68045">
        <ele>399.4</ele>
        <time>2018-10-14T09:53:35Z</time>
      </trkpt>
      <trkpt lat="45.66054" lon="4.68053">
        <ele>399.9</ele>
        <time>2018-10-14T09:53:39Z</time>
      </trkpt>
      <trkpt lat="45.66056" lon="4.68055">
        <ele>400</ele>
        <time>2018-10-14T09:53:40Z</time>
      </trkpt>
      <trkpt lat="45.66062" lon="4.68059">
        <ele>400.2</ele>
        <time>2018-10-14T09:53:42Z</time>
      </trkpt>
      <trkpt lat="45.66071" lon="4.68067">
        <ele>400.7</ele>
        <time>2018-10-14T09:53:46Z</time>
      </trkpt>
      <trkpt lat="45.66073" lon="4.68069">
        <ele>400.8</ele>
        <time>2018-10-14T09:53:47Z</time>
      </trkpt>
      <trkpt lat="45.66077" lon="4.68072">
        <ele>401</ele>
        <time>2018-10-14T09:53:49Z</time>
      </trkpt>
      <trkpt lat="45.66082" lon="4.68076">
        <ele>401.4</ele>
        <time>2018-10-14T09:53:52Z</time>
      </trkpt>
      <trkpt lat="45.66087" lon="4.6808">
        <ele>401.8</ele>
        <time>2018-10-14T09:53:55Z</time>
      </trkpt>
      <trkpt lat="45.66089" lon="4.68082">
        <ele>401.9</ele>
        <time>2018-10-14T09:53:56Z</time>
      </trkpt>
      <trkpt lat="45.66096" lon="4.68088">
        <ele>402.3</ele>
        <time>2018-10-14T09:54:01Z</time>
      </trkpt>
      <trkpt lat="45.66101" lon="4.68092">
        <ele>402.6</ele>
        <time>2018-10-14T09:54:04Z</time>
      </trkpt>
      <trkpt lat="45.66106" lon="4.68096">
        <ele>402.9</ele>
        <time>2018-10-14T09:54:07Z</time>
      </trkpt>
      <trkpt lat="45.66109" lon="4.681">
        <ele>403.2</ele>
        <time>2018-10-14T09:54:10Z</time>
      </trkpt>
      <trkpt lat="45.66111" lon="4.68102">
        <ele>403.3</ele>
        <time>2018-10-14T09:54:11Z</time>
      </trkpt>
      <trkpt lat="45.66115" lon="4.68106">
        <ele>403.5</ele>
        <time>2018-10-14T09:54:14Z</time>
      </trkpt>
      <trkpt lat="45.6612" lon="4.68109">
        <ele>403.8</ele>
        <time>2018-10-14T09:54:17Z</time>
      </trkpt>
      <trkpt lat="45.66121" lon="4.68111">
        <ele>404</ele>
        <time>2018-10-14T09:54:18Z</time>
      </trkpt>
      <trkpt lat="45.66123" lon="4.68113">
        <ele>404.1</ele>
        <time>2018-10-14T09:54:19Z</time>
      </trkpt>
      <trkpt lat="45.6613" lon="4.68119">
        <ele>404.4</ele>
        <time>2018-10-14T09:54:23Z</time>
      </trkpt>
      <trkpt lat="45.66134" lon="4.68123">
        <ele>404.7</ele>
        <time>2018-10-14T09:54:25Z</time>
      </trkpt>
      <trkpt lat="45.6615" lon="4.68134">
        <ele>405.6</ele>
        <time>2018-10-14T09:54:29Z</time>
      </trkpt>
      <trkpt lat="45.66155" lon="4.68135">
        <ele>405.8</ele>
        <time>2018-10-14T09:54:30Z</time>
      </trkpt>
      <trkpt lat="45.66172" lon="4.68134">
        <ele>406.8</ele>
        <time>2018-10-14T09:54:34Z</time>
      </trkpt>
      <trkpt lat="45.662" lon="4.68127">
        <ele>408</ele>
        <time>2018-10-14T09:54:41Z</time>
      </trkpt>
      <trkpt lat="45.66208" lon="4.68123">
        <ele>408.4</ele>
        <time>2018-10-14T09:54:43Z</time>
      </trkpt>
      <trkpt lat="45.66231" lon="4.68111">
        <ele>409.8</ele>
        <time>2018-10-14T09:54:49Z</time>
      </trkpt>
      <trkpt lat="45.66239" lon="4.68107">
        <ele>410.1</ele>
        <time>2018-10-14T09:54:51Z</time>
      </trkpt>
      <trkpt lat="45.66252" lon="4.681">
        <ele>410.7</ele>
        <time>2018-10-14T09:54:54Z</time>
      </trkpt>
      <trkpt lat="45.66266" lon="4.6809">
        <ele>411.2</ele>
        <time>2018-10-14T09:54:57Z</time>
      </trkpt>
      <trkpt lat="45.6627" lon="4.68086">
        <ele>411.3</ele>
        <time>2018-10-14T09:54:58Z</time>
      </trkpt>
      <trkpt lat="45.66292" lon="4.68059">
        <ele>412.2</ele>
        <time>2018-10-14T09:55:04Z</time>
      </trkpt>
      <trkpt lat="45.66302" lon="4.68041">
        <ele>412.7</ele>
        <time>2018-10-14T09:55:08Z</time>
      </trkpt>
      <trkpt lat="45.66303" lon="4.6804">
        <ele>412.8</ele>
        <time>2018-10-14T09:55:09Z</time>
      </trkpt>
      <trkpt lat="45.66311" lon="4.68037">
        <ele>413.1</ele>
        <time>2018-10-14T09:55:12Z</time>
      </trkpt>
      <trkpt lat="45.66315" lon="4.68035">
        <ele>413.2</ele>
        <time>2018-10-14T09:55:13Z</time>
      </trkpt>
      <trkpt lat="45.66319" lon="4.68034">
        <ele>413.3</ele>
        <time>2018-10-14T09:55:14Z</time>
      </trkpt>
      <trkpt lat="45.66331" lon="4.68031">
        <ele>413.6</ele>
        <time>2018-10-14T09:55:17Z</time>
      </trkpt>
      <trkpt lat="45.6635" lon="4.68029">
        <ele>413.8</ele>
        <time>2018-10-14T09:55:23Z</time>
      </trkpt>
      <trkpt lat="45.66356" lon="4.68034">
        <ele>413.4</ele>
        <time>2018-10-14T09:56:46Z</time>
      </trkpt>
      <trkpt lat="45.66358" lon="4.68036">
        <ele>413.2</ele>
        <time>2018-10-14T09:56:47Z</time>
      </trkpt>
      <trkpt lat="45.66362" lon="4.68039">
        <ele>412.7</ele>
        <time>2018-10-14T09:56:48Z</time>
      </trkpt>
      <trkpt lat="45.66372" lon="4.68047">
        <ele>411.7</ele>
        <time>2018-10-14T09:56:50Z</time>
      </trkpt>
      <trkpt lat="45.664" lon="4.68076">
        <ele>409.2</ele>
        <time>2018-10-14T09:56:55Z</time>
      </trkpt>
      <trkpt lat="45.6644" lon="4.68123">
        <ele>407.8</ele>
        <time>2018-10-14T09:57:02Z</time>
      </trkpt>
      <trkpt lat="45.66463" lon="4.68167">
        <ele>406.8</ele>
        <time>2018-10-14T09:57:07Z</time>
      </trkpt>
      <trkpt lat="45.66468" lon="4.68176">
        <ele>406.5</ele>
        <time>2018-10-14T09:57:08Z</time>
      </trkpt>
      <trkpt lat="45.66491" lon="4.68207">
        <ele>405.6</ele>
        <time>2018-10-14T09:57:12Z</time>
      </trkpt>
      <trkpt lat="45.66497" lon="4.68213">
        <ele>405.4</ele>
        <time>2018-10-14T09:57:13Z</time>
      </trkpt>
      <trkpt lat="45.66528" lon="4.68235">
        <ele>404.4</ele>
        <time>2018-10-14T09:57:17Z</time>
      </trkpt>
      <trkpt lat="45.66536" lon="4.68241">
        <ele>404.1</ele>
        <time>2018-10-14T09:57:18Z</time>
      </trkpt>
      <trkpt lat="45.66561" lon="4.68257">
        <ele>403.1</ele>
        <time>2018-10-14T09:57:21Z</time>
      </trkpt>
      <trkpt lat="45.66589" lon="4.68274">
        <ele>401.7</ele>
        <time>2018-10-14T09:57:24Z</time>
      </trkpt>
      <trkpt lat="45.66608" lon="4.68289">
        <ele>400.2</ele>
        <time>2018-10-14T09:57:26Z</time>
      </trkpt>
      <trkpt lat="45.66629" lon="4.68304">
        <ele>398.3</ele>
        <time>2018-10-14T09:57:28Z</time>
      </trkpt>
      <trkpt lat="45.66653" lon="4.68316">
        <ele>396.2</ele>
        <time>2018-10-14T09:57:30Z</time>
      </trkpt>
      <trkpt lat="45.66677" lon="4.68327">
        <ele>394.8</ele>
        <time>2018-10-14T09:57:32Z</time>
      </trkpt>
      <trkpt lat="45.66698" lon="4.68337">
        <ele>393.7</ele>
        <time>2018-10-14T09:57:34Z</time>
      </trkpt>
      <trkpt lat="45.66719" lon="4.68345">
        <ele>392.6</ele>
        <time>2018-10-14T09:57:36Z</time>
      </trkpt>
      <trkpt lat="45.66741" lon="4.68353">
        <ele>391.1</ele>
        <time>2018-10-14T09:57:38Z</time>
      </trkpt>
      <trkpt lat="45.66752" lon="4.68358">
        <ele>390.1</ele>
        <time>2018-10-14T09:57:39Z</time>
      </trkpt>
      <trkpt lat="45.66764" lon="4.68364">
        <ele>389.2</ele>
        <time>2018-10-14T09:57:40Z</time>
      </trkpt>
      <trkpt lat="45.66775" lon="4.68371">
        <ele>388.1</ele>
        <time>2018-10-14T09:57:41Z</time>
      </trkpt>
      <trkpt lat="45.66787" lon="4.68379">
        <ele>387.1</ele>
        <time>2018-10-14T09:57:42Z</time>
      </trkpt>
      <trkpt lat="45.66811" lon="4.68393">
        <ele>385.4</ele>
        <time>2018-10-14T09:57:44Z</time>
      </trkpt>
      <trkpt lat="45.66823" lon="4.68398">
        <ele>384.8</ele>
        <time>2018-10-14T09:57:45Z</time>
      </trkpt>
      <trkpt lat="45.66836" lon="4.68402">
        <ele>384.2</ele>
        <time>2018-10-14T09:57:46Z</time>
      </trkpt>
      <trkpt lat="45.66859" lon="4.68406">
        <ele>383.4</ele>
        <time>2018-10-14T09:57:48Z</time>
      </trkpt>
      <trkpt lat="45.6687" lon="4.68407">
        <ele>383</ele>
        <time>2018-10-14T09:57:49Z</time>
      </trkpt>
      <trkpt lat="45.66881" lon="4.68408">
        <ele>382.6</ele>
        <time>2018-10-14T09:57:50Z</time>
      </trkpt>
      <trkpt lat="45.66904" lon="4.68414">
        <ele>381.6</ele>
        <time>2018-10-14T09:57:52Z</time>
      </trkpt>
      <trkpt lat="45.66914" lon="4.68418">
        <ele>381</ele>
        <time>2018-10-14T09:57:53Z</time>
      </trkpt>
      <trkpt lat="45.66923" lon="4.68422">
        <ele>380.6</ele>
        <time>2018-10-14T09:57:54Z</time>
      </trkpt>
      <trkpt lat="45.6694" lon="4.68426">
        <ele>379.7</ele>
        <time>2018-10-14T09:57:56Z</time>
      </trkpt>
      <trkpt lat="45.66954" lon="4.6842">
        <ele>379.6</ele>
        <time>2018-10-14T09:57:58Z</time>
      </trkpt>
      <trkpt lat="45.6696" lon="4.68415">
        <ele>379.6</ele>
        <time>2018-10-14T09:57:59Z</time>
      </trkpt>
      <trkpt lat="45.66966" lon="4.6841">
        <ele>379.6</ele>
        <time>2018-10-14T09:58:00Z</time>
      </trkpt>
      <trkpt lat="45.66973" lon="4.68405">
        <ele>379.6</ele>
        <time>2018-10-14T09:58:01Z</time>
      </trkpt>
      <trkpt lat="45.66994" lon="4.68398">
        <ele>379.8</ele>
        <time>2018-10-14T09:58:04Z</time>
      </trkpt>
      <trkpt lat="45.67008" lon="4.68396">
        <ele>380.1</ele>
        <time>2018-10-14T09:58:06Z</time>
      </trkpt>
      <trkpt lat="45.67022" lon="4.68395">
        <ele>380.3</ele>
        <time>2018-10-14T09:58:08Z</time>
      </trkpt>
      <trkpt lat="45.67028" lon="4.68393">
        <ele>380.3</ele>
        <time>2018-10-14T09:58:09Z</time>
      </trkpt>
      <trkpt lat="45.67048" lon="4.68379">
        <ele>380.6</ele>
        <time>2018-10-14T09:58:13Z</time>
      </trkpt>
      <trkpt lat="45.67071" lon="4.68357">
        <ele>381.3</ele>
        <time>2018-10-14T09:58:19Z</time>
      </trkpt>
      <trkpt lat="45.67078" lon="4.68352">
        <ele>381.6</ele>
        <time>2018-10-14T09:58:21Z</time>
      </trkpt>
      <trkpt lat="45.67081" lon="4.68354">
        <ele>381.4</ele>
        <time>2018-10-14T09:58:22Z</time>
      </trkpt>
      <trkpt lat="45.67088" lon="4.68363">
        <ele>381.2</ele>
        <time>2018-10-14T09:58:24Z</time>
      </trkpt>
      <trkpt lat="45.67091" lon="4.68368">
        <ele>381.1</ele>
        <time>2018-10-14T09:58:25Z</time>
      </trkpt>
      <trkpt lat="45.67095" lon="4.68373">
        <ele>380.9</ele>
        <time>2018-10-14T09:58:26Z</time>
      </trkpt>
      <trkpt lat="45.67109" lon="4.68394">
        <ele>380.1</ele>
        <time>2018-10-14T09:58:30Z</time>
      </trkpt>
      <trkpt lat="45.67118" lon="4.68403">
        <ele>379.8</ele>
        <time>2018-10-14T09:58:32Z</time>
      </trkpt>
      <trkpt lat="45.67128" lon="4.68409">
        <ele>379.5</ele>
        <time>2018-10-14T09:58:34Z</time>
      </trkpt>
      <trkpt lat="45.67154" lon="4.68428">
        <ele>379.2</ele>
        <time>2018-10-14T09:58:39Z</time>
      </trkpt>
      <trkpt lat="45.67175" lon="4.68445">
        <ele>378.9</ele>
        <time>2018-10-14T09:58:43Z</time>
      </trkpt>
      <trkpt lat="45.67191" lon="4.68454">
        <ele>378.5</ele>
        <time>2018-10-14T09:58:46Z</time>
      </trkpt>
      <trkpt lat="45.67221" lon="4.68477">
        <ele>377.3</ele>
        <time>2018-10-14T09:58:52Z</time>
      </trkpt>
      <trkpt lat="45.67236" lon="4.68493">
        <ele>376.9</ele>
        <time>2018-10-14T09:58:56Z</time>
      </trkpt>
      <trkpt lat="45.67253" lon="4.68515">
        <ele>376.8</ele>
        <time>2018-10-14T09:59:01Z</time>
      </trkpt>
      <trkpt lat="45.67257" lon="4.68519">
        <ele>376.7</ele>
        <time>2018-10-14T09:59:02Z</time>
      </trkpt>
      <trkpt lat="45.67262" lon="4.68522">
        <ele>376.7</ele>
        <time>2018-10-14T09:59:03Z</time>
      </trkpt>
      <trkpt lat="45.67272" lon="4.68527">
        <ele>376.7</ele>
        <time>2018-10-14T09:59:05Z</time>
      </trkpt>
      <trkpt lat="45.67288" lon="4.68533">
        <ele>376.5</ele>
        <time>2018-10-14T09:59:08Z</time>
      </trkpt>
      <trkpt lat="45.67305" lon="4.68543">
        <ele>376.3</ele>
        <time>2018-10-14T09:59:11Z</time>
      </trkpt>
      <trkpt lat="45.67315" lon="4.68554">
        <ele>376</ele>
        <time>2018-10-14T09:59:13Z</time>
      </trkpt>
      <trkpt lat="45.67322" lon="4.68569">
        <ele>375.7</ele>
        <time>2018-10-14T09:59:15Z</time>
      </trkpt>
      <trkpt lat="45.67326" lon="4.68577">
        <ele>375.4</ele>
        <time>2018-10-14T09:59:16Z</time>
      </trkpt>
      <trkpt lat="45.67334" lon="4.686">
        <ele>374.6</ele>
        <time>2018-10-14T09:59:19Z</time>
      </trkpt>
      <trkpt lat="45.67343" lon="4.68621">
        <ele>373.8</ele>
        <time>2018-10-14T09:59:22Z</time>
      </trkpt>
      <trkpt lat="45.67363" lon="4.68674">
        <ele>372.6</ele>
        <time>2018-10-14T09:59:30Z</time>
      </trkpt>
      <trkpt lat="45.67388" lon="4.68736">
        <ele>372.1</ele>
        <time>2018-10-14T09:59:40Z</time>
      </trkpt>
      <trkpt lat="45.6741" lon="4.68789">
        <ele>372.7</ele>
        <time>2018-10-14T09:59:49Z</time>
      </trkpt>
      <trkpt lat="45.67414" lon="4.68799">
        <ele>372.8</ele>
        <time>2018-10-14T09:59:51Z</time>
      </trkpt>
      <trkpt lat="45.67418" lon="4.68814">
        <ele>373.1</ele>
        <time>2018-10-14T09:59:54Z</time>
      </trkpt>
      <trkpt lat="45.67425" lon="4.68838">
        <ele>373.6</ele>
        <time>2018-10-14T09:59:59Z</time>
      </trkpt>
      <trkpt lat="45.67429" lon="4.68878">
        <ele>375.6</ele>
        <time>2018-10-14T10:00:06Z</time>
      </trkpt>
      <trkpt lat="45.67429" lon="4.68885">
        <ele>375.9</ele>
        <time>2018-10-14T10:00:07Z</time>
      </trkpt>
      <trkpt lat="45.67431" lon="4.68903">
        <ele>376.6</ele>
        <time>2018-10-14T10:00:10Z</time>
      </trkpt>
      <trkpt lat="45.67433" lon="4.68914">
        <ele>376.9</ele>
        <time>2018-10-14T10:00:12Z</time>
      </trkpt>
      <trkpt lat="45.67438" lon="4.68936">
        <ele>377.4</ele>
        <time>2018-10-14T10:00:16Z</time>
      </trkpt>
      <trkpt lat="45.67446" lon="4.68965">
        <ele>377.9</ele>
        <time>2018-10-14T10:00:21Z</time>
      </trkpt>
      <trkpt lat="45.67455" lon="4.69001">
        <ele>377.9</ele>
        <time>2018-10-14T10:00:28Z</time>
      </trkpt>
      <trkpt lat="45.67463" lon="4.69019">
        <ele>377.8</ele>
        <time>2018-10-14T10:00:33Z</time>
      </trkpt>
      <trkpt lat="45.67479" lon="4.69044">
        <ele>377.7</ele>
        <time>2018-10-14T10:00:39Z</time>
      </trkpt>
      <trkpt lat="45.67508" lon="4.69073">
        <ele>377.7</ele>
        <time>2018-10-14T10:00:46Z</time>
      </trkpt>
      <trkpt lat="45.67548" lon="4.69111">
        <ele>376.8</ele>
        <time>2018-10-14T10:00:54Z</time>
      </trkpt>
      <trkpt lat="45.67586" lon="4.69145">
        <ele>374.8</ele>
        <time>2018-10-14T10:01:00Z</time>
      </trkpt>
      <trkpt lat="45.6761" lon="4.6916">
        <ele>373.3</ele>
        <time>2018-10-14T10:01:03Z</time>
      </trkpt>
      <trkpt lat="45.67635" lon="4.69174">
        <ele>372</ele>
        <time>2018-10-14T10:01:06Z</time>
      </trkpt>
      <trkpt lat="45.67652" lon="4.69183">
        <ele>371.2</ele>
        <time>2018-10-14T10:01:08Z</time>
      </trkpt>
      <trkpt lat="45.67677" lon="4.69198">
        <ele>369.9</ele>
        <time>2018-10-14T10:01:11Z</time>
      </trkpt>
      <trkpt lat="45.67684" lon="4.69205">
        <ele>369.5</ele>
        <time>2018-10-14T10:01:12Z</time>
      </trkpt>
      <trkpt lat="45.67699" lon="4.69221">
        <ele>368.5</ele>
        <time>2018-10-14T10:01:14Z</time>
      </trkpt>
      <trkpt lat="45.6772" lon="4.69249">
        <ele>367.3</ele>
        <time>2018-10-14T10:01:17Z</time>
      </trkpt>
      <trkpt lat="45.67737" lon="4.69278">
        <ele>366.9</ele>
        <time>2018-10-14T10:01:20Z</time>
      </trkpt>
      <trkpt lat="45.67741" lon="4.69288">
        <ele>366.8</ele>
        <time>2018-10-14T10:01:21Z</time>
      </trkpt>
      <trkpt lat="45.67746" lon="4.69316">
        <ele>367</ele>
        <time>2018-10-14T10:01:24Z</time>
      </trkpt>
      <trkpt lat="45.67749" lon="4.69324">
        <ele>367</ele>
        <time>2018-10-14T10:01:25Z</time>
      </trkpt>
      <trkpt lat="45.67764" lon="4.69344">
        <ele>366.9</ele>
        <time>2018-10-14T10:01:28Z</time>
      </trkpt>
      <trkpt lat="45.67768" lon="4.69352">
        <ele>366.9</ele>
        <time>2018-10-14T10:01:29Z</time>
      </trkpt>
      <trkpt lat="45.67775" lon="4.69369">
        <ele>367</ele>
        <time>2018-10-14T10:01:31Z</time>
      </trkpt>
      <trkpt lat="45.67778" lon="4.69379">
        <ele>367.1</ele>
        <time>2018-10-14T10:01:32Z</time>
      </trkpt>
      <trkpt lat="45.67783" lon="4.69418">
        <ele>367</ele>
        <time>2018-10-14T10:01:36Z</time>
      </trkpt>
      <trkpt lat="45.67784" lon="4.69482">
        <ele>366.9</ele>
        <time>2018-10-14T10:01:43Z</time>
      </trkpt>
      <trkpt lat="45.67785" lon="4.69491">
        <ele>366.8</ele>
        <time>2018-10-14T10:01:44Z</time>
      </trkpt>
      <trkpt lat="45.67793" lon="4.69541">
        <ele>365.7</ele>
        <time>2018-10-14T10:01:49Z</time>
      </trkpt>
      <trkpt lat="45.67814" lon="4.69617">
        <ele>364.4</ele>
        <time>2018-10-14T10:01:56Z</time>
      </trkpt>
      <trkpt lat="45.67818" lon="4.69628">
        <ele>364.1</ele>
        <time>2018-10-14T10:01:57Z</time>
      </trkpt>
      <trkpt lat="45.67823" lon="4.6965">
        <ele>363.9</ele>
        <time>2018-10-14T10:01:59Z</time>
      </trkpt>
      <trkpt lat="45.67832" lon="4.69685">
        <ele>363.8</ele>
        <time>2018-10-14T10:02:02Z</time>
      </trkpt>
      <trkpt lat="45.67834" lon="4.69697">
        <ele>363.7</ele>
        <time>2018-10-14T10:02:03Z</time>
      </trkpt>
      <trkpt lat="45.67835" lon="4.69708">
        <ele>363.7</ele>
        <time>2018-10-14T10:02:04Z</time>
      </trkpt>
      <trkpt lat="45.67837" lon="4.69732">
        <ele>363.4</ele>
        <time>2018-10-14T10:02:06Z</time>
      </trkpt>
      <trkpt lat="45.67837" lon="4.69757">
        <ele>362.6</ele>
        <time>2018-10-14T10:02:08Z</time>
      </trkpt>
      <trkpt lat="45.67837" lon="4.6977">
        <ele>362.1</ele>
        <time>2018-10-14T10:02:09Z</time>
      </trkpt>
      <trkpt lat="45.67837" lon="4.69782">
        <ele>361.3</ele>
        <time>2018-10-14T10:02:10Z</time>
      </trkpt>
      <trkpt lat="45.67838" lon="4.69807">
        <ele>360.3</ele>
        <time>2018-10-14T10:02:12Z</time>
      </trkpt>
      <trkpt lat="45.67838" lon="4.69832">
        <ele>359.2</ele>
        <time>2018-10-14T10:02:14Z</time>
      </trkpt>
      <trkpt lat="45.67837" lon="4.69857">
        <ele>358.3</ele>
        <time>2018-10-14T10:02:16Z</time>
      </trkpt>
      <trkpt lat="45.67838" lon="4.6987">
        <ele>357.8</ele>
        <time>2018-10-14T10:02:17Z</time>
      </trkpt>
      <trkpt lat="45.67838" lon="4.69883">
        <ele>357.3</ele>
        <time>2018-10-14T10:02:18Z</time>
      </trkpt>
      <trkpt lat="45.67841" lon="4.69908">
        <ele>356.6</ele>
        <time>2018-10-14T10:02:20Z</time>
      </trkpt>
      <trkpt lat="45.67845" lon="4.69932">
        <ele>355.9</ele>
        <time>2018-10-14T10:02:22Z</time>
      </trkpt>
      <trkpt lat="45.67848" lon="4.69944">
        <ele>355.5</ele>
        <time>2018-10-14T10:02:23Z</time>
      </trkpt>
      <trkpt lat="45.67858" lon="4.6998">
        <ele>354.4</ele>
        <time>2018-10-14T10:02:26Z</time>
      </trkpt>
      <trkpt lat="45.67864" lon="4.70005">
        <ele>353.5</ele>
        <time>2018-10-14T10:02:28Z</time>
      </trkpt>
      <trkpt lat="45.67865" lon="4.70017">
        <ele>353.1</ele>
        <time>2018-10-14T10:02:29Z</time>
      </trkpt>
      <trkpt lat="45.67867" lon="4.70041">
        <ele>352.1</ele>
        <time>2018-10-14T10:02:31Z</time>
      </trkpt>
      <trkpt lat="45.6787" lon="4.70066">
        <ele>351.2</ele>
        <time>2018-10-14T10:02:33Z</time>
      </trkpt>
      <trkpt lat="45.67872" lon="4.70091">
        <ele>350.3</ele>
        <time>2018-10-14T10:02:35Z</time>
      </trkpt>
      <trkpt lat="45.67874" lon="4.70112">
        <ele>349.4</ele>
        <time>2018-10-14T10:02:37Z</time>
      </trkpt>
      <trkpt lat="45.67876" lon="4.70121">
        <ele>349</ele>
        <time>2018-10-14T10:02:38Z</time>
      </trkpt>
      <trkpt lat="45.67886" lon="4.7013">
        <ele>349.1</ele>
        <time>2018-10-14T10:02:40Z</time>
      </trkpt>
      <trkpt lat="45.67899" lon="4.70132">
        <ele>349.2</ele>
        <time>2018-10-14T10:02:43Z</time>
      </trkpt>
      <trkpt lat="45.67906" lon="4.7013">
        <ele>349.3</ele>
        <time>2018-10-14T10:02:47Z</time>
      </trkpt>
      <trkpt lat="45.67912" lon="4.70123">
        <ele>349.4</ele>
        <time>2018-10-14T10:02:51Z</time>
      </trkpt>
      <trkpt lat="45.67909" lon="4.70118">
        <ele>349.4</ele>
        <time>2018-10-14T10:02:55Z</time>
      </trkpt>
    </trkseg>
  </trk>
</gpx>